<?xml version="1.0" encoding="UTF-8" standalone="no" ?>
<gpx xmlns="http://www.topografix.com/GPX/1/1" xmlns:xsi="http://www.w3.org/2001/XMLSchema-instance" xsi:schemaLocation="http://www.topografix.com/GPX/1/1 http://www.topografix.com/GPX/1/1/gpx.xsd" version="1.1" creator="VisuGPX - https://www.visugpx.com">
  <metadata>
    <name>trail des palombières</name>
    <desc><![CDATA[nouveau parcours du trails des palombières
]]></desc>
  </metadata>
  <trk>
    <name><![CDATA[trail des palombières]]></name>
    <trkseg>
      <trkpt lat="44.87424" lon="0.24882">
        <ele>20</ele>
        <time>2013-04-25T08:13:44.000Z</time>
      </trkpt>
      <trkpt lat="44.8743" lon="0.24877">
        <ele>20</ele>
        <time>2013-04-25T08:13:47.000Z</time>
      </trkpt>
      <trkpt lat="44.87439" lon="0.2487">
        <ele>20</ele>
        <time>2013-04-25T08:13:50.000Z</time>
      </trkpt>
      <trkpt lat="44.87444" lon="0.24866">
        <ele>19.799999237061</ele>
        <time>2013-04-25T08:13:52.000Z</time>
      </trkpt>
      <trkpt lat="44.87453" lon="0.24856">
        <ele>19.799999237061</ele>
        <time>2013-04-25T08:13:56.000Z</time>
      </trkpt>
      <trkpt lat="44.87456" lon="0.24853">
        <ele>19.799999237061</ele>
        <time>2013-04-25T08:13:57.000Z</time>
      </trkpt>
      <trkpt lat="44.8747" lon="0.24844">
        <ele>19.799999237061</ele>
        <time>2013-04-25T08:14:02.000Z</time>
      </trkpt>
      <trkpt lat="44.87474" lon="0.24844">
        <ele>19.799999237061</ele>
        <time>2013-04-25T08:14:03.000Z</time>
      </trkpt>
      <trkpt lat="44.8749" lon="0.24852">
        <ele>20</ele>
        <time>2013-04-25T08:14:08.000Z</time>
      </trkpt>
      <trkpt lat="44.87507" lon="0.2486">
        <ele>20.200000762939</ele>
        <time>2013-04-25T08:14:14.000Z</time>
      </trkpt>
      <trkpt lat="44.87524" lon="0.24869">
        <ele>20</ele>
        <time>2013-04-25T08:14:20.000Z</time>
      </trkpt>
      <trkpt lat="44.87539" lon="0.24876">
        <ele>20</ele>
        <time>2013-04-25T08:14:25.000Z</time>
      </trkpt>
      <trkpt lat="44.87542" lon="0.24878">
        <ele>19.799999237061</ele>
        <time>2013-04-25T08:14:26.000Z</time>
      </trkpt>
      <trkpt lat="44.87554" lon="0.24881">
        <ele>19.799999237061</ele>
        <time>2013-04-25T08:14:30.000Z</time>
      </trkpt>
      <trkpt lat="44.8756" lon="0.24882">
        <ele>19.60000038147</ele>
        <time>2013-04-25T08:14:32.000Z</time>
      </trkpt>
      <trkpt lat="44.87569" lon="0.24881">
        <ele>19.60000038147</ele>
        <time>2013-04-25T08:14:35.000Z</time>
      </trkpt>
      <trkpt lat="44.87579" lon="0.24879">
        <ele>19.39999961853</ele>
        <time>2013-04-25T08:14:38.000Z</time>
      </trkpt>
      <trkpt lat="44.87584" lon="0.24877">
        <ele>19.39999961853</ele>
        <time>2013-04-25T08:14:40.000Z</time>
      </trkpt>
      <trkpt lat="44.87595" lon="0.24869">
        <ele>19.60000038147</ele>
        <time>2013-04-25T08:14:44.000Z</time>
      </trkpt>
      <trkpt lat="44.87597" lon="0.24866">
        <ele>19.60000038147</ele>
        <time>2013-04-25T08:14:45.000Z</time>
      </trkpt>
      <trkpt lat="44.87609" lon="0.24848">
        <ele>20</ele>
        <time>2013-04-25T08:14:51.000Z</time>
      </trkpt>
      <trkpt lat="44.87611" lon="0.24845">
        <ele>20</ele>
        <time>2013-04-25T08:14:52.000Z</time>
      </trkpt>
      <trkpt lat="44.87624" lon="0.24833">
        <ele>20.39999961853</ele>
        <time>2013-04-25T08:14:57.000Z</time>
      </trkpt>
      <trkpt lat="44.87639" lon="0.24829">
        <ele>20.60000038147</ele>
        <time>2013-04-25T08:15:02.000Z</time>
      </trkpt>
      <trkpt lat="44.87641" lon="0.24828">
        <ele>20.60000038147</ele>
        <time>2013-04-25T08:15:03.000Z</time>
      </trkpt>
      <trkpt lat="44.87659" lon="0.24824">
        <ele>21</ele>
        <time>2013-04-25T08:15:09.000Z</time>
      </trkpt>
      <trkpt lat="44.87662" lon="0.24823">
        <ele>21</ele>
        <time>2013-04-25T08:15:10.000Z</time>
      </trkpt>
      <trkpt lat="44.87674" lon="0.24819">
        <ele>21.200000762939</ele>
        <time>2013-04-25T08:15:14.000Z</time>
      </trkpt>
      <trkpt lat="44.8768" lon="0.24818">
        <ele>21.200000762939</ele>
        <time>2013-04-25T08:15:16.000Z</time>
      </trkpt>
      <trkpt lat="44.87692" lon="0.24814">
        <ele>21.39999961853</ele>
        <time>2013-04-25T08:15:20.000Z</time>
      </trkpt>
      <trkpt lat="44.87701" lon="0.24812">
        <ele>21.39999961853</ele>
        <time>2013-04-25T08:15:23.000Z</time>
      </trkpt>
      <trkpt lat="44.87707" lon="0.24812">
        <ele>21.60000038147</ele>
        <time>2013-04-25T08:15:25.000Z</time>
      </trkpt>
      <trkpt lat="44.87721" lon="0.24809">
        <ele>21.60000038147</ele>
        <time>2013-04-25T08:15:30.000Z</time>
      </trkpt>
      <trkpt lat="44.87724" lon="0.24809">
        <ele>21.60000038147</ele>
        <time>2013-04-25T08:15:31.000Z</time>
      </trkpt>
      <trkpt lat="44.87742" lon="0.24806">
        <ele>21.799999237061</ele>
        <time>2013-04-25T08:15:37.000Z</time>
      </trkpt>
      <trkpt lat="44.8775" lon="0.24809">
        <ele>21.799999237061</ele>
        <time>2013-04-25T08:15:40.000Z</time>
      </trkpt>
      <trkpt lat="44.87751" lon="0.24813">
        <ele>21.799999237061</ele>
        <time>2013-04-25T08:15:41.000Z</time>
      </trkpt>
      <trkpt lat="44.87752" lon="0.24822">
        <ele>21.799999237061</ele>
        <time>2013-04-25T08:15:43.000Z</time>
      </trkpt>
      <trkpt lat="44.87752" lon="0.2484">
        <ele>21.799999237061</ele>
        <time>2013-04-25T08:15:47.000Z</time>
      </trkpt>
      <trkpt lat="44.87752" lon="0.24845">
        <ele>21.799999237061</ele>
        <time>2013-04-25T08:15:48.000Z</time>
      </trkpt>
      <trkpt lat="44.87751" lon="0.24849">
        <ele>21.799999237061</ele>
        <time>2013-04-25T08:15:49.000Z</time>
      </trkpt>
      <trkpt lat="44.8775" lon="0.24863">
        <ele>21.799999237061</ele>
        <time>2013-04-25T08:15:52.000Z</time>
      </trkpt>
      <trkpt lat="44.87749" lon="0.24876">
        <ele>21.799999237061</ele>
        <time>2013-04-25T08:15:55.000Z</time>
      </trkpt>
      <trkpt lat="44.87747" lon="0.24894">
        <ele>21.799999237061</ele>
        <time>2013-04-25T08:15:59.000Z</time>
      </trkpt>
      <trkpt lat="44.87747" lon="0.24902">
        <ele>21.799999237061</ele>
        <time>2013-04-25T08:16:01.000Z</time>
      </trkpt>
      <trkpt lat="44.87745" lon="0.2492">
        <ele>21.799999237061</ele>
        <time>2013-04-25T08:16:05.000Z</time>
      </trkpt>
      <trkpt lat="44.87744" lon="0.24929">
        <ele>21.799999237061</ele>
        <time>2013-04-25T08:16:07.000Z</time>
      </trkpt>
      <trkpt lat="44.87742" lon="0.24946">
        <ele>21.799999237061</ele>
        <time>2013-04-25T08:16:11.000Z</time>
      </trkpt>
      <trkpt lat="44.87741" lon="0.24954">
        <ele>21.60000038147</ele>
        <time>2013-04-25T08:16:13.000Z</time>
      </trkpt>
      <trkpt lat="44.87739" lon="0.24967">
        <ele>21.60000038147</ele>
        <time>2013-04-25T08:16:16.000Z</time>
      </trkpt>
      <trkpt lat="44.87737" lon="0.2498">
        <ele>21.60000038147</ele>
        <time>2013-04-25T08:16:19.000Z</time>
      </trkpt>
      <trkpt lat="44.87735" lon="0.24989">
        <ele>21.60000038147</ele>
        <time>2013-04-25T08:16:21.000Z</time>
      </trkpt>
      <trkpt lat="44.87733" lon="0.25006">
        <ele>21.39999961853</ele>
        <time>2013-04-25T08:16:25.000Z</time>
      </trkpt>
      <trkpt lat="44.87732" lon="0.25018">
        <ele>21.39999961853</ele>
        <time>2013-04-25T08:16:28.000Z</time>
      </trkpt>
      <trkpt lat="44.8773" lon="0.25035">
        <ele>21.200000762939</ele>
        <time>2013-04-25T08:16:32.000Z</time>
      </trkpt>
      <trkpt lat="44.8773" lon="0.25039">
        <ele>21.200000762939</ele>
        <time>2013-04-25T08:16:33.000Z</time>
      </trkpt>
      <trkpt lat="44.87729" lon="0.2506">
        <ele>21</ele>
        <time>2013-04-25T08:16:38.000Z</time>
      </trkpt>
      <trkpt lat="44.87729" lon="0.25064">
        <ele>21</ele>
        <time>2013-04-25T08:16:39.000Z</time>
      </trkpt>
      <trkpt lat="44.87728" lon="0.25088">
        <ele>21</ele>
        <time>2013-04-25T08:16:45.000Z</time>
      </trkpt>
      <trkpt lat="44.87728" lon="0.25093">
        <ele>21</ele>
        <time>2013-04-25T08:16:46.000Z</time>
      </trkpt>
      <trkpt lat="44.87728" lon="0.2511">
        <ele>21</ele>
        <time>2013-04-25T08:16:50.000Z</time>
      </trkpt>
      <trkpt lat="44.87728" lon="0.25122">
        <ele>21</ele>
        <time>2013-04-25T08:16:53.000Z</time>
      </trkpt>
      <trkpt lat="44.87729" lon="0.25135">
        <ele>21</ele>
        <time>2013-04-25T08:16:56.000Z</time>
      </trkpt>
      <trkpt lat="44.8773" lon="0.25151">
        <ele>21</ele>
        <time>2013-04-25T08:17:00.000Z</time>
      </trkpt>
      <trkpt lat="44.8773" lon="0.25155">
        <ele>21</ele>
        <time>2013-04-25T08:17:01.000Z</time>
      </trkpt>
      <trkpt lat="44.87731" lon="0.2518">
        <ele>21</ele>
        <time>2013-04-25T08:17:07.000Z</time>
      </trkpt>
      <trkpt lat="44.87732" lon="0.252">
        <ele>21</ele>
        <time>2013-04-25T08:17:12.000Z</time>
      </trkpt>
      <trkpt lat="44.87733" lon="0.25207">
        <ele>21</ele>
        <time>2013-04-25T08:17:14.000Z</time>
      </trkpt>
      <trkpt lat="44.87736" lon="0.25214">
        <ele>21</ele>
        <time>2013-04-25T08:17:16.000Z</time>
      </trkpt>
      <trkpt lat="44.87745" lon="0.25222">
        <ele>21</ele>
        <time>2013-04-25T08:17:20.000Z</time>
      </trkpt>
      <trkpt lat="44.87748" lon="0.25223">
        <ele>21</ele>
        <time>2013-04-25T08:17:21.000Z</time>
      </trkpt>
      <trkpt lat="44.87763" lon="0.25229">
        <ele>20.799999237061</ele>
        <time>2013-04-25T08:17:26.000Z</time>
      </trkpt>
      <trkpt lat="44.87765" lon="0.25232">
        <ele>20.799999237061</ele>
        <time>2013-04-25T08:17:27.000Z</time>
      </trkpt>
      <trkpt lat="44.87773" lon="0.25246">
        <ele>20.60000038147</ele>
        <time>2013-04-25T08:17:31.000Z</time>
      </trkpt>
      <trkpt lat="44.87777" lon="0.25253">
        <ele>20.60000038147</ele>
        <time>2013-04-25T08:17:33.000Z</time>
      </trkpt>
      <trkpt lat="44.87781" lon="0.25264">
        <ele>20.60000038147</ele>
        <time>2013-04-25T08:17:36.000Z</time>
      </trkpt>
      <trkpt lat="44.87786" lon="0.25275">
        <ele>20.60000038147</ele>
        <time>2013-04-25T08:17:39.000Z</time>
      </trkpt>
      <trkpt lat="44.87789" lon="0.25282">
        <ele>20.60000038147</ele>
        <time>2013-04-25T08:17:41.000Z</time>
      </trkpt>
      <trkpt lat="44.87796" lon="0.25297">
        <ele>20.60000038147</ele>
        <time>2013-04-25T08:17:45.000Z</time>
      </trkpt>
      <trkpt lat="44.878" lon="0.25305">
        <ele>20.60000038147</ele>
        <time>2013-04-25T08:17:47.000Z</time>
      </trkpt>
      <trkpt lat="44.87806" lon="0.25319">
        <ele>20.799999237061</ele>
        <time>2013-04-25T08:17:51.000Z</time>
      </trkpt>
      <trkpt lat="44.87808" lon="0.25322">
        <ele>20.799999237061</ele>
        <time>2013-04-25T08:17:52.000Z</time>
      </trkpt>
      <trkpt lat="44.87819" lon="0.25338">
        <ele>20.799999237061</ele>
        <time>2013-04-25T08:17:57.000Z</time>
      </trkpt>
      <trkpt lat="44.87832" lon="0.25354">
        <ele>20.60000038147</ele>
        <time>2013-04-25T08:18:03.000Z</time>
      </trkpt>
      <trkpt lat="44.87835" lon="0.25357">
        <ele>20.60000038147</ele>
        <time>2013-04-25T08:18:04.000Z</time>
      </trkpt>
      <trkpt lat="44.87844" lon="0.25368">
        <ele>20.799999237061</ele>
        <time>2013-04-25T08:18:08.000Z</time>
      </trkpt>
      <trkpt lat="44.8785" lon="0.25376">
        <ele>20.799999237061</ele>
        <time>2013-04-25T08:18:11.000Z</time>
      </trkpt>
      <trkpt lat="44.87854" lon="0.25381">
        <ele>20.799999237061</ele>
        <time>2013-04-25T08:18:13.000Z</time>
      </trkpt>
      <trkpt lat="44.87865" lon="0.25394">
        <ele>21</ele>
        <time>2013-04-25T08:18:18.000Z</time>
      </trkpt>
      <trkpt lat="44.87875" lon="0.25405">
        <ele>21</ele>
        <time>2013-04-25T08:18:23.000Z</time>
      </trkpt>
      <trkpt lat="44.87881" lon="0.25413">
        <ele>21</ele>
        <time>2013-04-25T08:18:27.000Z</time>
      </trkpt>
      <trkpt lat="44.87885" lon="0.25418">
        <ele>21.200000762939</ele>
        <time>2013-04-25T08:18:29.000Z</time>
      </trkpt>
      <trkpt lat="44.87896" lon="0.2543">
        <ele>21.200000762939</ele>
        <time>2013-04-25T08:18:34.000Z</time>
      </trkpt>
      <trkpt lat="44.87899" lon="0.25433">
        <ele>21.200000762939</ele>
        <time>2013-04-25T08:18:35.000Z</time>
      </trkpt>
      <trkpt lat="44.87912" lon="0.25446">
        <ele>21.39999961853</ele>
        <time>2013-04-25T08:18:40.000Z</time>
      </trkpt>
      <trkpt lat="44.87926" lon="0.25456">
        <ele>21.39999961853</ele>
        <time>2013-04-25T08:18:45.000Z</time>
      </trkpt>
      <trkpt lat="44.87929" lon="0.25458">
        <ele>21.39999961853</ele>
        <time>2013-04-25T08:18:46.000Z</time>
      </trkpt>
      <trkpt lat="44.8794" lon="0.25466">
        <ele>21.39999961853</ele>
        <time>2013-04-25T08:18:50.000Z</time>
      </trkpt>
      <trkpt lat="44.87946" lon="0.2547">
        <ele>21.39999961853</ele>
        <time>2013-04-25T08:18:52.000Z</time>
      </trkpt>
      <trkpt lat="44.87954" lon="0.25475">
        <ele>21.60000038147</ele>
        <time>2013-04-25T08:18:55.000Z</time>
      </trkpt>
      <trkpt lat="44.87963" lon="0.25477">
        <ele>21.60000038147</ele>
        <time>2013-04-25T08:18:58.000Z</time>
      </trkpt>
      <trkpt lat="44.87969" lon="0.25476">
        <ele>21.60000038147</ele>
        <time>2013-04-25T08:19:00.000Z</time>
      </trkpt>
      <trkpt lat="44.87981" lon="0.25474">
        <ele>21.799999237061</ele>
        <time>2013-04-25T08:19:04.000Z</time>
      </trkpt>
      <trkpt lat="44.87987" lon="0.25473">
        <ele>21.799999237061</ele>
        <time>2013-04-25T08:19:06.000Z</time>
      </trkpt>
      <trkpt lat="44.87999" lon="0.2547">
        <ele>21.799999237061</ele>
        <time>2013-04-25T08:19:10.000Z</time>
      </trkpt>
      <trkpt lat="44.88002" lon="0.25469">
        <ele>22</ele>
        <time>2013-04-25T08:19:11.000Z</time>
      </trkpt>
      <trkpt lat="44.88018" lon="0.25466">
        <ele>22</ele>
        <time>2013-04-25T08:19:16.000Z</time>
      </trkpt>
      <trkpt lat="44.88036" lon="0.25464">
        <ele>22</ele>
        <time>2013-04-25T08:19:22.000Z</time>
      </trkpt>
      <trkpt lat="44.88039" lon="0.25464">
        <ele>22</ele>
        <time>2013-04-25T08:19:23.000Z</time>
      </trkpt>
      <trkpt lat="44.88054" lon="0.25466">
        <ele>22</ele>
        <time>2013-04-25T08:19:28.000Z</time>
      </trkpt>
      <trkpt lat="44.88057" lon="0.25467">
        <ele>22</ele>
        <time>2013-04-25T08:19:29.000Z</time>
      </trkpt>
      <trkpt lat="44.88072" lon="0.2547">
        <ele>22</ele>
        <time>2013-04-25T08:19:34.000Z</time>
      </trkpt>
      <trkpt lat="44.88075" lon="0.25471">
        <ele>22</ele>
        <time>2013-04-25T08:19:35.000Z</time>
      </trkpt>
      <trkpt lat="44.8809" lon="0.25475">
        <ele>21.799999237061</ele>
        <time>2013-04-25T08:19:40.000Z</time>
      </trkpt>
      <trkpt lat="44.88099" lon="0.25478">
        <ele>21.799999237061</ele>
        <time>2013-04-25T08:19:43.000Z</time>
      </trkpt>
      <trkpt lat="44.88108" lon="0.25481">
        <ele>21.60000038147</ele>
        <time>2013-04-25T08:19:46.000Z</time>
      </trkpt>
      <trkpt lat="44.88117" lon="0.25484">
        <ele>21.60000038147</ele>
        <time>2013-04-25T08:19:49.000Z</time>
      </trkpt>
      <trkpt lat="44.88128" lon="0.25488">
        <ele>21.39999961853</ele>
        <time>2013-04-25T08:19:53.000Z</time>
      </trkpt>
      <trkpt lat="44.88134" lon="0.25489">
        <ele>21.39999961853</ele>
        <time>2013-04-25T08:19:55.000Z</time>
      </trkpt>
      <trkpt lat="44.88146" lon="0.25493">
        <ele>21.200000762939</ele>
        <time>2013-04-25T08:19:59.000Z</time>
      </trkpt>
      <trkpt lat="44.88152" lon="0.25495">
        <ele>21.200000762939</ele>
        <time>2013-04-25T08:20:01.000Z</time>
      </trkpt>
      <trkpt lat="44.88163" lon="0.25502">
        <ele>21</ele>
        <time>2013-04-25T08:20:05.000Z</time>
      </trkpt>
      <trkpt lat="44.88166" lon="0.25504">
        <ele>21</ele>
        <time>2013-04-25T08:20:06.000Z</time>
      </trkpt>
      <trkpt lat="44.88181" lon="0.2552">
        <ele>21.200000762939</ele>
        <time>2013-04-25T08:20:12.000Z</time>
      </trkpt>
      <trkpt lat="44.88194" lon="0.25536">
        <ele>21.39999961853</ele>
        <time>2013-04-25T08:20:18.000Z</time>
      </trkpt>
      <trkpt lat="44.88197" lon="0.25539">
        <ele>21.39999961853</ele>
        <time>2013-04-25T08:20:19.000Z</time>
      </trkpt>
      <trkpt lat="44.88209" lon="0.25551">
        <ele>21.60000038147</ele>
        <time>2013-04-25T08:20:24.000Z</time>
      </trkpt>
      <trkpt lat="44.88226" lon="0.25564">
        <ele>21.799999237061</ele>
        <time>2013-04-25T08:20:30.000Z</time>
      </trkpt>
      <trkpt lat="44.88245" lon="0.25577">
        <ele>22</ele>
        <time>2013-04-25T08:20:37.000Z</time>
      </trkpt>
      <trkpt lat="44.88259" lon="0.25584">
        <ele>22.200000762939</ele>
        <time>2013-04-25T08:20:42.000Z</time>
      </trkpt>
      <trkpt lat="44.88264" lon="0.25587">
        <ele>22.200000762939</ele>
        <time>2013-04-25T08:20:44.000Z</time>
      </trkpt>
      <trkpt lat="44.88273" lon="0.25591">
        <ele>22.39999961853</ele>
        <time>2013-04-25T08:20:47.000Z</time>
      </trkpt>
      <trkpt lat="44.88281" lon="0.25595">
        <ele>22.60000038147</ele>
        <time>2013-04-25T08:20:50.000Z</time>
      </trkpt>
      <trkpt lat="44.8829" lon="0.25598">
        <ele>22.799999237061</ele>
        <time>2013-04-25T08:20:53.000Z</time>
      </trkpt>
      <trkpt lat="44.88301" lon="0.25603">
        <ele>23</ele>
        <time>2013-04-25T08:20:57.000Z</time>
      </trkpt>
      <trkpt lat="44.88307" lon="0.25604">
        <ele>23</ele>
        <time>2013-04-25T08:20:59.000Z</time>
      </trkpt>
      <trkpt lat="44.88319" lon="0.2561">
        <ele>23.39999961853</ele>
        <time>2013-04-25T08:21:04.000Z</time>
      </trkpt>
      <trkpt lat="44.88322" lon="0.25611">
        <ele>23.39999961853</ele>
        <time>2013-04-25T08:21:05.000Z</time>
      </trkpt>
      <trkpt lat="44.88333" lon="0.25615">
        <ele>23.60000038147</ele>
        <time>2013-04-25T08:21:09.000Z</time>
      </trkpt>
      <trkpt lat="44.88339" lon="0.25618">
        <ele>23.39999961853</ele>
        <time>2013-04-25T08:21:11.000Z</time>
      </trkpt>
      <trkpt lat="44.88352" lon="0.25623">
        <ele>23.39999961853</ele>
        <time>2013-04-25T08:21:16.000Z</time>
      </trkpt>
      <trkpt lat="44.88358" lon="0.25624">
        <ele>23.200000762939</ele>
        <time>2013-04-25T08:21:18.000Z</time>
      </trkpt>
      <trkpt lat="44.8837" lon="0.25628">
        <ele>23.200000762939</ele>
        <time>2013-04-25T08:21:22.000Z</time>
      </trkpt>
      <trkpt lat="44.88379" lon="0.2563">
        <ele>23</ele>
        <time>2013-04-25T08:21:25.000Z</time>
      </trkpt>
      <trkpt lat="44.88388" lon="0.25631">
        <ele>23</ele>
        <time>2013-04-25T08:21:28.000Z</time>
      </trkpt>
      <trkpt lat="44.88397" lon="0.25632">
        <ele>22.799999237061</ele>
        <time>2013-04-25T08:21:31.000Z</time>
      </trkpt>
      <trkpt lat="44.88403" lon="0.25632">
        <ele>22.799999237061</ele>
        <time>2013-04-25T08:21:33.000Z</time>
      </trkpt>
      <trkpt lat="44.88415" lon="0.25631">
        <ele>22.799999237061</ele>
        <time>2013-04-25T08:21:37.000Z</time>
      </trkpt>
      <trkpt lat="44.88421" lon="0.2563">
        <ele>23</ele>
        <time>2013-04-25T08:21:39.000Z</time>
      </trkpt>
      <trkpt lat="44.88434" lon="0.25628">
        <ele>23.39999961853</ele>
        <time>2013-04-25T08:21:43.000Z</time>
      </trkpt>
      <trkpt lat="44.88446" lon="0.25624">
        <ele>23.799999237061</ele>
        <time>2013-04-25T08:21:47.000Z</time>
      </trkpt>
      <trkpt lat="44.88453" lon="0.2562">
        <ele>24</ele>
        <time>2013-04-25T08:21:50.000Z</time>
      </trkpt>
      <trkpt lat="44.88462" lon="0.25616">
        <ele>24.39999961853</ele>
        <time>2013-04-25T08:21:53.000Z</time>
      </trkpt>
      <trkpt lat="44.88471" lon="0.25612">
        <ele>24.799999237061</ele>
        <time>2013-04-25T08:21:56.000Z</time>
      </trkpt>
      <trkpt lat="44.88479" lon="0.25608">
        <ele>25</ele>
        <time>2013-04-25T08:21:59.000Z</time>
      </trkpt>
      <trkpt lat="44.8849" lon="0.25602">
        <ele>25.39999961853</ele>
        <time>2013-04-25T08:22:03.000Z</time>
      </trkpt>
      <trkpt lat="44.88493" lon="0.25601">
        <ele>25.39999961853</ele>
        <time>2013-04-25T08:22:04.000Z</time>
      </trkpt>
      <trkpt lat="44.88508" lon="0.25596">
        <ele>26.60000038147</ele>
        <time>2013-04-25T08:22:09.000Z</time>
      </trkpt>
      <trkpt lat="44.88511" lon="0.25595">
        <ele>26.799999237061</ele>
        <time>2013-04-25T08:22:10.000Z</time>
      </trkpt>
      <trkpt lat="44.88525" lon="0.25596">
        <ele>28.39999961853</ele>
        <time>2013-04-25T08:22:15.000Z</time>
      </trkpt>
      <trkpt lat="44.88528" lon="0.25597">
        <ele>28.60000038147</ele>
        <time>2013-04-25T08:22:16.000Z</time>
      </trkpt>
      <trkpt lat="44.88543" lon="0.25601">
        <ele>30</ele>
        <time>2013-04-25T08:22:21.000Z</time>
      </trkpt>
      <trkpt lat="44.88548" lon="0.25602">
        <ele>30.39999961853</ele>
        <time>2013-04-25T08:22:23.000Z</time>
      </trkpt>
      <trkpt lat="44.88557" lon="0.25605">
        <ele>31.200000762939</ele>
        <time>2013-04-25T08:22:26.000Z</time>
      </trkpt>
      <trkpt lat="44.88567" lon="0.25609">
        <ele>32.200000762939</ele>
        <time>2013-04-25T08:22:30.000Z</time>
      </trkpt>
      <trkpt lat="44.88575" lon="0.25612">
        <ele>32.799999237061</ele>
        <time>2013-04-25T08:22:33.000Z</time>
      </trkpt>
      <trkpt lat="44.88586" lon="0.25616">
        <ele>33.599998474121</ele>
        <time>2013-04-25T08:22:37.000Z</time>
      </trkpt>
      <trkpt lat="44.88593" lon="0.25618">
        <ele>34.599998474121</ele>
        <time>2013-04-25T08:22:40.000Z</time>
      </trkpt>
      <trkpt lat="44.88604" lon="0.25619">
        <ele>36</ele>
        <time>2013-04-25T08:22:44.000Z</time>
      </trkpt>
      <trkpt lat="44.88609" lon="0.25618">
        <ele>36.799999237061</ele>
        <time>2013-04-25T08:22:46.000Z</time>
      </trkpt>
      <trkpt lat="44.88622" lon="0.25618">
        <ele>38.599998474121</ele>
        <time>2013-04-25T08:22:51.000Z</time>
      </trkpt>
      <trkpt lat="44.88624" lon="0.25619">
        <ele>38.799999237061</ele>
        <time>2013-04-25T08:22:52.000Z</time>
      </trkpt>
      <trkpt lat="44.88639" lon="0.25619">
        <ele>41</ele>
        <time>2013-04-25T08:22:57.000Z</time>
      </trkpt>
      <trkpt lat="44.88642" lon="0.25619">
        <ele>41.200000762939</ele>
        <time>2013-04-25T08:22:59.000Z</time>
      </trkpt>
      <trkpt lat="44.88651" lon="0.25617">
        <ele>42.599998474121</ele>
        <time>2013-04-25T08:23:03.000Z</time>
      </trkpt>
      <trkpt lat="44.88662" lon="0.25614">
        <ele>44</ele>
        <time>2013-04-25T08:23:08.000Z</time>
      </trkpt>
      <trkpt lat="44.88675" lon="0.25607">
        <ele>46</ele>
        <time>2013-04-25T08:23:15.000Z</time>
      </trkpt>
      <trkpt lat="44.88681" lon="0.25602">
        <ele>46.799999237061</ele>
        <time>2013-04-25T08:23:17.000Z</time>
      </trkpt>
      <trkpt lat="44.88687" lon="0.25596">
        <ele>47.599998474121</ele>
        <time>2013-04-25T08:23:22.000Z</time>
      </trkpt>
      <trkpt lat="44.88695" lon="0.25589">
        <ele>48.799999237061</ele>
        <time>2013-04-25T08:23:26.000Z</time>
      </trkpt>
      <trkpt lat="44.88697" lon="0.25588">
        <ele>49</ele>
        <time>2013-04-25T08:23:27.000Z</time>
      </trkpt>
      <trkpt lat="44.88697" lon="0.25585">
        <ele>49</ele>
        <time>2013-04-25T08:23:28.000Z</time>
      </trkpt>
      <trkpt lat="44.88704" lon="0.25578">
        <ele>50</ele>
        <time>2013-04-25T08:23:32.000Z</time>
      </trkpt>
      <trkpt lat="44.88709" lon="0.25574">
        <ele>50.599998474121</ele>
        <time>2013-04-25T08:23:35.000Z</time>
      </trkpt>
      <trkpt lat="44.88712" lon="0.25572">
        <ele>51</ele>
        <time>2013-04-25T08:23:37.000Z</time>
      </trkpt>
      <trkpt lat="44.88713" lon="0.2557">
        <ele>51</ele>
        <time>2013-04-25T08:23:38.000Z</time>
      </trkpt>
      <trkpt lat="44.88716" lon="0.25566">
        <ele>51.400001525879</ele>
        <time>2013-04-25T08:23:43.000Z</time>
      </trkpt>
      <trkpt lat="44.88724" lon="0.25562">
        <ele>52.400001525879</ele>
        <time>2013-04-25T08:23:47.000Z</time>
      </trkpt>
      <trkpt lat="44.88727" lon="0.25558">
        <ele>52.799999237061</ele>
        <time>2013-04-25T08:23:49.000Z</time>
      </trkpt>
      <trkpt lat="44.88729" lon="0.25553">
        <ele>53</ele>
        <time>2013-04-25T08:23:51.000Z</time>
      </trkpt>
      <trkpt lat="44.88739" lon="0.25546">
        <ele>54.200000762939</ele>
        <time>2013-04-25T08:23:56.000Z</time>
      </trkpt>
      <trkpt lat="44.88749" lon="0.25541">
        <ele>55.799999237061</ele>
        <time>2013-04-25T08:24:02.000Z</time>
      </trkpt>
      <trkpt lat="44.88758" lon="0.25539">
        <ele>56.400001525879</ele>
        <time>2013-04-25T08:24:07.000Z</time>
      </trkpt>
      <trkpt lat="44.8876" lon="0.25538">
        <ele>56.599998474121</ele>
        <time>2013-04-25T08:24:09.000Z</time>
      </trkpt>
      <trkpt lat="44.88769" lon="0.25538">
        <ele>57.400001525879</ele>
        <time>2013-04-25T08:24:15.000Z</time>
      </trkpt>
      <trkpt lat="44.88776" lon="0.25539">
        <ele>58</ele>
        <time>2013-04-25T08:24:19.000Z</time>
      </trkpt>
      <trkpt lat="44.8878" lon="0.25542">
        <ele>58.599998474121</ele>
        <time>2013-04-25T08:24:22.000Z</time>
      </trkpt>
      <trkpt lat="44.88786" lon="0.25546">
        <ele>59.599998474121</ele>
        <time>2013-04-25T08:24:26.000Z</time>
      </trkpt>
      <trkpt lat="44.88788" lon="0.25551">
        <ele>60.200000762939</ele>
        <time>2013-04-25T08:24:28.000Z</time>
      </trkpt>
      <trkpt lat="44.88789" lon="0.25553">
        <ele>60.400001525879</ele>
        <time>2013-04-25T08:24:29.000Z</time>
      </trkpt>
      <trkpt lat="44.88792" lon="0.25562">
        <ele>61.599998474121</ele>
        <time>2013-04-25T08:24:33.000Z</time>
      </trkpt>
      <trkpt lat="44.88793" lon="0.25564">
        <ele>61.799999237061</ele>
        <time>2013-04-25T08:24:34.000Z</time>
      </trkpt>
      <trkpt lat="44.88797" lon="0.25573">
        <ele>63</ele>
        <time>2013-04-25T08:24:37.000Z</time>
      </trkpt>
      <trkpt lat="44.88798" lon="0.25575">
        <ele>63.400001525879</ele>
        <time>2013-04-25T08:24:39.000Z</time>
      </trkpt>
      <trkpt lat="44.88799" lon="0.25576">
        <ele>63.599998474121</ele>
        <time>2013-04-25T08:24:40.000Z</time>
      </trkpt>
      <trkpt lat="44.88807" lon="0.2559">
        <ele>66</ele>
        <time>2013-04-25T08:24:47.000Z</time>
      </trkpt>
      <trkpt lat="44.8881" lon="0.25596">
        <ele>66.800003051758</ele>
        <time>2013-04-25T08:24:50.000Z</time>
      </trkpt>
      <trkpt lat="44.88812" lon="0.25602">
        <ele>67.400001525879</ele>
        <time>2013-04-25T08:24:52.000Z</time>
      </trkpt>
      <trkpt lat="44.88817" lon="0.2561">
        <ele>68.599998474121</ele>
        <time>2013-04-25T08:24:56.000Z</time>
      </trkpt>
      <trkpt lat="44.88822" lon="0.25617">
        <ele>69.599998474121</ele>
        <time>2013-04-25T08:24:59.000Z</time>
      </trkpt>
      <trkpt lat="44.88826" lon="0.25624">
        <ele>70.800003051758</ele>
        <time>2013-04-25T08:25:02.000Z</time>
      </trkpt>
      <trkpt lat="44.88832" lon="0.25638">
        <ele>72.599998474121</ele>
        <time>2013-04-25T08:25:07.000Z</time>
      </trkpt>
      <trkpt lat="44.8884" lon="0.25662">
        <ele>74.599998474121</ele>
        <time>2013-04-25T08:25:14.000Z</time>
      </trkpt>
      <trkpt lat="44.88841" lon="0.25669">
        <ele>75</ele>
        <time>2013-04-25T08:25:16.000Z</time>
      </trkpt>
      <trkpt lat="44.88838" lon="0.25674">
        <ele>75.199996948242</ele>
        <time>2013-04-25T08:25:18.000Z</time>
      </trkpt>
      <trkpt lat="44.88835" lon="0.25678">
        <ele>75.400001525879</ele>
        <time>2013-04-25T08:25:20.000Z</time>
      </trkpt>
      <trkpt lat="44.88832" lon="0.25686">
        <ele>75.599998474121</ele>
        <time>2013-04-25T08:25:23.000Z</time>
      </trkpt>
      <trkpt lat="44.88831" lon="0.25689">
        <ele>75.599998474121</ele>
        <time>2013-04-25T08:25:24.000Z</time>
      </trkpt>
      <trkpt lat="44.88834" lon="0.257">
        <ele>76.599998474121</ele>
        <time>2013-04-25T08:25:28.000Z</time>
      </trkpt>
      <trkpt lat="44.88839" lon="0.25707">
        <ele>77</ele>
        <time>2013-04-25T08:25:32.000Z</time>
      </trkpt>
      <trkpt lat="44.88838" lon="0.25715">
        <ele>77.400001525879</ele>
        <time>2013-04-25T08:25:36.000Z</time>
      </trkpt>
      <trkpt lat="44.88837" lon="0.2572">
        <ele>77.599998474121</ele>
        <time>2013-04-25T08:25:37.000Z</time>
      </trkpt>
      <trkpt lat="44.88837" lon="0.25722">
        <ele>77.800003051758</ele>
        <time>2013-04-25T08:25:39.000Z</time>
      </trkpt>
      <trkpt lat="44.88839" lon="0.25729">
        <ele>78.199996948242</ele>
        <time>2013-04-25T08:25:42.000Z</time>
      </trkpt>
      <trkpt lat="44.88839" lon="0.25732">
        <ele>78.400001525879</ele>
        <time>2013-04-25T08:25:43.000Z</time>
      </trkpt>
      <trkpt lat="44.88842" lon="0.25742">
        <ele>79</ele>
        <time>2013-04-25T08:25:47.000Z</time>
      </trkpt>
      <trkpt lat="44.88845" lon="0.25751">
        <ele>79.599998474121</ele>
        <time>2013-04-25T08:25:51.000Z</time>
      </trkpt>
      <trkpt lat="44.88846" lon="0.25755">
        <ele>79.800003051758</ele>
        <time>2013-04-25T08:25:53.000Z</time>
      </trkpt>
      <trkpt lat="44.88849" lon="0.25767">
        <ele>80</ele>
        <time>2013-04-25T08:25:57.000Z</time>
      </trkpt>
      <trkpt lat="44.88851" lon="0.25783">
        <ele>80.199996948242</ele>
        <time>2013-04-25T08:26:04.000Z</time>
      </trkpt>
      <trkpt lat="44.88853" lon="0.25799">
        <ele>80.400001525879</ele>
        <time>2013-04-25T08:26:10.000Z</time>
      </trkpt>
      <trkpt lat="44.88853" lon="0.25804">
        <ele>80.400001525879</ele>
        <time>2013-04-25T08:26:14.000Z</time>
      </trkpt>
      <trkpt lat="44.88854" lon="0.25811">
        <ele>80.599998474121</ele>
        <time>2013-04-25T08:26:22.000Z</time>
      </trkpt>
      <trkpt lat="44.88852" lon="0.25814">
        <ele>80.599998474121</ele>
        <time>2013-04-25T08:26:24.000Z</time>
      </trkpt>
      <trkpt lat="44.88847" lon="0.25829">
        <ele>80.599998474121</ele>
        <time>2013-04-25T08:26:28.000Z</time>
      </trkpt>
      <trkpt lat="44.88845" lon="0.25833">
        <ele>80.800003051758</ele>
        <time>2013-04-25T08:26:29.000Z</time>
      </trkpt>
      <trkpt lat="44.88841" lon="0.25843">
        <ele>79.400001525879</ele>
        <time>2013-04-25T08:26:32.000Z</time>
      </trkpt>
      <trkpt lat="44.88839" lon="0.25846">
        <ele>79</ele>
        <time>2013-04-25T08:26:33.000Z</time>
      </trkpt>
      <trkpt lat="44.88832" lon="0.25851">
        <ele>78.400001525879</ele>
        <time>2013-04-25T08:26:36.000Z</time>
      </trkpt>
      <trkpt lat="44.88829" lon="0.25857">
        <ele>77.199996948242</ele>
        <time>2013-04-25T08:26:37.000Z</time>
      </trkpt>
      <trkpt lat="44.88829" lon="0.25857">
        <ele>77.199996948242</ele>
        <time>2013-04-25T08:26:38.000Z</time>
      </trkpt>
      <trkpt lat="44.88829" lon="0.25871">
        <ele>75.599998474121</ele>
        <time>2013-04-25T08:26:42.000Z</time>
      </trkpt>
      <trkpt lat="44.8883" lon="0.25876">
        <ele>75</ele>
        <time>2013-04-25T08:26:46.000Z</time>
      </trkpt>
      <trkpt lat="44.88831" lon="0.25877">
        <ele>75</ele>
        <time>2013-04-25T08:27:02.000Z</time>
      </trkpt>
      <trkpt lat="44.88837" lon="0.25886">
        <ele>73.800003051758</ele>
        <time>2013-04-25T08:28:34.000Z</time>
      </trkpt>
      <trkpt lat="44.88843" lon="0.25887">
        <ele>73.400001525879</ele>
        <time>2013-04-25T08:28:37.000Z</time>
      </trkpt>
      <trkpt lat="44.88845" lon="0.25888">
        <ele>73.199996948242</ele>
        <time>2013-04-25T08:28:39.000Z</time>
      </trkpt>
      <trkpt lat="44.88847" lon="0.25889">
        <ele>72.800003051758</ele>
        <time>2013-04-25T08:28:40.000Z</time>
      </trkpt>
      <trkpt lat="44.88853" lon="0.25894">
        <ele>71.800003051758</ele>
        <time>2013-04-25T08:28:43.000Z</time>
      </trkpt>
      <trkpt lat="44.88855" lon="0.25896">
        <ele>71.400001525879</ele>
        <time>2013-04-25T08:28:44.000Z</time>
      </trkpt>
      <trkpt lat="44.88858" lon="0.25897">
        <ele>71.199996948242</ele>
        <time>2013-04-25T08:28:45.000Z</time>
      </trkpt>
      <trkpt lat="44.88867" lon="0.25906">
        <ele>69.199996948242</ele>
        <time>2013-04-25T08:28:48.000Z</time>
      </trkpt>
      <trkpt lat="44.88872" lon="0.25915">
        <ele>67.400001525879</ele>
        <time>2013-04-25T08:28:52.000Z</time>
      </trkpt>
      <trkpt lat="44.88874" lon="0.25919">
        <ele>66.800003051758</ele>
        <time>2013-04-25T08:28:53.000Z</time>
      </trkpt>
      <trkpt lat="44.88882" lon="0.25924">
        <ele>65.599998474121</ele>
        <time>2013-04-25T08:28:56.000Z</time>
      </trkpt>
      <trkpt lat="44.88891" lon="0.25929">
        <ele>64.800003051758</ele>
        <time>2013-04-25T08:28:58.000Z</time>
      </trkpt>
      <trkpt lat="44.88895" lon="0.25935">
        <ele>64</ele>
        <time>2013-04-25T08:29:01.000Z</time>
      </trkpt>
      <trkpt lat="44.88902" lon="0.25944">
        <ele>63.200000762939</ele>
        <time>2013-04-25T08:29:04.000Z</time>
      </trkpt>
      <trkpt lat="44.88908" lon="0.25951">
        <ele>62.599998474121</ele>
        <time>2013-04-25T08:29:06.000Z</time>
      </trkpt>
      <trkpt lat="44.88912" lon="0.25965">
        <ele>61.599998474121</ele>
        <time>2013-04-25T08:29:08.000Z</time>
      </trkpt>
      <trkpt lat="44.88912" lon="0.25965">
        <ele>61.599998474121</ele>
        <time>2013-04-25T08:29:09.000Z</time>
      </trkpt>
      <trkpt lat="44.88908" lon="0.25973">
        <ele>61.200000762939</ele>
        <time>2013-04-25T08:29:11.000Z</time>
      </trkpt>
      <trkpt lat="44.88905" lon="0.25975">
        <ele>61.200000762939</ele>
        <time>2013-04-25T08:29:12.000Z</time>
      </trkpt>
      <trkpt lat="44.88898" lon="0.25978">
        <ele>61</ele>
        <time>2013-04-25T08:29:14.000Z</time>
      </trkpt>
      <trkpt lat="44.88884" lon="0.25985">
        <ele>60.400001525879</ele>
        <time>2013-04-25T08:29:17.000Z</time>
      </trkpt>
      <trkpt lat="44.88881" lon="0.25986">
        <ele>60.200000762939</ele>
        <time>2013-04-25T08:29:18.000Z</time>
      </trkpt>
      <trkpt lat="44.88878" lon="0.25988">
        <ele>60</ele>
        <time>2013-04-25T08:29:20.000Z</time>
      </trkpt>
      <trkpt lat="44.88866" lon="0.25995">
        <ele>59.200000762939</ele>
        <time>2013-04-25T08:29:24.000Z</time>
      </trkpt>
      <trkpt lat="44.88859" lon="0.25999">
        <ele>58.599998474121</ele>
        <time>2013-04-25T08:29:26.000Z</time>
      </trkpt>
      <trkpt lat="44.88849" lon="0.26004">
        <ele>58.200000762939</ele>
        <time>2013-04-25T08:29:29.000Z</time>
      </trkpt>
      <trkpt lat="44.8884" lon="0.2601">
        <ele>58</ele>
        <time>2013-04-25T08:29:32.000Z</time>
      </trkpt>
      <trkpt lat="44.88834" lon="0.26014">
        <ele>57.799999237061</ele>
        <time>2013-04-25T08:29:34.000Z</time>
      </trkpt>
      <trkpt lat="44.88821" lon="0.26027">
        <ele>57.400001525879</ele>
        <time>2013-04-25T08:29:38.000Z</time>
      </trkpt>
      <trkpt lat="44.88821" lon="0.26027">
        <ele>57.400001525879</ele>
        <time>2013-04-25T08:29:39.000Z</time>
      </trkpt>
      <trkpt lat="44.8881" lon="0.26039">
        <ele>56.799999237061</ele>
        <time>2013-04-25T08:29:44.000Z</time>
      </trkpt>
      <trkpt lat="44.88807" lon="0.26042">
        <ele>56.599998474121</ele>
        <time>2013-04-25T08:29:45.000Z</time>
      </trkpt>
      <trkpt lat="44.88804" lon="0.26056">
        <ele>56</ele>
        <time>2013-04-25T08:29:48.000Z</time>
      </trkpt>
      <trkpt lat="44.88803" lon="0.26069">
        <ele>55.400001525879</ele>
        <time>2013-04-25T08:29:52.000Z</time>
      </trkpt>
      <trkpt lat="44.88804" lon="0.26072">
        <ele>55.200000762939</ele>
        <time>2013-04-25T08:29:53.000Z</time>
      </trkpt>
      <trkpt lat="44.88809" lon="0.26092">
        <ele>55.400001525879</ele>
        <time>2013-04-25T08:29:58.000Z</time>
      </trkpt>
      <trkpt lat="44.88809" lon="0.26092">
        <ele>55.400001525879</ele>
        <time>2013-04-25T08:29:59.000Z</time>
      </trkpt>
      <trkpt lat="44.88809" lon="0.26101">
        <ele>55.799999237061</ele>
        <time>2013-04-25T08:30:03.000Z</time>
      </trkpt>
      <trkpt lat="44.88808" lon="0.26106">
        <ele>55.799999237061</ele>
        <time>2013-04-25T08:30:05.000Z</time>
      </trkpt>
      <trkpt lat="44.88805" lon="0.2611">
        <ele>55.799999237061</ele>
        <time>2013-04-25T08:30:07.000Z</time>
      </trkpt>
      <trkpt lat="44.88803" lon="0.26114">
        <ele>55.799999237061</ele>
        <time>2013-04-25T08:30:09.000Z</time>
      </trkpt>
      <trkpt lat="44.88802" lon="0.26116">
        <ele>55.799999237061</ele>
        <time>2013-04-25T08:30:10.000Z</time>
      </trkpt>
      <trkpt lat="44.88802" lon="0.26119">
        <ele>55.799999237061</ele>
        <time>2013-04-25T08:30:11.000Z</time>
      </trkpt>
      <trkpt lat="44.88801" lon="0.26123">
        <ele>55.799999237061</ele>
        <time>2013-04-25T08:30:13.000Z</time>
      </trkpt>
      <trkpt lat="44.88799" lon="0.2613">
        <ele>56</ele>
        <time>2013-04-25T08:30:16.000Z</time>
      </trkpt>
      <trkpt lat="44.88795" lon="0.26144">
        <ele>56.200000762939</ele>
        <time>2013-04-25T08:30:21.000Z</time>
      </trkpt>
      <trkpt lat="44.88796" lon="0.26146">
        <ele>56.400001525879</ele>
        <time>2013-04-25T08:30:22.000Z</time>
      </trkpt>
      <trkpt lat="44.88801" lon="0.26158">
        <ele>57</ele>
        <time>2013-04-25T08:30:30.000Z</time>
      </trkpt>
      <trkpt lat="44.88806" lon="0.26167">
        <ele>57.599998474121</ele>
        <time>2013-04-25T08:30:35.000Z</time>
      </trkpt>
      <trkpt lat="44.88807" lon="0.26168">
        <ele>57.799999237061</ele>
        <time>2013-04-25T08:30:36.000Z</time>
      </trkpt>
      <trkpt lat="44.8881" lon="0.2617">
        <ele>58.200000762939</ele>
        <time>2013-04-25T08:30:39.000Z</time>
      </trkpt>
      <trkpt lat="44.88812" lon="0.26174">
        <ele>58.799999237061</ele>
        <time>2013-04-25T08:30:40.000Z</time>
      </trkpt>
      <trkpt lat="44.88813" lon="0.26176">
        <ele>59.200000762939</ele>
        <time>2013-04-25T08:30:41.000Z</time>
      </trkpt>
      <trkpt lat="44.88817" lon="0.26185">
        <ele>60.599998474121</ele>
        <time>2013-04-25T08:30:45.000Z</time>
      </trkpt>
      <trkpt lat="44.8882" lon="0.2619">
        <ele>61.400001525879</ele>
        <time>2013-04-25T08:30:47.000Z</time>
      </trkpt>
      <trkpt lat="44.88827" lon="0.26208">
        <ele>64</ele>
        <time>2013-04-25T08:30:54.000Z</time>
      </trkpt>
      <trkpt lat="44.88828" lon="0.2621">
        <ele>64.400001525879</ele>
        <time>2013-04-25T08:30:55.000Z</time>
      </trkpt>
      <trkpt lat="44.88832" lon="0.26219">
        <ele>65.800003051758</ele>
        <time>2013-04-25T08:30:59.000Z</time>
      </trkpt>
      <trkpt lat="44.88834" lon="0.26225">
        <ele>66.599998474121</ele>
        <time>2013-04-25T08:31:02.000Z</time>
      </trkpt>
      <trkpt lat="44.88836" lon="0.26231">
        <ele>67.599998474121</ele>
        <time>2013-04-25T08:31:03.000Z</time>
      </trkpt>
      <trkpt lat="44.88839" lon="0.26237">
        <ele>68.599998474121</ele>
        <time>2013-04-25T08:31:05.000Z</time>
      </trkpt>
      <trkpt lat="44.88843" lon="0.26249">
        <ele>70.400001525879</ele>
        <time>2013-04-25T08:31:10.000Z</time>
      </trkpt>
      <trkpt lat="44.88845" lon="0.26255">
        <ele>71.199996948242</ele>
        <time>2013-04-25T08:31:12.000Z</time>
      </trkpt>
      <trkpt lat="44.88847" lon="0.2626">
        <ele>72</ele>
        <time>2013-04-25T08:31:14.000Z</time>
      </trkpt>
      <trkpt lat="44.88848" lon="0.26262">
        <ele>72.400001525879</ele>
        <time>2013-04-25T08:31:15.000Z</time>
      </trkpt>
      <trkpt lat="44.88851" lon="0.26278">
        <ele>74.599998474121</ele>
        <time>2013-04-25T08:31:20.000Z</time>
      </trkpt>
      <trkpt lat="44.88852" lon="0.26281">
        <ele>75</ele>
        <time>2013-04-25T08:31:21.000Z</time>
      </trkpt>
      <trkpt lat="44.88856" lon="0.26292">
        <ele>76.400001525879</ele>
        <time>2013-04-25T08:31:26.000Z</time>
      </trkpt>
      <trkpt lat="44.88857" lon="0.26306">
        <ele>78.199996948242</ele>
        <time>2013-04-25T08:31:30.000Z</time>
      </trkpt>
      <trkpt lat="44.88857" lon="0.26308">
        <ele>78.400001525879</ele>
        <time>2013-04-25T08:31:32.000Z</time>
      </trkpt>
      <trkpt lat="44.88861" lon="0.26324">
        <ele>80.400001525879</ele>
        <time>2013-04-25T08:31:38.000Z</time>
      </trkpt>
      <trkpt lat="44.88863" lon="0.26331">
        <ele>81.199996948242</ele>
        <time>2013-04-25T08:31:41.000Z</time>
      </trkpt>
      <trkpt lat="44.88863" lon="0.26337">
        <ele>81.800003051758</ele>
        <time>2013-04-25T08:31:44.000Z</time>
      </trkpt>
      <trkpt lat="44.88867" lon="0.26351">
        <ele>83.199996948242</ele>
        <time>2013-04-25T08:31:51.000Z</time>
      </trkpt>
      <trkpt lat="44.88867" lon="0.26357">
        <ele>84</ele>
        <time>2013-04-25T08:31:54.000Z</time>
      </trkpt>
      <trkpt lat="44.88868" lon="0.26359">
        <ele>84.199996948242</ele>
        <time>2013-04-25T08:31:55.000Z</time>
      </trkpt>
      <trkpt lat="44.88869" lon="0.26363">
        <ele>84.400001525879</ele>
        <time>2013-04-25T08:31:57.000Z</time>
      </trkpt>
      <trkpt lat="44.88871" lon="0.26366">
        <ele>84.800003051758</ele>
        <time>2013-04-25T08:31:59.000Z</time>
      </trkpt>
      <trkpt lat="44.88873" lon="0.26368">
        <ele>85</ele>
        <time>2013-04-25T08:32:02.000Z</time>
      </trkpt>
      <trkpt lat="44.88878" lon="0.26368">
        <ele>85</ele>
        <time>2013-04-25T08:32:03.000Z</time>
      </trkpt>
      <trkpt lat="44.88882" lon="0.26367">
        <ele>84.800003051758</ele>
        <time>2013-04-25T08:32:05.000Z</time>
      </trkpt>
      <trkpt lat="44.88887" lon="0.26365">
        <ele>84.599998474121</ele>
        <time>2013-04-25T08:32:08.000Z</time>
      </trkpt>
      <trkpt lat="44.88895" lon="0.26355">
        <ele>83.400001525879</ele>
        <time>2013-04-25T08:32:14.000Z</time>
      </trkpt>
      <trkpt lat="44.88897" lon="0.26354">
        <ele>83.199996948242</ele>
        <time>2013-04-25T08:32:15.000Z</time>
      </trkpt>
      <trkpt lat="44.88907" lon="0.26348">
        <ele>82.599998474121</ele>
        <time>2013-04-25T08:32:22.000Z</time>
      </trkpt>
      <trkpt lat="44.88915" lon="0.26349">
        <ele>82.599998474121</ele>
        <time>2013-04-25T08:32:27.000Z</time>
      </trkpt>
      <trkpt lat="44.88923" lon="0.26355">
        <ele>84.199996948242</ele>
        <time>2013-04-25T08:32:33.000Z</time>
      </trkpt>
      <trkpt lat="44.88931" lon="0.26361">
        <ele>86.199996948242</ele>
        <time>2013-04-25T08:32:39.000Z</time>
      </trkpt>
      <trkpt lat="44.88933" lon="0.26362">
        <ele>86.400001525879</ele>
        <time>2013-04-25T08:32:40.000Z</time>
      </trkpt>
      <trkpt lat="44.88941" lon="0.26366">
        <ele>88.199996948242</ele>
        <time>2013-04-25T08:32:45.000Z</time>
      </trkpt>
      <trkpt lat="44.88943" lon="0.26367">
        <ele>88.599998474121</ele>
        <time>2013-04-25T08:32:46.000Z</time>
      </trkpt>
      <trkpt lat="44.88949" lon="0.2637">
        <ele>89.599998474121</ele>
        <time>2013-04-25T08:32:50.000Z</time>
      </trkpt>
      <trkpt lat="44.88951" lon="0.26371">
        <ele>90</ele>
        <time>2013-04-25T08:32:51.000Z</time>
      </trkpt>
      <trkpt lat="44.88952" lon="0.26371">
        <ele>90.199996948242</ele>
        <time>2013-04-25T08:32:52.000Z</time>
      </trkpt>
      <trkpt lat="44.88959" lon="0.26374">
        <ele>91.400001525879</ele>
        <time>2013-04-25T08:32:56.000Z</time>
      </trkpt>
      <trkpt lat="44.88964" lon="0.26376">
        <ele>92.199996948242</ele>
        <time>2013-04-25T08:32:59.000Z</time>
      </trkpt>
      <trkpt lat="44.88968" lon="0.26376">
        <ele>92.800003051758</ele>
        <time>2013-04-25T08:33:01.000Z</time>
      </trkpt>
      <trkpt lat="44.88968" lon="0.26376">
        <ele>92.800003051758</ele>
        <time>2013-04-25T08:33:02.000Z</time>
      </trkpt>
      <trkpt lat="44.88978" lon="0.26382">
        <ele>94.599998474121</ele>
        <time>2013-04-25T08:33:08.000Z</time>
      </trkpt>
      <trkpt lat="44.88985" lon="0.26388">
        <ele>95.800003051758</ele>
        <time>2013-04-25T08:33:14.000Z</time>
      </trkpt>
      <trkpt lat="44.88986" lon="0.26389">
        <ele>96</ele>
        <time>2013-04-25T08:33:15.000Z</time>
      </trkpt>
      <trkpt lat="44.88992" lon="0.26391">
        <ele>97</ele>
        <time>2013-04-25T08:33:20.000Z</time>
      </trkpt>
      <trkpt lat="44.89001" lon="0.26397">
        <ele>98.199996948242</ele>
        <time>2013-04-25T08:33:27.000Z</time>
      </trkpt>
      <trkpt lat="44.89002" lon="0.26398">
        <ele>98.400001525879</ele>
        <time>2013-04-25T08:33:28.000Z</time>
      </trkpt>
      <trkpt lat="44.89006" lon="0.264">
        <ele>98.800003051758</ele>
        <time>2013-04-25T08:33:31.000Z</time>
      </trkpt>
      <trkpt lat="44.89009" lon="0.26401">
        <ele>99</ele>
        <time>2013-04-25T08:33:33.000Z</time>
      </trkpt>
      <trkpt lat="44.89013" lon="0.26401">
        <ele>99.199996948242</ele>
        <time>2013-04-25T08:33:35.000Z</time>
      </trkpt>
      <trkpt lat="44.89017" lon="0.26397">
        <ele>99.400001525879</ele>
        <time>2013-04-25T08:33:37.000Z</time>
      </trkpt>
      <trkpt lat="44.89019" lon="0.26395">
        <ele>99.599998474121</ele>
        <time>2013-04-25T08:33:38.000Z</time>
      </trkpt>
      <trkpt lat="44.89028" lon="0.26393">
        <ele>100.19999694824</ele>
        <time>2013-04-25T08:33:41.000Z</time>
      </trkpt>
      <trkpt lat="44.89039" lon="0.26399">
        <ele>101</ele>
        <time>2013-04-25T08:33:45.000Z</time>
      </trkpt>
      <trkpt lat="44.8905" lon="0.264">
        <ele>102</ele>
        <time>2013-04-25T08:33:49.000Z</time>
      </trkpt>
      <trkpt lat="44.89056" lon="0.26398">
        <ele>102.40000152588</ele>
        <time>2013-04-25T08:33:51.000Z</time>
      </trkpt>
      <trkpt lat="44.8907" lon="0.26401">
        <ele>103.40000152588</ele>
        <time>2013-04-25T08:33:55.000Z</time>
      </trkpt>
      <trkpt lat="44.89075" lon="0.26403">
        <ele>103.59999847412</ele>
        <time>2013-04-25T08:33:57.000Z</time>
      </trkpt>
      <trkpt lat="44.8908" lon="0.26405">
        <ele>104</ele>
        <time>2013-04-25T08:33:59.000Z</time>
      </trkpt>
      <trkpt lat="44.89093" lon="0.26411">
        <ele>103.80000305176</ele>
        <time>2013-04-25T08:34:03.000Z</time>
      </trkpt>
      <trkpt lat="44.89096" lon="0.26413">
        <ele>103.59999847412</ele>
        <time>2013-04-25T08:34:04.000Z</time>
      </trkpt>
      <trkpt lat="44.89105" lon="0.26418">
        <ele>103.19999694824</ele>
        <time>2013-04-25T08:34:08.000Z</time>
      </trkpt>
      <trkpt lat="44.8911" lon="0.26421">
        <ele>102.80000305176</ele>
        <time>2013-04-25T08:34:09.000Z</time>
      </trkpt>
      <trkpt lat="44.89123" lon="0.26427">
        <ele>102.19999694824</ele>
        <time>2013-04-25T08:34:13.000Z</time>
      </trkpt>
      <trkpt lat="44.89129" lon="0.2643">
        <ele>102</ele>
        <time>2013-04-25T08:34:15.000Z</time>
      </trkpt>
      <trkpt lat="44.8914" lon="0.26436">
        <ele>101.40000152588</ele>
        <time>2013-04-25T08:34:19.000Z</time>
      </trkpt>
      <trkpt lat="44.89146" lon="0.26438">
        <ele>101</ele>
        <time>2013-04-25T08:34:21.000Z</time>
      </trkpt>
      <trkpt lat="44.89159" lon="0.26442">
        <ele>100.40000152588</ele>
        <time>2013-04-25T08:34:25.000Z</time>
      </trkpt>
      <trkpt lat="44.89165" lon="0.26443">
        <ele>100</ele>
        <time>2013-04-25T08:34:27.000Z</time>
      </trkpt>
      <trkpt lat="44.89174" lon="0.26446">
        <ele>99.199996948242</ele>
        <time>2013-04-25T08:34:30.000Z</time>
      </trkpt>
      <trkpt lat="44.89184" lon="0.26449">
        <ele>98.199996948242</ele>
        <time>2013-04-25T08:34:33.000Z</time>
      </trkpt>
      <trkpt lat="44.89191" lon="0.2645">
        <ele>97.599998474121</ele>
        <time>2013-04-25T08:34:35.000Z</time>
      </trkpt>
      <trkpt lat="44.89205" lon="0.26452">
        <ele>96.400001525879</ele>
        <time>2013-04-25T08:34:39.000Z</time>
      </trkpt>
      <trkpt lat="44.89211" lon="0.26452">
        <ele>95.800003051758</ele>
        <time>2013-04-25T08:34:41.000Z</time>
      </trkpt>
      <trkpt lat="44.89224" lon="0.26455">
        <ele>94.599998474121</ele>
        <time>2013-04-25T08:34:45.000Z</time>
      </trkpt>
      <trkpt lat="44.89231" lon="0.26457">
        <ele>94</ele>
        <time>2013-04-25T08:34:47.000Z</time>
      </trkpt>
      <trkpt lat="44.89243" lon="0.26461">
        <ele>92.800003051758</ele>
        <time>2013-04-25T08:34:51.000Z</time>
      </trkpt>
      <trkpt lat="44.89249" lon="0.26463">
        <ele>92.199996948242</ele>
        <time>2013-04-25T08:34:53.000Z</time>
      </trkpt>
      <trkpt lat="44.89261" lon="0.26466">
        <ele>91.599998474121</ele>
        <time>2013-04-25T08:34:57.000Z</time>
      </trkpt>
      <trkpt lat="44.89263" lon="0.26468">
        <ele>91.599998474121</ele>
        <time>2013-04-25T08:34:58.000Z</time>
      </trkpt>
      <trkpt lat="44.8928" lon="0.26472">
        <ele>90.800003051758</ele>
        <time>2013-04-25T08:35:04.000Z</time>
      </trkpt>
      <trkpt lat="44.89291" lon="0.26476">
        <ele>90.400001525879</ele>
        <time>2013-04-25T08:35:08.000Z</time>
      </trkpt>
      <trkpt lat="44.89296" lon="0.26481">
        <ele>90.199996948242</ele>
        <time>2013-04-25T08:35:10.000Z</time>
      </trkpt>
      <trkpt lat="44.89304" lon="0.26489">
        <ele>89.800003051758</ele>
        <time>2013-04-25T08:35:13.000Z</time>
      </trkpt>
      <trkpt lat="44.89313" lon="0.26496">
        <ele>89.400001525879</ele>
        <time>2013-04-25T08:35:16.000Z</time>
      </trkpt>
      <trkpt lat="44.89316" lon="0.26498">
        <ele>89.400001525879</ele>
        <time>2013-04-25T08:37:40.000Z</time>
      </trkpt>
      <trkpt lat="44.89319" lon="0.26509">
        <ele>89</ele>
        <time>2013-04-25T08:37:44.000Z</time>
      </trkpt>
      <trkpt lat="44.89326" lon="0.26524">
        <ele>88.199996948242</ele>
        <time>2013-04-25T08:37:48.000Z</time>
      </trkpt>
      <trkpt lat="44.89333" lon="0.26535">
        <ele>87.599998474121</ele>
        <time>2013-04-25T08:37:51.000Z</time>
      </trkpt>
      <trkpt lat="44.89334" lon="0.26542">
        <ele>87.400001525879</ele>
        <time>2013-04-25T08:37:53.000Z</time>
      </trkpt>
      <trkpt lat="44.89335" lon="0.26549">
        <ele>87.199996948242</ele>
        <time>2013-04-25T08:37:55.000Z</time>
      </trkpt>
      <trkpt lat="44.89337" lon="0.26561">
        <ele>86.800003051758</ele>
        <time>2013-04-25T08:37:58.000Z</time>
      </trkpt>
      <trkpt lat="44.89338" lon="0.26574">
        <ele>86.400001525879</ele>
        <time>2013-04-25T08:38:02.000Z</time>
      </trkpt>
      <trkpt lat="44.89341" lon="0.26581">
        <ele>86.199996948242</ele>
        <time>2013-04-25T08:38:03.000Z</time>
      </trkpt>
      <trkpt lat="44.89347" lon="0.26602">
        <ele>85.800003051758</ele>
        <time>2013-04-25T08:38:08.000Z</time>
      </trkpt>
      <trkpt lat="44.89344" lon="0.26623">
        <ele>85.199996948242</ele>
        <time>2013-04-25T08:38:12.000Z</time>
      </trkpt>
      <trkpt lat="44.89341" lon="0.26629">
        <ele>85</ele>
        <time>2013-04-25T08:38:14.000Z</time>
      </trkpt>
      <trkpt lat="44.8934" lon="0.26633">
        <ele>84.800003051758</ele>
        <time>2013-04-25T08:38:15.000Z</time>
      </trkpt>
      <trkpt lat="44.89339" lon="0.26641">
        <ele>84.599998474121</ele>
        <time>2013-04-25T08:38:17.000Z</time>
      </trkpt>
      <trkpt lat="44.89335" lon="0.26653">
        <ele>84.199996948242</ele>
        <time>2013-04-25T08:38:20.000Z</time>
      </trkpt>
      <trkpt lat="44.89333" lon="0.26655">
        <ele>84.199996948242</ele>
        <time>2013-04-25T08:38:21.000Z</time>
      </trkpt>
      <trkpt lat="44.89328" lon="0.26662">
        <ele>84.199996948242</ele>
        <time>2013-04-25T08:38:24.000Z</time>
      </trkpt>
      <trkpt lat="44.89326" lon="0.26665">
        <ele>84.199996948242</ele>
        <time>2013-04-25T08:38:25.000Z</time>
      </trkpt>
      <trkpt lat="44.89325" lon="0.26667">
        <ele>84.199996948242</ele>
        <time>2013-04-25T08:38:26.000Z</time>
      </trkpt>
      <trkpt lat="44.89324" lon="0.26677">
        <ele>84</ele>
        <time>2013-04-25T08:38:29.000Z</time>
      </trkpt>
      <trkpt lat="44.89321" lon="0.26698">
        <ele>83.599998474121</ele>
        <time>2013-04-25T08:38:34.000Z</time>
      </trkpt>
      <trkpt lat="44.89321" lon="0.26706">
        <ele>83.400001525879</ele>
        <time>2013-04-25T08:38:36.000Z</time>
      </trkpt>
      <trkpt lat="44.89319" lon="0.26718">
        <ele>83</ele>
        <time>2013-04-25T08:38:39.000Z</time>
      </trkpt>
      <trkpt lat="44.89316" lon="0.2673">
        <ele>82.800003051758</ele>
        <time>2013-04-25T08:38:42.000Z</time>
      </trkpt>
      <trkpt lat="44.89314" lon="0.26737">
        <ele>82.599998474121</ele>
        <time>2013-04-25T08:38:44.000Z</time>
      </trkpt>
      <trkpt lat="44.89314" lon="0.26746">
        <ele>82.199996948242</ele>
        <time>2013-04-25T08:38:47.000Z</time>
      </trkpt>
      <trkpt lat="44.89316" lon="0.26747">
        <ele>82.199996948242</ele>
        <time>2013-04-25T08:38:49.000Z</time>
      </trkpt>
      <trkpt lat="44.89322" lon="0.26747">
        <ele>82.199996948242</ele>
        <time>2013-04-25T08:38:51.000Z</time>
      </trkpt>
      <trkpt lat="44.89325" lon="0.2675">
        <ele>82</ele>
        <time>2013-04-25T08:38:53.000Z</time>
      </trkpt>
      <trkpt lat="44.89327" lon="0.26763">
        <ele>81.599998474121</ele>
        <time>2013-04-25T08:38:57.000Z</time>
      </trkpt>
      <trkpt lat="44.89328" lon="0.26771">
        <ele>81.400001525879</ele>
        <time>2013-04-25T08:38:59.000Z</time>
      </trkpt>
      <trkpt lat="44.89329" lon="0.26777">
        <ele>81.199996948242</ele>
        <time>2013-04-25T08:39:01.000Z</time>
      </trkpt>
      <trkpt lat="44.89329" lon="0.26785">
        <ele>81</ele>
        <time>2013-04-25T08:39:03.000Z</time>
      </trkpt>
      <trkpt lat="44.89329" lon="0.26793">
        <ele>80.800003051758</ele>
        <time>2013-04-25T08:39:05.000Z</time>
      </trkpt>
      <trkpt lat="44.89329" lon="0.26798">
        <ele>80.800003051758</ele>
        <time>2013-04-25T08:39:06.000Z</time>
      </trkpt>
      <trkpt lat="44.8933" lon="0.26806">
        <ele>80.599998474121</ele>
        <time>2013-04-25T08:39:08.000Z</time>
      </trkpt>
      <trkpt lat="44.8933" lon="0.26815">
        <ele>80.400001525879</ele>
        <time>2013-04-25T08:39:10.000Z</time>
      </trkpt>
      <trkpt lat="44.89328" lon="0.26827">
        <ele>80</ele>
        <time>2013-04-25T08:39:13.000Z</time>
      </trkpt>
      <trkpt lat="44.89328" lon="0.2683">
        <ele>80</ele>
        <time>2013-04-25T08:39:14.000Z</time>
      </trkpt>
      <trkpt lat="44.89329" lon="0.26837">
        <ele>79.800003051758</ele>
        <time>2013-04-25T08:39:16.000Z</time>
      </trkpt>
      <trkpt lat="44.8933" lon="0.26852">
        <ele>79.599998474121</ele>
        <time>2013-04-25T08:39:20.000Z</time>
      </trkpt>
      <trkpt lat="44.8933" lon="0.26856">
        <ele>79.599998474121</ele>
        <time>2013-04-25T08:39:21.000Z</time>
      </trkpt>
      <trkpt lat="44.8933" lon="0.26879">
        <ele>79.400001525879</ele>
        <time>2013-04-25T08:39:27.000Z</time>
      </trkpt>
      <trkpt lat="44.89333" lon="0.26896">
        <ele>79.199996948242</ele>
        <time>2013-04-25T08:39:32.000Z</time>
      </trkpt>
      <trkpt lat="44.89335" lon="0.26904">
        <ele>79.199996948242</ele>
        <time>2013-04-25T08:39:33.000Z</time>
      </trkpt>
      <trkpt lat="44.89336" lon="0.26919">
        <ele>79</ele>
        <time>2013-04-25T08:39:37.000Z</time>
      </trkpt>
      <trkpt lat="44.89337" lon="0.26931">
        <ele>78.599998474121</ele>
        <time>2013-04-25T08:39:40.000Z</time>
      </trkpt>
      <trkpt lat="44.8934" lon="0.26949">
        <ele>78</ele>
        <time>2013-04-25T08:39:45.000Z</time>
      </trkpt>
      <trkpt lat="44.8934" lon="0.26958">
        <ele>77.599998474121</ele>
        <time>2013-04-25T08:39:47.000Z</time>
      </trkpt>
      <trkpt lat="44.8934" lon="0.26969">
        <ele>77.199996948242</ele>
        <time>2013-04-25T08:39:50.000Z</time>
      </trkpt>
      <trkpt lat="44.89341" lon="0.26971">
        <ele>77.199996948242</ele>
        <time>2013-04-25T08:39:51.000Z</time>
      </trkpt>
      <trkpt lat="44.89346" lon="0.26981">
        <ele>77</ele>
        <time>2013-04-25T08:39:54.000Z</time>
      </trkpt>
      <trkpt lat="44.89347" lon="0.26985">
        <ele>76.800003051758</ele>
        <time>2013-04-25T08:39:55.000Z</time>
      </trkpt>
      <trkpt lat="44.89353" lon="0.26999">
        <ele>76.400001525879</ele>
        <time>2013-04-25T08:39:59.000Z</time>
      </trkpt>
      <trkpt lat="44.89354" lon="0.27007">
        <ele>76.199996948242</ele>
        <time>2013-04-25T08:40:01.000Z</time>
      </trkpt>
      <trkpt lat="44.89358" lon="0.27018">
        <ele>76</ele>
        <time>2013-04-25T08:40:04.000Z</time>
      </trkpt>
      <trkpt lat="44.89361" lon="0.27024">
        <ele>75.800003051758</ele>
        <time>2013-04-25T08:40:06.000Z</time>
      </trkpt>
      <trkpt lat="44.89363" lon="0.2703">
        <ele>75.800003051758</ele>
        <time>2013-04-25T08:40:08.000Z</time>
      </trkpt>
      <trkpt lat="44.89367" lon="0.27034">
        <ele>75.800003051758</ele>
        <time>2013-04-25T08:40:10.000Z</time>
      </trkpt>
      <trkpt lat="44.89371" lon="0.27036">
        <ele>75.800003051758</ele>
        <time>2013-04-25T08:40:12.000Z</time>
      </trkpt>
      <trkpt lat="44.8937" lon="0.27043">
        <ele>75.599998474121</ele>
        <time>2013-04-25T08:40:16.000Z</time>
      </trkpt>
      <trkpt lat="44.89373" lon="0.27047">
        <ele>75.400001525879</ele>
        <time>2013-04-25T08:40:19.000Z</time>
      </trkpt>
      <trkpt lat="44.89375" lon="0.27049">
        <ele>75.400001525879</ele>
        <time>2013-04-25T08:40:21.000Z</time>
      </trkpt>
      <trkpt lat="44.89378" lon="0.27049">
        <ele>75.400001525879</ele>
        <time>2013-04-25T08:40:24.000Z</time>
      </trkpt>
      <trkpt lat="44.89379" lon="0.27049">
        <ele>75.400001525879</ele>
        <time>2013-04-25T08:40:26.000Z</time>
      </trkpt>
      <trkpt lat="44.89381" lon="0.2705">
        <ele>75.599998474121</ele>
        <time>2013-04-25T08:40:28.000Z</time>
      </trkpt>
      <trkpt lat="44.89384" lon="0.27048">
        <ele>75.599998474121</ele>
        <time>2013-04-25T08:40:31.000Z</time>
      </trkpt>
      <trkpt lat="44.89388" lon="0.27049">
        <ele>75.599998474121</ele>
        <time>2013-04-25T08:40:37.000Z</time>
      </trkpt>
      <trkpt lat="44.89391" lon="0.27052">
        <ele>75.599998474121</ele>
        <time>2013-04-25T08:40:41.000Z</time>
      </trkpt>
      <trkpt lat="44.89392" lon="0.27053">
        <ele>75.599998474121</ele>
        <time>2013-04-25T08:40:42.000Z</time>
      </trkpt>
      <trkpt lat="44.89398" lon="0.27059">
        <ele>75.599998474121</ele>
        <time>2013-04-25T08:40:47.000Z</time>
      </trkpt>
      <trkpt lat="44.89405" lon="0.27072">
        <ele>75.199996948242</ele>
        <time>2013-04-25T08:40:51.000Z</time>
      </trkpt>
      <trkpt lat="44.89405" lon="0.27075">
        <ele>75</ele>
        <time>2013-04-25T08:40:52.000Z</time>
      </trkpt>
      <trkpt lat="44.89408" lon="0.27088">
        <ele>74.800003051758</ele>
        <time>2013-04-25T08:40:56.000Z</time>
      </trkpt>
      <trkpt lat="44.89408" lon="0.271">
        <ele>74.400001525879</ele>
        <time>2013-04-25T08:40:59.000Z</time>
      </trkpt>
      <trkpt lat="44.89407" lon="0.27107">
        <ele>74.400001525879</ele>
        <time>2013-04-25T08:41:01.000Z</time>
      </trkpt>
      <trkpt lat="44.89409" lon="0.27121">
        <ele>74</ele>
        <time>2013-04-25T08:41:05.000Z</time>
      </trkpt>
      <trkpt lat="44.89411" lon="0.27123">
        <ele>74</ele>
        <time>2013-04-25T08:41:06.000Z</time>
      </trkpt>
      <trkpt lat="44.8942" lon="0.27127">
        <ele>74</ele>
        <time>2013-04-25T08:41:10.000Z</time>
      </trkpt>
      <trkpt lat="44.89422" lon="0.27128">
        <ele>74</ele>
        <time>2013-04-25T08:41:11.000Z</time>
      </trkpt>
      <trkpt lat="44.8943" lon="0.27134">
        <ele>74.199996948242</ele>
        <time>2013-04-25T08:41:14.000Z</time>
      </trkpt>
      <trkpt lat="44.89438" lon="0.27142">
        <ele>74.199996948242</ele>
        <time>2013-04-25T08:41:17.000Z</time>
      </trkpt>
      <trkpt lat="44.89447" lon="0.2715">
        <ele>74.400001525879</ele>
        <time>2013-04-25T08:41:21.000Z</time>
      </trkpt>
      <trkpt lat="44.89451" lon="0.27155">
        <ele>74.199996948242</ele>
        <time>2013-04-25T08:41:23.000Z</time>
      </trkpt>
      <trkpt lat="44.89462" lon="0.27166">
        <ele>74</ele>
        <time>2013-04-25T08:41:28.000Z</time>
      </trkpt>
      <trkpt lat="44.89463" lon="0.27169">
        <ele>73.800003051758</ele>
        <time>2013-04-25T08:41:29.000Z</time>
      </trkpt>
      <trkpt lat="44.89464" lon="0.27173">
        <ele>73.599998474121</ele>
        <time>2013-04-25T08:41:31.000Z</time>
      </trkpt>
      <trkpt lat="44.89469" lon="0.27177">
        <ele>73.400001525879</ele>
        <time>2013-04-25T08:41:33.000Z</time>
      </trkpt>
      <trkpt lat="44.89476" lon="0.27184">
        <ele>73</ele>
        <time>2013-04-25T08:41:36.000Z</time>
      </trkpt>
      <trkpt lat="44.8948" lon="0.2719">
        <ele>72.800003051758</ele>
        <time>2013-04-25T08:41:38.000Z</time>
      </trkpt>
      <trkpt lat="44.89486" lon="0.27207">
        <ele>71.599998474121</ele>
        <time>2013-04-25T08:41:43.000Z</time>
      </trkpt>
      <trkpt lat="44.89487" lon="0.27224">
        <ele>70.400001525879</ele>
        <time>2013-04-25T08:41:48.000Z</time>
      </trkpt>
      <trkpt lat="44.89488" lon="0.27234">
        <ele>69.800003051758</ele>
        <time>2013-04-25T08:41:51.000Z</time>
      </trkpt>
      <trkpt lat="44.8949" lon="0.27243">
        <ele>69.199996948242</ele>
        <time>2013-04-25T08:41:54.000Z</time>
      </trkpt>
      <trkpt lat="44.89496" lon="0.27259">
        <ele>68.800003051758</ele>
        <time>2013-04-25T08:41:59.000Z</time>
      </trkpt>
      <trkpt lat="44.89505" lon="0.27275">
        <ele>69.199996948242</ele>
        <time>2013-04-25T08:42:04.000Z</time>
      </trkpt>
      <trkpt lat="44.89509" lon="0.2728">
        <ele>69.599998474121</ele>
        <time>2013-04-25T08:42:06.000Z</time>
      </trkpt>
      <trkpt lat="44.89515" lon="0.2729">
        <ele>70</ele>
        <time>2013-04-25T08:42:09.000Z</time>
      </trkpt>
      <trkpt lat="44.89522" lon="0.27301">
        <ele>70.599998474121</ele>
        <time>2013-04-25T08:42:13.000Z</time>
      </trkpt>
      <trkpt lat="44.89525" lon="0.27307">
        <ele>70.800003051758</ele>
        <time>2013-04-25T08:42:15.000Z</time>
      </trkpt>
      <trkpt lat="44.89536" lon="0.27322">
        <ele>71.599998474121</ele>
        <time>2013-04-25T08:42:20.000Z</time>
      </trkpt>
      <trkpt lat="44.89547" lon="0.27336">
        <ele>72.400001525879</ele>
        <time>2013-04-25T08:42:25.000Z</time>
      </trkpt>
      <trkpt lat="44.8955" lon="0.27339">
        <ele>72.599998474121</ele>
        <time>2013-04-25T08:42:26.000Z</time>
      </trkpt>
      <trkpt lat="44.89558" lon="0.27347">
        <ele>73.400001525879</ele>
        <time>2013-04-25T08:42:29.000Z</time>
      </trkpt>
      <trkpt lat="44.89564" lon="0.27356">
        <ele>74</ele>
        <time>2013-04-25T08:42:32.000Z</time>
      </trkpt>
      <trkpt lat="44.8957" lon="0.27364">
        <ele>74.599998474121</ele>
        <time>2013-04-25T08:42:35.000Z</time>
      </trkpt>
      <trkpt lat="44.8958" lon="0.27372">
        <ele>75.599998474121</ele>
        <time>2013-04-25T08:42:39.000Z</time>
      </trkpt>
      <trkpt lat="44.89583" lon="0.27374">
        <ele>75.800003051758</ele>
        <time>2013-04-25T08:42:40.000Z</time>
      </trkpt>
      <trkpt lat="44.89601" lon="0.27378">
        <ele>76.800003051758</ele>
        <time>2013-04-25T08:42:46.000Z</time>
      </trkpt>
      <trkpt lat="44.89604" lon="0.27378">
        <ele>77</ele>
        <time>2013-04-25T08:42:47.000Z</time>
      </trkpt>
      <trkpt lat="44.8962" lon="0.27375">
        <ele>77.800003051758</ele>
        <time>2013-04-25T08:42:52.000Z</time>
      </trkpt>
      <trkpt lat="44.89622" lon="0.27375">
        <ele>78</ele>
        <time>2013-04-25T08:42:53.000Z</time>
      </trkpt>
      <trkpt lat="44.89638" lon="0.27368">
        <ele>78.800003051758</ele>
        <time>2013-04-25T08:42:59.000Z</time>
      </trkpt>
      <trkpt lat="44.8965" lon="0.27364">
        <ele>79.599998474121</ele>
        <time>2013-04-25T08:43:04.000Z</time>
      </trkpt>
      <trkpt lat="44.89656" lon="0.27361">
        <ele>80</ele>
        <time>2013-04-25T08:43:06.000Z</time>
      </trkpt>
      <trkpt lat="44.89661" lon="0.27358">
        <ele>80.199996948242</ele>
        <time>2013-04-25T08:43:08.000Z</time>
      </trkpt>
      <trkpt lat="44.89675" lon="0.27351">
        <ele>81</ele>
        <time>2013-04-25T08:43:13.000Z</time>
      </trkpt>
      <trkpt lat="44.8968" lon="0.27349">
        <ele>81.400001525879</ele>
        <time>2013-04-25T08:43:15.000Z</time>
      </trkpt>
      <trkpt lat="44.89691" lon="0.2735">
        <ele>81.800003051758</ele>
        <time>2013-04-25T08:43:20.000Z</time>
      </trkpt>
      <trkpt lat="44.89694" lon="0.2735">
        <ele>82</ele>
        <time>2013-04-25T08:43:21.000Z</time>
      </trkpt>
      <trkpt lat="44.89696" lon="0.27351">
        <ele>82</ele>
        <time>2013-04-25T08:43:22.000Z</time>
      </trkpt>
      <trkpt lat="44.89701" lon="0.27355">
        <ele>82.199996948242</ele>
        <time>2013-04-25T08:43:24.000Z</time>
      </trkpt>
      <trkpt lat="44.8971" lon="0.27364">
        <ele>82.400001525879</ele>
        <time>2013-04-25T08:43:27.000Z</time>
      </trkpt>
      <trkpt lat="44.89712" lon="0.27367">
        <ele>82.400001525879</ele>
        <time>2013-04-25T08:43:28.000Z</time>
      </trkpt>
      <trkpt lat="44.89714" lon="0.27371">
        <ele>82.400001525879</ele>
        <time>2013-04-25T08:43:30.000Z</time>
      </trkpt>
      <trkpt lat="44.89715" lon="0.27372">
        <ele>82.400001525879</ele>
        <time>2013-04-25T08:43:31.000Z</time>
      </trkpt>
      <trkpt lat="44.89718" lon="0.27375">
        <ele>82.599998474121</ele>
        <time>2013-04-25T08:43:38.000Z</time>
      </trkpt>
      <trkpt lat="44.8972" lon="0.27375">
        <ele>82.599998474121</ele>
        <time>2013-04-25T08:43:46.000Z</time>
      </trkpt>
      <trkpt lat="44.89718" lon="0.27368">
        <ele>82.800003051758</ele>
        <time>2013-04-25T08:44:19.000Z</time>
      </trkpt>
      <trkpt lat="44.89718" lon="0.27371">
        <ele>82.599998474121</ele>
        <time>2013-04-25T08:44:25.000Z</time>
      </trkpt>
      <trkpt lat="44.89718" lon="0.27372">
        <ele>82.599998474121</ele>
        <time>2013-04-25T08:44:26.000Z</time>
      </trkpt>
      <trkpt lat="44.89718" lon="0.27374">
        <ele>82.599998474121</ele>
        <time>2013-04-25T08:44:27.000Z</time>
      </trkpt>
      <trkpt lat="44.89717" lon="0.27377">
        <ele>82.400001525879</ele>
        <time>2013-04-25T08:44:36.000Z</time>
      </trkpt>
      <trkpt lat="44.89716" lon="0.27392">
        <ele>82.199996948242</ele>
        <time>2013-04-25T08:44:49.000Z</time>
      </trkpt>
      <trkpt lat="44.89714" lon="0.27395">
        <ele>82</ele>
        <time>2013-04-25T08:44:50.000Z</time>
      </trkpt>
      <trkpt lat="44.89707" lon="0.27407">
        <ele>81.599998474121</ele>
        <time>2013-04-25T08:44:54.000Z</time>
      </trkpt>
      <trkpt lat="44.89703" lon="0.27418">
        <ele>81.199996948242</ele>
        <time>2013-04-25T08:44:57.000Z</time>
      </trkpt>
      <trkpt lat="44.89702" lon="0.27426">
        <ele>80.800003051758</ele>
        <time>2013-04-25T08:44:59.000Z</time>
      </trkpt>
      <trkpt lat="44.89702" lon="0.27437">
        <ele>80.599998474121</ele>
        <time>2013-04-25T08:45:03.000Z</time>
      </trkpt>
      <trkpt lat="44.89702" lon="0.27439">
        <ele>80.400001525879</ele>
        <time>2013-04-25T08:45:10.000Z</time>
      </trkpt>
      <trkpt lat="44.89701" lon="0.27443">
        <ele>80.400001525879</ele>
        <time>2013-04-25T08:45:29.000Z</time>
      </trkpt>
      <trkpt lat="44.89702" lon="0.27447">
        <ele>80.199996948242</ele>
        <time>2013-04-25T08:45:30.000Z</time>
      </trkpt>
      <trkpt lat="44.89702" lon="0.27467">
        <ele>79.599998474121</ele>
        <time>2013-04-25T08:45:35.000Z</time>
      </trkpt>
      <trkpt lat="44.89703" lon="0.2747">
        <ele>79.599998474121</ele>
        <time>2013-04-25T08:45:36.000Z</time>
      </trkpt>
      <trkpt lat="44.89707" lon="0.27491">
        <ele>79.199996948242</ele>
        <time>2013-04-25T08:45:41.000Z</time>
      </trkpt>
      <trkpt lat="44.89708" lon="0.27495">
        <ele>79</ele>
        <time>2013-04-25T08:45:42.000Z</time>
      </trkpt>
      <trkpt lat="44.89713" lon="0.27512">
        <ele>79.199996948242</ele>
        <time>2013-04-25T08:45:46.000Z</time>
      </trkpt>
      <trkpt lat="44.89714" lon="0.2752">
        <ele>79.400001525879</ele>
        <time>2013-04-25T08:45:48.000Z</time>
      </trkpt>
      <trkpt lat="44.8972" lon="0.27537">
        <ele>80</ele>
        <time>2013-04-25T08:45:52.000Z</time>
      </trkpt>
      <trkpt lat="44.89724" lon="0.27546">
        <ele>80.400001525879</ele>
        <time>2013-04-25T08:45:54.000Z</time>
      </trkpt>
      <trkpt lat="44.89734" lon="0.27568">
        <ele>81.400001525879</ele>
        <time>2013-04-25T08:46:00.000Z</time>
      </trkpt>
      <trkpt lat="44.89738" lon="0.27583">
        <ele>82</ele>
        <time>2013-04-25T08:46:04.000Z</time>
      </trkpt>
      <trkpt lat="44.89741" lon="0.27595">
        <ele>82.199996948242</ele>
        <time>2013-04-25T08:46:07.000Z</time>
      </trkpt>
      <trkpt lat="44.89744" lon="0.27608">
        <ele>82.199996948242</ele>
        <time>2013-04-25T08:46:10.000Z</time>
      </trkpt>
      <trkpt lat="44.89746" lon="0.27621">
        <ele>82.199996948242</ele>
        <time>2013-04-25T08:46:13.000Z</time>
      </trkpt>
      <trkpt lat="44.89748" lon="0.27633">
        <ele>82.199996948242</ele>
        <time>2013-04-25T08:46:16.000Z</time>
      </trkpt>
      <trkpt lat="44.89745" lon="0.27642">
        <ele>82</ele>
        <time>2013-04-25T08:46:19.000Z</time>
      </trkpt>
      <trkpt lat="44.89743" lon="0.27644">
        <ele>81.800003051758</ele>
        <time>2013-04-25T08:46:20.000Z</time>
      </trkpt>
      <trkpt lat="44.89742" lon="0.27646">
        <ele>81.599998474121</ele>
        <time>2013-04-25T08:46:21.000Z</time>
      </trkpt>
      <trkpt lat="44.89735" lon="0.27653">
        <ele>81.199996948242</ele>
        <time>2013-04-25T08:46:24.000Z</time>
      </trkpt>
      <trkpt lat="44.89723" lon="0.27657">
        <ele>80.599998474121</ele>
        <time>2013-04-25T08:46:28.000Z</time>
      </trkpt>
      <trkpt lat="44.8972" lon="0.27657">
        <ele>80.400001525879</ele>
        <time>2013-04-25T08:46:29.000Z</time>
      </trkpt>
      <trkpt lat="44.89705" lon="0.27661">
        <ele>79.800003051758</ele>
        <time>2013-04-25T08:46:34.000Z</time>
      </trkpt>
      <trkpt lat="44.89703" lon="0.27663">
        <ele>79.599998474121</ele>
        <time>2013-04-25T08:46:35.000Z</time>
      </trkpt>
      <trkpt lat="44.89694" lon="0.27674">
        <ele>79</ele>
        <time>2013-04-25T08:46:39.000Z</time>
      </trkpt>
      <trkpt lat="44.89688" lon="0.27683">
        <ele>78.599998474121</ele>
        <time>2013-04-25T08:46:42.000Z</time>
      </trkpt>
      <trkpt lat="44.89687" lon="0.27686">
        <ele>78.599998474121</ele>
        <time>2013-04-25T08:46:43.000Z</time>
      </trkpt>
      <trkpt lat="44.89676" lon="0.27706">
        <ele>78</ele>
        <time>2013-04-25T08:46:49.000Z</time>
      </trkpt>
      <trkpt lat="44.89669" lon="0.27718">
        <ele>78</ele>
        <time>2013-04-25T08:46:53.000Z</time>
      </trkpt>
      <trkpt lat="44.89664" lon="0.27727">
        <ele>77.800003051758</ele>
        <time>2013-04-25T08:46:56.000Z</time>
      </trkpt>
      <trkpt lat="44.8966" lon="0.27734">
        <ele>77.400001525879</ele>
        <time>2013-04-25T08:46:58.000Z</time>
      </trkpt>
      <trkpt lat="44.8965" lon="0.27748">
        <ele>76.800003051758</ele>
        <time>2013-04-25T08:47:03.000Z</time>
      </trkpt>
      <trkpt lat="44.89638" lon="0.27757">
        <ele>75.800003051758</ele>
        <time>2013-04-25T08:47:08.000Z</time>
      </trkpt>
      <trkpt lat="44.89632" lon="0.27758">
        <ele>75.400001525879</ele>
        <time>2013-04-25T08:47:10.000Z</time>
      </trkpt>
      <trkpt lat="44.89625" lon="0.2776">
        <ele>74.800003051758</ele>
        <time>2013-04-25T08:47:12.000Z</time>
      </trkpt>
      <trkpt lat="44.89616" lon="0.27769">
        <ele>74.199996948242</ele>
        <time>2013-04-25T08:47:16.000Z</time>
      </trkpt>
      <trkpt lat="44.89611" lon="0.27775">
        <ele>73.800003051758</ele>
        <time>2013-04-25T08:47:18.000Z</time>
      </trkpt>
      <trkpt lat="44.89605" lon="0.27778">
        <ele>73.599998474121</ele>
        <time>2013-04-25T08:47:20.000Z</time>
      </trkpt>
      <trkpt lat="44.89599" lon="0.2778">
        <ele>73.199996948242</ele>
        <time>2013-04-25T08:47:22.000Z</time>
      </trkpt>
      <trkpt lat="44.89588" lon="0.27785">
        <ele>72.599998474121</ele>
        <time>2013-04-25T08:47:26.000Z</time>
      </trkpt>
      <trkpt lat="44.89582" lon="0.27793">
        <ele>72.400001525879</ele>
        <time>2013-04-25T08:47:29.000Z</time>
      </trkpt>
      <trkpt lat="44.8958" lon="0.27799">
        <ele>72.199996948242</ele>
        <time>2013-04-25T08:47:31.000Z</time>
      </trkpt>
      <trkpt lat="44.89588" lon="0.27791">
        <ele>72.599998474121</ele>
        <time>2013-04-25T08:49:52.000Z</time>
      </trkpt>
      <trkpt lat="44.89586" lon="0.27792">
        <ele>72.599998474121</ele>
        <time>2013-04-25T08:49:54.000Z</time>
      </trkpt>
      <trkpt lat="44.89581" lon="0.27802">
        <ele>72.400001525879</ele>
        <time>2013-04-25T08:49:57.000Z</time>
      </trkpt>
      <trkpt lat="44.89578" lon="0.27806">
        <ele>72.199996948242</ele>
        <time>2013-04-25T08:49:58.000Z</time>
      </trkpt>
      <trkpt lat="44.89575" lon="0.27808">
        <ele>71.800003051758</ele>
        <time>2013-04-25T08:49:59.000Z</time>
      </trkpt>
      <trkpt lat="44.89568" lon="0.2781">
        <ele>71.199996948242</ele>
        <time>2013-04-25T08:50:01.000Z</time>
      </trkpt>
      <trkpt lat="44.89564" lon="0.27811">
        <ele>70.800003051758</ele>
        <time>2013-04-25T08:50:02.000Z</time>
      </trkpt>
      <trkpt lat="44.89557" lon="0.27812">
        <ele>70.199996948242</ele>
        <time>2013-04-25T08:50:04.000Z</time>
      </trkpt>
      <trkpt lat="44.89549" lon="0.27818">
        <ele>69.199996948242</ele>
        <time>2013-04-25T08:50:07.000Z</time>
      </trkpt>
      <trkpt lat="44.89538" lon="0.27824">
        <ele>68.199996948242</ele>
        <time>2013-04-25T08:50:10.000Z</time>
      </trkpt>
      <trkpt lat="44.89535" lon="0.27826">
        <ele>67.800003051758</ele>
        <time>2013-04-25T08:50:11.000Z</time>
      </trkpt>
      <trkpt lat="44.8952" lon="0.27836">
        <ele>66</ele>
        <time>2013-04-25T08:50:16.000Z</time>
      </trkpt>
      <trkpt lat="44.89509" lon="0.27843">
        <ele>64.800003051758</ele>
        <time>2013-04-25T08:50:20.000Z</time>
      </trkpt>
      <trkpt lat="44.89504" lon="0.27847">
        <ele>64.400001525879</ele>
        <time>2013-04-25T08:50:22.000Z</time>
      </trkpt>
      <trkpt lat="44.89499" lon="0.2785">
        <ele>64</ele>
        <time>2013-04-25T08:50:24.000Z</time>
      </trkpt>
      <trkpt lat="44.89496" lon="0.27849">
        <ele>64</ele>
        <time>2013-04-25T08:50:25.000Z</time>
      </trkpt>
      <trkpt lat="44.8949" lon="0.27846">
        <ele>64</ele>
        <time>2013-04-25T08:50:27.000Z</time>
      </trkpt>
      <trkpt lat="44.89487" lon="0.27843">
        <ele>64</ele>
        <time>2013-04-25T08:50:28.000Z</time>
      </trkpt>
      <trkpt lat="44.89482" lon="0.27832">
        <ele>64.199996948242</ele>
        <time>2013-04-25T08:50:31.000Z</time>
      </trkpt>
      <trkpt lat="44.89479" lon="0.2782">
        <ele>64.599998474121</ele>
        <time>2013-04-25T08:50:34.000Z</time>
      </trkpt>
      <trkpt lat="44.89478" lon="0.27816">
        <ele>64.599998474121</ele>
        <time>2013-04-25T08:50:35.000Z</time>
      </trkpt>
      <trkpt lat="44.89477" lon="0.27811">
        <ele>64.800003051758</ele>
        <time>2013-04-25T08:50:36.000Z</time>
      </trkpt>
      <trkpt lat="44.89473" lon="0.27796">
        <ele>65.199996948242</ele>
        <time>2013-04-25T08:50:40.000Z</time>
      </trkpt>
      <trkpt lat="44.89469" lon="0.2778">
        <ele>65.800003051758</ele>
        <time>2013-04-25T08:50:45.000Z</time>
      </trkpt>
      <trkpt lat="44.89467" lon="0.27772">
        <ele>66</ele>
        <time>2013-04-25T08:50:48.000Z</time>
      </trkpt>
      <trkpt lat="44.89466" lon="0.27764">
        <ele>66.199996948242</ele>
        <time>2013-04-25T08:50:50.000Z</time>
      </trkpt>
      <trkpt lat="44.89459" lon="0.27749">
        <ele>66.400001525879</ele>
        <time>2013-04-25T08:50:55.000Z</time>
      </trkpt>
      <trkpt lat="44.89456" lon="0.27735">
        <ele>67</ele>
        <time>2013-04-25T08:50:59.000Z</time>
      </trkpt>
      <trkpt lat="44.89449" lon="0.27733">
        <ele>67</ele>
        <time>2013-04-25T08:51:03.000Z</time>
      </trkpt>
      <trkpt lat="44.89442" lon="0.27742">
        <ele>66.599998474121</ele>
        <time>2013-04-25T08:51:07.000Z</time>
      </trkpt>
      <trkpt lat="44.89433" lon="0.27746">
        <ele>66.199996948242</ele>
        <time>2013-04-25T08:51:12.000Z</time>
      </trkpt>
      <trkpt lat="44.89426" lon="0.27735">
        <ele>66.599998474121</ele>
        <time>2013-04-25T08:51:17.000Z</time>
      </trkpt>
      <trkpt lat="44.89419" lon="0.27728">
        <ele>67</ele>
        <time>2013-04-25T08:51:21.000Z</time>
      </trkpt>
      <trkpt lat="44.89416" lon="0.27725">
        <ele>67.199996948242</ele>
        <time>2013-04-25T08:51:22.000Z</time>
      </trkpt>
      <trkpt lat="44.89409" lon="0.27715">
        <ele>67.800003051758</ele>
        <time>2013-04-25T08:51:26.000Z</time>
      </trkpt>
      <trkpt lat="44.89408" lon="0.27713">
        <ele>68</ele>
        <time>2013-04-25T08:51:27.000Z</time>
      </trkpt>
      <trkpt lat="44.89404" lon="0.27708">
        <ele>68.400001525879</ele>
        <time>2013-04-25T08:51:29.000Z</time>
      </trkpt>
      <trkpt lat="44.89401" lon="0.27704">
        <ele>68.599998474121</ele>
        <time>2013-04-25T08:51:31.000Z</time>
      </trkpt>
      <trkpt lat="44.89395" lon="0.27703">
        <ele>68.800003051758</ele>
        <time>2013-04-25T08:51:34.000Z</time>
      </trkpt>
      <trkpt lat="44.89392" lon="0.27705">
        <ele>68.800003051758</ele>
        <time>2013-04-25T08:51:36.000Z</time>
      </trkpt>
      <trkpt lat="44.89388" lon="0.27708">
        <ele>69</ele>
        <time>2013-04-25T08:51:39.000Z</time>
      </trkpt>
      <trkpt lat="44.89387" lon="0.27708">
        <ele>69</ele>
        <time>2013-04-25T08:51:40.000Z</time>
      </trkpt>
      <trkpt lat="44.89385" lon="0.27709">
        <ele>69</ele>
        <time>2013-04-25T08:51:41.000Z</time>
      </trkpt>
      <trkpt lat="44.89378" lon="0.2771">
        <ele>69.199996948242</ele>
        <time>2013-04-25T08:51:45.000Z</time>
      </trkpt>
      <trkpt lat="44.89376" lon="0.27711">
        <ele>69.400001525879</ele>
        <time>2013-04-25T08:51:46.000Z</time>
      </trkpt>
      <trkpt lat="44.89369" lon="0.27717">
        <ele>69.400001525879</ele>
        <time>2013-04-25T08:51:50.000Z</time>
      </trkpt>
      <trkpt lat="44.89366" lon="0.27721">
        <ele>69.400001525879</ele>
        <time>2013-04-25T08:51:52.000Z</time>
      </trkpt>
      <trkpt lat="44.89362" lon="0.27726">
        <ele>69.599998474121</ele>
        <time>2013-04-25T08:51:55.000Z</time>
      </trkpt>
      <trkpt lat="44.89349" lon="0.27721">
        <ele>70.199996948242</ele>
        <time>2013-04-25T08:53:42.000Z</time>
      </trkpt>
      <trkpt lat="44.89344" lon="0.27711">
        <ele>70.599998474121</ele>
        <time>2013-04-25T08:53:46.000Z</time>
      </trkpt>
      <trkpt lat="44.89342" lon="0.27708">
        <ele>70.599998474121</ele>
        <time>2013-04-25T08:53:48.000Z</time>
      </trkpt>
      <trkpt lat="44.89338" lon="0.27704">
        <ele>70.800003051758</ele>
        <time>2013-04-25T08:53:50.000Z</time>
      </trkpt>
      <trkpt lat="44.89335" lon="0.27701">
        <ele>70.800003051758</ele>
        <time>2013-04-25T08:53:51.000Z</time>
      </trkpt>
      <trkpt lat="44.89333" lon="0.277">
        <ele>71</ele>
        <time>2013-04-25T08:53:52.000Z</time>
      </trkpt>
      <trkpt lat="44.89327" lon="0.27699">
        <ele>71</ele>
        <time>2013-04-25T08:53:54.000Z</time>
      </trkpt>
      <trkpt lat="44.8932" lon="0.27696">
        <ele>71</ele>
        <time>2013-04-25T08:53:58.000Z</time>
      </trkpt>
      <trkpt lat="44.89317" lon="0.27694">
        <ele>71</ele>
        <time>2013-04-25T08:53:59.000Z</time>
      </trkpt>
      <trkpt lat="44.89311" lon="0.2769">
        <ele>71.199996948242</ele>
        <time>2013-04-25T08:54:02.000Z</time>
      </trkpt>
      <trkpt lat="44.89302" lon="0.27689">
        <ele>71.199996948242</ele>
        <time>2013-04-25T08:54:06.000Z</time>
      </trkpt>
      <trkpt lat="44.893" lon="0.27687">
        <ele>71.199996948242</ele>
        <time>2013-04-25T08:54:07.000Z</time>
      </trkpt>
      <trkpt lat="44.89298" lon="0.27685">
        <ele>71.199996948242</ele>
        <time>2013-04-25T08:54:09.000Z</time>
      </trkpt>
      <trkpt lat="44.89298" lon="0.27685">
        <ele>71.199996948242</ele>
        <time>2013-04-25T08:54:10.000Z</time>
      </trkpt>
      <trkpt lat="44.89289" lon="0.27684">
        <ele>71.199996948242</ele>
        <time>2013-04-25T08:54:14.000Z</time>
      </trkpt>
      <trkpt lat="44.89282" lon="0.27678">
        <ele>71.199996948242</ele>
        <time>2013-04-25T08:54:19.000Z</time>
      </trkpt>
      <trkpt lat="44.89279" lon="0.27677">
        <ele>71.199996948242</ele>
        <time>2013-04-25T08:54:21.000Z</time>
      </trkpt>
      <trkpt lat="44.89275" lon="0.27675">
        <ele>71.199996948242</ele>
        <time>2013-04-25T08:54:23.000Z</time>
      </trkpt>
      <trkpt lat="44.89266" lon="0.2767">
        <ele>71</ele>
        <time>2013-04-25T08:54:28.000Z</time>
      </trkpt>
      <trkpt lat="44.89264" lon="0.27669">
        <ele>71</ele>
        <time>2013-04-25T08:54:29.000Z</time>
      </trkpt>
      <trkpt lat="44.89253" lon="0.27667">
        <ele>71</ele>
        <time>2013-04-25T08:54:34.000Z</time>
      </trkpt>
      <trkpt lat="44.8925" lon="0.27666">
        <ele>71</ele>
        <time>2013-04-25T08:54:37.000Z</time>
      </trkpt>
      <trkpt lat="44.89247" lon="0.27666">
        <ele>71.199996948242</ele>
        <time>2013-04-25T08:54:39.000Z</time>
      </trkpt>
      <trkpt lat="44.89245" lon="0.27667">
        <ele>71.199996948242</ele>
        <time>2013-04-25T08:54:40.000Z</time>
      </trkpt>
      <trkpt lat="44.89235" lon="0.27665">
        <ele>72</ele>
        <time>2013-04-25T08:54:45.000Z</time>
      </trkpt>
      <trkpt lat="44.89226" lon="0.27661">
        <ele>72.599998474121</ele>
        <time>2013-04-25T08:54:49.000Z</time>
      </trkpt>
      <trkpt lat="44.89218" lon="0.27658">
        <ele>73.400001525879</ele>
        <time>2013-04-25T08:54:53.000Z</time>
      </trkpt>
      <trkpt lat="44.89207" lon="0.2766">
        <ele>74.199996948242</ele>
        <time>2013-04-25T08:54:58.000Z</time>
      </trkpt>
      <trkpt lat="44.89204" lon="0.27661">
        <ele>74.199996948242</ele>
        <time>2013-04-25T08:54:59.000Z</time>
      </trkpt>
      <trkpt lat="44.89196" lon="0.2767">
        <ele>75</ele>
        <time>2013-04-25T08:55:04.000Z</time>
      </trkpt>
      <trkpt lat="44.89191" lon="0.27677">
        <ele>75.599998474121</ele>
        <time>2013-04-25T08:55:07.000Z</time>
      </trkpt>
      <trkpt lat="44.89186" lon="0.2769">
        <ele>76.599998474121</ele>
        <time>2013-04-25T08:55:11.000Z</time>
      </trkpt>
      <trkpt lat="44.89181" lon="0.27701">
        <ele>77.400001525879</ele>
        <time>2013-04-25T08:55:15.000Z</time>
      </trkpt>
      <trkpt lat="44.89178" lon="0.2771">
        <ele>78</ele>
        <time>2013-04-25T08:55:18.000Z</time>
      </trkpt>
      <trkpt lat="44.8917" lon="0.27722">
        <ele>79.199996948242</ele>
        <time>2013-04-25T08:55:24.000Z</time>
      </trkpt>
      <trkpt lat="44.89162" lon="0.27734">
        <ele>80.400001525879</ele>
        <time>2013-04-25T08:55:30.000Z</time>
      </trkpt>
      <trkpt lat="44.89158" lon="0.27745">
        <ele>81</ele>
        <time>2013-04-25T08:55:34.000Z</time>
      </trkpt>
      <trkpt lat="44.89157" lon="0.27751">
        <ele>81.400001525879</ele>
        <time>2013-04-25T08:55:36.000Z</time>
      </trkpt>
      <trkpt lat="44.89151" lon="0.27764">
        <ele>82.400001525879</ele>
        <time>2013-04-25T08:55:42.000Z</time>
      </trkpt>
      <trkpt lat="44.8915" lon="0.27767">
        <ele>82.599998474121</ele>
        <time>2013-04-25T08:55:43.000Z</time>
      </trkpt>
      <trkpt lat="44.89148" lon="0.27769">
        <ele>82.800003051758</ele>
        <time>2013-04-25T08:55:44.000Z</time>
      </trkpt>
      <trkpt lat="44.89145" lon="0.27774">
        <ele>83.199996948242</ele>
        <time>2013-04-25T08:55:47.000Z</time>
      </trkpt>
      <trkpt lat="44.8914" lon="0.27785">
        <ele>84</ele>
        <time>2013-04-25T08:55:51.000Z</time>
      </trkpt>
      <trkpt lat="44.89137" lon="0.27788">
        <ele>84.199996948242</ele>
        <time>2013-04-25T08:55:53.000Z</time>
      </trkpt>
      <trkpt lat="44.89133" lon="0.27795">
        <ele>84.800003051758</ele>
        <time>2013-04-25T08:55:56.000Z</time>
      </trkpt>
      <trkpt lat="44.89124" lon="0.27804">
        <ele>85.599998474121</ele>
        <time>2013-04-25T08:56:02.000Z</time>
      </trkpt>
      <trkpt lat="44.89122" lon="0.27807">
        <ele>85.800003051758</ele>
        <time>2013-04-25T08:56:03.000Z</time>
      </trkpt>
      <trkpt lat="44.89114" lon="0.27818">
        <ele>86.400001525879</ele>
        <time>2013-04-25T08:56:09.000Z</time>
      </trkpt>
      <trkpt lat="44.89109" lon="0.27825">
        <ele>87</ele>
        <time>2013-04-25T08:56:12.000Z</time>
      </trkpt>
      <trkpt lat="44.89105" lon="0.27832">
        <ele>87.400001525879</ele>
        <time>2013-04-25T08:56:15.000Z</time>
      </trkpt>
      <trkpt lat="44.89097" lon="0.27846">
        <ele>87.599998474121</ele>
        <time>2013-04-25T08:56:21.000Z</time>
      </trkpt>
      <trkpt lat="44.89089" lon="0.27855">
        <ele>87.800003051758</ele>
        <time>2013-04-25T08:56:26.000Z</time>
      </trkpt>
      <trkpt lat="44.89083" lon="0.27863">
        <ele>88</ele>
        <time>2013-04-25T08:56:30.000Z</time>
      </trkpt>
      <trkpt lat="44.89082" lon="0.27865">
        <ele>88</ele>
        <time>2013-04-25T08:56:31.000Z</time>
      </trkpt>
      <trkpt lat="44.89073" lon="0.2788">
        <ele>88.599998474121</ele>
        <time>2013-04-25T08:56:37.000Z</time>
      </trkpt>
      <trkpt lat="44.89072" lon="0.27882">
        <ele>88.800003051758</ele>
        <time>2013-04-25T08:56:38.000Z</time>
      </trkpt>
      <trkpt lat="44.89065" lon="0.2789">
        <ele>89.199996948242</ele>
        <time>2013-04-25T08:56:42.000Z</time>
      </trkpt>
      <trkpt lat="44.89055" lon="0.27898">
        <ele>89.800003051758</ele>
        <time>2013-04-25T08:56:47.000Z</time>
      </trkpt>
      <trkpt lat="44.89043" lon="0.27912">
        <ele>90.400001525879</ele>
        <time>2013-04-25T08:56:54.000Z</time>
      </trkpt>
      <trkpt lat="44.8904" lon="0.27916">
        <ele>90.599998474121</ele>
        <time>2013-04-25T08:56:56.000Z</time>
      </trkpt>
      <trkpt lat="44.8903" lon="0.27929">
        <ele>91</ele>
        <time>2013-04-25T08:57:02.000Z</time>
      </trkpt>
      <trkpt lat="44.89026" lon="0.27935">
        <ele>91.199996948242</ele>
        <time>2013-04-25T08:57:05.000Z</time>
      </trkpt>
      <trkpt lat="44.89021" lon="0.27942">
        <ele>91.199996948242</ele>
        <time>2013-04-25T08:57:08.000Z</time>
      </trkpt>
      <trkpt lat="44.89012" lon="0.27953">
        <ele>91.400001525879</ele>
        <time>2013-04-25T08:57:14.000Z</time>
      </trkpt>
      <trkpt lat="44.89011" lon="0.27956">
        <ele>91.400001525879</ele>
        <time>2013-04-25T08:57:15.000Z</time>
      </trkpt>
      <trkpt lat="44.89004" lon="0.2797">
        <ele>91.400001525879</ele>
        <time>2013-04-25T08:57:21.000Z</time>
      </trkpt>
      <trkpt lat="44.89002" lon="0.27975">
        <ele>91.400001525879</ele>
        <time>2013-04-25T08:57:23.000Z</time>
      </trkpt>
      <trkpt lat="44.88997" lon="0.27987">
        <ele>91.400001525879</ele>
        <time>2013-04-25T08:57:28.000Z</time>
      </trkpt>
      <trkpt lat="44.88993" lon="0.27999">
        <ele>91.199996948242</ele>
        <time>2013-04-25T08:57:33.000Z</time>
      </trkpt>
      <trkpt lat="44.88992" lon="0.28004">
        <ele>91.199996948242</ele>
        <time>2013-04-25T08:57:35.000Z</time>
      </trkpt>
      <trkpt lat="44.88988" lon="0.28022">
        <ele>91.599998474121</ele>
        <time>2013-04-25T08:57:42.000Z</time>
      </trkpt>
      <trkpt lat="44.88988" lon="0.28024">
        <ele>91.599998474121</ele>
        <time>2013-04-25T08:57:43.000Z</time>
      </trkpt>
      <trkpt lat="44.88987" lon="0.28038">
        <ele>91.800003051758</ele>
        <time>2013-04-25T08:57:50.000Z</time>
      </trkpt>
      <trkpt lat="44.88986" lon="0.28043">
        <ele>91.800003051758</ele>
        <time>2013-04-25T08:57:56.000Z</time>
      </trkpt>
      <trkpt lat="44.88984" lon="0.28045">
        <ele>91.800003051758</ele>
        <time>2013-04-25T08:58:01.000Z</time>
      </trkpt>
      <trkpt lat="44.88983" lon="0.28045">
        <ele>91.800003051758</ele>
        <time>2013-04-25T08:58:02.000Z</time>
      </trkpt>
      <trkpt lat="44.88982" lon="0.28046">
        <ele>91.599998474121</ele>
        <time>2013-04-25T08:58:04.000Z</time>
      </trkpt>
      <trkpt lat="44.88983" lon="0.28047">
        <ele>91.800003051758</ele>
        <time>2013-04-25T08:58:06.000Z</time>
      </trkpt>
      <trkpt lat="44.88983" lon="0.28047">
        <ele>91.800003051758</ele>
        <time>2013-04-25T08:58:13.000Z</time>
      </trkpt>
      <trkpt lat="44.88987" lon="0.28052">
        <ele>91.800003051758</ele>
        <time>2013-04-25T08:58:30.000Z</time>
      </trkpt>
      <trkpt lat="44.88999" lon="0.28056">
        <ele>92.199996948242</ele>
        <time>2013-04-25T08:58:35.000Z</time>
      </trkpt>
      <trkpt lat="44.89015" lon="0.2806">
        <ele>92.599998474121</ele>
        <time>2013-04-25T08:58:40.000Z</time>
      </trkpt>
      <trkpt lat="44.89018" lon="0.28061">
        <ele>92.599998474121</ele>
        <time>2013-04-25T08:58:41.000Z</time>
      </trkpt>
      <trkpt lat="44.89029" lon="0.28066">
        <ele>92.800003051758</ele>
        <time>2013-04-25T08:58:45.000Z</time>
      </trkpt>
      <trkpt lat="44.89036" lon="0.28069">
        <ele>93.199996948242</ele>
        <time>2013-04-25T08:58:48.000Z</time>
      </trkpt>
      <trkpt lat="44.89044" lon="0.28073">
        <ele>93.400001525879</ele>
        <time>2013-04-25T08:58:51.000Z</time>
      </trkpt>
      <trkpt lat="44.89054" lon="0.28077">
        <ele>93.800003051758</ele>
        <time>2013-04-25T08:58:55.000Z</time>
      </trkpt>
      <trkpt lat="44.89057" lon="0.28078">
        <ele>94</ele>
        <time>2013-04-25T08:58:56.000Z</time>
      </trkpt>
      <trkpt lat="44.89073" lon="0.28079">
        <ele>94.400001525879</ele>
        <time>2013-04-25T08:59:01.000Z</time>
      </trkpt>
      <trkpt lat="44.89087" lon="0.28081">
        <ele>94.599998474121</ele>
        <time>2013-04-25T08:59:06.000Z</time>
      </trkpt>
      <trkpt lat="44.89091" lon="0.28081">
        <ele>94.599998474121</ele>
        <time>2013-04-25T08:59:07.000Z</time>
      </trkpt>
      <trkpt lat="44.89111" lon="0.28084">
        <ele>94.199996948242</ele>
        <time>2013-04-25T08:59:14.000Z</time>
      </trkpt>
      <trkpt lat="44.89124" lon="0.28085">
        <ele>94</ele>
        <time>2013-04-25T08:59:19.000Z</time>
      </trkpt>
      <trkpt lat="44.89129" lon="0.28082">
        <ele>93.800003051758</ele>
        <time>2013-04-25T08:59:21.000Z</time>
      </trkpt>
      <trkpt lat="44.89135" lon="0.28077">
        <ele>93.400001525879</ele>
        <time>2013-04-25T08:59:23.000Z</time>
      </trkpt>
      <trkpt lat="44.89146" lon="0.28066">
        <ele>92.800003051758</ele>
        <time>2013-04-25T08:59:27.000Z</time>
      </trkpt>
      <trkpt lat="44.89149" lon="0.28063">
        <ele>92.599998474121</ele>
        <time>2013-04-25T08:59:28.000Z</time>
      </trkpt>
      <trkpt lat="44.89163" lon="0.2805">
        <ele>92.199996948242</ele>
        <time>2013-04-25T08:59:33.000Z</time>
      </trkpt>
      <trkpt lat="44.89176" lon="0.28039">
        <ele>90.599998474121</ele>
        <time>2013-04-25T08:59:38.000Z</time>
      </trkpt>
      <trkpt lat="44.89179" lon="0.28036">
        <ele>90.400001525879</ele>
        <time>2013-04-25T08:59:39.000Z</time>
      </trkpt>
      <trkpt lat="44.89192" lon="0.28029">
        <ele>88.599998474121</ele>
        <time>2013-04-25T08:59:43.000Z</time>
      </trkpt>
      <trkpt lat="44.89199" lon="0.28027">
        <ele>87.800003051758</ele>
        <time>2013-04-25T08:59:45.000Z</time>
      </trkpt>
      <trkpt lat="44.8921" lon="0.28023">
        <ele>86.599998474121</ele>
        <time>2013-04-25T08:59:48.000Z</time>
      </trkpt>
      <trkpt lat="44.89216" lon="0.28019">
        <ele>85.800003051758</ele>
        <time>2013-04-25T08:59:50.000Z</time>
      </trkpt>
      <trkpt lat="44.8923" lon="0.28007">
        <ele>84.199996948242</ele>
        <time>2013-04-25T08:59:55.000Z</time>
      </trkpt>
      <trkpt lat="44.89233" lon="0.28005">
        <ele>83.800003051758</ele>
        <time>2013-04-25T08:59:56.000Z</time>
      </trkpt>
      <trkpt lat="44.89245" lon="0.28">
        <ele>82.400001525879</ele>
        <time>2013-04-25T09:00:00.000Z</time>
      </trkpt>
      <trkpt lat="44.89253" lon="0.28">
        <ele>81.599998474121</ele>
        <time>2013-04-25T09:00:02.000Z</time>
      </trkpt>
      <trkpt lat="44.89259" lon="0.28">
        <ele>81</ele>
        <time>2013-04-25T09:00:04.000Z</time>
      </trkpt>
      <trkpt lat="44.89272" lon="0.27998">
        <ele>79.800003051758</ele>
        <time>2013-04-25T09:00:08.000Z</time>
      </trkpt>
      <trkpt lat="44.89277" lon="0.27994">
        <ele>79.199996948242</ele>
        <time>2013-04-25T09:00:10.000Z</time>
      </trkpt>
      <trkpt lat="44.89288" lon="0.27985">
        <ele>78.199996948242</ele>
        <time>2013-04-25T09:00:14.000Z</time>
      </trkpt>
      <trkpt lat="44.89294" lon="0.27981">
        <ele>77.599998474121</ele>
        <time>2013-04-25T09:00:16.000Z</time>
      </trkpt>
      <trkpt lat="44.89305" lon="0.27975">
        <ele>76.599998474121</ele>
        <time>2013-04-25T09:00:20.000Z</time>
      </trkpt>
      <trkpt lat="44.8931" lon="0.2797">
        <ele>76.199996948242</ele>
        <time>2013-04-25T09:00:22.000Z</time>
      </trkpt>
      <trkpt lat="44.89318" lon="0.27963">
        <ele>75.599998474121</ele>
        <time>2013-04-25T09:00:25.000Z</time>
      </trkpt>
      <trkpt lat="44.89322" lon="0.27965">
        <ele>75.199996948242</ele>
        <time>2013-04-25T09:00:26.000Z</time>
      </trkpt>
      <trkpt lat="44.89328" lon="0.27976">
        <ele>74.599998474121</ele>
        <time>2013-04-25T09:00:29.000Z</time>
      </trkpt>
      <trkpt lat="44.89329" lon="0.27985">
        <ele>74.400001525879</ele>
        <time>2013-04-25T09:00:31.000Z</time>
      </trkpt>
      <trkpt lat="44.89329" lon="0.27989">
        <ele>74.400001525879</ele>
        <time>2013-04-25T09:00:32.000Z</time>
      </trkpt>
      <trkpt lat="44.8933" lon="0.27998">
        <ele>74.199996948242</ele>
        <time>2013-04-25T09:00:34.000Z</time>
      </trkpt>
      <trkpt lat="44.89332" lon="0.28016">
        <ele>73.800003051758</ele>
        <time>2013-04-25T09:00:38.000Z</time>
      </trkpt>
      <trkpt lat="44.89331" lon="0.2802">
        <ele>73.800003051758</ele>
        <time>2013-04-25T09:00:39.000Z</time>
      </trkpt>
      <trkpt lat="44.8933" lon="0.28041">
        <ele>73.800003051758</ele>
        <time>2013-04-25T09:00:44.000Z</time>
      </trkpt>
      <trkpt lat="44.89331" lon="0.28045">
        <ele>73.599998474121</ele>
        <time>2013-04-25T09:00:45.000Z</time>
      </trkpt>
      <trkpt lat="44.89333" lon="0.28058">
        <ele>73.199996948242</ele>
        <time>2013-04-25T09:00:49.000Z</time>
      </trkpt>
      <trkpt lat="44.89334" lon="0.28071">
        <ele>73</ele>
        <time>2013-04-25T09:00:53.000Z</time>
      </trkpt>
      <trkpt lat="44.89334" lon="0.28074">
        <ele>73</ele>
        <time>2013-04-25T09:00:54.000Z</time>
      </trkpt>
      <trkpt lat="44.89334" lon="0.28082">
        <ele>72.800003051758</ele>
        <time>2013-04-25T09:00:59.000Z</time>
      </trkpt>
      <trkpt lat="44.89336" lon="0.28093">
        <ele>72.400001525879</ele>
        <time>2013-04-25T09:01:04.000Z</time>
      </trkpt>
      <trkpt lat="44.89337" lon="0.28096">
        <ele>72</ele>
        <time>2013-04-25T09:01:05.000Z</time>
      </trkpt>
      <trkpt lat="44.89343" lon="0.28104">
        <ele>71.199996948242</ele>
        <time>2013-04-25T09:01:08.000Z</time>
      </trkpt>
      <trkpt lat="44.89346" lon="0.28108">
        <ele>70.800003051758</ele>
        <time>2013-04-25T09:01:09.000Z</time>
      </trkpt>
      <trkpt lat="44.89348" lon="0.28118">
        <ele>70.199996948242</ele>
        <time>2013-04-25T09:01:11.000Z</time>
      </trkpt>
      <trkpt lat="44.89348" lon="0.28122">
        <ele>70</ele>
        <time>2013-04-25T09:01:12.000Z</time>
      </trkpt>
      <trkpt lat="44.89348" lon="0.28145">
        <ele>69.199996948242</ele>
        <time>2013-04-25T09:01:17.000Z</time>
      </trkpt>
      <trkpt lat="44.89344" lon="0.28172">
        <ele>68.800003051758</ele>
        <time>2013-04-25T09:01:22.000Z</time>
      </trkpt>
      <trkpt lat="44.89341" lon="0.28194">
        <ele>68.599998474121</ele>
        <time>2013-04-25T09:01:27.000Z</time>
      </trkpt>
      <trkpt lat="44.89341" lon="0.28198">
        <ele>68.400001525879</ele>
        <time>2013-04-25T09:01:28.000Z</time>
      </trkpt>
      <trkpt lat="44.89342" lon="0.28214">
        <ele>68</ele>
        <time>2013-04-25T09:01:32.000Z</time>
      </trkpt>
      <trkpt lat="44.89343" lon="0.28223">
        <ele>67.800003051758</ele>
        <time>2013-04-25T09:01:34.000Z</time>
      </trkpt>
      <trkpt lat="44.8934" lon="0.28231">
        <ele>67.800003051758</ele>
        <time>2013-04-25T09:01:36.000Z</time>
      </trkpt>
      <trkpt lat="44.89333" lon="0.28246">
        <ele>68</ele>
        <time>2013-04-25T09:01:40.000Z</time>
      </trkpt>
      <trkpt lat="44.8933" lon="0.28249">
        <ele>68.199996948242</ele>
        <time>2013-04-25T09:01:41.000Z</time>
      </trkpt>
      <trkpt lat="44.89321" lon="0.2826">
        <ele>69</ele>
        <time>2013-04-25T09:01:47.000Z</time>
      </trkpt>
      <trkpt lat="44.89318" lon="0.28266">
        <ele>69.400001525879</ele>
        <time>2013-04-25T09:01:49.000Z</time>
      </trkpt>
      <trkpt lat="44.89313" lon="0.28274">
        <ele>69.800003051758</ele>
        <time>2013-04-25T09:01:52.000Z</time>
      </trkpt>
      <trkpt lat="44.89314" lon="0.28275">
        <ele>69.599998474121</ele>
        <time>2013-04-25T09:01:56.000Z</time>
      </trkpt>
      <trkpt lat="44.8931" lon="0.28287">
        <ele>70</ele>
        <time>2013-04-25T09:02:01.000Z</time>
      </trkpt>
      <trkpt lat="44.89307" lon="0.28291">
        <ele>70.199996948242</ele>
        <time>2013-04-25T09:02:02.000Z</time>
      </trkpt>
      <trkpt lat="44.89301" lon="0.28297">
        <ele>70.800003051758</ele>
        <time>2013-04-25T09:02:05.000Z</time>
      </trkpt>
      <trkpt lat="44.8929" lon="0.283">
        <ele>71.800003051758</ele>
        <time>2013-04-25T09:02:10.000Z</time>
      </trkpt>
      <trkpt lat="44.89288" lon="0.28301">
        <ele>72</ele>
        <time>2013-04-25T09:02:11.000Z</time>
      </trkpt>
      <trkpt lat="44.89281" lon="0.28299">
        <ele>72.599998474121</ele>
        <time>2013-04-25T09:02:15.000Z</time>
      </trkpt>
      <trkpt lat="44.89277" lon="0.28297">
        <ele>73</ele>
        <time>2013-04-25T09:02:17.000Z</time>
      </trkpt>
      <trkpt lat="44.89273" lon="0.28297">
        <ele>73.199996948242</ele>
        <time>2013-04-25T09:02:19.000Z</time>
      </trkpt>
      <trkpt lat="44.89272" lon="0.28297">
        <ele>73.400001525879</ele>
        <time>2013-04-25T09:02:20.000Z</time>
      </trkpt>
      <trkpt lat="44.89268" lon="0.28298">
        <ele>73.800003051758</ele>
        <time>2013-04-25T09:02:22.000Z</time>
      </trkpt>
      <trkpt lat="44.89261" lon="0.283">
        <ele>74.400001525879</ele>
        <time>2013-04-25T09:02:25.000Z</time>
      </trkpt>
      <trkpt lat="44.89253" lon="0.28299">
        <ele>75</ele>
        <time>2013-04-25T09:02:29.000Z</time>
      </trkpt>
      <trkpt lat="44.89242" lon="0.28296">
        <ele>76.199996948242</ele>
        <time>2013-04-25T09:02:34.000Z</time>
      </trkpt>
      <trkpt lat="44.89234" lon="0.28295">
        <ele>77</ele>
        <time>2013-04-25T09:02:38.000Z</time>
      </trkpt>
      <trkpt lat="44.89231" lon="0.28295">
        <ele>77.199996948242</ele>
        <time>2013-04-25T09:02:39.000Z</time>
      </trkpt>
      <trkpt lat="44.89219" lon="0.28296">
        <ele>78.400001525879</ele>
        <time>2013-04-25T09:02:44.000Z</time>
      </trkpt>
      <trkpt lat="44.89213" lon="0.28294">
        <ele>79</ele>
        <time>2013-04-25T09:02:47.000Z</time>
      </trkpt>
      <trkpt lat="44.89207" lon="0.28293">
        <ele>79.599998474121</ele>
        <time>2013-04-25T09:02:50.000Z</time>
      </trkpt>
      <trkpt lat="44.89196" lon="0.28294">
        <ele>80.800003051758</ele>
        <time>2013-04-25T09:02:56.000Z</time>
      </trkpt>
      <trkpt lat="44.89195" lon="0.28295">
        <ele>80.800003051758</ele>
        <time>2013-04-25T09:02:57.000Z</time>
      </trkpt>
      <trkpt lat="44.89185" lon="0.28302">
        <ele>81.400001525879</ele>
        <time>2013-04-25T09:03:03.000Z</time>
      </trkpt>
      <trkpt lat="44.89178" lon="0.28308">
        <ele>81.599998474121</ele>
        <time>2013-04-25T09:03:06.000Z</time>
      </trkpt>
      <trkpt lat="44.89176" lon="0.28312">
        <ele>81.599998474121</ele>
        <time>2013-04-25T09:03:08.000Z</time>
      </trkpt>
      <trkpt lat="44.89175" lon="0.28314">
        <ele>81.599998474121</ele>
        <time>2013-04-25T09:03:09.000Z</time>
      </trkpt>
      <trkpt lat="44.8917" lon="0.2833">
        <ele>80.800003051758</ele>
        <time>2013-04-25T09:03:14.000Z</time>
      </trkpt>
      <trkpt lat="44.89169" lon="0.28335">
        <ele>80.800003051758</ele>
        <time>2013-04-25T09:03:15.000Z</time>
      </trkpt>
      <trkpt lat="44.89162" lon="0.28347">
        <ele>81</ele>
        <time>2013-04-25T09:03:19.000Z</time>
      </trkpt>
      <trkpt lat="44.89153" lon="0.28349">
        <ele>81.800003051758</ele>
        <time>2013-04-25T09:03:22.000Z</time>
      </trkpt>
      <trkpt lat="44.8915" lon="0.28348">
        <ele>82</ele>
        <time>2013-04-25T09:03:23.000Z</time>
      </trkpt>
      <trkpt lat="44.89137" lon="0.28345">
        <ele>83.400001525879</ele>
        <time>2013-04-25T09:03:28.000Z</time>
      </trkpt>
      <trkpt lat="44.89134" lon="0.28344">
        <ele>83.599998474121</ele>
        <time>2013-04-25T09:03:29.000Z</time>
      </trkpt>
      <trkpt lat="44.89117" lon="0.28341">
        <ele>85.400001525879</ele>
        <time>2013-04-25T09:03:36.000Z</time>
      </trkpt>
      <trkpt lat="44.89115" lon="0.2834">
        <ele>85.599998474121</ele>
        <time>2013-04-25T09:03:37.000Z</time>
      </trkpt>
      <trkpt lat="44.89104" lon="0.28341">
        <ele>86.599998474121</ele>
        <time>2013-04-25T09:03:42.000Z</time>
      </trkpt>
      <trkpt lat="44.89099" lon="0.28339">
        <ele>87.199996948242</ele>
        <time>2013-04-25T09:03:45.000Z</time>
      </trkpt>
      <trkpt lat="44.89095" lon="0.28338">
        <ele>87.599998474121</ele>
        <time>2013-04-25T09:03:47.000Z</time>
      </trkpt>
      <trkpt lat="44.89093" lon="0.28337">
        <ele>87.800003051758</ele>
        <time>2013-04-25T09:03:48.000Z</time>
      </trkpt>
      <trkpt lat="44.89084" lon="0.28335">
        <ele>88.800003051758</ele>
        <time>2013-04-25T09:03:54.000Z</time>
      </trkpt>
      <trkpt lat="44.89076" lon="0.28334">
        <ele>89.199996948242</ele>
        <time>2013-04-25T09:03:58.000Z</time>
      </trkpt>
      <trkpt lat="44.89069" lon="0.28334">
        <ele>89.599998474121</ele>
        <time>2013-04-25T09:04:01.000Z</time>
      </trkpt>
      <trkpt lat="44.89063" lon="0.28335">
        <ele>90</ele>
        <time>2013-04-25T09:04:04.000Z</time>
      </trkpt>
      <trkpt lat="44.89058" lon="0.28337">
        <ele>90.199996948242</ele>
        <time>2013-04-25T09:04:07.000Z</time>
      </trkpt>
      <trkpt lat="44.89055" lon="0.28339">
        <ele>90.400001525879</ele>
        <time>2013-04-25T09:04:09.000Z</time>
      </trkpt>
      <trkpt lat="44.89043" lon="0.28355">
        <ele>90.400001525879</ele>
        <time>2013-04-25T09:04:15.000Z</time>
      </trkpt>
      <trkpt lat="44.89035" lon="0.28369">
        <ele>90.400001525879</ele>
        <time>2013-04-25T09:04:19.000Z</time>
      </trkpt>
      <trkpt lat="44.89032" lon="0.28376">
        <ele>90.199996948242</ele>
        <time>2013-04-25T09:04:21.000Z</time>
      </trkpt>
      <trkpt lat="44.89026" lon="0.28387">
        <ele>90.199996948242</ele>
        <time>2013-04-25T09:04:24.000Z</time>
      </trkpt>
      <trkpt lat="44.89021" lon="0.28396">
        <ele>90.199996948242</ele>
        <time>2013-04-25T09:04:27.000Z</time>
      </trkpt>
      <trkpt lat="44.89017" lon="0.284">
        <ele>90.400001525879</ele>
        <time>2013-04-25T09:04:29.000Z</time>
      </trkpt>
      <trkpt lat="44.89012" lon="0.2841">
        <ele>90.199996948242</ele>
        <time>2013-04-25T09:04:32.000Z</time>
      </trkpt>
      <trkpt lat="44.89012" lon="0.28414">
        <ele>90.199996948242</ele>
        <time>2013-04-25T09:04:33.000Z</time>
      </trkpt>
      <trkpt lat="44.89011" lon="0.2842">
        <ele>90</ele>
        <time>2013-04-25T09:04:34.000Z</time>
      </trkpt>
      <trkpt lat="44.89008" lon="0.28443">
        <ele>90.400001525879</ele>
        <time>2013-04-25T09:04:39.000Z</time>
      </trkpt>
      <trkpt lat="44.89007" lon="0.28447">
        <ele>90.400001525879</ele>
        <time>2013-04-25T09:04:40.000Z</time>
      </trkpt>
      <trkpt lat="44.89005" lon="0.28462">
        <ele>90.599998474121</ele>
        <time>2013-04-25T09:04:44.000Z</time>
      </trkpt>
      <trkpt lat="44.89002" lon="0.28474">
        <ele>90.800003051758</ele>
        <time>2013-04-25T09:04:47.000Z</time>
      </trkpt>
      <trkpt lat="44.88998" lon="0.2849">
        <ele>90.800003051758</ele>
        <time>2013-04-25T09:04:51.000Z</time>
      </trkpt>
      <trkpt lat="44.88997" lon="0.28499">
        <ele>90.599998474121</ele>
        <time>2013-04-25T09:04:53.000Z</time>
      </trkpt>
      <trkpt lat="44.88999" lon="0.28511">
        <ele>90.599998474121</ele>
        <time>2013-04-25T09:04:56.000Z</time>
      </trkpt>
      <trkpt lat="44.89" lon="0.28524">
        <ele>90.400001525879</ele>
        <time>2013-04-25T09:04:59.000Z</time>
      </trkpt>
      <trkpt lat="44.89001" lon="0.28532">
        <ele>90.199996948242</ele>
        <time>2013-04-25T09:05:01.000Z</time>
      </trkpt>
      <trkpt lat="44.89004" lon="0.28553">
        <ele>89.599998474121</ele>
        <time>2013-04-25T09:05:06.000Z</time>
      </trkpt>
      <trkpt lat="44.89003" lon="0.28557">
        <ele>89.400001525879</ele>
        <time>2013-04-25T09:05:07.000Z</time>
      </trkpt>
      <trkpt lat="44.89005" lon="0.28578">
        <ele>89</ele>
        <time>2013-04-25T09:05:12.000Z</time>
      </trkpt>
      <trkpt lat="44.89006" lon="0.28582">
        <ele>89</ele>
        <time>2013-04-25T09:05:13.000Z</time>
      </trkpt>
      <trkpt lat="44.89009" lon="0.28591">
        <ele>88.800003051758</ele>
        <time>2013-04-25T09:05:17.000Z</time>
      </trkpt>
      <trkpt lat="44.89029" lon="0.28635">
        <ele>88.599998474121</ele>
        <time>2013-04-25T09:07:50.000Z</time>
      </trkpt>
      <trkpt lat="44.89029" lon="0.28638">
        <ele>88.599998474121</ele>
        <time>2013-04-25T09:07:51.000Z</time>
      </trkpt>
      <trkpt lat="44.89031" lon="0.28655">
        <ele>88.400001525879</ele>
        <time>2013-04-25T09:07:56.000Z</time>
      </trkpt>
      <trkpt lat="44.89032" lon="0.28662">
        <ele>88.400001525879</ele>
        <time>2013-04-25T09:07:58.000Z</time>
      </trkpt>
      <trkpt lat="44.89035" lon="0.28674">
        <ele>88.400001525879</ele>
        <time>2013-04-25T09:08:01.000Z</time>
      </trkpt>
      <trkpt lat="44.89041" lon="0.28689">
        <ele>88.400001525879</ele>
        <time>2013-04-25T09:08:05.000Z</time>
      </trkpt>
      <trkpt lat="44.89043" lon="0.28702">
        <ele>88.400001525879</ele>
        <time>2013-04-25T09:08:08.000Z</time>
      </trkpt>
      <trkpt lat="44.89046" lon="0.28717">
        <ele>88.199996948242</ele>
        <time>2013-04-25T09:08:12.000Z</time>
      </trkpt>
      <trkpt lat="44.89048" lon="0.28725">
        <ele>88.199996948242</ele>
        <time>2013-04-25T09:08:14.000Z</time>
      </trkpt>
      <trkpt lat="44.89051" lon="0.28744">
        <ele>88</ele>
        <time>2013-04-25T09:08:19.000Z</time>
      </trkpt>
      <trkpt lat="44.89051" lon="0.28749">
        <ele>88</ele>
        <time>2013-04-25T09:08:20.000Z</time>
      </trkpt>
      <trkpt lat="44.89054" lon="0.2877">
        <ele>88</ele>
        <time>2013-04-25T09:08:25.000Z</time>
      </trkpt>
      <trkpt lat="44.89061" lon="0.28793">
        <ele>88.199996948242</ele>
        <time>2013-04-25T09:08:31.000Z</time>
      </trkpt>
      <trkpt lat="44.89067" lon="0.28814">
        <ele>88.599998474121</ele>
        <time>2013-04-25T09:08:36.000Z</time>
      </trkpt>
      <trkpt lat="44.89069" lon="0.28817">
        <ele>88.800003051758</ele>
        <time>2013-04-25T09:08:37.000Z</time>
      </trkpt>
      <trkpt lat="44.89073" lon="0.28833">
        <ele>89</ele>
        <time>2013-04-25T09:08:41.000Z</time>
      </trkpt>
      <trkpt lat="44.89073" lon="0.28842">
        <ele>88.800003051758</ele>
        <time>2013-04-25T09:08:43.000Z</time>
      </trkpt>
      <trkpt lat="44.89073" lon="0.28852">
        <ele>88.400001525879</ele>
        <time>2013-04-25T09:08:45.000Z</time>
      </trkpt>
      <trkpt lat="44.8907" lon="0.2887">
        <ele>87.599998474121</ele>
        <time>2013-04-25T09:08:49.000Z</time>
      </trkpt>
      <trkpt lat="44.89068" lon="0.28879">
        <ele>87.199996948242</ele>
        <time>2013-04-25T09:08:51.000Z</time>
      </trkpt>
      <trkpt lat="44.89065" lon="0.28895">
        <ele>86.599998474121</ele>
        <time>2013-04-25T09:08:55.000Z</time>
      </trkpt>
      <trkpt lat="44.89062" lon="0.28904">
        <ele>86.199996948242</ele>
        <time>2013-04-25T09:08:57.000Z</time>
      </trkpt>
      <trkpt lat="44.89059" lon="0.28922">
        <ele>85.599998474121</ele>
        <time>2013-04-25T09:09:02.000Z</time>
      </trkpt>
      <trkpt lat="44.89058" lon="0.28927">
        <ele>85.599998474121</ele>
        <time>2013-04-25T09:09:03.000Z</time>
      </trkpt>
      <trkpt lat="44.89053" lon="0.28947">
        <ele>85.199996948242</ele>
        <time>2013-04-25T09:09:08.000Z</time>
      </trkpt>
      <trkpt lat="44.89047" lon="0.28971">
        <ele>85</ele>
        <time>2013-04-25T09:09:14.000Z</time>
      </trkpt>
      <trkpt lat="44.89035" lon="0.28982">
        <ele>84.800003051758</ele>
        <time>2013-04-25T09:09:19.000Z</time>
      </trkpt>
      <trkpt lat="44.89032" lon="0.28982">
        <ele>84.800003051758</ele>
        <time>2013-04-25T09:09:20.000Z</time>
      </trkpt>
      <trkpt lat="44.8902" lon="0.28979">
        <ele>84.599998474121</ele>
        <time>2013-04-25T09:09:24.000Z</time>
      </trkpt>
      <trkpt lat="44.89012" lon="0.28979">
        <ele>84.599998474121</ele>
        <time>2013-04-25T09:09:27.000Z</time>
      </trkpt>
      <trkpt lat="44.89008" lon="0.28987">
        <ele>84.599998474121</ele>
        <time>2013-04-25T09:09:29.000Z</time>
      </trkpt>
      <trkpt lat="44.89006" lon="0.28994">
        <ele>84.800003051758</ele>
        <time>2013-04-25T09:09:31.000Z</time>
      </trkpt>
      <trkpt lat="44.89005" lon="0.29006">
        <ele>84.800003051758</ele>
        <time>2013-04-25T09:09:34.000Z</time>
      </trkpt>
      <trkpt lat="44.89005" lon="0.29031">
        <ele>84.400001525879</ele>
        <time>2013-04-25T09:09:40.000Z</time>
      </trkpt>
      <trkpt lat="44.89005" lon="0.29035">
        <ele>84.400001525879</ele>
        <time>2013-04-25T09:09:41.000Z</time>
      </trkpt>
      <trkpt lat="44.89004" lon="0.29064">
        <ele>84</ele>
        <time>2013-04-25T09:09:48.000Z</time>
      </trkpt>
      <trkpt lat="44.89002" lon="0.2909">
        <ele>83.599998474121</ele>
        <time>2013-04-25T09:09:54.000Z</time>
      </trkpt>
      <trkpt lat="44.89002" lon="0.29111">
        <ele>83.199996948242</ele>
        <time>2013-04-25T09:09:59.000Z</time>
      </trkpt>
      <trkpt lat="44.89002" lon="0.29115">
        <ele>83</ele>
        <time>2013-04-25T09:10:00.000Z</time>
      </trkpt>
      <trkpt lat="44.89002" lon="0.29133">
        <ele>82.599998474121</ele>
        <time>2013-04-25T09:10:04.000Z</time>
      </trkpt>
      <trkpt lat="44.89002" lon="0.29141">
        <ele>82.400001525879</ele>
        <time>2013-04-25T09:10:06.000Z</time>
      </trkpt>
      <trkpt lat="44.89001" lon="0.29163">
        <ele>82</ele>
        <time>2013-04-25T09:10:11.000Z</time>
      </trkpt>
      <trkpt lat="44.89" lon="0.29167">
        <ele>81.800003051758</ele>
        <time>2013-04-25T09:10:12.000Z</time>
      </trkpt>
      <trkpt lat="44.88999" lon="0.29188">
        <ele>81.599998474121</ele>
        <time>2013-04-25T09:10:17.000Z</time>
      </trkpt>
      <trkpt lat="44.88999" lon="0.29192">
        <ele>81.599998474121</ele>
        <time>2013-04-25T09:10:18.000Z</time>
      </trkpt>
      <trkpt lat="44.88998" lon="0.29217">
        <ele>81.400001525879</ele>
        <time>2013-04-25T09:10:24.000Z</time>
      </trkpt>
      <trkpt lat="44.88997" lon="0.29221">
        <ele>81.199996948242</ele>
        <time>2013-04-25T09:10:25.000Z</time>
      </trkpt>
      <trkpt lat="44.88996" lon="0.29243">
        <ele>81</ele>
        <time>2013-04-25T09:10:30.000Z</time>
      </trkpt>
      <trkpt lat="44.88996" lon="0.29247">
        <ele>81</ele>
        <time>2013-04-25T09:10:31.000Z</time>
      </trkpt>
      <trkpt lat="44.88994" lon="0.29269">
        <ele>80.599998474121</ele>
        <time>2013-04-25T09:10:36.000Z</time>
      </trkpt>
      <trkpt lat="44.88994" lon="0.29273">
        <ele>80.400001525879</ele>
        <time>2013-04-25T09:10:37.000Z</time>
      </trkpt>
      <trkpt lat="44.88993" lon="0.29299">
        <ele>79.800003051758</ele>
        <time>2013-04-25T09:10:43.000Z</time>
      </trkpt>
      <trkpt lat="44.88993" lon="0.29303">
        <ele>79.800003051758</ele>
        <time>2013-04-25T09:10:44.000Z</time>
      </trkpt>
      <trkpt lat="44.88992" lon="0.29319">
        <ele>79.400001525879</ele>
        <time>2013-04-25T09:10:48.000Z</time>
      </trkpt>
      <trkpt lat="44.8899" lon="0.29331">
        <ele>79.199996948242</ele>
        <time>2013-04-25T09:10:51.000Z</time>
      </trkpt>
      <trkpt lat="44.88986" lon="0.29346">
        <ele>79.199996948242</ele>
        <time>2013-04-25T09:10:55.000Z</time>
      </trkpt>
      <trkpt lat="44.88982" lon="0.29356">
        <ele>79</ele>
        <time>2013-04-25T09:10:58.000Z</time>
      </trkpt>
      <trkpt lat="44.88979" lon="0.29362">
        <ele>79</ele>
        <time>2013-04-25T09:11:00.000Z</time>
      </trkpt>
      <trkpt lat="44.88971" lon="0.29378">
        <ele>78.599998474121</ele>
        <time>2013-04-25T09:11:05.000Z</time>
      </trkpt>
      <trkpt lat="44.88967" lon="0.29385">
        <ele>78.400001525879</ele>
        <time>2013-04-25T09:11:07.000Z</time>
      </trkpt>
      <trkpt lat="44.8896" lon="0.29398">
        <ele>78</ele>
        <time>2013-04-25T09:11:11.000Z</time>
      </trkpt>
      <trkpt lat="44.88958" lon="0.29401">
        <ele>77.800003051758</ele>
        <time>2013-04-25T09:11:12.000Z</time>
      </trkpt>
      <trkpt lat="44.88947" lon="0.2942">
        <ele>76.800003051758</ele>
        <time>2013-04-25T09:11:18.000Z</time>
      </trkpt>
      <trkpt lat="44.88943" lon="0.29426">
        <ele>76.400001525879</ele>
        <time>2013-04-25T09:11:20.000Z</time>
      </trkpt>
      <trkpt lat="44.88934" lon="0.29443">
        <ele>75.199996948242</ele>
        <time>2013-04-25T09:11:25.000Z</time>
      </trkpt>
      <trkpt lat="44.88932" lon="0.29446">
        <ele>75</ele>
        <time>2013-04-25T09:11:26.000Z</time>
      </trkpt>
      <trkpt lat="44.88922" lon="0.29462">
        <ele>73.800003051758</ele>
        <time>2013-04-25T09:11:31.000Z</time>
      </trkpt>
      <trkpt lat="44.8892" lon="0.29465">
        <ele>73.599998474121</ele>
        <time>2013-04-25T09:11:32.000Z</time>
      </trkpt>
      <trkpt lat="44.88911" lon="0.29482">
        <ele>72.800003051758</ele>
        <time>2013-04-25T09:11:37.000Z</time>
      </trkpt>
      <trkpt lat="44.88907" lon="0.29489">
        <ele>72.400001525879</ele>
        <time>2013-04-25T09:11:39.000Z</time>
      </trkpt>
      <trkpt lat="44.88907" lon="0.29504">
        <ele>71.800003051758</ele>
        <time>2013-04-25T09:11:43.000Z</time>
      </trkpt>
      <trkpt lat="44.88908" lon="0.29507">
        <ele>71.800003051758</ele>
        <time>2013-04-25T09:11:44.000Z</time>
      </trkpt>
      <trkpt lat="44.88918" lon="0.29517">
        <ele>72</ele>
        <time>2013-04-25T09:11:48.000Z</time>
      </trkpt>
      <trkpt lat="44.88923" lon="0.29523">
        <ele>72</ele>
        <time>2013-04-25T09:11:50.000Z</time>
      </trkpt>
      <trkpt lat="44.88936" lon="0.29536">
        <ele>72</ele>
        <time>2013-04-25T09:11:55.000Z</time>
      </trkpt>
      <trkpt lat="44.88938" lon="0.29538">
        <ele>72</ele>
        <time>2013-04-25T09:11:56.000Z</time>
      </trkpt>
      <trkpt lat="44.88949" lon="0.29552">
        <ele>71.800003051758</ele>
        <time>2013-04-25T09:12:01.000Z</time>
      </trkpt>
      <trkpt lat="44.88952" lon="0.29558">
        <ele>71.599998474121</ele>
        <time>2013-04-25T09:12:03.000Z</time>
      </trkpt>
      <trkpt lat="44.88957" lon="0.29562">
        <ele>71.400001525879</ele>
        <time>2013-04-25T09:12:05.000Z</time>
      </trkpt>
      <trkpt lat="44.88969" lon="0.2957">
        <ele>71</ele>
        <time>2013-04-25T09:12:09.000Z</time>
      </trkpt>
      <trkpt lat="44.88971" lon="0.29572">
        <ele>71</ele>
        <time>2013-04-25T09:12:10.000Z</time>
      </trkpt>
      <trkpt lat="44.88986" lon="0.29579">
        <ele>70.400001525879</ele>
        <time>2013-04-25T09:12:15.000Z</time>
      </trkpt>
      <trkpt lat="44.89002" lon="0.29584">
        <ele>69.800003051758</ele>
        <time>2013-04-25T09:12:21.000Z</time>
      </trkpt>
      <trkpt lat="44.89004" lon="0.29587">
        <ele>69.599998474121</ele>
        <time>2013-04-25T09:12:22.000Z</time>
      </trkpt>
      <trkpt lat="44.89015" lon="0.29598">
        <ele>68.800003051758</ele>
        <time>2013-04-25T09:12:27.000Z</time>
      </trkpt>
      <trkpt lat="44.89019" lon="0.29602">
        <ele>68.599998474121</ele>
        <time>2013-04-25T09:12:29.000Z</time>
      </trkpt>
      <trkpt lat="44.89028" lon="0.29611">
        <ele>68</ele>
        <time>2013-04-25T09:12:33.000Z</time>
      </trkpt>
      <trkpt lat="44.89034" lon="0.29616">
        <ele>67.599998474121</ele>
        <time>2013-04-25T09:12:36.000Z</time>
      </trkpt>
      <trkpt lat="44.89039" lon="0.29624">
        <ele>67.199996948242</ele>
        <time>2013-04-25T09:12:40.000Z</time>
      </trkpt>
      <trkpt lat="44.89046" lon="0.29635">
        <ele>66.800003051758</ele>
        <time>2013-04-25T09:12:44.000Z</time>
      </trkpt>
      <trkpt lat="44.89048" lon="0.29638">
        <ele>66.599998474121</ele>
        <time>2013-04-25T09:12:45.000Z</time>
      </trkpt>
      <trkpt lat="44.8906" lon="0.29655">
        <ele>66</ele>
        <time>2013-04-25T09:12:51.000Z</time>
      </trkpt>
      <trkpt lat="44.89076" lon="0.29668">
        <ele>65.199996948242</ele>
        <time>2013-04-25T09:12:56.000Z</time>
      </trkpt>
      <trkpt lat="44.89079" lon="0.29669">
        <ele>65</ele>
        <time>2013-04-25T09:12:57.000Z</time>
      </trkpt>
      <trkpt lat="44.89096" lon="0.29675">
        <ele>64.599998474121</ele>
        <time>2013-04-25T09:13:02.000Z</time>
      </trkpt>
      <trkpt lat="44.89099" lon="0.29676">
        <ele>64.599998474121</ele>
        <time>2013-04-25T09:13:03.000Z</time>
      </trkpt>
      <trkpt lat="44.89107" lon="0.29684">
        <ele>64.199996948242</ele>
        <time>2013-04-25T09:13:06.000Z</time>
      </trkpt>
      <trkpt lat="44.89115" lon="0.2969">
        <ele>64</ele>
        <time>2013-04-25T09:13:09.000Z</time>
      </trkpt>
      <trkpt lat="44.89119" lon="0.29696">
        <ele>64</ele>
        <time>2013-04-25T09:13:11.000Z</time>
      </trkpt>
      <trkpt lat="44.89125" lon="0.29713">
        <ele>63.599998474121</ele>
        <time>2013-04-25T09:13:16.000Z</time>
      </trkpt>
      <trkpt lat="44.89137" lon="0.29733">
        <ele>63.200000762939</ele>
        <time>2013-04-25T09:13:22.000Z</time>
      </trkpt>
      <trkpt lat="44.89144" lon="0.29746">
        <ele>63</ele>
        <time>2013-04-25T09:13:26.000Z</time>
      </trkpt>
      <trkpt lat="44.89151" lon="0.29754">
        <ele>62.799999237061</ele>
        <time>2013-04-25T09:13:29.000Z</time>
      </trkpt>
      <trkpt lat="44.89154" lon="0.29761">
        <ele>62.400001525879</ele>
        <time>2013-04-25T09:13:31.000Z</time>
      </trkpt>
      <trkpt lat="44.89161" lon="0.29779">
        <ele>61.799999237061</ele>
        <time>2013-04-25T09:13:36.000Z</time>
      </trkpt>
      <trkpt lat="44.89171" lon="0.29798">
        <ele>61</ele>
        <time>2013-04-25T09:13:42.000Z</time>
      </trkpt>
      <trkpt lat="44.89174" lon="0.298">
        <ele>60.799999237061</ele>
        <time>2013-04-25T09:13:43.000Z</time>
      </trkpt>
      <trkpt lat="44.89185" lon="0.29814">
        <ele>59.599998474121</ele>
        <time>2013-04-25T09:13:48.000Z</time>
      </trkpt>
      <trkpt lat="44.89188" lon="0.29821">
        <ele>59.200000762939</ele>
        <time>2013-04-25T09:13:50.000Z</time>
      </trkpt>
      <trkpt lat="44.89195" lon="0.29828">
        <ele>58.400001525879</ele>
        <time>2013-04-25T09:13:53.000Z</time>
      </trkpt>
      <trkpt lat="44.89207" lon="0.29834">
        <ele>57.400001525879</ele>
        <time>2013-04-25T09:13:57.000Z</time>
      </trkpt>
      <trkpt lat="44.89209" lon="0.29836">
        <ele>57.200000762939</ele>
        <time>2013-04-25T09:13:58.000Z</time>
      </trkpt>
      <trkpt lat="44.89224" lon="0.29847">
        <ele>56</ele>
        <time>2013-04-25T09:14:04.000Z</time>
      </trkpt>
      <trkpt lat="44.89239" lon="0.29853">
        <ele>54.799999237061</ele>
        <time>2013-04-25T09:14:09.000Z</time>
      </trkpt>
      <trkpt lat="44.89242" lon="0.29853">
        <ele>54.599998474121</ele>
        <time>2013-04-25T09:14:10.000Z</time>
      </trkpt>
      <trkpt lat="44.89253" lon="0.29854">
        <ele>54</ele>
        <time>2013-04-25T09:14:14.000Z</time>
      </trkpt>
      <trkpt lat="44.89254" lon="0.29847">
        <ele>54.200000762939</ele>
        <time>2013-04-25T09:14:17.000Z</time>
      </trkpt>
      <trkpt lat="44.89254" lon="0.29843">
        <ele>54.200000762939</ele>
        <time>2013-04-25T09:14:18.000Z</time>
      </trkpt>
      <trkpt lat="44.89252" lon="0.29826">
        <ele>55.200000762939</ele>
        <time>2013-04-25T09:14:23.000Z</time>
      </trkpt>
      <trkpt lat="44.89247" lon="0.29817">
        <ele>56</ele>
        <time>2013-04-25T09:14:26.000Z</time>
      </trkpt>
      <trkpt lat="44.89246" lon="0.29814">
        <ele>56.200000762939</ele>
        <time>2013-04-25T09:14:27.000Z</time>
      </trkpt>
      <trkpt lat="44.89244" lon="0.298">
        <ele>57.200000762939</ele>
        <time>2013-04-25T09:14:32.000Z</time>
      </trkpt>
      <trkpt lat="44.89243" lon="0.2979">
        <ele>57.799999237061</ele>
        <time>2013-04-25T09:14:35.000Z</time>
      </trkpt>
      <trkpt lat="44.89243" lon="0.29786">
        <ele>58</ele>
        <time>2013-04-25T09:14:36.000Z</time>
      </trkpt>
      <trkpt lat="44.89246" lon="0.29768">
        <ele>59</ele>
        <time>2013-04-25T09:14:41.000Z</time>
      </trkpt>
      <trkpt lat="44.89248" lon="0.29765">
        <ele>59</ele>
        <time>2013-04-25T09:14:42.000Z</time>
      </trkpt>
      <trkpt lat="44.89252" lon="0.29761">
        <ele>59.200000762939</ele>
        <time>2013-04-25T09:14:44.000Z</time>
      </trkpt>
      <trkpt lat="44.8926" lon="0.29755">
        <ele>59.200000762939</ele>
        <time>2013-04-25T09:14:48.000Z</time>
      </trkpt>
      <trkpt lat="44.89264" lon="0.29754">
        <ele>59.200000762939</ele>
        <time>2013-04-25T09:14:50.000Z</time>
      </trkpt>
      <trkpt lat="44.89265" lon="0.29754">
        <ele>59</ele>
        <time>2013-04-25T09:14:51.000Z</time>
      </trkpt>
      <trkpt lat="44.8927" lon="0.29754">
        <ele>58.799999237061</ele>
        <time>2013-04-25T09:14:56.000Z</time>
      </trkpt>
      <trkpt lat="44.89278" lon="0.29764">
        <ele>57.799999237061</ele>
        <time>2013-04-25T09:15:01.000Z</time>
      </trkpt>
      <trkpt lat="44.89279" lon="0.29768">
        <ele>57.599998474121</ele>
        <time>2013-04-25T09:15:02.000Z</time>
      </trkpt>
      <trkpt lat="44.89281" lon="0.29774">
        <ele>57</ele>
        <time>2013-04-25T09:15:05.000Z</time>
      </trkpt>
      <trkpt lat="44.89289" lon="0.29785">
        <ele>55.799999237061</ele>
        <time>2013-04-25T09:15:09.000Z</time>
      </trkpt>
      <trkpt lat="44.89291" lon="0.29788">
        <ele>55.400001525879</ele>
        <time>2013-04-25T09:15:10.000Z</time>
      </trkpt>
      <trkpt lat="44.89298" lon="0.29804">
        <ele>53.799999237061</ele>
        <time>2013-04-25T09:15:16.000Z</time>
      </trkpt>
      <trkpt lat="44.89301" lon="0.29811">
        <ele>53</ele>
        <time>2013-04-25T09:15:19.000Z</time>
      </trkpt>
      <trkpt lat="44.89303" lon="0.29813">
        <ele>52.799999237061</ele>
        <time>2013-04-25T09:15:20.000Z</time>
      </trkpt>
      <trkpt lat="44.89309" lon="0.29814">
        <ele>52.200000762939</ele>
        <time>2013-04-25T09:15:22.000Z</time>
      </trkpt>
      <trkpt lat="44.89318" lon="0.29819">
        <ele>51.200000762939</ele>
        <time>2013-04-25T09:15:25.000Z</time>
      </trkpt>
      <trkpt lat="44.89323" lon="0.29823">
        <ele>50.599998474121</ele>
        <time>2013-04-25T09:15:27.000Z</time>
      </trkpt>
      <trkpt lat="44.89327" lon="0.2983">
        <ele>49.799999237061</ele>
        <time>2013-04-25T09:15:29.000Z</time>
      </trkpt>
      <trkpt lat="44.89334" lon="0.29838">
        <ele>48.599998474121</ele>
        <time>2013-04-25T09:15:32.000Z</time>
      </trkpt>
      <trkpt lat="44.89337" lon="0.29844">
        <ele>48.599998474121</ele>
        <time>2013-04-25T09:15:34.000Z</time>
      </trkpt>
      <trkpt lat="44.89334" lon="0.29854">
        <ele>48</ele>
        <time>2013-04-25T09:15:37.000Z</time>
      </trkpt>
      <trkpt lat="44.89332" lon="0.29857">
        <ele>47.799999237061</ele>
        <time>2013-04-25T09:15:38.000Z</time>
      </trkpt>
      <trkpt lat="44.89329" lon="0.29862">
        <ele>47.799999237061</ele>
        <time>2013-04-25T09:15:40.000Z</time>
      </trkpt>
      <trkpt lat="44.89325" lon="0.29868">
        <ele>48</ele>
        <time>2013-04-25T09:15:43.000Z</time>
      </trkpt>
      <trkpt lat="44.89315" lon="0.29881">
        <ele>48</ele>
        <time>2013-04-25T09:15:48.000Z</time>
      </trkpt>
      <trkpt lat="44.89303" lon="0.29901">
        <ele>48.200000762939</ele>
        <time>2013-04-25T09:15:53.000Z</time>
      </trkpt>
      <trkpt lat="44.89301" lon="0.29903">
        <ele>48.200000762939</ele>
        <time>2013-04-25T09:15:54.000Z</time>
      </trkpt>
      <trkpt lat="44.89293" lon="0.29918">
        <ele>48.200000762939</ele>
        <time>2013-04-25T09:15:59.000Z</time>
      </trkpt>
      <trkpt lat="44.8929" lon="0.29921">
        <ele>48.400001525879</ele>
        <time>2013-04-25T09:16:00.000Z</time>
      </trkpt>
      <trkpt lat="44.89286" lon="0.29931">
        <ele>48.400001525879</ele>
        <time>2013-04-25T09:16:03.000Z</time>
      </trkpt>
      <trkpt lat="44.8928" lon="0.29943">
        <ele>48.400001525879</ele>
        <time>2013-04-25T09:16:07.000Z</time>
      </trkpt>
      <trkpt lat="44.89278" lon="0.29945">
        <ele>48.599998474121</ele>
        <time>2013-04-25T09:16:08.000Z</time>
      </trkpt>
      <trkpt lat="44.89276" lon="0.29946">
        <ele>48.599998474121</ele>
        <time>2013-04-25T09:16:09.000Z</time>
      </trkpt>
      <trkpt lat="44.8927" lon="0.29947">
        <ele>49</ele>
        <time>2013-04-25T09:16:12.000Z</time>
      </trkpt>
      <trkpt lat="44.89263" lon="0.29953">
        <ele>49.200000762939</ele>
        <time>2013-04-25T09:16:16.000Z</time>
      </trkpt>
      <trkpt lat="44.89254" lon="0.29958">
        <ele>49.599998474121</ele>
        <time>2013-04-25T09:16:20.000Z</time>
      </trkpt>
      <trkpt lat="44.89245" lon="0.29956">
        <ele>50.200000762939</ele>
        <time>2013-04-25T09:16:24.000Z</time>
      </trkpt>
      <trkpt lat="44.89241" lon="0.29954">
        <ele>50.400001525879</ele>
        <time>2013-04-25T09:16:26.000Z</time>
      </trkpt>
      <trkpt lat="44.89234" lon="0.29951">
        <ele>50.799999237061</ele>
        <time>2013-04-25T09:16:29.000Z</time>
      </trkpt>
      <trkpt lat="44.8923" lon="0.29944">
        <ele>51.400001525879</ele>
        <time>2013-04-25T09:16:33.000Z</time>
      </trkpt>
      <trkpt lat="44.89229" lon="0.29942">
        <ele>51.599998474121</ele>
        <time>2013-04-25T09:16:34.000Z</time>
      </trkpt>
      <trkpt lat="44.89226" lon="0.29938">
        <ele>52</ele>
        <time>2013-04-25T09:16:36.000Z</time>
      </trkpt>
      <trkpt lat="44.89216" lon="0.29936">
        <ele>52.400001525879</ele>
        <time>2013-04-25T09:16:40.000Z</time>
      </trkpt>
      <trkpt lat="44.8921" lon="0.29932">
        <ele>52.799999237061</ele>
        <time>2013-04-25T09:16:43.000Z</time>
      </trkpt>
      <trkpt lat="44.89206" lon="0.29931">
        <ele>53.200000762939</ele>
        <time>2013-04-25T09:16:45.000Z</time>
      </trkpt>
      <trkpt lat="44.892" lon="0.29933">
        <ele>53.200000762939</ele>
        <time>2013-04-25T09:16:48.000Z</time>
      </trkpt>
      <trkpt lat="44.89195" lon="0.29936">
        <ele>53.400001525879</ele>
        <time>2013-04-25T09:16:50.000Z</time>
      </trkpt>
      <trkpt lat="44.89192" lon="0.29937">
        <ele>53.400001525879</ele>
        <time>2013-04-25T09:16:51.000Z</time>
      </trkpt>
      <trkpt lat="44.89182" lon="0.29944">
        <ele>53.200000762939</ele>
        <time>2013-04-25T09:16:56.000Z</time>
      </trkpt>
      <trkpt lat="44.89174" lon="0.29949">
        <ele>53.400001525879</ele>
        <time>2013-04-25T09:16:59.000Z</time>
      </trkpt>
      <trkpt lat="44.89167" lon="0.29953">
        <ele>53.200000762939</ele>
        <time>2013-04-25T09:17:02.000Z</time>
      </trkpt>
      <trkpt lat="44.89157" lon="0.29959">
        <ele>52.599998474121</ele>
        <time>2013-04-25T09:17:06.000Z</time>
      </trkpt>
      <trkpt lat="44.89153" lon="0.29961">
        <ele>52.200000762939</ele>
        <time>2013-04-25T09:17:08.000Z</time>
      </trkpt>
      <trkpt lat="44.89143" lon="0.29967">
        <ele>51.599998474121</ele>
        <time>2013-04-25T09:17:12.000Z</time>
      </trkpt>
      <trkpt lat="44.8914" lon="0.29969">
        <ele>51.400001525879</ele>
        <time>2013-04-25T09:17:13.000Z</time>
      </trkpt>
      <trkpt lat="44.89138" lon="0.29971">
        <ele>51.200000762939</ele>
        <time>2013-04-25T09:17:14.000Z</time>
      </trkpt>
      <trkpt lat="44.89131" lon="0.29976">
        <ele>50.599998474121</ele>
        <time>2013-04-25T09:17:17.000Z</time>
      </trkpt>
      <trkpt lat="44.89122" lon="0.29986">
        <ele>49.799999237061</ele>
        <time>2013-04-25T09:17:21.000Z</time>
      </trkpt>
      <trkpt lat="44.89116" lon="0.29993">
        <ele>49.200000762939</ele>
        <time>2013-04-25T09:17:23.000Z</time>
      </trkpt>
      <trkpt lat="44.89109" lon="0.30001">
        <ele>48.400001525879</ele>
        <time>2013-04-25T09:17:26.000Z</time>
      </trkpt>
      <trkpt lat="44.89107" lon="0.30003">
        <ele>48.200000762939</ele>
        <time>2013-04-25T09:17:27.000Z</time>
      </trkpt>
      <trkpt lat="44.89104" lon="0.30009">
        <ele>48</ele>
        <time>2013-04-25T09:17:29.000Z</time>
      </trkpt>
      <trkpt lat="44.89094" lon="0.30018">
        <ele>47.200000762939</ele>
        <time>2013-04-25T09:17:33.000Z</time>
      </trkpt>
      <trkpt lat="44.89092" lon="0.30021">
        <ele>47</ele>
        <time>2013-04-25T09:17:34.000Z</time>
      </trkpt>
      <trkpt lat="44.89089" lon="0.30024">
        <ele>46.799999237061</ele>
        <time>2013-04-25T09:17:35.000Z</time>
      </trkpt>
      <trkpt lat="44.89077" lon="0.30033">
        <ele>46.400001525879</ele>
        <time>2013-04-25T09:17:40.000Z</time>
      </trkpt>
      <trkpt lat="44.89074" lon="0.30034">
        <ele>46.400001525879</ele>
        <time>2013-04-25T09:17:41.000Z</time>
      </trkpt>
      <trkpt lat="44.89071" lon="0.30036">
        <ele>46.200000762939</ele>
        <time>2013-04-25T09:17:42.000Z</time>
      </trkpt>
      <trkpt lat="44.89064" lon="0.30044">
        <ele>46</ele>
        <time>2013-04-25T09:17:45.000Z</time>
      </trkpt>
      <trkpt lat="44.89059" lon="0.30052">
        <ele>45.599998474121</ele>
        <time>2013-04-25T09:17:48.000Z</time>
      </trkpt>
      <trkpt lat="44.89054" lon="0.30056">
        <ele>45.400001525879</ele>
        <time>2013-04-25T09:17:50.000Z</time>
      </trkpt>
      <trkpt lat="44.89043" lon="0.30064">
        <ele>45</ele>
        <time>2013-04-25T09:17:53.000Z</time>
      </trkpt>
      <trkpt lat="44.89034" lon="0.30074">
        <ele>44.400001525879</ele>
        <time>2013-04-25T09:17:56.000Z</time>
      </trkpt>
      <trkpt lat="44.89026" lon="0.30082">
        <ele>44</ele>
        <time>2013-04-25T09:17:59.000Z</time>
      </trkpt>
      <trkpt lat="44.89021" lon="0.30085">
        <ele>43.799999237061</ele>
        <time>2013-04-25T09:18:01.000Z</time>
      </trkpt>
      <trkpt lat="44.89011" lon="0.30092">
        <ele>43.599998474121</ele>
        <time>2013-04-25T09:18:06.000Z</time>
      </trkpt>
      <trkpt lat="44.89009" lon="0.30093">
        <ele>43.599998474121</ele>
        <time>2013-04-25T09:18:07.000Z</time>
      </trkpt>
      <trkpt lat="44.88997" lon="0.30099">
        <ele>43.799999237061</ele>
        <time>2013-04-25T09:18:11.000Z</time>
      </trkpt>
      <trkpt lat="44.8899" lon="0.30106">
        <ele>44.400001525879</ele>
        <time>2013-04-25T09:18:13.000Z</time>
      </trkpt>
      <trkpt lat="44.88979" lon="0.30115">
        <ele>45</ele>
        <time>2013-04-25T09:18:17.000Z</time>
      </trkpt>
      <trkpt lat="44.88975" lon="0.3012">
        <ele>45.200000762939</ele>
        <time>2013-04-25T09:18:19.000Z</time>
      </trkpt>
      <trkpt lat="44.88967" lon="0.30131">
        <ele>45.400001525879</ele>
        <time>2013-04-25T09:18:23.000Z</time>
      </trkpt>
      <trkpt lat="44.8896" lon="0.30139">
        <ele>45.599998474121</ele>
        <time>2013-04-25T09:18:27.000Z</time>
      </trkpt>
      <trkpt lat="44.88955" lon="0.30142">
        <ele>45.799999237061</ele>
        <time>2013-04-25T09:18:29.000Z</time>
      </trkpt>
      <trkpt lat="44.88944" lon="0.30157">
        <ele>45.799999237061</ele>
        <time>2013-04-25T09:18:35.000Z</time>
      </trkpt>
      <trkpt lat="44.88933" lon="0.30167">
        <ele>46</ele>
        <time>2013-04-25T09:18:40.000Z</time>
      </trkpt>
      <trkpt lat="44.88926" lon="0.30172">
        <ele>46.200000762939</ele>
        <time>2013-04-25T09:18:42.000Z</time>
      </trkpt>
      <trkpt lat="44.88913" lon="0.30183">
        <ele>46.599998474121</ele>
        <time>2013-04-25T09:18:47.000Z</time>
      </trkpt>
      <trkpt lat="44.88908" lon="0.30186">
        <ele>46.599998474121</ele>
        <time>2013-04-25T09:18:50.000Z</time>
      </trkpt>
      <trkpt lat="44.88905" lon="0.3019">
        <ele>46.799999237061</ele>
        <time>2013-04-25T09:18:52.000Z</time>
      </trkpt>
      <trkpt lat="44.88893" lon="0.30203">
        <ele>46.599998474121</ele>
        <time>2013-04-25T09:18:58.000Z</time>
      </trkpt>
      <trkpt lat="44.8889" lon="0.30207">
        <ele>46.599998474121</ele>
        <time>2013-04-25T09:18:59.000Z</time>
      </trkpt>
      <trkpt lat="44.88879" lon="0.30221">
        <ele>46.200000762939</ele>
        <time>2013-04-25T09:19:04.000Z</time>
      </trkpt>
      <trkpt lat="44.88877" lon="0.30223">
        <ele>46.200000762939</ele>
        <time>2013-04-25T09:19:05.000Z</time>
      </trkpt>
      <trkpt lat="44.88876" lon="0.30225">
        <ele>46</ele>
        <time>2013-04-25T09:19:06.000Z</time>
      </trkpt>
      <trkpt lat="44.88874" lon="0.30232">
        <ele>45.599998474121</ele>
        <time>2013-04-25T09:19:10.000Z</time>
      </trkpt>
      <trkpt lat="44.88873" lon="0.30234">
        <ele>45.400001525879</ele>
        <time>2013-04-25T09:19:12.000Z</time>
      </trkpt>
      <trkpt lat="44.88874" lon="0.30239">
        <ele>45.200000762939</ele>
        <time>2013-04-25T09:19:17.000Z</time>
      </trkpt>
      <trkpt lat="44.88873" lon="0.30242">
        <ele>45</ele>
        <time>2013-04-25T09:19:19.000Z</time>
      </trkpt>
      <trkpt lat="44.88872" lon="0.30244">
        <ele>44.799999237061</ele>
        <time>2013-04-25T09:19:20.000Z</time>
      </trkpt>
      <trkpt lat="44.88871" lon="0.30248">
        <ele>44.599998474121</ele>
        <time>2013-04-25T09:19:21.000Z</time>
      </trkpt>
      <trkpt lat="44.88867" lon="0.30256">
        <ele>44.200000762939</ele>
        <time>2013-04-25T09:19:23.000Z</time>
      </trkpt>
      <trkpt lat="44.88863" lon="0.30262">
        <ele>44</ele>
        <time>2013-04-25T09:19:25.000Z</time>
      </trkpt>
      <trkpt lat="44.88861" lon="0.30265">
        <ele>43.799999237061</ele>
        <time>2013-04-25T09:19:26.000Z</time>
      </trkpt>
      <trkpt lat="44.88856" lon="0.30272">
        <ele>43.400001525879</ele>
        <time>2013-04-25T09:19:30.000Z</time>
      </trkpt>
      <trkpt lat="44.88849" lon="0.30283">
        <ele>42.799999237061</ele>
        <time>2013-04-25T09:19:34.000Z</time>
      </trkpt>
      <trkpt lat="44.88848" lon="0.3029">
        <ele>42.200000762939</ele>
        <time>2013-04-25T09:19:37.000Z</time>
      </trkpt>
      <trkpt lat="44.88849" lon="0.30291">
        <ele>42.200000762939</ele>
        <time>2013-04-25T09:19:39.000Z</time>
      </trkpt>
      <trkpt lat="44.88851" lon="0.30292">
        <ele>42.200000762939</ele>
        <time>2013-04-25T09:19:41.000Z</time>
      </trkpt>
      <trkpt lat="44.88852" lon="0.30295">
        <ele>42</ele>
        <time>2013-04-25T09:19:44.000Z</time>
      </trkpt>
      <trkpt lat="44.88856" lon="0.30305">
        <ele>41.599998474121</ele>
        <time>2013-04-25T09:19:49.000Z</time>
      </trkpt>
      <trkpt lat="44.88859" lon="0.30319">
        <ele>41</ele>
        <time>2013-04-25T09:19:53.000Z</time>
      </trkpt>
      <trkpt lat="44.8886" lon="0.30328">
        <ele>40.400001525879</ele>
        <time>2013-04-25T09:19:56.000Z</time>
      </trkpt>
      <trkpt lat="44.88861" lon="0.30331">
        <ele>40.400001525879</ele>
        <time>2013-04-25T09:19:57.000Z</time>
      </trkpt>
      <trkpt lat="44.88866" lon="0.30339">
        <ele>40.400001525879</ele>
        <time>2013-04-25T09:20:01.000Z</time>
      </trkpt>
      <trkpt lat="44.88871" lon="0.30346">
        <ele>40.599998474121</ele>
        <time>2013-04-25T09:20:04.000Z</time>
      </trkpt>
      <trkpt lat="44.88873" lon="0.30349">
        <ele>40.799999237061</ele>
        <time>2013-04-25T09:20:05.000Z</time>
      </trkpt>
      <trkpt lat="44.88875" lon="0.30352">
        <ele>40.799999237061</ele>
        <time>2013-04-25T09:20:06.000Z</time>
      </trkpt>
      <trkpt lat="44.88877" lon="0.30369">
        <ele>40.799999237061</ele>
        <time>2013-04-25T09:20:12.000Z</time>
      </trkpt>
      <trkpt lat="44.88876" lon="0.30374">
        <ele>40.799999237061</ele>
        <time>2013-04-25T09:20:13.000Z</time>
      </trkpt>
      <trkpt lat="44.88874" lon="0.30386">
        <ele>40.599998474121</ele>
        <time>2013-04-25T09:20:16.000Z</time>
      </trkpt>
      <trkpt lat="44.88873" lon="0.30389">
        <ele>40.400001525879</ele>
        <time>2013-04-25T09:20:19.000Z</time>
      </trkpt>
      <trkpt lat="44.88873" lon="0.3039">
        <ele>40.400001525879</ele>
        <time>2013-04-25T09:20:20.000Z</time>
      </trkpt>
      <trkpt lat="44.88874" lon="0.30392">
        <ele>40.400001525879</ele>
        <time>2013-04-25T09:20:22.000Z</time>
      </trkpt>
      <trkpt lat="44.88873" lon="0.30401">
        <ele>40.400001525879</ele>
        <time>2013-04-25T09:20:25.000Z</time>
      </trkpt>
      <trkpt lat="44.88868" lon="0.30418">
        <ele>40</ele>
        <time>2013-04-25T09:20:30.000Z</time>
      </trkpt>
      <trkpt lat="44.88864" lon="0.30425">
        <ele>39.799999237061</ele>
        <time>2013-04-25T09:20:32.000Z</time>
      </trkpt>
      <trkpt lat="44.88861" lon="0.30437">
        <ele>39.799999237061</ele>
        <time>2013-04-25T09:20:35.000Z</time>
      </trkpt>
      <trkpt lat="44.88863" lon="0.30445">
        <ele>40</ele>
        <time>2013-04-25T09:20:37.000Z</time>
      </trkpt>
      <trkpt lat="44.88865" lon="0.30448">
        <ele>40</ele>
        <time>2013-04-25T09:20:38.000Z</time>
      </trkpt>
      <trkpt lat="44.88867" lon="0.30451">
        <ele>40.200000762939</ele>
        <time>2013-04-25T09:20:39.000Z</time>
      </trkpt>
      <trkpt lat="44.88873" lon="0.30467">
        <ele>40.799999237061</ele>
        <time>2013-04-25T09:20:43.000Z</time>
      </trkpt>
      <trkpt lat="44.88874" lon="0.30472">
        <ele>41</ele>
        <time>2013-04-25T09:20:44.000Z</time>
      </trkpt>
      <trkpt lat="44.88873" lon="0.30486">
        <ele>41</ele>
        <time>2013-04-25T09:20:48.000Z</time>
      </trkpt>
      <trkpt lat="44.88872" lon="0.30491">
        <ele>41</ele>
        <time>2013-04-25T09:20:49.000Z</time>
      </trkpt>
      <trkpt lat="44.8887" lon="0.305">
        <ele>41</ele>
        <time>2013-04-25T09:20:51.000Z</time>
      </trkpt>
      <trkpt lat="44.88869" lon="0.30511">
        <ele>40.799999237061</ele>
        <time>2013-04-25T09:20:54.000Z</time>
      </trkpt>
      <trkpt lat="44.88868" lon="0.30515">
        <ele>40.599998474121</ele>
        <time>2013-04-25T09:21:00.000Z</time>
      </trkpt>
      <trkpt lat="44.8887" lon="0.30521">
        <ele>40.799999237061</ele>
        <time>2013-04-25T09:21:11.000Z</time>
      </trkpt>
      <trkpt lat="44.88876" lon="0.30523">
        <ele>41.200000762939</ele>
        <time>2013-04-25T09:21:25.000Z</time>
      </trkpt>
      <trkpt lat="44.88876" lon="0.30521">
        <ele>41.200000762939</ele>
        <time>2013-04-25T09:21:27.000Z</time>
      </trkpt>
      <trkpt lat="44.88879" lon="0.30523">
        <ele>41.400001525879</ele>
        <time>2013-04-25T09:21:34.000Z</time>
      </trkpt>
      <trkpt lat="44.88879" lon="0.30532">
        <ele>41.200000762939</ele>
        <time>2013-04-25T09:21:56.000Z</time>
      </trkpt>
      <trkpt lat="44.88873" lon="0.30539">
        <ele>40.799999237061</ele>
        <time>2013-04-25T09:22:03.000Z</time>
      </trkpt>
      <trkpt lat="44.88873" lon="0.30539">
        <ele>40.799999237061</ele>
        <time>2013-04-25T09:22:04.000Z</time>
      </trkpt>
      <trkpt lat="44.88866" lon="0.30547">
        <ele>40.200000762939</ele>
        <time>2013-04-25T09:22:19.000Z</time>
      </trkpt>
      <trkpt lat="44.88864" lon="0.30553">
        <ele>40</ele>
        <time>2013-04-25T09:22:21.000Z</time>
      </trkpt>
      <trkpt lat="44.88861" lon="0.30559">
        <ele>39.799999237061</ele>
        <time>2013-04-25T09:22:23.000Z</time>
      </trkpt>
      <trkpt lat="44.88857" lon="0.30566">
        <ele>39.400001525879</ele>
        <time>2013-04-25T09:22:25.000Z</time>
      </trkpt>
      <trkpt lat="44.88856" lon="0.3057">
        <ele>39.400001525879</ele>
        <time>2013-04-25T09:22:26.000Z</time>
      </trkpt>
      <trkpt lat="44.88851" lon="0.30583">
        <ele>39</ele>
        <time>2013-04-25T09:22:30.000Z</time>
      </trkpt>
      <trkpt lat="44.88846" lon="0.30604">
        <ele>39</ele>
        <time>2013-04-25T09:22:36.000Z</time>
      </trkpt>
      <trkpt lat="44.88845" lon="0.30607">
        <ele>39</ele>
        <time>2013-04-25T09:22:37.000Z</time>
      </trkpt>
      <trkpt lat="44.88845" lon="0.30611">
        <ele>39</ele>
        <time>2013-04-25T09:22:38.000Z</time>
      </trkpt>
      <trkpt lat="44.88847" lon="0.30619">
        <ele>39.200000762939</ele>
        <time>2013-04-25T09:22:40.000Z</time>
      </trkpt>
      <trkpt lat="44.88847" lon="0.30623">
        <ele>39.200000762939</ele>
        <time>2013-04-25T09:22:41.000Z</time>
      </trkpt>
      <trkpt lat="44.88849" lon="0.30634">
        <ele>39.599998474121</ele>
        <time>2013-04-25T09:22:44.000Z</time>
      </trkpt>
      <trkpt lat="44.88848" lon="0.30652">
        <ele>39.799999237061</ele>
        <time>2013-04-25T09:22:49.000Z</time>
      </trkpt>
      <trkpt lat="44.88846" lon="0.30662">
        <ele>39.799999237061</ele>
        <time>2013-04-25T09:22:52.000Z</time>
      </trkpt>
      <trkpt lat="44.88842" lon="0.30669">
        <ele>39.599998474121</ele>
        <time>2013-04-25T09:22:54.000Z</time>
      </trkpt>
      <trkpt lat="44.88833" lon="0.30682">
        <ele>39.200000762939</ele>
        <time>2013-04-25T09:22:58.000Z</time>
      </trkpt>
      <trkpt lat="44.8883" lon="0.30686">
        <ele>39.200000762939</ele>
        <time>2013-04-25T09:23:00.000Z</time>
      </trkpt>
      <trkpt lat="44.88825" lon="0.30692">
        <ele>39.200000762939</ele>
        <time>2013-04-25T09:23:03.000Z</time>
      </trkpt>
      <trkpt lat="44.88821" lon="0.30699">
        <ele>39.200000762939</ele>
        <time>2013-04-25T09:23:06.000Z</time>
      </trkpt>
      <trkpt lat="44.8882" lon="0.30702">
        <ele>39.200000762939</ele>
        <time>2013-04-25T09:23:07.000Z</time>
      </trkpt>
      <trkpt lat="44.88806" lon="0.30718">
        <ele>39.400001525879</ele>
        <time>2013-04-25T09:23:13.000Z</time>
      </trkpt>
      <trkpt lat="44.88802" lon="0.30725">
        <ele>39.599998474121</ele>
        <time>2013-04-25T09:23:16.000Z</time>
      </trkpt>
      <trkpt lat="44.88798" lon="0.30734">
        <ele>39.799999237061</ele>
        <time>2013-04-25T09:23:19.000Z</time>
      </trkpt>
      <trkpt lat="44.88794" lon="0.3074">
        <ele>40</ele>
        <time>2013-04-25T09:23:21.000Z</time>
      </trkpt>
      <trkpt lat="44.88785" lon="0.30752">
        <ele>40.400001525879</ele>
        <time>2013-04-25T09:23:24.000Z</time>
      </trkpt>
      <trkpt lat="44.88779" lon="0.3076">
        <ele>40.599998474121</ele>
        <time>2013-04-25T09:23:27.000Z</time>
      </trkpt>
      <trkpt lat="44.88774" lon="0.30768">
        <ele>40.799999237061</ele>
        <time>2013-04-25T09:23:29.000Z</time>
      </trkpt>
      <trkpt lat="44.88767" lon="0.30781">
        <ele>41</ele>
        <time>2013-04-25T09:23:33.000Z</time>
      </trkpt>
      <trkpt lat="44.88762" lon="0.30787">
        <ele>40.799999237061</ele>
        <time>2013-04-25T09:23:35.000Z</time>
      </trkpt>
      <trkpt lat="44.88754" lon="0.30801">
        <ele>40.799999237061</ele>
        <time>2013-04-25T09:23:39.000Z</time>
      </trkpt>
      <trkpt lat="44.88742" lon="0.30819">
        <ele>40.799999237061</ele>
        <time>2013-04-25T09:23:45.000Z</time>
      </trkpt>
      <trkpt lat="44.88741" lon="0.30822">
        <ele>40.799999237061</ele>
        <time>2013-04-25T09:23:46.000Z</time>
      </trkpt>
      <trkpt lat="44.88737" lon="0.30835">
        <ele>41.200000762939</ele>
        <time>2013-04-25T09:23:50.000Z</time>
      </trkpt>
      <trkpt lat="44.88732" lon="0.30847">
        <ele>41.599998474121</ele>
        <time>2013-04-25T09:23:54.000Z</time>
      </trkpt>
      <trkpt lat="44.8873" lon="0.30852">
        <ele>41.799999237061</ele>
        <time>2013-04-25T09:23:56.000Z</time>
      </trkpt>
      <trkpt lat="44.88721" lon="0.30867">
        <ele>42.200000762939</ele>
        <time>2013-04-25T09:24:01.000Z</time>
      </trkpt>
      <trkpt lat="44.88718" lon="0.3087">
        <ele>42.200000762939</ele>
        <time>2013-04-25T09:24:02.000Z</time>
      </trkpt>
      <trkpt lat="44.88706" lon="0.30876">
        <ele>42.400001525879</ele>
        <time>2013-04-25T09:24:06.000Z</time>
      </trkpt>
      <trkpt lat="44.88703" lon="0.30878">
        <ele>42.400001525879</ele>
        <time>2013-04-25T09:24:07.000Z</time>
      </trkpt>
      <trkpt lat="44.88692" lon="0.30876">
        <ele>42.400001525879</ele>
        <time>2013-04-25T09:24:11.000Z</time>
      </trkpt>
      <trkpt lat="44.88684" lon="0.30873">
        <ele>42.400001525879</ele>
        <time>2013-04-25T09:24:14.000Z</time>
      </trkpt>
      <trkpt lat="44.88679" lon="0.30871">
        <ele>42.400001525879</ele>
        <time>2013-04-25T09:24:16.000Z</time>
      </trkpt>
      <trkpt lat="44.88676" lon="0.30871">
        <ele>42.400001525879</ele>
        <time>2013-04-25T09:24:17.000Z</time>
      </trkpt>
      <trkpt lat="44.8867" lon="0.30868">
        <ele>42.400001525879</ele>
        <time>2013-04-25T09:24:20.000Z</time>
      </trkpt>
      <trkpt lat="44.88667" lon="0.30867">
        <ele>42.400001525879</ele>
        <time>2013-04-25T09:24:21.000Z</time>
      </trkpt>
      <trkpt lat="44.88659" lon="0.30862">
        <ele>42.200000762939</ele>
        <time>2013-04-25T09:24:24.000Z</time>
      </trkpt>
      <trkpt lat="44.88654" lon="0.30858">
        <ele>42</ele>
        <time>2013-04-25T09:24:26.000Z</time>
      </trkpt>
      <trkpt lat="44.8865" lon="0.30852">
        <ele>42</ele>
        <time>2013-04-25T09:24:28.000Z</time>
      </trkpt>
      <trkpt lat="44.88648" lon="0.3085">
        <ele>41.799999237061</ele>
        <time>2013-04-25T09:24:29.000Z</time>
      </trkpt>
      <trkpt lat="44.88645" lon="0.3085">
        <ele>41.799999237061</ele>
        <time>2013-04-25T09:24:32.000Z</time>
      </trkpt>
      <trkpt lat="44.88643" lon="0.3085">
        <ele>41.799999237061</ele>
        <time>2013-04-25T09:24:33.000Z</time>
      </trkpt>
      <trkpt lat="44.88642" lon="0.30849">
        <ele>41.799999237061</ele>
        <time>2013-04-25T09:24:34.000Z</time>
      </trkpt>
      <trkpt lat="44.88637" lon="0.30841">
        <ele>41.400001525879</ele>
        <time>2013-04-25T09:24:38.000Z</time>
      </trkpt>
      <trkpt lat="44.88635" lon="0.30838">
        <ele>41.200000762939</ele>
        <time>2013-04-25T09:24:39.000Z</time>
      </trkpt>
      <trkpt lat="44.88634" lon="0.30834">
        <ele>41.200000762939</ele>
        <time>2013-04-25T09:24:40.000Z</time>
      </trkpt>
      <trkpt lat="44.88629" lon="0.30824">
        <ele>40.599998474121</ele>
        <time>2013-04-25T09:24:43.000Z</time>
      </trkpt>
      <trkpt lat="44.88626" lon="0.30816">
        <ele>40.200000762939</ele>
        <time>2013-04-25T09:24:45.000Z</time>
      </trkpt>
      <trkpt lat="44.88619" lon="0.30801">
        <ele>39.599998474121</ele>
        <time>2013-04-25T09:24:49.000Z</time>
      </trkpt>
      <trkpt lat="44.88616" lon="0.30791">
        <ele>39.200000762939</ele>
        <time>2013-04-25T09:24:52.000Z</time>
      </trkpt>
      <trkpt lat="44.88612" lon="0.30785">
        <ele>38.799999237061</ele>
        <time>2013-04-25T09:24:54.000Z</time>
      </trkpt>
      <trkpt lat="44.88607" lon="0.30779">
        <ele>38.599998474121</ele>
        <time>2013-04-25T09:24:56.000Z</time>
      </trkpt>
      <trkpt lat="44.88604" lon="0.30773">
        <ele>38.200000762939</ele>
        <time>2013-04-25T09:24:58.000Z</time>
      </trkpt>
      <trkpt lat="44.88602" lon="0.3077">
        <ele>38</ele>
        <time>2013-04-25T09:24:59.000Z</time>
      </trkpt>
      <trkpt lat="44.88601" lon="0.30767">
        <ele>38</ele>
        <time>2013-04-25T09:25:00.000Z</time>
      </trkpt>
      <trkpt lat="44.88594" lon="0.30759">
        <ele>37.400001525879</ele>
        <time>2013-04-25T09:25:03.000Z</time>
      </trkpt>
      <trkpt lat="44.88587" lon="0.30752">
        <ele>37</ele>
        <time>2013-04-25T09:25:06.000Z</time>
      </trkpt>
      <trkpt lat="44.88582" lon="0.30746">
        <ele>36.599998474121</ele>
        <time>2013-04-25T09:25:08.000Z</time>
      </trkpt>
      <trkpt lat="44.88572" lon="0.30737">
        <ele>36.200000762939</ele>
        <time>2013-04-25T09:25:13.000Z</time>
      </trkpt>
      <trkpt lat="44.88561" lon="0.30733">
        <ele>36.200000762939</ele>
        <time>2013-04-25T09:25:17.000Z</time>
      </trkpt>
      <trkpt lat="44.88556" lon="0.30732">
        <ele>36.200000762939</ele>
        <time>2013-04-25T09:25:19.000Z</time>
      </trkpt>
      <trkpt lat="44.88551" lon="0.30734">
        <ele>36.400001525879</ele>
        <time>2013-04-25T09:25:21.000Z</time>
      </trkpt>
      <trkpt lat="44.88541" lon="0.30737">
        <ele>36.599998474121</ele>
        <time>2013-04-25T09:25:25.000Z</time>
      </trkpt>
      <trkpt lat="44.88538" lon="0.30737">
        <ele>36.599998474121</ele>
        <time>2013-04-25T09:25:26.000Z</time>
      </trkpt>
      <trkpt lat="44.88531" lon="0.30737">
        <ele>36.799999237061</ele>
        <time>2013-04-25T09:25:29.000Z</time>
      </trkpt>
      <trkpt lat="44.88522" lon="0.30736">
        <ele>36.799999237061</ele>
        <time>2013-04-25T09:25:32.000Z</time>
      </trkpt>
      <trkpt lat="44.8851" lon="0.30735">
        <ele>36.799999237061</ele>
        <time>2013-04-25T09:25:36.000Z</time>
      </trkpt>
      <trkpt lat="44.88507" lon="0.30735">
        <ele>37</ele>
        <time>2013-04-25T09:25:37.000Z</time>
      </trkpt>
      <trkpt lat="44.88495" lon="0.30732">
        <ele>37</ele>
        <time>2013-04-25T09:25:42.000Z</time>
      </trkpt>
      <trkpt lat="44.88492" lon="0.30731">
        <ele>36.799999237061</ele>
        <time>2013-04-25T09:25:43.000Z</time>
      </trkpt>
      <trkpt lat="44.88489" lon="0.30731">
        <ele>37</ele>
        <time>2013-04-25T09:25:44.000Z</time>
      </trkpt>
      <trkpt lat="44.88483" lon="0.3073">
        <ele>37</ele>
        <time>2013-04-25T09:25:46.000Z</time>
      </trkpt>
      <trkpt lat="44.88468" lon="0.30727">
        <ele>37</ele>
        <time>2013-04-25T09:25:51.000Z</time>
      </trkpt>
      <trkpt lat="44.88463" lon="0.30726">
        <ele>37</ele>
        <time>2013-04-25T09:25:53.000Z</time>
      </trkpt>
      <trkpt lat="44.88458" lon="0.30725">
        <ele>37</ele>
        <time>2013-04-25T09:25:55.000Z</time>
      </trkpt>
      <trkpt lat="44.88449" lon="0.30728">
        <ele>37.400001525879</ele>
        <time>2013-04-25T09:25:58.000Z</time>
      </trkpt>
      <trkpt lat="44.88442" lon="0.30728">
        <ele>37.400001525879</ele>
        <time>2013-04-25T09:26:00.000Z</time>
      </trkpt>
      <trkpt lat="44.88431" lon="0.30725">
        <ele>37.400001525879</ele>
        <time>2013-04-25T09:26:04.000Z</time>
      </trkpt>
      <trkpt lat="44.88429" lon="0.30724">
        <ele>37.400001525879</ele>
        <time>2013-04-25T09:26:05.000Z</time>
      </trkpt>
      <trkpt lat="44.88417" lon="0.30719">
        <ele>37.400001525879</ele>
        <time>2013-04-25T09:26:10.000Z</time>
      </trkpt>
      <trkpt lat="44.88412" lon="0.30718">
        <ele>37.799999237061</ele>
        <time>2013-04-25T09:26:12.000Z</time>
      </trkpt>
      <trkpt lat="44.88405" lon="0.30713">
        <ele>38</ele>
        <time>2013-04-25T09:26:15.000Z</time>
      </trkpt>
      <trkpt lat="44.88393" lon="0.30709">
        <ele>38.799999237061</ele>
        <time>2013-04-25T09:26:19.000Z</time>
      </trkpt>
      <trkpt lat="44.8838" lon="0.30701">
        <ele>39.400001525879</ele>
        <time>2013-04-25T09:26:25.000Z</time>
      </trkpt>
      <trkpt lat="44.88375" lon="0.30698">
        <ele>39.599998474121</ele>
        <time>2013-04-25T09:26:27.000Z</time>
      </trkpt>
      <trkpt lat="44.88365" lon="0.30691">
        <ele>40</ele>
        <time>2013-04-25T09:26:31.000Z</time>
      </trkpt>
      <trkpt lat="44.88362" lon="0.30678">
        <ele>39.599998474121</ele>
        <time>2013-04-25T09:26:34.000Z</time>
      </trkpt>
      <trkpt lat="44.88361" lon="0.30674">
        <ele>39.400001525879</ele>
        <time>2013-04-25T09:26:35.000Z</time>
      </trkpt>
      <trkpt lat="44.88354" lon="0.30653">
        <ele>39</ele>
        <time>2013-04-25T09:26:41.000Z</time>
      </trkpt>
      <trkpt lat="44.8835" lon="0.30649">
        <ele>39</ele>
        <time>2013-04-25T09:26:43.000Z</time>
      </trkpt>
      <trkpt lat="44.88346" lon="0.30644">
        <ele>39.200000762939</ele>
        <time>2013-04-25T09:26:45.000Z</time>
      </trkpt>
      <trkpt lat="44.88337" lon="0.30638">
        <ele>39.599998474121</ele>
        <time>2013-04-25T09:26:49.000Z</time>
      </trkpt>
      <trkpt lat="44.88332" lon="0.30636">
        <ele>39.799999237061</ele>
        <time>2013-04-25T09:26:51.000Z</time>
      </trkpt>
      <trkpt lat="44.88324" lon="0.30624">
        <ele>40.400001525879</ele>
        <time>2013-04-25T09:26:57.000Z</time>
      </trkpt>
      <trkpt lat="44.88323" lon="0.30621">
        <ele>40.400001525879</ele>
        <time>2013-04-25T09:26:58.000Z</time>
      </trkpt>
      <trkpt lat="44.88318" lon="0.3061">
        <ele>40.400001525879</ele>
        <time>2013-04-25T09:27:03.000Z</time>
      </trkpt>
      <trkpt lat="44.8831" lon="0.30601">
        <ele>40.799999237061</ele>
        <time>2013-04-25T09:27:09.000Z</time>
      </trkpt>
      <trkpt lat="44.88302" lon="0.30593">
        <ele>41.400001525879</ele>
        <time>2013-04-25T09:27:14.000Z</time>
      </trkpt>
      <trkpt lat="44.883" lon="0.30591">
        <ele>41.400001525879</ele>
        <time>2013-04-25T09:27:15.000Z</time>
      </trkpt>
      <trkpt lat="44.88296" lon="0.30586">
        <ele>41.599998474121</ele>
        <time>2013-04-25T09:27:18.000Z</time>
      </trkpt>
      <trkpt lat="44.88293" lon="0.30582">
        <ele>41.799999237061</ele>
        <time>2013-04-25T09:27:20.000Z</time>
      </trkpt>
      <trkpt lat="44.88278" lon="0.30577">
        <ele>43.200000762939</ele>
        <time>2013-04-25T09:27:26.000Z</time>
      </trkpt>
      <trkpt lat="44.88269" lon="0.30575">
        <ele>44</ele>
        <time>2013-04-25T09:27:30.000Z</time>
      </trkpt>
      <trkpt lat="44.88266" lon="0.30577">
        <ele>44.400001525879</ele>
        <time>2013-04-25T09:27:32.000Z</time>
      </trkpt>
      <trkpt lat="44.88262" lon="0.30576">
        <ele>44.799999237061</ele>
        <time>2013-04-25T09:27:34.000Z</time>
      </trkpt>
      <trkpt lat="44.88259" lon="0.30575">
        <ele>45</ele>
        <time>2013-04-25T09:27:35.000Z</time>
      </trkpt>
      <trkpt lat="44.88252" lon="0.30572">
        <ele>45.599998474121</ele>
        <time>2013-04-25T09:27:38.000Z</time>
      </trkpt>
      <trkpt lat="44.88244" lon="0.30574">
        <ele>46</ele>
        <time>2013-04-25T09:27:41.000Z</time>
      </trkpt>
      <trkpt lat="44.8824" lon="0.30577">
        <ele>46.200000762939</ele>
        <time>2013-04-25T09:27:43.000Z</time>
      </trkpt>
      <trkpt lat="44.88237" lon="0.30585">
        <ele>46.400001525879</ele>
        <time>2013-04-25T09:27:46.000Z</time>
      </trkpt>
      <trkpt lat="44.88233" lon="0.306">
        <ele>47.400001525879</ele>
        <time>2013-04-25T09:27:51.000Z</time>
      </trkpt>
      <trkpt lat="44.8823" lon="0.30617">
        <ele>48.400001525879</ele>
        <time>2013-04-25T09:27:57.000Z</time>
      </trkpt>
      <trkpt lat="44.88227" lon="0.30625">
        <ele>49</ele>
        <time>2013-04-25T09:28:00.000Z</time>
      </trkpt>
      <trkpt lat="44.88226" lon="0.30632">
        <ele>49.200000762939</ele>
        <time>2013-04-25T09:28:03.000Z</time>
      </trkpt>
      <trkpt lat="44.88225" lon="0.30644">
        <ele>50</ele>
        <time>2013-04-25T09:28:07.000Z</time>
      </trkpt>
      <trkpt lat="44.88224" lon="0.30649">
        <ele>50.200000762939</ele>
        <time>2013-04-25T09:28:09.000Z</time>
      </trkpt>
      <trkpt lat="44.88223" lon="0.30652">
        <ele>50.400001525879</ele>
        <time>2013-04-25T09:28:11.000Z</time>
      </trkpt>
      <trkpt lat="44.88223" lon="0.30657">
        <ele>50.599998474121</ele>
        <time>2013-04-25T09:28:13.000Z</time>
      </trkpt>
      <trkpt lat="44.88224" lon="0.30668">
        <ele>51.200000762939</ele>
        <time>2013-04-25T09:28:18.000Z</time>
      </trkpt>
      <trkpt lat="44.88224" lon="0.30678">
        <ele>52.200000762939</ele>
        <time>2013-04-25T09:28:23.000Z</time>
      </trkpt>
      <trkpt lat="44.88224" lon="0.3068">
        <ele>52.400001525879</ele>
        <time>2013-04-25T09:28:24.000Z</time>
      </trkpt>
      <trkpt lat="44.88226" lon="0.30692">
        <ele>53.400001525879</ele>
        <time>2013-04-25T09:28:30.000Z</time>
      </trkpt>
      <trkpt lat="44.88229" lon="0.30706">
        <ele>54.599998474121</ele>
        <time>2013-04-25T09:28:36.000Z</time>
      </trkpt>
      <trkpt lat="44.88234" lon="0.30718">
        <ele>55.599998474121</ele>
        <time>2013-04-25T09:28:42.000Z</time>
      </trkpt>
      <trkpt lat="44.88237" lon="0.30731">
        <ele>56.599998474121</ele>
        <time>2013-04-25T09:28:46.000Z</time>
      </trkpt>
      <trkpt lat="44.88237" lon="0.30734">
        <ele>56.799999237061</ele>
        <time>2013-04-25T09:28:47.000Z</time>
      </trkpt>
      <trkpt lat="44.88238" lon="0.30738">
        <ele>57.200000762939</ele>
        <time>2013-04-25T09:28:48.000Z</time>
      </trkpt>
      <trkpt lat="44.88238" lon="0.30749">
        <ele>58.200000762939</ele>
        <time>2013-04-25T09:28:52.000Z</time>
      </trkpt>
      <trkpt lat="44.88238" lon="0.30751">
        <ele>58.400001525879</ele>
        <time>2013-04-25T09:28:53.000Z</time>
      </trkpt>
      <trkpt lat="44.88237" lon="0.30759">
        <ele>59.400001525879</ele>
        <time>2013-04-25T09:28:56.000Z</time>
      </trkpt>
      <trkpt lat="44.88237" lon="0.30767">
        <ele>60.200000762939</ele>
        <time>2013-04-25T09:28:59.000Z</time>
      </trkpt>
      <trkpt lat="44.88236" lon="0.30772">
        <ele>60.599998474121</ele>
        <time>2013-04-25T09:29:01.000Z</time>
      </trkpt>
      <trkpt lat="44.88237" lon="0.30774">
        <ele>60.799999237061</ele>
        <time>2013-04-25T09:29:03.000Z</time>
      </trkpt>
      <trkpt lat="44.88235" lon="0.30783">
        <ele>61.799999237061</ele>
        <time>2013-04-25T09:29:08.000Z</time>
      </trkpt>
      <trkpt lat="44.88233" lon="0.30789">
        <ele>62.599998474121</ele>
        <time>2013-04-25T09:29:11.000Z</time>
      </trkpt>
      <trkpt lat="44.88233" lon="0.30792">
        <ele>62.799999237061</ele>
        <time>2013-04-25T09:29:12.000Z</time>
      </trkpt>
      <trkpt lat="44.88233" lon="0.30797">
        <ele>63.400001525879</ele>
        <time>2013-04-25T09:29:14.000Z</time>
      </trkpt>
      <trkpt lat="44.88234" lon="0.308">
        <ele>63.599998474121</ele>
        <time>2013-04-25T09:29:15.000Z</time>
      </trkpt>
      <trkpt lat="44.88235" lon="0.30812">
        <ele>65</ele>
        <time>2013-04-25T09:29:19.000Z</time>
      </trkpt>
      <trkpt lat="44.88235" lon="0.30815">
        <ele>65.199996948242</ele>
        <time>2013-04-25T09:29:20.000Z</time>
      </trkpt>
      <trkpt lat="44.88234" lon="0.30818">
        <ele>65.599998474121</ele>
        <time>2013-04-25T09:29:21.000Z</time>
      </trkpt>
      <trkpt lat="44.88231" lon="0.30825">
        <ele>66.400001525879</ele>
        <time>2013-04-25T09:29:24.000Z</time>
      </trkpt>
      <trkpt lat="44.88224" lon="0.30838">
        <ele>67.400001525879</ele>
        <time>2013-04-25T09:29:29.000Z</time>
      </trkpt>
      <trkpt lat="44.88222" lon="0.30841">
        <ele>67.599998474121</ele>
        <time>2013-04-25T09:29:30.000Z</time>
      </trkpt>
      <trkpt lat="44.88217" lon="0.30852">
        <ele>68.199996948242</ele>
        <time>2013-04-25T09:29:34.000Z</time>
      </trkpt>
      <trkpt lat="44.88216" lon="0.30861">
        <ele>68.800003051758</ele>
        <time>2013-04-25T09:29:37.000Z</time>
      </trkpt>
      <trkpt lat="44.88216" lon="0.30873">
        <ele>69.400001525879</ele>
        <time>2013-04-25T09:29:41.000Z</time>
      </trkpt>
      <trkpt lat="44.88217" lon="0.30888">
        <ele>70.199996948242</ele>
        <time>2013-04-25T09:29:46.000Z</time>
      </trkpt>
      <trkpt lat="44.88218" lon="0.30894">
        <ele>70.599998474121</ele>
        <time>2013-04-25T09:29:48.000Z</time>
      </trkpt>
      <trkpt lat="44.8822" lon="0.30911">
        <ele>71.599998474121</ele>
        <time>2013-04-25T09:29:53.000Z</time>
      </trkpt>
      <trkpt lat="44.88221" lon="0.30914">
        <ele>71.800003051758</ele>
        <time>2013-04-25T09:29:54.000Z</time>
      </trkpt>
      <trkpt lat="44.88224" lon="0.30928">
        <ele>72.400001525879</ele>
        <time>2013-04-25T09:29:58.000Z</time>
      </trkpt>
      <trkpt lat="44.88227" lon="0.30942">
        <ele>72.800003051758</ele>
        <time>2013-04-25T09:30:02.000Z</time>
      </trkpt>
      <trkpt lat="44.88227" lon="0.30946">
        <ele>73</ele>
        <time>2013-04-25T09:30:03.000Z</time>
      </trkpt>
      <trkpt lat="44.88233" lon="0.30966">
        <ele>74</ele>
        <time>2013-04-25T09:30:09.000Z</time>
      </trkpt>
      <trkpt lat="44.88234" lon="0.3097">
        <ele>74.199996948242</ele>
        <time>2013-04-25T09:30:10.000Z</time>
      </trkpt>
      <trkpt lat="44.88241" lon="0.30986">
        <ele>75</ele>
        <time>2013-04-25T09:30:15.000Z</time>
      </trkpt>
      <trkpt lat="44.88242" lon="0.30989">
        <ele>75.199996948242</ele>
        <time>2013-04-25T09:30:16.000Z</time>
      </trkpt>
      <trkpt lat="44.88247" lon="0.31001">
        <ele>75.800003051758</ele>
        <time>2013-04-25T09:30:20.000Z</time>
      </trkpt>
      <trkpt lat="44.88253" lon="0.31011">
        <ele>75.400001525879</ele>
        <time>2013-04-25T09:30:24.000Z</time>
      </trkpt>
      <trkpt lat="44.88255" lon="0.31014">
        <ele>75.400001525879</ele>
        <time>2013-04-25T09:30:25.000Z</time>
      </trkpt>
      <trkpt lat="44.88261" lon="0.31023">
        <ele>75</ele>
        <time>2013-04-25T09:30:29.000Z</time>
      </trkpt>
      <trkpt lat="44.88263" lon="0.31025">
        <ele>74.800003051758</ele>
        <time>2013-04-25T09:30:30.000Z</time>
      </trkpt>
      <trkpt lat="44.88267" lon="0.31028">
        <ele>74.599998474121</ele>
        <time>2013-04-25T09:30:32.000Z</time>
      </trkpt>
      <trkpt lat="44.88275" lon="0.31032">
        <ele>74.400001525879</ele>
        <time>2013-04-25T09:30:36.000Z</time>
      </trkpt>
      <trkpt lat="44.88285" lon="0.31035">
        <ele>74.199996948242</ele>
        <time>2013-04-25T09:30:39.000Z</time>
      </trkpt>
      <trkpt lat="44.88296" lon="0.31036">
        <ele>74</ele>
        <time>2013-04-25T09:30:42.000Z</time>
      </trkpt>
      <trkpt lat="44.88304" lon="0.31038">
        <ele>73.800003051758</ele>
        <time>2013-04-25T09:30:45.000Z</time>
      </trkpt>
      <trkpt lat="44.88311" lon="0.31038">
        <ele>73.599998474121</ele>
        <time>2013-04-25T09:30:47.000Z</time>
      </trkpt>
      <trkpt lat="44.88318" lon="0.3104">
        <ele>73.599998474121</ele>
        <time>2013-04-25T09:30:50.000Z</time>
      </trkpt>
      <trkpt lat="44.8832" lon="0.3104">
        <ele>73.599998474121</ele>
        <time>2013-04-25T09:30:51.000Z</time>
      </trkpt>
      <trkpt lat="44.88323" lon="0.3104">
        <ele>73.599998474121</ele>
        <time>2013-04-25T09:30:52.000Z</time>
      </trkpt>
      <trkpt lat="44.88328" lon="0.31041">
        <ele>73.400001525879</ele>
        <time>2013-04-25T09:30:54.000Z</time>
      </trkpt>
      <trkpt lat="44.88334" lon="0.31047">
        <ele>73.599998474121</ele>
        <time>2013-04-25T09:30:57.000Z</time>
      </trkpt>
      <trkpt lat="44.88341" lon="0.31052">
        <ele>73.199996948242</ele>
        <time>2013-04-25T09:31:00.000Z</time>
      </trkpt>
      <trkpt lat="44.88343" lon="0.31054">
        <ele>73</ele>
        <time>2013-04-25T09:31:01.000Z</time>
      </trkpt>
      <trkpt lat="44.88349" lon="0.3107">
        <ele>73.400001525879</ele>
        <time>2013-04-25T09:31:06.000Z</time>
      </trkpt>
      <trkpt lat="44.8835" lon="0.31073">
        <ele>73.599998474121</ele>
        <time>2013-04-25T09:31:07.000Z</time>
      </trkpt>
      <trkpt lat="44.88352" lon="0.31087">
        <ele>74</ele>
        <time>2013-04-25T09:31:11.000Z</time>
      </trkpt>
      <trkpt lat="44.88355" lon="0.31101">
        <ele>73.800003051758</ele>
        <time>2013-04-25T09:31:15.000Z</time>
      </trkpt>
      <trkpt lat="44.88357" lon="0.31109">
        <ele>73.400001525879</ele>
        <time>2013-04-25T09:31:17.000Z</time>
      </trkpt>
      <trkpt lat="44.8836" lon="0.31126">
        <ele>73.199996948242</ele>
        <time>2013-04-25T09:31:21.000Z</time>
      </trkpt>
      <trkpt lat="44.88359" lon="0.3113">
        <ele>73.199996948242</ele>
        <time>2013-04-25T09:31:22.000Z</time>
      </trkpt>
      <trkpt lat="44.8836" lon="0.31142">
        <ele>73</ele>
        <time>2013-04-25T09:31:25.000Z</time>
      </trkpt>
      <trkpt lat="44.88361" lon="0.31145">
        <ele>73</ele>
        <time>2013-04-25T09:31:26.000Z</time>
      </trkpt>
      <trkpt lat="44.88361" lon="0.31153">
        <ele>73</ele>
        <time>2013-04-25T09:31:28.000Z</time>
      </trkpt>
      <trkpt lat="44.88361" lon="0.31166">
        <ele>73</ele>
        <time>2013-04-25T09:31:31.000Z</time>
      </trkpt>
      <trkpt lat="44.88359" lon="0.31179">
        <ele>73.199996948242</ele>
        <time>2013-04-25T09:31:34.000Z</time>
      </trkpt>
      <trkpt lat="44.88358" lon="0.31187">
        <ele>73.400001525879</ele>
        <time>2013-04-25T09:31:36.000Z</time>
      </trkpt>
      <trkpt lat="44.88355" lon="0.31207">
        <ele>73.800003051758</ele>
        <time>2013-04-25T09:31:41.000Z</time>
      </trkpt>
      <trkpt lat="44.88349" lon="0.31231">
        <ele>74.199996948242</ele>
        <time>2013-04-25T09:31:47.000Z</time>
      </trkpt>
      <trkpt lat="44.88349" lon="0.31234">
        <ele>74.199996948242</ele>
        <time>2013-04-25T09:31:48.000Z</time>
      </trkpt>
      <trkpt lat="44.88348" lon="0.3125">
        <ele>74.400001525879</ele>
        <time>2013-04-25T09:31:52.000Z</time>
      </trkpt>
      <trkpt lat="44.88346" lon="0.31262">
        <ele>74.199996948242</ele>
        <time>2013-04-25T09:31:55.000Z</time>
      </trkpt>
      <trkpt lat="44.88348" lon="0.3127">
        <ele>74</ele>
        <time>2013-04-25T09:31:57.000Z</time>
      </trkpt>
      <trkpt lat="44.88351" lon="0.31277">
        <ele>73.800003051758</ele>
        <time>2013-04-25T09:31:59.000Z</time>
      </trkpt>
      <trkpt lat="44.88359" lon="0.31279">
        <ele>73.800003051758</ele>
        <time>2013-04-25T09:32:01.000Z</time>
      </trkpt>
      <trkpt lat="44.8837" lon="0.31273">
        <ele>73.599998474121</ele>
        <time>2013-04-25T09:32:04.000Z</time>
      </trkpt>
      <trkpt lat="44.88373" lon="0.31273">
        <ele>73.400001525879</ele>
        <time>2013-04-25T09:32:05.000Z</time>
      </trkpt>
      <trkpt lat="44.88378" lon="0.31275">
        <ele>73.400001525879</ele>
        <time>2013-04-25T09:32:07.000Z</time>
      </trkpt>
      <trkpt lat="44.88382" lon="0.31276">
        <ele>73.199996948242</ele>
        <time>2013-04-25T09:32:09.000Z</time>
      </trkpt>
      <trkpt lat="44.88388" lon="0.31289">
        <ele>73.199996948242</ele>
        <time>2013-04-25T09:32:13.000Z</time>
      </trkpt>
      <trkpt lat="44.8839" lon="0.31292">
        <ele>73.199996948242</ele>
        <time>2013-04-25T09:32:14.000Z</time>
      </trkpt>
      <trkpt lat="44.88394" lon="0.31296">
        <ele>73.199996948242</ele>
        <time>2013-04-25T09:32:16.000Z</time>
      </trkpt>
      <trkpt lat="44.884" lon="0.31303">
        <ele>73.199996948242</ele>
        <time>2013-04-25T09:32:19.000Z</time>
      </trkpt>
      <trkpt lat="44.88406" lon="0.31306">
        <ele>73.199996948242</ele>
        <time>2013-04-25T09:32:21.000Z</time>
      </trkpt>
      <trkpt lat="44.88409" lon="0.31307">
        <ele>73.199996948242</ele>
        <time>2013-04-25T09:32:22.000Z</time>
      </trkpt>
      <trkpt lat="44.88416" lon="0.31309">
        <ele>73.400001525879</ele>
        <time>2013-04-25T09:32:24.000Z</time>
      </trkpt>
      <trkpt lat="44.88425" lon="0.31313">
        <ele>73.400001525879</ele>
        <time>2013-04-25T09:32:27.000Z</time>
      </trkpt>
      <trkpt lat="44.88429" lon="0.31317">
        <ele>73.599998474121</ele>
        <time>2013-04-25T09:32:29.000Z</time>
      </trkpt>
      <trkpt lat="44.88442" lon="0.31325">
        <ele>74.199996948242</ele>
        <time>2013-04-25T09:32:34.000Z</time>
      </trkpt>
      <trkpt lat="44.88455" lon="0.31332">
        <ele>74.800003051758</ele>
        <time>2013-04-25T09:32:39.000Z</time>
      </trkpt>
      <trkpt lat="44.8846" lon="0.31334">
        <ele>75</ele>
        <time>2013-04-25T09:32:41.000Z</time>
      </trkpt>
      <trkpt lat="44.88465" lon="0.31335">
        <ele>75.199996948242</ele>
        <time>2013-04-25T09:32:43.000Z</time>
      </trkpt>
      <trkpt lat="44.88468" lon="0.31337">
        <ele>75.199996948242</ele>
        <time>2013-04-25T09:32:45.000Z</time>
      </trkpt>
      <trkpt lat="44.88472" lon="0.31346">
        <ele>75.800003051758</ele>
        <time>2013-04-25T09:32:49.000Z</time>
      </trkpt>
      <trkpt lat="44.88474" lon="0.31347">
        <ele>75.800003051758</ele>
        <time>2013-04-25T09:32:50.000Z</time>
      </trkpt>
      <trkpt lat="44.88475" lon="0.31349">
        <ele>76</ele>
        <time>2013-04-25T09:32:51.000Z</time>
      </trkpt>
      <trkpt lat="44.88485" lon="0.31357">
        <ele>76.599998474121</ele>
        <time>2013-04-25T09:32:56.000Z</time>
      </trkpt>
      <trkpt lat="44.88492" lon="0.31364">
        <ele>77.199996948242</ele>
        <time>2013-04-25T09:32:59.000Z</time>
      </trkpt>
      <trkpt lat="44.88496" lon="0.31367">
        <ele>77.400001525879</ele>
        <time>2013-04-25T09:33:01.000Z</time>
      </trkpt>
      <trkpt lat="44.88511" lon="0.31373">
        <ele>78</ele>
        <time>2013-04-25T09:33:06.000Z</time>
      </trkpt>
      <trkpt lat="44.88525" lon="0.31382">
        <ele>78.599998474121</ele>
        <time>2013-04-25T09:33:11.000Z</time>
      </trkpt>
      <trkpt lat="44.88528" lon="0.31387">
        <ele>79</ele>
        <time>2013-04-25T09:33:13.000Z</time>
      </trkpt>
      <trkpt lat="44.88536" lon="0.31391">
        <ele>79.199996948242</ele>
        <time>2013-04-25T09:33:16.000Z</time>
      </trkpt>
      <trkpt lat="44.88546" lon="0.314">
        <ele>79.800003051758</ele>
        <time>2013-04-25T09:33:21.000Z</time>
      </trkpt>
      <trkpt lat="44.88554" lon="0.31408">
        <ele>80.199996948242</ele>
        <time>2013-04-25T09:33:26.000Z</time>
      </trkpt>
      <trkpt lat="44.88564" lon="0.31414">
        <ele>80.599998474121</ele>
        <time>2013-04-25T09:33:30.000Z</time>
      </trkpt>
      <trkpt lat="44.88568" lon="0.31417">
        <ele>80.800003051758</ele>
        <time>2013-04-25T09:33:32.000Z</time>
      </trkpt>
      <trkpt lat="44.88576" lon="0.31417">
        <ele>80.800003051758</ele>
        <time>2013-04-25T09:33:36.000Z</time>
      </trkpt>
      <trkpt lat="44.88583" lon="0.31416">
        <ele>80.800003051758</ele>
        <time>2013-04-25T09:33:39.000Z</time>
      </trkpt>
      <trkpt lat="44.88591" lon="0.31416">
        <ele>80.599998474121</ele>
        <time>2013-04-25T09:33:42.000Z</time>
      </trkpt>
      <trkpt lat="44.88602" lon="0.31418">
        <ele>80.199996948242</ele>
        <time>2013-04-25T09:33:47.000Z</time>
      </trkpt>
      <trkpt lat="44.88605" lon="0.31418">
        <ele>80.199996948242</ele>
        <time>2013-04-25T09:33:48.000Z</time>
      </trkpt>
      <trkpt lat="44.88614" lon="0.31422">
        <ele>80</ele>
        <time>2013-04-25T09:33:53.000Z</time>
      </trkpt>
      <trkpt lat="44.88621" lon="0.31422">
        <ele>79.800003051758</ele>
        <time>2013-04-25T09:33:56.000Z</time>
      </trkpt>
      <trkpt lat="44.88626" lon="0.31422">
        <ele>79.599998474121</ele>
        <time>2013-04-25T09:33:58.000Z</time>
      </trkpt>
      <trkpt lat="44.88629" lon="0.31422">
        <ele>79.599998474121</ele>
        <time>2013-04-25T09:33:59.000Z</time>
      </trkpt>
      <trkpt lat="44.88635" lon="0.31424">
        <ele>79.400001525879</ele>
        <time>2013-04-25T09:34:01.000Z</time>
      </trkpt>
      <trkpt lat="44.88636" lon="0.31427">
        <ele>79.599998474121</ele>
        <time>2013-04-25T09:34:02.000Z</time>
      </trkpt>
      <trkpt lat="44.88637" lon="0.31431">
        <ele>79.800003051758</ele>
        <time>2013-04-25T09:34:03.000Z</time>
      </trkpt>
      <trkpt lat="44.8864" lon="0.31437">
        <ele>80</ele>
        <time>2013-04-25T09:34:06.000Z</time>
      </trkpt>
      <trkpt lat="44.8865" lon="0.31433">
        <ele>79.400001525879</ele>
        <time>2013-04-25T09:34:10.000Z</time>
      </trkpt>
      <trkpt lat="44.88652" lon="0.31431">
        <ele>79.400001525879</ele>
        <time>2013-04-25T09:34:11.000Z</time>
      </trkpt>
      <trkpt lat="44.88661" lon="0.31425">
        <ele>78.599998474121</ele>
        <time>2013-04-25T09:34:14.000Z</time>
      </trkpt>
      <trkpt lat="44.88664" lon="0.31423">
        <ele>78.400001525879</ele>
        <time>2013-04-25T09:34:15.000Z</time>
      </trkpt>
      <trkpt lat="44.8867" lon="0.31419">
        <ele>77.800003051758</ele>
        <time>2013-04-25T09:34:17.000Z</time>
      </trkpt>
      <trkpt lat="44.88681" lon="0.31416">
        <ele>76.800003051758</ele>
        <time>2013-04-25T09:34:21.000Z</time>
      </trkpt>
      <trkpt lat="44.88689" lon="0.31416">
        <ele>76.199996948242</ele>
        <time>2013-04-25T09:34:24.000Z</time>
      </trkpt>
      <trkpt lat="44.88692" lon="0.31417">
        <ele>76.199996948242</ele>
        <time>2013-04-25T09:34:25.000Z</time>
      </trkpt>
      <trkpt lat="44.88706" lon="0.31418">
        <ele>75.199996948242</ele>
        <time>2013-04-25T09:34:30.000Z</time>
      </trkpt>
      <trkpt lat="44.88709" lon="0.31418">
        <ele>75</ele>
        <time>2013-04-25T09:34:31.000Z</time>
      </trkpt>
      <trkpt lat="44.8872" lon="0.3142">
        <ele>74.400001525879</ele>
        <time>2013-04-25T09:34:35.000Z</time>
      </trkpt>
      <trkpt lat="44.88728" lon="0.31419">
        <ele>73.800003051758</ele>
        <time>2013-04-25T09:34:38.000Z</time>
      </trkpt>
      <trkpt lat="44.88736" lon="0.31414">
        <ele>72.800003051758</ele>
        <time>2013-04-25T09:34:41.000Z</time>
      </trkpt>
      <trkpt lat="44.88742" lon="0.31405">
        <ele>71.400001525879</ele>
        <time>2013-04-25T09:34:44.000Z</time>
      </trkpt>
      <trkpt lat="44.88748" lon="0.31399">
        <ele>70.400001525879</ele>
        <time>2013-04-25T09:34:46.000Z</time>
      </trkpt>
      <trkpt lat="44.88758" lon="0.31386">
        <ele>69.599998474121</ele>
        <time>2013-04-25T09:34:50.000Z</time>
      </trkpt>
      <trkpt lat="44.8876" lon="0.31383">
        <ele>69.400001525879</ele>
        <time>2013-04-25T09:34:51.000Z</time>
      </trkpt>
      <trkpt lat="44.88769" lon="0.31368">
        <ele>68.800003051758</ele>
        <time>2013-04-25T09:34:56.000Z</time>
      </trkpt>
      <trkpt lat="44.88769" lon="0.31364">
        <ele>68.599998474121</ele>
        <time>2013-04-25T09:34:57.000Z</time>
      </trkpt>
      <trkpt lat="44.88769" lon="0.3135">
        <ele>67.199996948242</ele>
        <time>2013-04-25T09:35:01.000Z</time>
      </trkpt>
      <trkpt lat="44.88767" lon="0.31336">
        <ele>65.800003051758</ele>
        <time>2013-04-25T09:35:04.000Z</time>
      </trkpt>
      <trkpt lat="44.88768" lon="0.31327">
        <ele>65.199996948242</ele>
        <time>2013-04-25T09:35:06.000Z</time>
      </trkpt>
      <trkpt lat="44.88773" lon="0.31309">
        <ele>64.199996948242</ele>
        <time>2013-04-25T09:35:11.000Z</time>
      </trkpt>
      <trkpt lat="44.88777" lon="0.31292">
        <ele>63</ele>
        <time>2013-04-25T09:35:17.000Z</time>
      </trkpt>
      <trkpt lat="44.88777" lon="0.31282">
        <ele>62.200000762939</ele>
        <time>2013-04-25T09:35:20.000Z</time>
      </trkpt>
      <trkpt lat="44.88775" lon="0.31273">
        <ele>61.200000762939</ele>
        <time>2013-04-25T09:35:22.000Z</time>
      </trkpt>
      <trkpt lat="44.88774" lon="0.31256">
        <ele>59.599998474121</ele>
        <time>2013-04-25T09:35:26.000Z</time>
      </trkpt>
      <trkpt lat="44.88774" lon="0.31252">
        <ele>59.400001525879</ele>
        <time>2013-04-25T09:35:27.000Z</time>
      </trkpt>
      <trkpt lat="44.88777" lon="0.31241">
        <ele>59</ele>
        <time>2013-04-25T09:35:31.000Z</time>
      </trkpt>
      <trkpt lat="44.88778" lon="0.3123">
        <ele>58.400001525879</ele>
        <time>2013-04-25T09:35:34.000Z</time>
      </trkpt>
      <trkpt lat="44.88777" lon="0.31217">
        <ele>57.599998474121</ele>
        <time>2013-04-25T09:35:37.000Z</time>
      </trkpt>
      <trkpt lat="44.88777" lon="0.31205">
        <ele>57</ele>
        <time>2013-04-25T09:35:40.000Z</time>
      </trkpt>
      <trkpt lat="44.88778" lon="0.312">
        <ele>56.799999237061</ele>
        <time>2013-04-25T09:35:41.000Z</time>
      </trkpt>
      <trkpt lat="44.88774" lon="0.3119">
        <ele>56</ele>
        <time>2013-04-25T09:35:44.000Z</time>
      </trkpt>
      <trkpt lat="44.88773" lon="0.31187">
        <ele>55.599998474121</ele>
        <time>2013-04-25T09:35:45.000Z</time>
      </trkpt>
      <trkpt lat="44.88771" lon="0.31179">
        <ele>55.200000762939</ele>
        <time>2013-04-25T09:35:47.000Z</time>
      </trkpt>
      <trkpt lat="44.88772" lon="0.31172">
        <ele>54.799999237061</ele>
        <time>2013-04-25T09:35:49.000Z</time>
      </trkpt>
      <trkpt lat="44.88772" lon="0.31166">
        <ele>54.400001525879</ele>
        <time>2013-04-25T09:35:51.000Z</time>
      </trkpt>
      <trkpt lat="44.88772" lon="0.31154">
        <ele>54</ele>
        <time>2013-04-25T09:35:54.000Z</time>
      </trkpt>
      <trkpt lat="44.88772" lon="0.31149">
        <ele>53.799999237061</ele>
        <time>2013-04-25T09:35:55.000Z</time>
      </trkpt>
      <trkpt lat="44.88778" lon="0.31135">
        <ele>53.799999237061</ele>
        <time>2013-04-25T09:35:59.000Z</time>
      </trkpt>
      <trkpt lat="44.88781" lon="0.3113">
        <ele>54</ele>
        <time>2013-04-25T09:36:01.000Z</time>
      </trkpt>
      <trkpt lat="44.88782" lon="0.31128">
        <ele>54</ele>
        <time>2013-04-25T09:36:02.000Z</time>
      </trkpt>
      <trkpt lat="44.88784" lon="0.31128">
        <ele>54.200000762939</ele>
        <time>2013-04-25T09:36:03.000Z</time>
      </trkpt>
      <trkpt lat="44.88791" lon="0.31134">
        <ele>55</ele>
        <time>2013-04-25T09:36:07.000Z</time>
      </trkpt>
      <trkpt lat="44.88798" lon="0.31135">
        <ele>55.599998474121</ele>
        <time>2013-04-25T09:36:11.000Z</time>
      </trkpt>
      <trkpt lat="44.88806" lon="0.31135">
        <ele>56.400001525879</ele>
        <time>2013-04-25T09:36:15.000Z</time>
      </trkpt>
      <trkpt lat="44.88816" lon="0.31132">
        <ele>57.400001525879</ele>
        <time>2013-04-25T09:36:20.000Z</time>
      </trkpt>
      <trkpt lat="44.88818" lon="0.31133">
        <ele>57.599998474121</ele>
        <time>2013-04-25T09:36:21.000Z</time>
      </trkpt>
      <trkpt lat="44.8882" lon="0.31132">
        <ele>57.599998474121</ele>
        <time>2013-04-25T09:36:22.000Z</time>
      </trkpt>
      <trkpt lat="44.88831" lon="0.31131">
        <ele>58.799999237061</ele>
        <time>2013-04-25T09:36:28.000Z</time>
      </trkpt>
      <trkpt lat="44.88833" lon="0.31131">
        <ele>58.799999237061</ele>
        <time>2013-04-25T09:36:29.000Z</time>
      </trkpt>
      <trkpt lat="44.88834" lon="0.31132">
        <ele>59</ele>
        <time>2013-04-25T09:36:30.000Z</time>
      </trkpt>
      <trkpt lat="44.88837" lon="0.31134">
        <ele>59.599998474121</ele>
        <time>2013-04-25T09:36:32.000Z</time>
      </trkpt>
      <trkpt lat="44.88846" lon="0.31139">
        <ele>61</ele>
        <time>2013-04-25T09:36:36.000Z</time>
      </trkpt>
      <trkpt lat="44.88848" lon="0.3114">
        <ele>61.400001525879</ele>
        <time>2013-04-25T09:36:37.000Z</time>
      </trkpt>
      <trkpt lat="44.88852" lon="0.31142">
        <ele>62.200000762939</ele>
        <time>2013-04-25T09:36:39.000Z</time>
      </trkpt>
      <trkpt lat="44.88858" lon="0.31142">
        <ele>63</ele>
        <time>2013-04-25T09:36:42.000Z</time>
      </trkpt>
      <trkpt lat="44.8887" lon="0.31142">
        <ele>65.199996948242</ele>
        <time>2013-04-25T09:36:47.000Z</time>
      </trkpt>
      <trkpt lat="44.88872" lon="0.31143">
        <ele>65.400001525879</ele>
        <time>2013-04-25T09:36:48.000Z</time>
      </trkpt>
      <trkpt lat="44.88884" lon="0.31144">
        <ele>67.400001525879</ele>
        <time>2013-04-25T09:36:53.000Z</time>
      </trkpt>
      <trkpt lat="44.88889" lon="0.31146">
        <ele>68.199996948242</ele>
        <time>2013-04-25T09:36:56.000Z</time>
      </trkpt>
      <trkpt lat="44.88891" lon="0.31145">
        <ele>68.599998474121</ele>
        <time>2013-04-25T09:36:57.000Z</time>
      </trkpt>
      <trkpt lat="44.88892" lon="0.31144">
        <ele>68.800003051758</ele>
        <time>2013-04-25T09:36:58.000Z</time>
      </trkpt>
      <trkpt lat="44.88901" lon="0.31141">
        <ele>70.400001525879</ele>
        <time>2013-04-25T09:37:04.000Z</time>
      </trkpt>
      <trkpt lat="44.88909" lon="0.31139">
        <ele>72</ele>
        <time>2013-04-25T09:37:09.000Z</time>
      </trkpt>
      <trkpt lat="44.8891" lon="0.31138">
        <ele>72.199996948242</ele>
        <time>2013-04-25T09:37:10.000Z</time>
      </trkpt>
      <trkpt lat="44.88911" lon="0.31137">
        <ele>72.400001525879</ele>
        <time>2013-04-25T09:37:11.000Z</time>
      </trkpt>
      <trkpt lat="44.88918" lon="0.31132">
        <ele>73.800003051758</ele>
        <time>2013-04-25T09:37:16.000Z</time>
      </trkpt>
      <trkpt lat="44.88926" lon="0.31132">
        <ele>75.599998474121</ele>
        <time>2013-04-25T09:37:21.000Z</time>
      </trkpt>
      <trkpt lat="44.88927" lon="0.31132">
        <ele>75.800003051758</ele>
        <time>2013-04-25T09:37:22.000Z</time>
      </trkpt>
      <trkpt lat="44.88932" lon="0.31131">
        <ele>76.800003051758</ele>
        <time>2013-04-25T09:37:25.000Z</time>
      </trkpt>
      <trkpt lat="44.88935" lon="0.31134">
        <ele>77.400001525879</ele>
        <time>2013-04-25T09:37:28.000Z</time>
      </trkpt>
      <trkpt lat="44.88941" lon="0.31136">
        <ele>78.400001525879</ele>
        <time>2013-04-25T09:37:32.000Z</time>
      </trkpt>
      <trkpt lat="44.88942" lon="0.31136">
        <ele>78.800003051758</ele>
        <time>2013-04-25T09:37:33.000Z</time>
      </trkpt>
      <trkpt lat="44.88943" lon="0.31136">
        <ele>79</ele>
        <time>2013-04-25T09:37:34.000Z</time>
      </trkpt>
      <trkpt lat="44.88944" lon="0.31138">
        <ele>79.199996948242</ele>
        <time>2013-04-25T09:37:35.000Z</time>
      </trkpt>
      <trkpt lat="44.88948" lon="0.31139">
        <ele>79.800003051758</ele>
        <time>2013-04-25T09:37:38.000Z</time>
      </trkpt>
      <trkpt lat="44.88955" lon="0.31139">
        <ele>81.199996948242</ele>
        <time>2013-04-25T09:37:43.000Z</time>
      </trkpt>
      <trkpt lat="44.88962" lon="0.31138">
        <ele>82.800003051758</ele>
        <time>2013-04-25T09:37:47.000Z</time>
      </trkpt>
      <trkpt lat="44.88965" lon="0.31137">
        <ele>83.599998474121</ele>
        <time>2013-04-25T09:37:49.000Z</time>
      </trkpt>
      <trkpt lat="44.88973" lon="0.31133">
        <ele>85.400001525879</ele>
        <time>2013-04-25T09:37:55.000Z</time>
      </trkpt>
      <trkpt lat="44.88978" lon="0.31127">
        <ele>86.599998474121</ele>
        <time>2013-04-25T09:37:59.000Z</time>
      </trkpt>
      <trkpt lat="44.88979" lon="0.31125">
        <ele>87</ele>
        <time>2013-04-25T09:38:00.000Z</time>
      </trkpt>
      <trkpt lat="44.8898" lon="0.31124">
        <ele>87.400001525879</ele>
        <time>2013-04-25T09:38:01.000Z</time>
      </trkpt>
      <trkpt lat="44.88982" lon="0.31121">
        <ele>87.599998474121</ele>
        <time>2013-04-25T09:38:03.000Z</time>
      </trkpt>
      <trkpt lat="44.88983" lon="0.31114">
        <ele>88.199996948242</ele>
        <time>2013-04-25T09:38:06.000Z</time>
      </trkpt>
      <trkpt lat="44.88987" lon="0.31102">
        <ele>89.599998474121</ele>
        <time>2013-04-25T09:38:11.000Z</time>
      </trkpt>
      <trkpt lat="44.8899" lon="0.31095">
        <ele>90.400001525879</ele>
        <time>2013-04-25T09:38:15.000Z</time>
      </trkpt>
      <trkpt lat="44.88992" lon="0.31091">
        <ele>91</ele>
        <time>2013-04-25T09:38:17.000Z</time>
      </trkpt>
      <trkpt lat="44.88994" lon="0.31077">
        <ele>91.800003051758</ele>
        <time>2013-04-25T09:38:23.000Z</time>
      </trkpt>
      <trkpt lat="44.88991" lon="0.31062">
        <ele>91.400001525879</ele>
        <time>2013-04-25T09:38:29.000Z</time>
      </trkpt>
      <trkpt lat="44.88991" lon="0.31057">
        <ele>91.400001525879</ele>
        <time>2013-04-25T09:38:31.000Z</time>
      </trkpt>
      <trkpt lat="44.88991" lon="0.31052">
        <ele>91.599998474121</ele>
        <time>2013-04-25T09:38:34.000Z</time>
      </trkpt>
      <trkpt lat="44.88992" lon="0.3105">
        <ele>91.800003051758</ele>
        <time>2013-04-25T09:38:35.000Z</time>
      </trkpt>
      <trkpt lat="44.88991" lon="0.31034">
        <ele>91.800003051758</ele>
        <time>2013-04-25T09:38:42.000Z</time>
      </trkpt>
      <trkpt lat="44.88993" lon="0.31026">
        <ele>92.199996948242</ele>
        <time>2013-04-25T09:38:45.000Z</time>
      </trkpt>
      <trkpt lat="44.88996" lon="0.31022">
        <ele>93</ele>
        <time>2013-04-25T09:38:47.000Z</time>
      </trkpt>
      <trkpt lat="44.89001" lon="0.31017">
        <ele>93.599998474121</ele>
        <time>2013-04-25T09:38:50.000Z</time>
      </trkpt>
      <trkpt lat="44.89" lon="0.31016">
        <ele>93.599998474121</ele>
        <time>2013-04-25T09:38:51.000Z</time>
      </trkpt>
      <trkpt lat="44.88996" lon="0.31007">
        <ele>93.199996948242</ele>
        <time>2013-04-25T09:38:54.000Z</time>
      </trkpt>
      <trkpt lat="44.88996" lon="0.31004">
        <ele>93</ele>
        <time>2013-04-25T09:38:55.000Z</time>
      </trkpt>
      <trkpt lat="44.88996" lon="0.31001">
        <ele>93.199996948242</ele>
        <time>2013-04-25T09:38:56.000Z</time>
      </trkpt>
      <trkpt lat="44.89002" lon="0.30993">
        <ele>92.800003051758</ele>
        <time>2013-04-25T09:38:59.000Z</time>
      </trkpt>
      <trkpt lat="44.89002" lon="0.30986">
        <ele>92.199996948242</ele>
        <time>2013-04-25T09:39:01.000Z</time>
      </trkpt>
      <trkpt lat="44.89001" lon="0.30982">
        <ele>91.800003051758</ele>
        <time>2013-04-25T09:39:02.000Z</time>
      </trkpt>
      <trkpt lat="44.89" lon="0.30969">
        <ele>90.400001525879</ele>
        <time>2013-04-25T09:39:06.000Z</time>
      </trkpt>
      <trkpt lat="44.88998" lon="0.30966">
        <ele>89.800003051758</ele>
        <time>2013-04-25T09:39:07.000Z</time>
      </trkpt>
      <trkpt lat="44.88995" lon="0.30961">
        <ele>88.800003051758</ele>
        <time>2013-04-25T09:39:09.000Z</time>
      </trkpt>
      <trkpt lat="44.88992" lon="0.30953">
        <ele>87.400001525879</ele>
        <time>2013-04-25T09:39:11.000Z</time>
      </trkpt>
      <trkpt lat="44.88989" lon="0.3094">
        <ele>85.599998474121</ele>
        <time>2013-04-25T09:39:14.000Z</time>
      </trkpt>
      <trkpt lat="44.88987" lon="0.30938">
        <ele>85</ele>
        <time>2013-04-25T09:39:15.000Z</time>
      </trkpt>
      <trkpt lat="44.88986" lon="0.30936">
        <ele>84.599998474121</ele>
        <time>2013-04-25T09:39:16.000Z</time>
      </trkpt>
      <trkpt lat="44.88982" lon="0.30925">
        <ele>82.800003051758</ele>
        <time>2013-04-25T09:39:19.000Z</time>
      </trkpt>
      <trkpt lat="44.88975" lon="0.30914">
        <ele>80.199996948242</ele>
        <time>2013-04-25T09:39:23.000Z</time>
      </trkpt>
      <trkpt lat="44.88966" lon="0.30909">
        <ele>78</ele>
        <time>2013-04-25T09:39:27.000Z</time>
      </trkpt>
      <trkpt lat="44.88964" lon="0.30906">
        <ele>77.199996948242</ele>
        <time>2013-04-25T09:39:28.000Z</time>
      </trkpt>
      <trkpt lat="44.88959" lon="0.30899">
        <ele>75.199996948242</ele>
        <time>2013-04-25T09:39:31.000Z</time>
      </trkpt>
      <trkpt lat="44.88949" lon="0.30888">
        <ele>72</ele>
        <time>2013-04-25T09:39:36.000Z</time>
      </trkpt>
      <trkpt lat="44.88943" lon="0.30882">
        <ele>70.199996948242</ele>
        <time>2013-04-25T09:39:39.000Z</time>
      </trkpt>
      <trkpt lat="44.88941" lon="0.3088">
        <ele>69.800003051758</ele>
        <time>2013-04-25T09:39:40.000Z</time>
      </trkpt>
      <trkpt lat="44.88938" lon="0.30876">
        <ele>68.800003051758</ele>
        <time>2013-04-25T09:39:44.000Z</time>
      </trkpt>
      <trkpt lat="44.88935" lon="0.30878">
        <ele>68.599998474121</ele>
        <time>2013-04-25T09:39:49.000Z</time>
      </trkpt>
      <trkpt lat="44.8893" lon="0.30873">
        <ele>67.400001525879</ele>
        <time>2013-04-25T09:39:54.000Z</time>
      </trkpt>
      <trkpt lat="44.88927" lon="0.30872">
        <ele>66.800003051758</ele>
        <time>2013-04-25T09:39:55.000Z</time>
      </trkpt>
      <trkpt lat="44.88921" lon="0.30869">
        <ele>65.599998474121</ele>
        <time>2013-04-25T09:39:57.000Z</time>
      </trkpt>
      <trkpt lat="44.88918" lon="0.30866">
        <ele>65</ele>
        <time>2013-04-25T09:39:58.000Z</time>
      </trkpt>
      <trkpt lat="44.88917" lon="0.30854">
        <ele>63.400001525879</ele>
        <time>2013-04-25T09:40:01.000Z</time>
      </trkpt>
      <trkpt lat="44.88917" lon="0.30851">
        <ele>63</ele>
        <time>2013-04-25T09:40:02.000Z</time>
      </trkpt>
      <trkpt lat="44.88921" lon="0.30838">
        <ele>62</ele>
        <time>2013-04-25T09:40:05.000Z</time>
      </trkpt>
      <trkpt lat="44.88925" lon="0.30831">
        <ele>61.599998474121</ele>
        <time>2013-04-25T09:40:07.000Z</time>
      </trkpt>
      <trkpt lat="44.88934" lon="0.30814">
        <ele>60.599998474121</ele>
        <time>2013-04-25T09:40:12.000Z</time>
      </trkpt>
      <trkpt lat="44.88938" lon="0.3081">
        <ele>60.799999237061</ele>
        <time>2013-04-25T09:40:14.000Z</time>
      </trkpt>
      <trkpt lat="44.88941" lon="0.30804">
        <ele>60.400001525879</ele>
        <time>2013-04-25T09:40:16.000Z</time>
      </trkpt>
      <trkpt lat="44.8894" lon="0.30798">
        <ele>59.799999237061</ele>
        <time>2013-04-25T09:40:17.000Z</time>
      </trkpt>
      <trkpt lat="44.88938" lon="0.30784">
        <ele>58.200000762939</ele>
        <time>2013-04-25T09:40:20.000Z</time>
      </trkpt>
      <trkpt lat="44.88935" lon="0.30776">
        <ele>57.200000762939</ele>
        <time>2013-04-25T09:40:22.000Z</time>
      </trkpt>
      <trkpt lat="44.8893" lon="0.30757">
        <ele>54.799999237061</ele>
        <time>2013-04-25T09:40:26.000Z</time>
      </trkpt>
      <trkpt lat="44.88932" lon="0.30747">
        <ele>54</ele>
        <time>2013-04-25T09:40:29.000Z</time>
      </trkpt>
      <trkpt lat="44.8894" lon="0.30739">
        <ele>54.200000762939</ele>
        <time>2013-04-25T09:40:35.000Z</time>
      </trkpt>
      <trkpt lat="44.88941" lon="0.30738">
        <ele>54.200000762939</ele>
        <time>2013-04-25T09:40:36.000Z</time>
      </trkpt>
      <trkpt lat="44.88946" lon="0.30731">
        <ele>54.200000762939</ele>
        <time>2013-04-25T09:40:41.000Z</time>
      </trkpt>
      <trkpt lat="44.88951" lon="0.30723">
        <ele>54</ele>
        <time>2013-04-25T09:40:46.000Z</time>
      </trkpt>
      <trkpt lat="44.88953" lon="0.30721">
        <ele>54.200000762939</ele>
        <time>2013-04-25T09:40:48.000Z</time>
      </trkpt>
      <trkpt lat="44.88955" lon="0.3072">
        <ele>54.200000762939</ele>
        <time>2013-04-25T09:40:49.000Z</time>
      </trkpt>
      <trkpt lat="44.8896" lon="0.30716">
        <ele>54.400001525879</ele>
        <time>2013-04-25T09:40:53.000Z</time>
      </trkpt>
      <trkpt lat="44.88966" lon="0.30706">
        <ele>54.400001525879</ele>
        <time>2013-04-25T09:40:58.000Z</time>
      </trkpt>
      <trkpt lat="44.88969" lon="0.30702">
        <ele>54.400001525879</ele>
        <time>2013-04-25T09:41:00.000Z</time>
      </trkpt>
      <trkpt lat="44.88975" lon="0.30695">
        <ele>54.599998474121</ele>
        <time>2013-04-25T09:41:04.000Z</time>
      </trkpt>
      <trkpt lat="44.88977" lon="0.30691">
        <ele>54.599998474121</ele>
        <time>2013-04-25T09:41:06.000Z</time>
      </trkpt>
      <trkpt lat="44.88981" lon="0.30687">
        <ele>54.799999237061</ele>
        <time>2013-04-25T09:41:09.000Z</time>
      </trkpt>
      <trkpt lat="44.88981" lon="0.30684">
        <ele>54.599998474121</ele>
        <time>2013-04-25T09:41:10.000Z</time>
      </trkpt>
      <trkpt lat="44.88982" lon="0.30673">
        <ele>54</ele>
        <time>2013-04-25T09:41:13.000Z</time>
      </trkpt>
      <trkpt lat="44.88988" lon="0.30668">
        <ele>54.400001525879</ele>
        <time>2013-04-25T09:41:16.000Z</time>
      </trkpt>
      <trkpt lat="44.8899" lon="0.30667">
        <ele>54.599998474121</ele>
        <time>2013-04-25T09:41:17.000Z</time>
      </trkpt>
      <trkpt lat="44.88992" lon="0.30665">
        <ele>54.799999237061</ele>
        <time>2013-04-25T09:41:18.000Z</time>
      </trkpt>
      <trkpt lat="44.88994" lon="0.30657">
        <ele>54.599998474121</ele>
        <time>2013-04-25T09:41:21.000Z</time>
      </trkpt>
      <trkpt lat="44.88994" lon="0.30649">
        <ele>54</ele>
        <time>2013-04-25T09:41:23.000Z</time>
      </trkpt>
      <trkpt lat="44.88993" lon="0.30645">
        <ele>53.799999237061</ele>
        <time>2013-04-25T09:41:24.000Z</time>
      </trkpt>
      <trkpt lat="44.88992" lon="0.30641">
        <ele>53.400001525879</ele>
        <time>2013-04-25T09:41:25.000Z</time>
      </trkpt>
      <trkpt lat="44.88992" lon="0.30636">
        <ele>53.200000762939</ele>
        <time>2013-04-25T09:41:26.000Z</time>
      </trkpt>
      <trkpt lat="44.89" lon="0.30623">
        <ele>53.200000762939</ele>
        <time>2013-04-25T09:41:30.000Z</time>
      </trkpt>
      <trkpt lat="44.89002" lon="0.3062">
        <ele>53.400001525879</ele>
        <time>2013-04-25T09:41:31.000Z</time>
      </trkpt>
      <trkpt lat="44.89014" lon="0.30613">
        <ele>54.200000762939</ele>
        <time>2013-04-25T09:41:36.000Z</time>
      </trkpt>
      <trkpt lat="44.89019" lon="0.30613">
        <ele>54.799999237061</ele>
        <time>2013-04-25T09:41:38.000Z</time>
      </trkpt>
      <trkpt lat="44.89027" lon="0.30612">
        <ele>55.599998474121</ele>
        <time>2013-04-25T09:41:41.000Z</time>
      </trkpt>
      <trkpt lat="44.89039" lon="0.3061">
        <ele>56.599998474121</ele>
        <time>2013-04-25T09:41:46.000Z</time>
      </trkpt>
      <trkpt lat="44.89041" lon="0.30609">
        <ele>56.799999237061</ele>
        <time>2013-04-25T09:41:47.000Z</time>
      </trkpt>
      <trkpt lat="44.89056" lon="0.30607">
        <ele>58.400001525879</ele>
        <time>2013-04-25T09:41:53.000Z</time>
      </trkpt>
      <trkpt lat="44.89058" lon="0.30609">
        <ele>58.599998474121</ele>
        <time>2013-04-25T09:41:54.000Z</time>
      </trkpt>
      <trkpt lat="44.89065" lon="0.30625">
        <ele>60.400001525879</ele>
        <time>2013-04-25T09:41:58.000Z</time>
      </trkpt>
      <trkpt lat="44.89065" lon="0.30634">
        <ele>61</ele>
        <time>2013-04-25T09:42:01.000Z</time>
      </trkpt>
      <trkpt lat="44.89064" lon="0.30639">
        <ele>61.200000762939</ele>
        <time>2013-04-25T09:42:03.000Z</time>
      </trkpt>
      <trkpt lat="44.89064" lon="0.30657">
        <ele>62.200000762939</ele>
        <time>2013-04-25T09:42:09.000Z</time>
      </trkpt>
      <trkpt lat="44.89063" lon="0.30659">
        <ele>62.200000762939</ele>
        <time>2013-04-25T09:42:10.000Z</time>
      </trkpt>
      <trkpt lat="44.89059" lon="0.30672">
        <ele>62.599998474121</ele>
        <time>2013-04-25T09:42:15.000Z</time>
      </trkpt>
      <trkpt lat="44.89058" lon="0.30686">
        <ele>63</ele>
        <time>2013-04-25T09:42:20.000Z</time>
      </trkpt>
      <trkpt lat="44.89058" lon="0.30695">
        <ele>63.400001525879</ele>
        <time>2013-04-25T09:42:23.000Z</time>
      </trkpt>
      <trkpt lat="44.89059" lon="0.30698">
        <ele>63.599998474121</ele>
        <time>2013-04-25T09:42:24.000Z</time>
      </trkpt>
      <trkpt lat="44.89063" lon="0.3071">
        <ele>64.599998474121</ele>
        <time>2013-04-25T09:42:29.000Z</time>
      </trkpt>
      <trkpt lat="44.89064" lon="0.30712">
        <ele>64.800003051758</ele>
        <time>2013-04-25T09:42:30.000Z</time>
      </trkpt>
      <trkpt lat="44.89071" lon="0.30718">
        <ele>65.599998474121</ele>
        <time>2013-04-25T09:42:33.000Z</time>
      </trkpt>
      <trkpt lat="44.89074" lon="0.30723">
        <ele>66</ele>
        <time>2013-04-25T09:42:35.000Z</time>
      </trkpt>
      <trkpt lat="44.89078" lon="0.30728">
        <ele>66.599998474121</ele>
        <time>2013-04-25T09:42:37.000Z</time>
      </trkpt>
      <trkpt lat="44.89081" lon="0.30733">
        <ele>67.199996948242</ele>
        <time>2013-04-25T09:42:39.000Z</time>
      </trkpt>
      <trkpt lat="44.89086" lon="0.30744">
        <ele>67.800003051758</ele>
        <time>2013-04-25T09:42:43.000Z</time>
      </trkpt>
      <trkpt lat="44.89086" lon="0.30748">
        <ele>68</ele>
        <time>2013-04-25T09:42:45.000Z</time>
      </trkpt>
      <trkpt lat="44.89088" lon="0.30753">
        <ele>68.400001525879</ele>
        <time>2013-04-25T09:42:48.000Z</time>
      </trkpt>
      <trkpt lat="44.89088" lon="0.30756">
        <ele>68.599998474121</ele>
        <time>2013-04-25T09:42:49.000Z</time>
      </trkpt>
      <trkpt lat="44.8909" lon="0.30767">
        <ele>69.800003051758</ele>
        <time>2013-04-25T09:42:53.000Z</time>
      </trkpt>
      <trkpt lat="44.89092" lon="0.30772">
        <ele>70.400001525879</ele>
        <time>2013-04-25T09:42:55.000Z</time>
      </trkpt>
      <trkpt lat="44.89094" lon="0.30779">
        <ele>71</ele>
        <time>2013-04-25T09:42:58.000Z</time>
      </trkpt>
      <trkpt lat="44.89095" lon="0.30782">
        <ele>71.199996948242</ele>
        <time>2013-04-25T09:42:59.000Z</time>
      </trkpt>
      <trkpt lat="44.89099" lon="0.3079">
        <ele>72.199996948242</ele>
        <time>2013-04-25T09:43:03.000Z</time>
      </trkpt>
      <trkpt lat="44.89102" lon="0.30792">
        <ele>72.599998474121</ele>
        <time>2013-04-25T09:43:05.000Z</time>
      </trkpt>
      <trkpt lat="44.89107" lon="0.30799">
        <ele>73.400001525879</ele>
        <time>2013-04-25T09:43:09.000Z</time>
      </trkpt>
      <trkpt lat="44.89107" lon="0.30802">
        <ele>73.599998474121</ele>
        <time>2013-04-25T09:43:10.000Z</time>
      </trkpt>
      <trkpt lat="44.89107" lon="0.30804">
        <ele>73.800003051758</ele>
        <time>2013-04-25T09:43:11.000Z</time>
      </trkpt>
      <trkpt lat="44.89108" lon="0.30806">
        <ele>74</ele>
        <time>2013-04-25T09:43:12.000Z</time>
      </trkpt>
      <trkpt lat="44.89112" lon="0.30817">
        <ele>75.199996948242</ele>
        <time>2013-04-25T09:43:16.000Z</time>
      </trkpt>
      <trkpt lat="44.89115" lon="0.30821">
        <ele>75.800003051758</ele>
        <time>2013-04-25T09:43:18.000Z</time>
      </trkpt>
      <trkpt lat="44.89116" lon="0.30823">
        <ele>76</ele>
        <time>2013-04-25T09:43:19.000Z</time>
      </trkpt>
      <trkpt lat="44.89118" lon="0.30826">
        <ele>76.400001525879</ele>
        <time>2013-04-25T09:43:21.000Z</time>
      </trkpt>
      <trkpt lat="44.89121" lon="0.3084">
        <ele>77.599998474121</ele>
        <time>2013-04-25T09:43:26.000Z</time>
      </trkpt>
      <trkpt lat="44.89122" lon="0.30846">
        <ele>78</ele>
        <time>2013-04-25T09:43:28.000Z</time>
      </trkpt>
      <trkpt lat="44.89126" lon="0.30854">
        <ele>78.800003051758</ele>
        <time>2013-04-25T09:43:31.000Z</time>
      </trkpt>
      <trkpt lat="44.89132" lon="0.30868">
        <ele>80</ele>
        <time>2013-04-25T09:43:37.000Z</time>
      </trkpt>
      <trkpt lat="44.89132" lon="0.30872">
        <ele>80.400001525879</ele>
        <time>2013-04-25T09:43:39.000Z</time>
      </trkpt>
      <trkpt lat="44.89133" lon="0.30876">
        <ele>80.599998474121</ele>
        <time>2013-04-25T09:43:41.000Z</time>
      </trkpt>
      <trkpt lat="44.89133" lon="0.30881">
        <ele>81</ele>
        <time>2013-04-25T09:43:43.000Z</time>
      </trkpt>
      <trkpt lat="44.89134" lon="0.30887">
        <ele>81.400001525879</ele>
        <time>2013-04-25T09:43:45.000Z</time>
      </trkpt>
      <trkpt lat="44.89137" lon="0.30892">
        <ele>82</ele>
        <time>2013-04-25T09:43:47.000Z</time>
      </trkpt>
      <trkpt lat="44.89138" lon="0.30894">
        <ele>82</ele>
        <time>2013-04-25T09:43:48.000Z</time>
      </trkpt>
      <trkpt lat="44.89144" lon="0.309">
        <ele>82.800003051758</ele>
        <time>2013-04-25T09:43:52.000Z</time>
      </trkpt>
      <trkpt lat="44.89144" lon="0.30903">
        <ele>83</ele>
        <time>2013-04-25T09:43:53.000Z</time>
      </trkpt>
      <trkpt lat="44.89148" lon="0.30911">
        <ele>83.599998474121</ele>
        <time>2013-04-25T09:43:57.000Z</time>
      </trkpt>
      <trkpt lat="44.8915" lon="0.30912">
        <ele>83.800003051758</ele>
        <time>2013-04-25T09:43:59.000Z</time>
      </trkpt>
      <trkpt lat="44.89152" lon="0.30913">
        <ele>84</ele>
        <time>2013-04-25T09:44:02.000Z</time>
      </trkpt>
      <trkpt lat="44.89153" lon="0.30912">
        <ele>84</ele>
        <time>2013-04-25T09:44:03.000Z</time>
      </trkpt>
      <trkpt lat="44.89156" lon="0.30913">
        <ele>84.199996948242</ele>
        <time>2013-04-25T09:44:06.000Z</time>
      </trkpt>
      <trkpt lat="44.89157" lon="0.30914">
        <ele>84.199996948242</ele>
        <time>2013-04-25T09:44:08.000Z</time>
      </trkpt>
      <trkpt lat="44.89162" lon="0.3092">
        <ele>84.800003051758</ele>
        <time>2013-04-25T09:44:14.000Z</time>
      </trkpt>
      <trkpt lat="44.89163" lon="0.3092">
        <ele>84.800003051758</ele>
        <time>2013-04-25T09:44:15.000Z</time>
      </trkpt>
      <trkpt lat="44.89165" lon="0.30921">
        <ele>85</ele>
        <time>2013-04-25T09:44:17.000Z</time>
      </trkpt>
      <trkpt lat="44.89171" lon="0.3092">
        <ele>85.400001525879</ele>
        <time>2013-04-25T09:44:21.000Z</time>
      </trkpt>
      <trkpt lat="44.89172" lon="0.30919">
        <ele>85.599998474121</ele>
        <time>2013-04-25T09:44:22.000Z</time>
      </trkpt>
      <trkpt lat="44.89174" lon="0.3092">
        <ele>86</ele>
        <time>2013-04-25T09:44:25.000Z</time>
      </trkpt>
      <trkpt lat="44.89176" lon="0.30921">
        <ele>86.199996948242</ele>
        <time>2013-04-25T09:44:27.000Z</time>
      </trkpt>
      <trkpt lat="44.89184" lon="0.30922">
        <ele>87</ele>
        <time>2013-04-25T09:44:34.000Z</time>
      </trkpt>
      <trkpt lat="44.8919" lon="0.3092">
        <ele>87.800003051758</ele>
        <time>2013-04-25T09:44:38.000Z</time>
      </trkpt>
      <trkpt lat="44.89192" lon="0.30919">
        <ele>88</ele>
        <time>2013-04-25T09:44:41.000Z</time>
      </trkpt>
      <trkpt lat="44.89195" lon="0.30918">
        <ele>88.199996948242</ele>
        <time>2013-04-25T09:44:44.000Z</time>
      </trkpt>
      <trkpt lat="44.89198" lon="0.30915">
        <ele>88.599998474121</ele>
        <time>2013-04-25T09:44:47.000Z</time>
      </trkpt>
      <trkpt lat="44.89202" lon="0.30914">
        <ele>89</ele>
        <time>2013-04-25T09:44:50.000Z</time>
      </trkpt>
      <trkpt lat="44.89207" lon="0.30912">
        <ele>89.400001525879</ele>
        <time>2013-04-25T09:44:53.000Z</time>
      </trkpt>
      <trkpt lat="44.89209" lon="0.30911">
        <ele>89.599998474121</ele>
        <time>2013-04-25T09:44:54.000Z</time>
      </trkpt>
      <trkpt lat="44.89214" lon="0.30909">
        <ele>90.199996948242</ele>
        <time>2013-04-25T09:45:01.000Z</time>
      </trkpt>
      <trkpt lat="44.89214" lon="0.30901">
        <ele>89.599998474121</ele>
        <time>2013-04-25T09:45:12.000Z</time>
      </trkpt>
      <trkpt lat="44.89217" lon="0.30895">
        <ele>89.599998474121</ele>
        <time>2013-04-25T09:45:17.000Z</time>
      </trkpt>
      <trkpt lat="44.89219" lon="0.30892">
        <ele>89.599998474121</ele>
        <time>2013-04-25T09:45:19.000Z</time>
      </trkpt>
      <trkpt lat="44.89223" lon="0.30888">
        <ele>90</ele>
        <time>2013-04-25T09:45:23.000Z</time>
      </trkpt>
      <trkpt lat="44.89233" lon="0.30884">
        <ele>91</ele>
        <time>2013-04-25T09:45:28.000Z</time>
      </trkpt>
      <trkpt lat="44.89235" lon="0.30883">
        <ele>91</ele>
        <time>2013-04-25T09:45:29.000Z</time>
      </trkpt>
      <trkpt lat="44.89241" lon="0.30885">
        <ele>92</ele>
        <time>2013-04-25T09:45:33.000Z</time>
      </trkpt>
      <trkpt lat="44.89243" lon="0.30888">
        <ele>92.400001525879</ele>
        <time>2013-04-25T09:45:34.000Z</time>
      </trkpt>
      <trkpt lat="44.89245" lon="0.30891">
        <ele>92.800003051758</ele>
        <time>2013-04-25T09:45:36.000Z</time>
      </trkpt>
      <trkpt lat="44.89245" lon="0.30893">
        <ele>92.800003051758</ele>
        <time>2013-04-25T09:45:37.000Z</time>
      </trkpt>
      <trkpt lat="44.89249" lon="0.30892">
        <ele>93.199996948242</ele>
        <time>2013-04-25T09:45:43.000Z</time>
      </trkpt>
      <trkpt lat="44.8925" lon="0.30891">
        <ele>93.400001525879</ele>
        <time>2013-04-25T09:45:44.000Z</time>
      </trkpt>
      <trkpt lat="44.89252" lon="0.3089">
        <ele>93</ele>
        <time>2013-04-25T09:45:45.000Z</time>
      </trkpt>
      <trkpt lat="44.89255" lon="0.30884">
        <ele>92.400001525879</ele>
        <time>2013-04-25T09:45:47.000Z</time>
      </trkpt>
      <trkpt lat="44.89257" lon="0.30868">
        <ele>91.400001525879</ele>
        <time>2013-04-25T09:45:51.000Z</time>
      </trkpt>
      <trkpt lat="44.89258" lon="0.30863">
        <ele>91</ele>
        <time>2013-04-25T09:45:52.000Z</time>
      </trkpt>
      <trkpt lat="44.8926" lon="0.30846">
        <ele>89.800003051758</ele>
        <time>2013-04-25T09:45:56.000Z</time>
      </trkpt>
      <trkpt lat="44.89258" lon="0.30839">
        <ele>89.599998474121</ele>
        <time>2013-04-25T09:45:58.000Z</time>
      </trkpt>
      <trkpt lat="44.89256" lon="0.30836">
        <ele>89.599998474121</ele>
        <time>2013-04-25T09:45:59.000Z</time>
      </trkpt>
      <trkpt lat="44.89254" lon="0.30835">
        <ele>89.599998474121</ele>
        <time>2013-04-25T09:46:00.000Z</time>
      </trkpt>
      <trkpt lat="44.89248" lon="0.30825">
        <ele>88.800003051758</ele>
        <time>2013-04-25T09:46:04.000Z</time>
      </trkpt>
      <trkpt lat="44.89247" lon="0.30817">
        <ele>88</ele>
        <time>2013-04-25T09:46:06.000Z</time>
      </trkpt>
      <trkpt lat="44.89247" lon="0.30813">
        <ele>87.599998474121</ele>
        <time>2013-04-25T09:46:07.000Z</time>
      </trkpt>
      <trkpt lat="44.89249" lon="0.308">
        <ele>86.599998474121</ele>
        <time>2013-04-25T09:46:10.000Z</time>
      </trkpt>
      <trkpt lat="44.89248" lon="0.3079">
        <ele>85.599998474121</ele>
        <time>2013-04-25T09:46:12.000Z</time>
      </trkpt>
      <trkpt lat="44.89251" lon="0.30778">
        <ele>84.400001525879</ele>
        <time>2013-04-25T09:46:15.000Z</time>
      </trkpt>
      <trkpt lat="44.89253" lon="0.30765">
        <ele>83.199996948242</ele>
        <time>2013-04-25T09:46:18.000Z</time>
      </trkpt>
      <trkpt lat="44.89257" lon="0.30758">
        <ele>82.199996948242</ele>
        <time>2013-04-25T09:46:20.000Z</time>
      </trkpt>
      <trkpt lat="44.89263" lon="0.30742">
        <ele>80.599998474121</ele>
        <time>2013-04-25T09:46:24.000Z</time>
      </trkpt>
      <trkpt lat="44.89263" lon="0.30733">
        <ele>79.800003051758</ele>
        <time>2013-04-25T09:46:26.000Z</time>
      </trkpt>
      <trkpt lat="44.89264" lon="0.30714">
        <ele>78.199996948242</ele>
        <time>2013-04-25T09:46:30.000Z</time>
      </trkpt>
      <trkpt lat="44.89265" lon="0.3071">
        <ele>77.800003051758</ele>
        <time>2013-04-25T09:46:31.000Z</time>
      </trkpt>
      <trkpt lat="44.89267" lon="0.30687">
        <ele>75.800003051758</ele>
        <time>2013-04-25T09:46:36.000Z</time>
      </trkpt>
      <trkpt lat="44.89268" lon="0.30682">
        <ele>75.400001525879</ele>
        <time>2013-04-25T09:46:37.000Z</time>
      </trkpt>
      <trkpt lat="44.89269" lon="0.30659">
        <ele>73.400001525879</ele>
        <time>2013-04-25T09:46:42.000Z</time>
      </trkpt>
      <trkpt lat="44.89271" lon="0.30634">
        <ele>71.400001525879</ele>
        <time>2013-04-25T09:46:47.000Z</time>
      </trkpt>
      <trkpt lat="44.89271" lon="0.30629">
        <ele>71</ele>
        <time>2013-04-25T09:46:48.000Z</time>
      </trkpt>
      <trkpt lat="44.8927" lon="0.30604">
        <ele>69.199996948242</ele>
        <time>2013-04-25T09:46:54.000Z</time>
      </trkpt>
      <trkpt lat="44.89265" lon="0.3058">
        <ele>67.800003051758</ele>
        <time>2013-04-25T09:47:00.000Z</time>
      </trkpt>
      <trkpt lat="44.89265" lon="0.30576">
        <ele>67.400001525879</ele>
        <time>2013-04-25T09:47:01.000Z</time>
      </trkpt>
      <trkpt lat="44.89269" lon="0.30565">
        <ele>66</ele>
        <time>2013-04-25T09:47:04.000Z</time>
      </trkpt>
      <trkpt lat="44.89275" lon="0.30554">
        <ele>64.599998474121</ele>
        <time>2013-04-25T09:47:07.000Z</time>
      </trkpt>
      <trkpt lat="44.89275" lon="0.30551">
        <ele>64.400001525879</ele>
        <time>2013-04-25T09:47:08.000Z</time>
      </trkpt>
      <trkpt lat="44.89275" lon="0.30547">
        <ele>64</ele>
        <time>2013-04-25T09:47:09.000Z</time>
      </trkpt>
      <trkpt lat="44.89268" lon="0.30544">
        <ele>64.199996948242</ele>
        <time>2013-04-25T09:47:12.000Z</time>
      </trkpt>
      <trkpt lat="44.89265" lon="0.30545">
        <ele>64.400001525879</ele>
        <time>2013-04-25T09:47:13.000Z</time>
      </trkpt>
      <trkpt lat="44.89262" lon="0.30544">
        <ele>64.400001525879</ele>
        <time>2013-04-25T09:47:14.000Z</time>
      </trkpt>
      <trkpt lat="44.89257" lon="0.30539">
        <ele>64.199996948242</ele>
        <time>2013-04-25T09:47:16.000Z</time>
      </trkpt>
      <trkpt lat="44.89251" lon="0.3052">
        <ele>62.799999237061</ele>
        <time>2013-04-25T09:47:20.000Z</time>
      </trkpt>
      <trkpt lat="44.89245" lon="0.30504">
        <ele>61</ele>
        <time>2013-04-25T09:47:24.000Z</time>
      </trkpt>
      <trkpt lat="44.89241" lon="0.30498">
        <ele>60.400001525879</ele>
        <time>2013-04-25T09:47:26.000Z</time>
      </trkpt>
      <trkpt lat="44.89237" lon="0.30494">
        <ele>60.200000762939</ele>
        <time>2013-04-25T09:47:28.000Z</time>
      </trkpt>
      <trkpt lat="44.89223" lon="0.30497">
        <ele>59.799999237061</ele>
        <time>2013-04-25T09:47:33.000Z</time>
      </trkpt>
      <trkpt lat="44.89221" lon="0.30498">
        <ele>59.799999237061</ele>
        <time>2013-04-25T09:47:34.000Z</time>
      </trkpt>
      <trkpt lat="44.89207" lon="0.305">
        <ele>59.400001525879</ele>
        <time>2013-04-25T09:47:39.000Z</time>
      </trkpt>
      <trkpt lat="44.89204" lon="0.30499">
        <ele>59.200000762939</ele>
        <time>2013-04-25T09:47:40.000Z</time>
      </trkpt>
      <trkpt lat="44.89194" lon="0.30493">
        <ele>58.599998474121</ele>
        <time>2013-04-25T09:47:44.000Z</time>
      </trkpt>
      <trkpt lat="44.89185" lon="0.30488">
        <ele>58</ele>
        <time>2013-04-25T09:47:47.000Z</time>
      </trkpt>
      <trkpt lat="44.8918" lon="0.30484">
        <ele>57.599998474121</ele>
        <time>2013-04-25T09:47:49.000Z</time>
      </trkpt>
      <trkpt lat="44.8917" lon="0.30483">
        <ele>57.200000762939</ele>
        <time>2013-04-25T09:47:53.000Z</time>
      </trkpt>
      <trkpt lat="44.89168" lon="0.30485">
        <ele>57.200000762939</ele>
        <time>2013-04-25T09:47:54.000Z</time>
      </trkpt>
      <trkpt lat="44.89155" lon="0.30483">
        <ele>56.400001525879</ele>
        <time>2013-04-25T09:47:59.000Z</time>
      </trkpt>
      <trkpt lat="44.89149" lon="0.30478">
        <ele>55.799999237061</ele>
        <time>2013-04-25T09:48:02.000Z</time>
      </trkpt>
      <trkpt lat="44.89146" lon="0.30476">
        <ele>55.599998474121</ele>
        <time>2013-04-25T09:48:03.000Z</time>
      </trkpt>
      <trkpt lat="44.89134" lon="0.30463">
        <ele>54.400001525879</ele>
        <time>2013-04-25T09:48:09.000Z</time>
      </trkpt>
      <trkpt lat="44.89123" lon="0.30448">
        <ele>53.200000762939</ele>
        <time>2013-04-25T09:48:14.000Z</time>
      </trkpt>
      <trkpt lat="44.8912" lon="0.30443">
        <ele>52.799999237061</ele>
        <time>2013-04-25T09:48:16.000Z</time>
      </trkpt>
      <trkpt lat="44.89113" lon="0.30436">
        <ele>52.200000762939</ele>
        <time>2013-04-25T09:48:19.000Z</time>
      </trkpt>
      <trkpt lat="44.89103" lon="0.30427">
        <ele>51.200000762939</ele>
        <time>2013-04-25T09:48:23.000Z</time>
      </trkpt>
      <trkpt lat="44.89101" lon="0.30425">
        <ele>51</ele>
        <time>2013-04-25T09:48:24.000Z</time>
      </trkpt>
      <trkpt lat="44.89088" lon="0.30411">
        <ele>50</ele>
        <time>2013-04-25T09:48:29.000Z</time>
      </trkpt>
      <trkpt lat="44.89082" lon="0.30407">
        <ele>49.799999237061</ele>
        <time>2013-04-25T09:48:31.000Z</time>
      </trkpt>
      <trkpt lat="44.89072" lon="0.30399">
        <ele>48.799999237061</ele>
        <time>2013-04-25T09:48:35.000Z</time>
      </trkpt>
      <trkpt lat="44.89069" lon="0.30398">
        <ele>48.599998474121</ele>
        <time>2013-04-25T09:48:36.000Z</time>
      </trkpt>
      <trkpt lat="44.89055" lon="0.30395">
        <ele>47.400001525879</ele>
        <time>2013-04-25T09:48:41.000Z</time>
      </trkpt>
      <trkpt lat="44.89053" lon="0.30396">
        <ele>47.200000762939</ele>
        <time>2013-04-25T09:48:42.000Z</time>
      </trkpt>
      <trkpt lat="44.89044" lon="0.30398">
        <ele>46.599998474121</ele>
        <time>2013-04-25T09:48:45.000Z</time>
      </trkpt>
      <trkpt lat="44.89033" lon="0.30402">
        <ele>45.799999237061</ele>
        <time>2013-04-25T09:48:50.000Z</time>
      </trkpt>
      <trkpt lat="44.89022" lon="0.30411">
        <ele>44.799999237061</ele>
        <time>2013-04-25T09:48:54.000Z</time>
      </trkpt>
      <trkpt lat="44.89016" lon="0.30413">
        <ele>44.200000762939</ele>
        <time>2013-04-25T09:48:56.000Z</time>
      </trkpt>
      <trkpt lat="44.8901" lon="0.30414">
        <ele>43.799999237061</ele>
        <time>2013-04-25T09:48:58.000Z</time>
      </trkpt>
      <trkpt lat="44.88999" lon="0.30408">
        <ele>43</ele>
        <time>2013-04-25T09:49:03.000Z</time>
      </trkpt>
      <trkpt lat="44.88996" lon="0.30407">
        <ele>43</ele>
        <time>2013-04-25T09:49:04.000Z</time>
      </trkpt>
      <trkpt lat="44.88983" lon="0.30404">
        <ele>43</ele>
        <time>2013-04-25T09:49:08.000Z</time>
      </trkpt>
      <trkpt lat="44.88978" lon="0.304">
        <ele>43</ele>
        <time>2013-04-25T09:49:10.000Z</time>
      </trkpt>
      <trkpt lat="44.88973" lon="0.3039">
        <ele>43.200000762939</ele>
        <time>2013-04-25T09:49:13.000Z</time>
      </trkpt>
      <trkpt lat="44.88965" lon="0.30377">
        <ele>43.200000762939</ele>
        <time>2013-04-25T09:49:17.000Z</time>
      </trkpt>
      <trkpt lat="44.88956" lon="0.3037">
        <ele>43.200000762939</ele>
        <time>2013-04-25T09:49:21.000Z</time>
      </trkpt>
      <trkpt lat="44.88952" lon="0.3037">
        <ele>43.200000762939</ele>
        <time>2013-04-25T09:49:22.000Z</time>
      </trkpt>
      <trkpt lat="44.88947" lon="0.30367">
        <ele>43.200000762939</ele>
        <time>2013-04-25T09:49:24.000Z</time>
      </trkpt>
      <trkpt lat="44.88933" lon="0.30367">
        <ele>43</ele>
        <time>2013-04-25T09:49:27.000Z</time>
      </trkpt>
      <trkpt lat="44.88926" lon="0.30365">
        <ele>43</ele>
        <time>2013-04-25T09:49:29.000Z</time>
      </trkpt>
      <trkpt lat="44.88919" lon="0.30359">
        <ele>43</ele>
        <time>2013-04-25T09:49:32.000Z</time>
      </trkpt>
      <trkpt lat="44.88921" lon="0.30351">
        <ele>43</ele>
        <time>2013-04-25T09:49:35.000Z</time>
      </trkpt>
      <trkpt lat="44.88926" lon="0.30345">
        <ele>43</ele>
        <time>2013-04-25T09:49:37.000Z</time>
      </trkpt>
      <trkpt lat="44.88932" lon="0.30333">
        <ele>43</ele>
        <time>2013-04-25T09:49:41.000Z</time>
      </trkpt>
      <trkpt lat="44.88934" lon="0.30319">
        <ele>43.200000762939</ele>
        <time>2013-04-25T09:49:45.000Z</time>
      </trkpt>
      <trkpt lat="44.88934" lon="0.30316">
        <ele>43.400001525879</ele>
        <time>2013-04-25T09:49:46.000Z</time>
      </trkpt>
      <trkpt lat="44.88939" lon="0.30301">
        <ele>43.599998474121</ele>
        <time>2013-04-25T09:49:50.000Z</time>
      </trkpt>
      <trkpt lat="44.88943" lon="0.30296">
        <ele>43.599998474121</ele>
        <time>2013-04-25T09:49:52.000Z</time>
      </trkpt>
      <trkpt lat="44.88947" lon="0.30288">
        <ele>43.799999237061</ele>
        <time>2013-04-25T09:49:55.000Z</time>
      </trkpt>
      <trkpt lat="44.88953" lon="0.30277">
        <ele>44</ele>
        <time>2013-04-25T09:50:00.000Z</time>
      </trkpt>
      <trkpt lat="44.88955" lon="0.30276">
        <ele>44</ele>
        <time>2013-04-25T09:50:01.000Z</time>
      </trkpt>
      <trkpt lat="44.8896" lon="0.30274">
        <ele>44.200000762939</ele>
        <time>2013-04-25T09:50:03.000Z</time>
      </trkpt>
      <trkpt lat="44.88962" lon="0.30272">
        <ele>44.200000762939</ele>
        <time>2013-04-25T09:50:04.000Z</time>
      </trkpt>
      <trkpt lat="44.88973" lon="0.30269">
        <ele>44.400001525879</ele>
        <time>2013-04-25T09:50:08.000Z</time>
      </trkpt>
      <trkpt lat="44.88975" lon="0.30268">
        <ele>44.400001525879</ele>
        <time>2013-04-25T09:50:09.000Z</time>
      </trkpt>
      <trkpt lat="44.8898" lon="0.30268">
        <ele>44.400001525879</ele>
        <time>2013-04-25T09:50:11.000Z</time>
      </trkpt>
      <trkpt lat="44.88985" lon="0.30269">
        <ele>44.400001525879</ele>
        <time>2013-04-25T09:50:13.000Z</time>
      </trkpt>
      <trkpt lat="44.88993" lon="0.30269">
        <ele>44.599998474121</ele>
        <time>2013-04-25T09:50:16.000Z</time>
      </trkpt>
      <trkpt lat="44.88995" lon="0.30267">
        <ele>44.599998474121</ele>
        <time>2013-04-25T09:50:17.000Z</time>
      </trkpt>
      <trkpt lat="44.89002" lon="0.30262">
        <ele>44.799999237061</ele>
        <time>2013-04-25T09:50:20.000Z</time>
      </trkpt>
      <trkpt lat="44.89007" lon="0.30259">
        <ele>45</ele>
        <time>2013-04-25T09:50:22.000Z</time>
      </trkpt>
      <trkpt lat="44.89009" lon="0.30258">
        <ele>45</ele>
        <time>2013-04-25T09:50:23.000Z</time>
      </trkpt>
      <trkpt lat="44.89018" lon="0.30255">
        <ele>45.200000762939</ele>
        <time>2013-04-25T09:50:26.000Z</time>
      </trkpt>
      <trkpt lat="44.89029" lon="0.3025">
        <ele>45.200000762939</ele>
        <time>2013-04-25T09:50:30.000Z</time>
      </trkpt>
      <trkpt lat="44.89031" lon="0.30251">
        <ele>45.200000762939</ele>
        <time>2013-04-25T09:50:31.000Z</time>
      </trkpt>
      <trkpt lat="44.89042" lon="0.30254">
        <ele>45.400001525879</ele>
        <time>2013-04-25T09:50:35.000Z</time>
      </trkpt>
      <trkpt lat="44.89045" lon="0.30254">
        <ele>45.599998474121</ele>
        <time>2013-04-25T09:50:36.000Z</time>
      </trkpt>
      <trkpt lat="44.89048" lon="0.30254">
        <ele>45.599998474121</ele>
        <time>2013-04-25T09:50:37.000Z</time>
      </trkpt>
      <trkpt lat="44.89059" lon="0.30253">
        <ele>45.599998474121</ele>
        <time>2013-04-25T09:50:41.000Z</time>
      </trkpt>
      <trkpt lat="44.89067" lon="0.30251">
        <ele>45.799999237061</ele>
        <time>2013-04-25T09:50:44.000Z</time>
      </trkpt>
      <trkpt lat="44.89075" lon="0.30249">
        <ele>45.799999237061</ele>
        <time>2013-04-25T09:50:47.000Z</time>
      </trkpt>
      <trkpt lat="44.89086" lon="0.30243">
        <ele>45.599998474121</ele>
        <time>2013-04-25T09:50:52.000Z</time>
      </trkpt>
      <trkpt lat="44.89099" lon="0.30236">
        <ele>45.200000762939</ele>
        <time>2013-04-25T09:50:57.000Z</time>
      </trkpt>
      <trkpt lat="44.89104" lon="0.30233">
        <ele>45.200000762939</ele>
        <time>2013-04-25T09:50:59.000Z</time>
      </trkpt>
      <trkpt lat="44.89111" lon="0.30228">
        <ele>44.799999237061</ele>
        <time>2013-04-25T09:51:02.000Z</time>
      </trkpt>
      <trkpt lat="44.8912" lon="0.30218">
        <ele>44.400001525879</ele>
        <time>2013-04-25T09:51:07.000Z</time>
      </trkpt>
      <trkpt lat="44.8913" lon="0.30208">
        <ele>44</ele>
        <time>2013-04-25T09:51:12.000Z</time>
      </trkpt>
      <trkpt lat="44.89133" lon="0.30201">
        <ele>43.599998474121</ele>
        <time>2013-04-25T09:51:14.000Z</time>
      </trkpt>
      <trkpt lat="44.89136" lon="0.30195">
        <ele>43.200000762939</ele>
        <time>2013-04-25T09:51:16.000Z</time>
      </trkpt>
      <trkpt lat="44.89147" lon="0.30184">
        <ele>42.599998474121</ele>
        <time>2013-04-25T09:51:21.000Z</time>
      </trkpt>
      <trkpt lat="44.89149" lon="0.30182">
        <ele>42.599998474121</ele>
        <time>2013-04-25T09:51:22.000Z</time>
      </trkpt>
      <trkpt lat="44.89162" lon="0.30177">
        <ele>42.400001525879</ele>
        <time>2013-04-25T09:51:27.000Z</time>
      </trkpt>
      <trkpt lat="44.89164" lon="0.30175">
        <ele>42.400001525879</ele>
        <time>2013-04-25T09:51:28.000Z</time>
      </trkpt>
      <trkpt lat="44.89175" lon="0.30169">
        <ele>42.200000762939</ele>
        <time>2013-04-25T09:51:33.000Z</time>
      </trkpt>
      <trkpt lat="44.89183" lon="0.30169">
        <ele>42.400001525879</ele>
        <time>2013-04-25T09:51:36.000Z</time>
      </trkpt>
      <trkpt lat="44.89189" lon="0.30164">
        <ele>42.400001525879</ele>
        <time>2013-04-25T09:51:39.000Z</time>
      </trkpt>
      <trkpt lat="44.89201" lon="0.30159">
        <ele>42.799999237061</ele>
        <time>2013-04-25T09:51:43.000Z</time>
      </trkpt>
      <trkpt lat="44.89209" lon="0.30155">
        <ele>42.799999237061</ele>
        <time>2013-04-25T09:51:46.000Z</time>
      </trkpt>
      <trkpt lat="44.8922" lon="0.30151">
        <ele>43</ele>
        <time>2013-04-25T09:51:50.000Z</time>
      </trkpt>
      <trkpt lat="44.89225" lon="0.30151">
        <ele>43</ele>
        <time>2013-04-25T09:51:52.000Z</time>
      </trkpt>
      <trkpt lat="44.89238" lon="0.30147">
        <ele>43.200000762939</ele>
        <time>2013-04-25T09:51:57.000Z</time>
      </trkpt>
      <trkpt lat="44.8924" lon="0.30146">
        <ele>43.200000762939</ele>
        <time>2013-04-25T09:51:58.000Z</time>
      </trkpt>
      <trkpt lat="44.89254" lon="0.30144">
        <ele>43.400001525879</ele>
        <time>2013-04-25T09:52:03.000Z</time>
      </trkpt>
      <trkpt lat="44.89257" lon="0.30143">
        <ele>43.400001525879</ele>
        <time>2013-04-25T09:52:04.000Z</time>
      </trkpt>
      <trkpt lat="44.89267" lon="0.3014">
        <ele>43.599998474121</ele>
        <time>2013-04-25T09:52:08.000Z</time>
      </trkpt>
      <trkpt lat="44.89276" lon="0.30136">
        <ele>43.599998474121</ele>
        <time>2013-04-25T09:52:11.000Z</time>
      </trkpt>
      <trkpt lat="44.89281" lon="0.30132">
        <ele>43.599998474121</ele>
        <time>2013-04-25T09:52:13.000Z</time>
      </trkpt>
      <trkpt lat="44.89293" lon="0.30119">
        <ele>43.599998474121</ele>
        <time>2013-04-25T09:52:18.000Z</time>
      </trkpt>
      <trkpt lat="44.89308" lon="0.30109">
        <ele>43.599998474121</ele>
        <time>2013-04-25T09:52:23.000Z</time>
      </trkpt>
      <trkpt lat="44.8931" lon="0.30107">
        <ele>43.799999237061</ele>
        <time>2013-04-25T09:52:24.000Z</time>
      </trkpt>
      <trkpt lat="44.89323" lon="0.30101">
        <ele>43.799999237061</ele>
        <time>2013-04-25T09:52:29.000Z</time>
      </trkpt>
      <trkpt lat="44.89328" lon="0.301">
        <ele>44</ele>
        <time>2013-04-25T09:52:31.000Z</time>
      </trkpt>
      <trkpt lat="44.89333" lon="0.301">
        <ele>44</ele>
        <time>2013-04-25T09:52:33.000Z</time>
      </trkpt>
      <trkpt lat="44.89344" lon="0.30102">
        <ele>44</ele>
        <time>2013-04-25T09:52:38.000Z</time>
      </trkpt>
      <trkpt lat="44.89347" lon="0.30105">
        <ele>44</ele>
        <time>2013-04-25T09:52:40.000Z</time>
      </trkpt>
      <trkpt lat="44.89351" lon="0.30108">
        <ele>43.799999237061</ele>
        <time>2013-04-25T09:52:43.000Z</time>
      </trkpt>
      <trkpt lat="44.89353" lon="0.30109">
        <ele>43.799999237061</ele>
        <time>2013-04-25T09:52:44.000Z</time>
      </trkpt>
      <trkpt lat="44.89356" lon="0.30107">
        <ele>43.799999237061</ele>
        <time>2013-04-25T09:52:47.000Z</time>
      </trkpt>
      <trkpt lat="44.89363" lon="0.30103">
        <ele>43.799999237061</ele>
        <time>2013-04-25T09:52:52.000Z</time>
      </trkpt>
      <trkpt lat="44.89365" lon="0.30102">
        <ele>43.599998474121</ele>
        <time>2013-04-25T09:52:53.000Z</time>
      </trkpt>
      <trkpt lat="44.89379" lon="0.30098">
        <ele>43.599998474121</ele>
        <time>2013-04-25T09:52:59.000Z</time>
      </trkpt>
      <trkpt lat="44.89381" lon="0.30096">
        <ele>43.599998474121</ele>
        <time>2013-04-25T09:53:00.000Z</time>
      </trkpt>
      <trkpt lat="44.89383" lon="0.30094">
        <ele>43.599998474121</ele>
        <time>2013-04-25T09:53:01.000Z</time>
      </trkpt>
      <trkpt lat="44.89384" lon="0.30086">
        <ele>43.799999237061</ele>
        <time>2013-04-25T09:53:04.000Z</time>
      </trkpt>
      <trkpt lat="44.89383" lon="0.30083">
        <ele>44</ele>
        <time>2013-04-25T09:53:05.000Z</time>
      </trkpt>
      <trkpt lat="44.89383" lon="0.30077">
        <ele>44</ele>
        <time>2013-04-25T09:53:08.000Z</time>
      </trkpt>
      <trkpt lat="44.89384" lon="0.30076">
        <ele>44</ele>
        <time>2013-04-25T09:53:09.000Z</time>
      </trkpt>
      <trkpt lat="44.89385" lon="0.30074">
        <ele>44</ele>
        <time>2013-04-25T09:53:12.000Z</time>
      </trkpt>
      <trkpt lat="44.89387" lon="0.30073">
        <ele>44</ele>
        <time>2013-04-25T09:53:13.000Z</time>
      </trkpt>
      <trkpt lat="44.89387" lon="0.30074">
        <ele>44</ele>
        <time>2013-04-25T09:53:14.000Z</time>
      </trkpt>
      <trkpt lat="44.89387" lon="0.30075">
        <ele>44</ele>
        <time>2013-04-25T09:53:16.000Z</time>
      </trkpt>
      <trkpt lat="44.89387" lon="0.30068">
        <ele>44</ele>
        <time>2013-04-25T09:53:19.000Z</time>
      </trkpt>
      <trkpt lat="44.89391" lon="0.30055">
        <ele>44</ele>
        <time>2013-04-25T09:53:23.000Z</time>
      </trkpt>
      <trkpt lat="44.89391" lon="0.30052">
        <ele>44</ele>
        <time>2013-04-25T09:53:24.000Z</time>
      </trkpt>
      <trkpt lat="44.89386" lon="0.30042">
        <ele>44</ele>
        <time>2013-04-25T09:53:29.000Z</time>
      </trkpt>
      <trkpt lat="44.89385" lon="0.3004">
        <ele>44</ele>
        <time>2013-04-25T09:53:30.000Z</time>
      </trkpt>
      <trkpt lat="44.89381" lon="0.30036">
        <ele>44</ele>
        <time>2013-04-25T09:53:33.000Z</time>
      </trkpt>
      <trkpt lat="44.89378" lon="0.30035">
        <ele>44</ele>
        <time>2013-04-25T09:53:35.000Z</time>
      </trkpt>
      <trkpt lat="44.89377" lon="0.30034">
        <ele>44</ele>
        <time>2013-04-25T09:53:37.000Z</time>
      </trkpt>
      <trkpt lat="44.89378" lon="0.30032">
        <ele>44</ele>
        <time>2013-04-25T09:53:39.000Z</time>
      </trkpt>
      <trkpt lat="44.89378" lon="0.30028">
        <ele>44</ele>
        <time>2013-04-25T09:53:42.000Z</time>
      </trkpt>
      <trkpt lat="44.89379" lon="0.30026">
        <ele>44</ele>
        <time>2013-04-25T09:53:43.000Z</time>
      </trkpt>
      <trkpt lat="44.89386" lon="0.30018">
        <ele>44</ele>
        <time>2013-04-25T09:53:47.000Z</time>
      </trkpt>
      <trkpt lat="44.89389" lon="0.30016">
        <ele>44</ele>
        <time>2013-04-25T09:53:48.000Z</time>
      </trkpt>
      <trkpt lat="44.894" lon="0.30014">
        <ele>44</ele>
        <time>2013-04-25T09:53:52.000Z</time>
      </trkpt>
      <trkpt lat="44.89409" lon="0.30012">
        <ele>44</ele>
        <time>2013-04-25T09:53:56.000Z</time>
      </trkpt>
      <trkpt lat="44.89412" lon="0.30011">
        <ele>44</ele>
        <time>2013-04-25T09:53:57.000Z</time>
      </trkpt>
      <trkpt lat="44.89424" lon="0.30007">
        <ele>44</ele>
        <time>2013-04-25T09:54:02.000Z</time>
      </trkpt>
      <trkpt lat="44.89429" lon="0.30006">
        <ele>44.200000762939</ele>
        <time>2013-04-25T09:54:04.000Z</time>
      </trkpt>
      <trkpt lat="44.89437" lon="0.30004">
        <ele>44.400001525879</ele>
        <time>2013-04-25T09:54:07.000Z</time>
      </trkpt>
      <trkpt lat="44.89445" lon="0.29996">
        <ele>44.599998474121</ele>
        <time>2013-04-25T09:54:11.000Z</time>
      </trkpt>
      <trkpt lat="44.89447" lon="0.29993">
        <ele>44.599998474121</ele>
        <time>2013-04-25T09:54:12.000Z</time>
      </trkpt>
      <trkpt lat="44.89452" lon="0.29986">
        <ele>44.799999237061</ele>
        <time>2013-04-25T09:54:15.000Z</time>
      </trkpt>
      <trkpt lat="44.89459" lon="0.29973">
        <ele>45</ele>
        <time>2013-04-25T09:54:20.000Z</time>
      </trkpt>
      <trkpt lat="44.89464" lon="0.29959">
        <ele>45.200000762939</ele>
        <time>2013-04-25T09:54:25.000Z</time>
      </trkpt>
      <trkpt lat="44.8947" lon="0.2995">
        <ele>45.400001525879</ele>
        <time>2013-04-25T09:54:29.000Z</time>
      </trkpt>
      <trkpt lat="44.89473" lon="0.29943">
        <ele>45.400001525879</ele>
        <time>2013-04-25T09:54:31.000Z</time>
      </trkpt>
      <trkpt lat="44.89482" lon="0.29927">
        <ele>45.599998474121</ele>
        <time>2013-04-25T09:54:36.000Z</time>
      </trkpt>
      <trkpt lat="44.89483" lon="0.29923">
        <ele>45.599998474121</ele>
        <time>2013-04-25T09:54:37.000Z</time>
      </trkpt>
      <trkpt lat="44.8949" lon="0.29914">
        <ele>46</ele>
        <time>2013-04-25T09:54:41.000Z</time>
      </trkpt>
      <trkpt lat="44.89495" lon="0.29911">
        <ele>46.200000762939</ele>
        <time>2013-04-25T09:54:43.000Z</time>
      </trkpt>
      <trkpt lat="44.89504" lon="0.29899">
        <ele>46.799999237061</ele>
        <time>2013-04-25T09:54:48.000Z</time>
      </trkpt>
      <trkpt lat="44.89511" lon="0.29892">
        <ele>47</ele>
        <time>2013-04-25T09:54:51.000Z</time>
      </trkpt>
      <trkpt lat="44.89517" lon="0.29887">
        <ele>47.200000762939</ele>
        <time>2013-04-25T09:54:54.000Z</time>
      </trkpt>
      <trkpt lat="44.89527" lon="0.29877">
        <ele>47.400001525879</ele>
        <time>2013-04-25T09:54:59.000Z</time>
      </trkpt>
      <trkpt lat="44.8953" lon="0.29875">
        <ele>47.599998474121</ele>
        <time>2013-04-25T09:55:00.000Z</time>
      </trkpt>
      <trkpt lat="44.89537" lon="0.29864">
        <ele>47.799999237061</ele>
        <time>2013-04-25T09:55:05.000Z</time>
      </trkpt>
      <trkpt lat="44.8954" lon="0.29859">
        <ele>48</ele>
        <time>2013-04-25T09:55:07.000Z</time>
      </trkpt>
      <trkpt lat="44.89547" lon="0.29848">
        <ele>48.200000762939</ele>
        <time>2013-04-25T09:55:11.000Z</time>
      </trkpt>
      <trkpt lat="44.89553" lon="0.29838">
        <ele>48.400001525879</ele>
        <time>2013-04-25T09:55:15.000Z</time>
      </trkpt>
      <trkpt lat="44.89554" lon="0.29835">
        <ele>48.599998474121</ele>
        <time>2013-04-25T09:55:16.000Z</time>
      </trkpt>
      <trkpt lat="44.89556" lon="0.29811">
        <ele>48.200000762939</ele>
        <time>2013-04-25T09:55:22.000Z</time>
      </trkpt>
      <trkpt lat="44.89554" lon="0.29791">
        <ele>48.200000762939</ele>
        <time>2013-04-25T09:55:27.000Z</time>
      </trkpt>
      <trkpt lat="44.89554" lon="0.29786">
        <ele>48</ele>
        <time>2013-04-25T09:55:32.000Z</time>
      </trkpt>
      <trkpt lat="44.89554" lon="0.29784">
        <ele>48</ele>
        <time>2013-04-25T09:55:33.000Z</time>
      </trkpt>
      <trkpt lat="44.89553" lon="0.29782">
        <ele>48</ele>
        <time>2013-04-25T09:55:34.000Z</time>
      </trkpt>
      <trkpt lat="44.89554" lon="0.29771">
        <ele>47.799999237061</ele>
        <time>2013-04-25T09:55:37.000Z</time>
      </trkpt>
      <trkpt lat="44.89555" lon="0.29757">
        <ele>47.799999237061</ele>
        <time>2013-04-25T09:55:40.000Z</time>
      </trkpt>
      <trkpt lat="44.89554" lon="0.29744">
        <ele>47.599998474121</ele>
        <time>2013-04-25T09:55:43.000Z</time>
      </trkpt>
      <trkpt lat="44.89555" lon="0.29729">
        <ele>47.599998474121</ele>
        <time>2013-04-25T09:55:47.000Z</time>
      </trkpt>
      <trkpt lat="44.89555" lon="0.29725">
        <ele>47.400001525879</ele>
        <time>2013-04-25T09:55:48.000Z</time>
      </trkpt>
      <trkpt lat="44.89555" lon="0.29722">
        <ele>47.400001525879</ele>
        <time>2013-04-25T09:55:49.000Z</time>
      </trkpt>
      <trkpt lat="44.89554" lon="0.29706">
        <ele>47.400001525879</ele>
        <time>2013-04-25T09:55:53.000Z</time>
      </trkpt>
      <trkpt lat="44.89555" lon="0.29703">
        <ele>47.400001525879</ele>
        <time>2013-04-25T09:55:54.000Z</time>
      </trkpt>
      <trkpt lat="44.89558" lon="0.29688">
        <ele>47.200000762939</ele>
        <time>2013-04-25T09:55:58.000Z</time>
      </trkpt>
      <trkpt lat="44.8956" lon="0.29679">
        <ele>47</ele>
        <time>2013-04-25T09:56:00.000Z</time>
      </trkpt>
      <trkpt lat="44.8956" lon="0.29674">
        <ele>46.799999237061</ele>
        <time>2013-04-25T09:56:01.000Z</time>
      </trkpt>
      <trkpt lat="44.89564" lon="0.29653">
        <ele>47</ele>
        <time>2013-04-25T09:56:06.000Z</time>
      </trkpt>
      <trkpt lat="44.89565" lon="0.29649">
        <ele>47.200000762939</ele>
        <time>2013-04-25T09:56:07.000Z</time>
      </trkpt>
      <trkpt lat="44.89573" lon="0.29634">
        <ele>47</ele>
        <time>2013-04-25T09:56:12.000Z</time>
      </trkpt>
      <trkpt lat="44.89575" lon="0.29627">
        <ele>47</ele>
        <time>2013-04-25T09:56:14.000Z</time>
      </trkpt>
      <trkpt lat="44.89578" lon="0.29614">
        <ele>47.400001525879</ele>
        <time>2013-04-25T09:56:18.000Z</time>
      </trkpt>
      <trkpt lat="44.89581" lon="0.29601">
        <ele>47.599998474121</ele>
        <time>2013-04-25T09:56:22.000Z</time>
      </trkpt>
      <trkpt lat="44.89584" lon="0.29591">
        <ele>47.599998474121</ele>
        <time>2013-04-25T09:56:25.000Z</time>
      </trkpt>
      <trkpt lat="44.89588" lon="0.29585">
        <ele>47.599998474121</ele>
        <time>2013-04-25T09:56:27.000Z</time>
      </trkpt>
      <trkpt lat="44.89593" lon="0.29582">
        <ele>47.400001525879</ele>
        <time>2013-04-25T09:56:29.000Z</time>
      </trkpt>
      <trkpt lat="44.89606" lon="0.29584">
        <ele>46.799999237061</ele>
        <time>2013-04-25T09:56:34.000Z</time>
      </trkpt>
      <trkpt lat="44.8961" lon="0.29585">
        <ele>46.599998474121</ele>
        <time>2013-04-25T09:56:36.000Z</time>
      </trkpt>
      <trkpt lat="44.89613" lon="0.29584">
        <ele>46.400001525879</ele>
        <time>2013-04-25T09:56:37.000Z</time>
      </trkpt>
      <trkpt lat="44.89618" lon="0.29582">
        <ele>46.200000762939</ele>
        <time>2013-04-25T09:56:39.000Z</time>
      </trkpt>
      <trkpt lat="44.89629" lon="0.29572">
        <ele>45.799999237061</ele>
        <time>2013-04-25T09:56:44.000Z</time>
      </trkpt>
      <trkpt lat="44.89631" lon="0.2957">
        <ele>45.799999237061</ele>
        <time>2013-04-25T09:56:45.000Z</time>
      </trkpt>
      <trkpt lat="44.8964" lon="0.29555">
        <ele>45.400001525879</ele>
        <time>2013-04-25T09:56:51.000Z</time>
      </trkpt>
      <trkpt lat="44.89642" lon="0.29552">
        <ele>45.400001525879</ele>
        <time>2013-04-25T09:56:52.000Z</time>
      </trkpt>
      <trkpt lat="44.89647" lon="0.29535">
        <ele>45.200000762939</ele>
        <time>2013-04-25T09:56:57.000Z</time>
      </trkpt>
      <trkpt lat="44.8965" lon="0.29527">
        <ele>45</ele>
        <time>2013-04-25T09:57:00.000Z</time>
      </trkpt>
      <trkpt lat="44.8965" lon="0.2952">
        <ele>45</ele>
        <time>2013-04-25T09:57:02.000Z</time>
      </trkpt>
      <trkpt lat="44.89653" lon="0.29503">
        <ele>44.799999237061</ele>
        <time>2013-04-25T09:57:06.000Z</time>
      </trkpt>
      <trkpt lat="44.89655" lon="0.29499">
        <ele>44.799999237061</ele>
        <time>2013-04-25T09:57:07.000Z</time>
      </trkpt>
      <trkpt lat="44.89666" lon="0.29484">
        <ele>44.200000762939</ele>
        <time>2013-04-25T09:57:12.000Z</time>
      </trkpt>
      <trkpt lat="44.89668" lon="0.29478">
        <ele>44.200000762939</ele>
        <time>2013-04-25T09:57:14.000Z</time>
      </trkpt>
      <trkpt lat="44.89673" lon="0.29468">
        <ele>44.400001525879</ele>
        <time>2013-04-25T09:57:17.000Z</time>
      </trkpt>
      <trkpt lat="44.8968" lon="0.29456">
        <ele>44.799999237061</ele>
        <time>2013-04-25T09:57:21.000Z</time>
      </trkpt>
      <trkpt lat="44.89685" lon="0.29449">
        <ele>45</ele>
        <time>2013-04-25T09:57:24.000Z</time>
      </trkpt>
      <trkpt lat="44.89696" lon="0.29438">
        <ele>45.200000762939</ele>
        <time>2013-04-25T09:57:29.000Z</time>
      </trkpt>
      <trkpt lat="44.89707" lon="0.29427">
        <ele>45.400001525879</ele>
        <time>2013-04-25T09:57:34.000Z</time>
      </trkpt>
      <trkpt lat="44.8971" lon="0.2942">
        <ele>45.400001525879</ele>
        <time>2013-04-25T09:57:36.000Z</time>
      </trkpt>
      <trkpt lat="44.89717" lon="0.29409">
        <ele>46</ele>
        <time>2013-04-25T09:57:40.000Z</time>
      </trkpt>
      <trkpt lat="44.89718" lon="0.29408">
        <ele>46</ele>
        <time>2013-04-25T09:57:41.000Z</time>
      </trkpt>
      <trkpt lat="44.89724" lon="0.29404">
        <ele>46.200000762939</ele>
        <time>2013-04-25T09:57:44.000Z</time>
      </trkpt>
      <trkpt lat="44.89734" lon="0.29397">
        <ele>46.799999237061</ele>
        <time>2013-04-25T09:57:48.000Z</time>
      </trkpt>
      <trkpt lat="44.8974" lon="0.2939">
        <ele>47.200000762939</ele>
        <time>2013-04-25T09:57:51.000Z</time>
      </trkpt>
      <trkpt lat="44.89746" lon="0.29384">
        <ele>47.400001525879</ele>
        <time>2013-04-25T09:57:54.000Z</time>
      </trkpt>
      <trkpt lat="44.8975" lon="0.29382">
        <ele>47.599998474121</ele>
        <time>2013-04-25T09:57:56.000Z</time>
      </trkpt>
      <trkpt lat="44.89753" lon="0.29378">
        <ele>47.799999237061</ele>
        <time>2013-04-25T09:57:59.000Z</time>
      </trkpt>
      <trkpt lat="44.89755" lon="0.29371">
        <ele>48</ele>
        <time>2013-04-25T09:58:02.000Z</time>
      </trkpt>
      <trkpt lat="44.89757" lon="0.29369">
        <ele>48</ele>
        <time>2013-04-25T09:58:04.000Z</time>
      </trkpt>
      <trkpt lat="44.89758" lon="0.29368">
        <ele>48.200000762939</ele>
        <time>2013-04-25T09:58:05.000Z</time>
      </trkpt>
      <trkpt lat="44.89758" lon="0.29363">
        <ele>48.200000762939</ele>
        <time>2013-04-25T09:58:14.000Z</time>
      </trkpt>
      <trkpt lat="44.8976" lon="0.29348">
        <ele>48.799999237061</ele>
        <time>2013-04-25T09:58:19.000Z</time>
      </trkpt>
      <trkpt lat="44.89761" lon="0.29345">
        <ele>49</ele>
        <time>2013-04-25T09:58:20.000Z</time>
      </trkpt>
      <trkpt lat="44.89763" lon="0.29337">
        <ele>49.200000762939</ele>
        <time>2013-04-25T09:58:23.000Z</time>
      </trkpt>
      <trkpt lat="44.89762" lon="0.29321">
        <ele>49.599998474121</ele>
        <time>2013-04-25T09:58:28.000Z</time>
      </trkpt>
      <trkpt lat="44.89763" lon="0.29317">
        <ele>49.599998474121</ele>
        <time>2013-04-25T09:58:29.000Z</time>
      </trkpt>
      <trkpt lat="44.89765" lon="0.29308">
        <ele>49.599998474121</ele>
        <time>2013-04-25T09:58:32.000Z</time>
      </trkpt>
      <trkpt lat="44.89766" lon="0.29301">
        <ele>49.799999237061</ele>
        <time>2013-04-25T09:58:36.000Z</time>
      </trkpt>
      <trkpt lat="44.89766" lon="0.293">
        <ele>49.799999237061</ele>
        <time>2013-04-25T09:58:37.000Z</time>
      </trkpt>
      <trkpt lat="44.89767" lon="0.29296">
        <ele>49.799999237061</ele>
        <time>2013-04-25T09:58:43.000Z</time>
      </trkpt>
      <trkpt lat="44.89768" lon="0.29291">
        <ele>49.799999237061</ele>
        <time>2013-04-25T09:58:48.000Z</time>
      </trkpt>
      <trkpt lat="44.8977" lon="0.29288">
        <ele>49.799999237061</ele>
        <time>2013-04-25T09:58:50.000Z</time>
      </trkpt>
      <trkpt lat="44.89771" lon="0.29287">
        <ele>49.599998474121</ele>
        <time>2013-04-25T09:58:52.000Z</time>
      </trkpt>
      <trkpt lat="44.89775" lon="0.29283">
        <ele>49.599998474121</ele>
        <time>2013-04-25T09:58:54.000Z</time>
      </trkpt>
      <trkpt lat="44.89775" lon="0.2928">
        <ele>49.599998474121</ele>
        <time>2013-04-25T09:58:55.000Z</time>
      </trkpt>
      <trkpt lat="44.89775" lon="0.29271">
        <ele>49.799999237061</ele>
        <time>2013-04-25T09:58:58.000Z</time>
      </trkpt>
      <trkpt lat="44.89778" lon="0.29266">
        <ele>49.599998474121</ele>
        <time>2013-04-25T09:59:00.000Z</time>
      </trkpt>
      <trkpt lat="44.89789" lon="0.29258">
        <ele>49</ele>
        <time>2013-04-25T09:59:05.000Z</time>
      </trkpt>
      <trkpt lat="44.89791" lon="0.29258">
        <ele>48.799999237061</ele>
        <time>2013-04-25T09:59:06.000Z</time>
      </trkpt>
      <trkpt lat="44.89798" lon="0.29253">
        <ele>48.400001525879</ele>
        <time>2013-04-25T09:59:10.000Z</time>
      </trkpt>
      <trkpt lat="44.89807" lon="0.29249">
        <ele>47.799999237061</ele>
        <time>2013-04-25T09:59:14.000Z</time>
      </trkpt>
      <trkpt lat="44.8981" lon="0.29249">
        <ele>47.599998474121</ele>
        <time>2013-04-25T09:59:15.000Z</time>
      </trkpt>
      <trkpt lat="44.89826" lon="0.29245">
        <ele>46.799999237061</ele>
        <time>2013-04-25T09:59:21.000Z</time>
      </trkpt>
      <trkpt lat="44.89829" lon="0.29244">
        <ele>46.599998474121</ele>
        <time>2013-04-25T09:59:22.000Z</time>
      </trkpt>
      <trkpt lat="44.89842" lon="0.29241">
        <ele>46.400001525879</ele>
        <time>2013-04-25T09:59:27.000Z</time>
      </trkpt>
      <trkpt lat="44.89847" lon="0.29239">
        <ele>46.599998474121</ele>
        <time>2013-04-25T09:59:29.000Z</time>
      </trkpt>
      <trkpt lat="44.89855" lon="0.29236">
        <ele>46.599998474121</ele>
        <time>2013-04-25T09:59:32.000Z</time>
      </trkpt>
      <trkpt lat="44.89865" lon="0.29228">
        <ele>47</ele>
        <time>2013-04-25T09:59:37.000Z</time>
      </trkpt>
      <trkpt lat="44.89867" lon="0.29213">
        <ele>47.799999237061</ele>
        <time>2013-04-25T09:59:42.000Z</time>
      </trkpt>
      <trkpt lat="44.89862" lon="0.29203">
        <ele>48.599998474121</ele>
        <time>2013-04-25T09:59:46.000Z</time>
      </trkpt>
      <trkpt lat="44.89861" lon="0.29201">
        <ele>48.799999237061</ele>
        <time>2013-04-25T09:59:47.000Z</time>
      </trkpt>
      <trkpt lat="44.89856" lon="0.29191">
        <ele>49.599998474121</ele>
        <time>2013-04-25T09:59:52.000Z</time>
      </trkpt>
      <trkpt lat="44.89851" lon="0.29179">
        <ele>50.400001525879</ele>
        <time>2013-04-25T09:59:58.000Z</time>
      </trkpt>
      <trkpt lat="44.89845" lon="0.29164">
        <ele>51.599998474121</ele>
        <time>2013-04-25T10:00:03.000Z</time>
      </trkpt>
      <trkpt lat="44.89843" lon="0.29158">
        <ele>51.799999237061</ele>
        <time>2013-04-25T10:00:05.000Z</time>
      </trkpt>
      <trkpt lat="44.89842" lon="0.29155">
        <ele>51.799999237061</ele>
        <time>2013-04-25T10:00:06.000Z</time>
      </trkpt>
      <trkpt lat="44.8984" lon="0.29147">
        <ele>52.200000762939</ele>
        <time>2013-04-25T10:00:09.000Z</time>
      </trkpt>
      <trkpt lat="44.89838" lon="0.29134">
        <ele>52.599998474121</ele>
        <time>2013-04-25T10:00:14.000Z</time>
      </trkpt>
      <trkpt lat="44.89837" lon="0.29129">
        <ele>52.799999237061</ele>
        <time>2013-04-25T10:00:16.000Z</time>
      </trkpt>
      <trkpt lat="44.89833" lon="0.29115">
        <ele>53.200000762939</ele>
        <time>2013-04-25T10:00:22.000Z</time>
      </trkpt>
      <trkpt lat="44.89831" lon="0.2911">
        <ele>53.200000762939</ele>
        <time>2013-04-25T10:00:24.000Z</time>
      </trkpt>
      <trkpt lat="44.89826" lon="0.29097">
        <ele>53.200000762939</ele>
        <time>2013-04-25T10:00:29.000Z</time>
      </trkpt>
      <trkpt lat="44.89822" lon="0.29086">
        <ele>53.400001525879</ele>
        <time>2013-04-25T10:00:33.000Z</time>
      </trkpt>
      <trkpt lat="44.8982" lon="0.29078">
        <ele>53.599998474121</ele>
        <time>2013-04-25T10:00:36.000Z</time>
      </trkpt>
      <trkpt lat="44.89815" lon="0.2906">
        <ele>54</ele>
        <time>2013-04-25T10:00:42.000Z</time>
      </trkpt>
      <trkpt lat="44.89809" lon="0.29043">
        <ele>54.400001525879</ele>
        <time>2013-04-25T10:00:48.000Z</time>
      </trkpt>
      <trkpt lat="44.89807" lon="0.29037">
        <ele>54.599998474121</ele>
        <time>2013-04-25T10:00:50.000Z</time>
      </trkpt>
      <trkpt lat="44.89804" lon="0.29027">
        <ele>54.799999237061</ele>
        <time>2013-04-25T10:00:53.000Z</time>
      </trkpt>
      <trkpt lat="44.89797" lon="0.2901">
        <ele>55.400001525879</ele>
        <time>2013-04-25T10:00:58.000Z</time>
      </trkpt>
      <trkpt lat="44.8979" lon="0.2899">
        <ele>56.599998474121</ele>
        <time>2013-04-25T10:01:04.000Z</time>
      </trkpt>
      <trkpt lat="44.89784" lon="0.28975">
        <ele>57.599998474121</ele>
        <time>2013-04-25T10:01:09.000Z</time>
      </trkpt>
      <trkpt lat="44.89781" lon="0.28965">
        <ele>58.200000762939</ele>
        <time>2013-04-25T10:01:13.000Z</time>
      </trkpt>
      <trkpt lat="44.89778" lon="0.28958">
        <ele>58.599998474121</ele>
        <time>2013-04-25T10:01:16.000Z</time>
      </trkpt>
      <trkpt lat="44.8977" lon="0.28943">
        <ele>59.200000762939</ele>
        <time>2013-04-25T10:01:22.000Z</time>
      </trkpt>
      <trkpt lat="44.89768" lon="0.28929">
        <ele>60</ele>
        <time>2013-04-25T10:01:27.000Z</time>
      </trkpt>
      <trkpt lat="44.89764" lon="0.28919">
        <ele>60.400001525879</ele>
        <time>2013-04-25T10:01:31.000Z</time>
      </trkpt>
      <trkpt lat="44.89761" lon="0.28914">
        <ele>60.599998474121</ele>
        <time>2013-04-25T10:01:33.000Z</time>
      </trkpt>
      <trkpt lat="44.89752" lon="0.28897">
        <ele>61.200000762939</ele>
        <time>2013-04-25T10:01:40.000Z</time>
      </trkpt>
      <trkpt lat="44.89751" lon="0.28893">
        <ele>61.400001525879</ele>
        <time>2013-04-25T10:01:42.000Z</time>
      </trkpt>
      <trkpt lat="44.89752" lon="0.28886">
        <ele>61.799999237061</ele>
        <time>2013-04-25T10:01:45.000Z</time>
      </trkpt>
      <trkpt lat="44.89761" lon="0.28878">
        <ele>63</ele>
        <time>2013-04-25T10:01:52.000Z</time>
      </trkpt>
      <trkpt lat="44.89771" lon="0.28873">
        <ele>63.799999237061</ele>
        <time>2013-04-25T10:01:57.000Z</time>
      </trkpt>
      <trkpt lat="44.89777" lon="0.28865">
        <ele>64.800003051758</ele>
        <time>2013-04-25T10:02:02.000Z</time>
      </trkpt>
      <trkpt lat="44.89778" lon="0.28864">
        <ele>65</ele>
        <time>2013-04-25T10:02:03.000Z</time>
      </trkpt>
      <trkpt lat="44.89785" lon="0.2886">
        <ele>65.800003051758</ele>
        <time>2013-04-25T10:02:08.000Z</time>
      </trkpt>
      <trkpt lat="44.89786" lon="0.28854">
        <ele>66.400001525879</ele>
        <time>2013-04-25T10:02:09.000Z</time>
      </trkpt>
      <trkpt lat="44.89787" lon="0.28847">
        <ele>67</ele>
        <time>2013-04-25T10:02:13.000Z</time>
      </trkpt>
      <trkpt lat="44.89788" lon="0.28843">
        <ele>67.400001525879</ele>
        <time>2013-04-25T10:02:15.000Z</time>
      </trkpt>
      <trkpt lat="44.89789" lon="0.28841">
        <ele>67.599998474121</ele>
        <time>2013-04-25T10:02:16.000Z</time>
      </trkpt>
      <trkpt lat="44.89794" lon="0.28837">
        <ele>68.400001525879</ele>
        <time>2013-04-25T10:02:20.000Z</time>
      </trkpt>
      <trkpt lat="44.89797" lon="0.28835">
        <ele>68.800003051758</ele>
        <time>2013-04-25T10:02:24.000Z</time>
      </trkpt>
      <trkpt lat="44.89797" lon="0.28834">
        <ele>68.800003051758</ele>
        <time>2013-04-25T10:02:25.000Z</time>
      </trkpt>
      <trkpt lat="44.89799" lon="0.28831">
        <ele>69</ele>
        <time>2013-04-25T10:02:29.000Z</time>
      </trkpt>
      <trkpt lat="44.89799" lon="0.28829">
        <ele>69.199996948242</ele>
        <time>2013-04-25T10:02:30.000Z</time>
      </trkpt>
      <trkpt lat="44.89803" lon="0.28821">
        <ele>69.800003051758</ele>
        <time>2013-04-25T10:02:35.000Z</time>
      </trkpt>
      <trkpt lat="44.89808" lon="0.28809">
        <ele>70.800003051758</ele>
        <time>2013-04-25T10:02:40.000Z</time>
      </trkpt>
      <trkpt lat="44.89809" lon="0.28807">
        <ele>71</ele>
        <time>2013-04-25T10:02:41.000Z</time>
      </trkpt>
      <trkpt lat="44.89812" lon="0.28798">
        <ele>71.599998474121</ele>
        <time>2013-04-25T10:02:45.000Z</time>
      </trkpt>
      <trkpt lat="44.89816" lon="0.28789">
        <ele>72.400001525879</ele>
        <time>2013-04-25T10:02:49.000Z</time>
      </trkpt>
      <trkpt lat="44.8982" lon="0.28785">
        <ele>73</ele>
        <time>2013-04-25T10:02:51.000Z</time>
      </trkpt>
      <trkpt lat="44.89827" lon="0.28781">
        <ele>73.800003051758</ele>
        <time>2013-04-25T10:02:55.000Z</time>
      </trkpt>
      <trkpt lat="44.89834" lon="0.28768">
        <ele>75</ele>
        <time>2013-04-25T10:03:00.000Z</time>
      </trkpt>
      <trkpt lat="44.89845" lon="0.28752">
        <ele>75.199996948242</ele>
        <time>2013-04-25T10:03:06.000Z</time>
      </trkpt>
      <trkpt lat="44.89847" lon="0.2875">
        <ele>75.199996948242</ele>
        <time>2013-04-25T10:03:07.000Z</time>
      </trkpt>
      <trkpt lat="44.89853" lon="0.28739">
        <ele>75</ele>
        <time>2013-04-25T10:03:10.000Z</time>
      </trkpt>
      <trkpt lat="44.89856" lon="0.28728">
        <ele>75</ele>
        <time>2013-04-25T10:03:12.000Z</time>
      </trkpt>
      <trkpt lat="44.89857" lon="0.28725">
        <ele>75</ele>
        <time>2013-04-25T10:03:13.000Z</time>
      </trkpt>
      <trkpt lat="44.89858" lon="0.28722">
        <ele>75</ele>
        <time>2013-04-25T10:03:14.000Z</time>
      </trkpt>
      <trkpt lat="44.89858" lon="0.28718">
        <ele>75</ele>
        <time>2013-04-25T10:03:15.000Z</time>
      </trkpt>
      <trkpt lat="44.89855" lon="0.28708">
        <ele>75.199996948242</ele>
        <time>2013-04-25T10:03:17.000Z</time>
      </trkpt>
      <trkpt lat="44.89852" lon="0.28694">
        <ele>75.400001525879</ele>
        <time>2013-04-25T10:03:21.000Z</time>
      </trkpt>
      <trkpt lat="44.89854" lon="0.28682">
        <ele>75.599998474121</ele>
        <time>2013-04-25T10:03:24.000Z</time>
      </trkpt>
      <trkpt lat="44.89859" lon="0.28668">
        <ele>75.599998474121</ele>
        <time>2013-04-25T10:03:27.000Z</time>
      </trkpt>
      <trkpt lat="44.89868" lon="0.28661">
        <ele>75.599998474121</ele>
        <time>2013-04-25T10:03:32.000Z</time>
      </trkpt>
      <trkpt lat="44.89878" lon="0.28658">
        <ele>75.599998474121</ele>
        <time>2013-04-25T10:03:36.000Z</time>
      </trkpt>
      <trkpt lat="44.89882" lon="0.28663">
        <ele>75.400001525879</ele>
        <time>2013-04-25T10:03:39.000Z</time>
      </trkpt>
      <trkpt lat="44.89884" lon="0.28665">
        <ele>75.400001525879</ele>
        <time>2013-04-25T10:03:40.000Z</time>
      </trkpt>
      <trkpt lat="44.89893" lon="0.28666">
        <ele>75.199996948242</ele>
        <time>2013-04-25T10:03:44.000Z</time>
      </trkpt>
      <trkpt lat="44.89895" lon="0.28664">
        <ele>75.199996948242</ele>
        <time>2013-04-25T10:03:45.000Z</time>
      </trkpt>
      <trkpt lat="44.89903" lon="0.28662">
        <ele>75.199996948242</ele>
        <time>2013-04-25T10:03:48.000Z</time>
      </trkpt>
      <trkpt lat="44.89908" lon="0.28661">
        <ele>75.199996948242</ele>
        <time>2013-04-25T10:03:51.000Z</time>
      </trkpt>
      <trkpt lat="44.89915" lon="0.28662">
        <ele>75</ele>
        <time>2013-04-25T10:04:03.000Z</time>
      </trkpt>
      <trkpt lat="44.89924" lon="0.28661">
        <ele>73.599998474121</ele>
        <time>2013-04-25T10:04:07.000Z</time>
      </trkpt>
      <trkpt lat="44.89927" lon="0.28662">
        <ele>72.800003051758</ele>
        <time>2013-04-25T10:04:08.000Z</time>
      </trkpt>
      <trkpt lat="44.89933" lon="0.28664">
        <ele>71.599998474121</ele>
        <time>2013-04-25T10:04:10.000Z</time>
      </trkpt>
      <trkpt lat="44.89937" lon="0.28665">
        <ele>71</ele>
        <time>2013-04-25T10:04:11.000Z</time>
      </trkpt>
      <trkpt lat="44.89951" lon="0.2866">
        <ele>68.199996948242</ele>
        <time>2013-04-25T10:04:15.000Z</time>
      </trkpt>
      <trkpt lat="44.89955" lon="0.28658">
        <ele>67.599998474121</ele>
        <time>2013-04-25T10:04:16.000Z</time>
      </trkpt>
      <trkpt lat="44.89966" lon="0.28645">
        <ele>66</ele>
        <time>2013-04-25T10:04:20.000Z</time>
      </trkpt>
      <trkpt lat="44.89978" lon="0.28626">
        <ele>64.800003051758</ele>
        <time>2013-04-25T10:04:25.000Z</time>
      </trkpt>
      <trkpt lat="44.8998" lon="0.28622">
        <ele>64.599998474121</ele>
        <time>2013-04-25T10:04:26.000Z</time>
      </trkpt>
      <trkpt lat="44.89992" lon="0.2861">
        <ele>63.400001525879</ele>
        <time>2013-04-25T10:04:30.000Z</time>
      </trkpt>
      <trkpt lat="44.90004" lon="0.28606">
        <ele>61.599998474121</ele>
        <time>2013-04-25T10:04:33.000Z</time>
      </trkpt>
      <trkpt lat="44.90007" lon="0.28608">
        <ele>61.200000762939</ele>
        <time>2013-04-25T10:04:35.000Z</time>
      </trkpt>
      <trkpt lat="44.9001" lon="0.28609">
        <ele>60.599998474121</ele>
        <time>2013-04-25T10:04:36.000Z</time>
      </trkpt>
      <trkpt lat="44.90019" lon="0.28611">
        <ele>59</ele>
        <time>2013-04-25T10:04:39.000Z</time>
      </trkpt>
      <trkpt lat="44.90033" lon="0.28608">
        <ele>57.200000762939</ele>
        <time>2013-04-25T10:04:42.000Z</time>
      </trkpt>
      <trkpt lat="44.90044" lon="0.28592">
        <ele>56.400001525879</ele>
        <time>2013-04-25T10:04:48.000Z</time>
      </trkpt>
      <trkpt lat="44.90047" lon="0.28589">
        <ele>56.200000762939</ele>
        <time>2013-04-25T10:04:49.000Z</time>
      </trkpt>
      <trkpt lat="44.90059" lon="0.2858">
        <ele>54.799999237061</ele>
        <time>2013-04-25T10:04:53.000Z</time>
      </trkpt>
      <trkpt lat="44.90062" lon="0.28578">
        <ele>54.400001525879</ele>
        <time>2013-04-25T10:04:54.000Z</time>
      </trkpt>
      <trkpt lat="44.90067" lon="0.28565">
        <ele>54.200000762939</ele>
        <time>2013-04-25T10:04:57.000Z</time>
      </trkpt>
      <trkpt lat="44.90066" lon="0.28551">
        <ele>54.799999237061</ele>
        <time>2013-04-25T10:05:02.000Z</time>
      </trkpt>
      <trkpt lat="44.90067" lon="0.28544">
        <ele>55</ele>
        <time>2013-04-25T10:05:03.000Z</time>
      </trkpt>
      <trkpt lat="44.90068" lon="0.28523">
        <ele>55.799999237061</ele>
        <time>2013-04-25T10:05:09.000Z</time>
      </trkpt>
      <trkpt lat="44.90063" lon="0.28503">
        <ele>57.200000762939</ele>
        <time>2013-04-25T10:05:15.000Z</time>
      </trkpt>
      <trkpt lat="44.90061" lon="0.28497">
        <ele>57.599998474121</ele>
        <time>2013-04-25T10:05:17.000Z</time>
      </trkpt>
      <trkpt lat="44.90054" lon="0.28488">
        <ele>58.200000762939</ele>
        <time>2013-04-25T10:05:21.000Z</time>
      </trkpt>
      <trkpt lat="44.90043" lon="0.28481">
        <ele>59.400001525879</ele>
        <time>2013-04-25T10:05:27.000Z</time>
      </trkpt>
      <trkpt lat="44.90032" lon="0.28472">
        <ele>60.200000762939</ele>
        <time>2013-04-25T10:05:33.000Z</time>
      </trkpt>
      <trkpt lat="44.90028" lon="0.28468">
        <ele>60.400001525879</ele>
        <time>2013-04-25T10:05:35.000Z</time>
      </trkpt>
      <trkpt lat="44.90023" lon="0.28461">
        <ele>60.799999237061</ele>
        <time>2013-04-25T10:05:39.000Z</time>
      </trkpt>
      <trkpt lat="44.90019" lon="0.28442">
        <ele>60.599998474121</ele>
        <time>2013-04-25T10:05:44.000Z</time>
      </trkpt>
      <trkpt lat="44.90013" lon="0.2842">
        <ele>60.200000762939</ele>
        <time>2013-04-25T10:05:51.000Z</time>
      </trkpt>
      <trkpt lat="44.90008" lon="0.28406">
        <ele>60.200000762939</ele>
        <time>2013-04-25T10:05:56.000Z</time>
      </trkpt>
      <trkpt lat="44.90006" lon="0.28396">
        <ele>60.200000762939</ele>
        <time>2013-04-25T10:06:00.000Z</time>
      </trkpt>
      <trkpt lat="44.90003" lon="0.28384">
        <ele>60.400001525879</ele>
        <time>2013-04-25T10:06:03.000Z</time>
      </trkpt>
      <trkpt lat="44.9" lon="0.28371">
        <ele>60.400001525879</ele>
        <time>2013-04-25T10:06:08.000Z</time>
      </trkpt>
      <trkpt lat="44.89998" lon="0.28362">
        <ele>60.599998474121</ele>
        <time>2013-04-25T10:06:10.000Z</time>
      </trkpt>
      <trkpt lat="44.89993" lon="0.28348">
        <ele>60.799999237061</ele>
        <time>2013-04-25T10:06:15.000Z</time>
      </trkpt>
      <trkpt lat="44.89989" lon="0.28342">
        <ele>61</ele>
        <time>2013-04-25T10:06:16.000Z</time>
      </trkpt>
      <trkpt lat="44.89979" lon="0.28331">
        <ele>62</ele>
        <time>2013-04-25T10:06:21.000Z</time>
      </trkpt>
      <trkpt lat="44.89977" lon="0.2833">
        <ele>62.200000762939</ele>
        <time>2013-04-25T10:06:22.000Z</time>
      </trkpt>
      <trkpt lat="44.89963" lon="0.28326">
        <ele>63.599998474121</ele>
        <time>2013-04-25T10:06:29.000Z</time>
      </trkpt>
      <trkpt lat="44.8996" lon="0.28328">
        <ele>63.799999237061</ele>
        <time>2013-04-25T10:06:31.000Z</time>
      </trkpt>
      <trkpt lat="44.8995" lon="0.28331">
        <ele>64.800003051758</ele>
        <time>2013-04-25T10:06:34.000Z</time>
      </trkpt>
      <trkpt lat="44.8994" lon="0.28332">
        <ele>65.599998474121</ele>
        <time>2013-04-25T10:06:39.000Z</time>
      </trkpt>
      <trkpt lat="44.89936" lon="0.28334">
        <ele>66</ele>
        <time>2013-04-25T10:06:42.000Z</time>
      </trkpt>
      <trkpt lat="44.89924" lon="0.28341">
        <ele>67.599998474121</ele>
        <time>2013-04-25T10:06:48.000Z</time>
      </trkpt>
      <trkpt lat="44.89922" lon="0.28341">
        <ele>67.800003051758</ele>
        <time>2013-04-25T10:06:49.000Z</time>
      </trkpt>
      <trkpt lat="44.8991" lon="0.28341">
        <ele>69</ele>
        <time>2013-04-25T10:06:55.000Z</time>
      </trkpt>
      <trkpt lat="44.89903" lon="0.28344">
        <ele>69.599998474121</ele>
        <time>2013-04-25T10:06:57.000Z</time>
      </trkpt>
      <trkpt lat="44.89898" lon="0.28346">
        <ele>70</ele>
        <time>2013-04-25T10:07:00.000Z</time>
      </trkpt>
      <trkpt lat="44.89887" lon="0.28345">
        <ele>71</ele>
        <time>2013-04-25T10:07:05.000Z</time>
      </trkpt>
      <trkpt lat="44.89884" lon="0.28345">
        <ele>71.199996948242</ele>
        <time>2013-04-25T10:07:06.000Z</time>
      </trkpt>
      <trkpt lat="44.89871" lon="0.28349">
        <ele>72.400001525879</ele>
        <time>2013-04-25T10:07:12.000Z</time>
      </trkpt>
      <trkpt lat="44.89865" lon="0.28352">
        <ele>73</ele>
        <time>2013-04-25T10:07:15.000Z</time>
      </trkpt>
      <trkpt lat="44.8986" lon="0.28354">
        <ele>73.400001525879</ele>
        <time>2013-04-25T10:07:17.000Z</time>
      </trkpt>
      <trkpt lat="44.89858" lon="0.28356">
        <ele>73.599998474121</ele>
        <time>2013-04-25T10:07:18.000Z</time>
      </trkpt>
      <trkpt lat="44.89852" lon="0.28363">
        <ele>74.199996948242</ele>
        <time>2013-04-25T10:07:21.000Z</time>
      </trkpt>
      <trkpt lat="44.89849" lon="0.28368">
        <ele>74.599998474121</ele>
        <time>2013-04-25T10:07:23.000Z</time>
      </trkpt>
      <trkpt lat="44.89844" lon="0.28373">
        <ele>75.199996948242</ele>
        <time>2013-04-25T10:07:25.000Z</time>
      </trkpt>
      <trkpt lat="44.89832" lon="0.28379">
        <ele>76</ele>
        <time>2013-04-25T10:07:30.000Z</time>
      </trkpt>
      <trkpt lat="44.89817" lon="0.28384">
        <ele>76.199996948242</ele>
        <time>2013-04-25T10:07:37.000Z</time>
      </trkpt>
      <trkpt lat="44.89813" lon="0.28384">
        <ele>76.400001525879</ele>
        <time>2013-04-25T10:07:39.000Z</time>
      </trkpt>
      <trkpt lat="44.89804" lon="0.28388">
        <ele>76.400001525879</ele>
        <time>2013-04-25T10:07:42.000Z</time>
      </trkpt>
      <trkpt lat="44.89796" lon="0.28393">
        <ele>76.599998474121</ele>
        <time>2013-04-25T10:07:47.000Z</time>
      </trkpt>
      <trkpt lat="44.8979" lon="0.28397">
        <ele>76.599998474121</ele>
        <time>2013-04-25T10:07:50.000Z</time>
      </trkpt>
      <trkpt lat="44.89779" lon="0.28402">
        <ele>76.400001525879</ele>
        <time>2013-04-25T10:07:55.000Z</time>
      </trkpt>
      <trkpt lat="44.89777" lon="0.28403">
        <ele>76.400001525879</ele>
        <time>2013-04-25T10:07:56.000Z</time>
      </trkpt>
      <trkpt lat="44.89772" lon="0.28404">
        <ele>76.400001525879</ele>
        <time>2013-04-25T10:07:59.000Z</time>
      </trkpt>
      <trkpt lat="44.89767" lon="0.28402">
        <ele>76.400001525879</ele>
        <time>2013-04-25T10:08:00.000Z</time>
      </trkpt>
      <trkpt lat="44.8976" lon="0.28401">
        <ele>76.400001525879</ele>
        <time>2013-04-25T10:08:03.000Z</time>
      </trkpt>
      <trkpt lat="44.89755" lon="0.28403">
        <ele>76.400001525879</ele>
        <time>2013-04-25T10:08:06.000Z</time>
      </trkpt>
      <trkpt lat="44.8975" lon="0.28404">
        <ele>76.400001525879</ele>
        <time>2013-04-25T10:08:08.000Z</time>
      </trkpt>
      <trkpt lat="44.89749" lon="0.28403">
        <ele>76.400001525879</ele>
        <time>2013-04-25T10:08:09.000Z</time>
      </trkpt>
      <trkpt lat="44.89747" lon="0.28395">
        <ele>76.599998474121</ele>
        <time>2013-04-25T10:08:14.000Z</time>
      </trkpt>
      <trkpt lat="44.89746" lon="0.28392">
        <ele>76.800003051758</ele>
        <time>2013-04-25T10:08:15.000Z</time>
      </trkpt>
      <trkpt lat="44.89745" lon="0.28371">
        <ele>77.400001525879</ele>
        <time>2013-04-25T10:08:20.000Z</time>
      </trkpt>
      <trkpt lat="44.89748" lon="0.28365">
        <ele>77.800003051758</ele>
        <time>2013-04-25T10:08:21.000Z</time>
      </trkpt>
      <trkpt lat="44.89751" lon="0.28361">
        <ele>77.800003051758</ele>
        <time>2013-04-25T10:08:24.000Z</time>
      </trkpt>
      <trkpt lat="44.89757" lon="0.2836">
        <ele>77.800003051758</ele>
        <time>2013-04-25T10:08:26.000Z</time>
      </trkpt>
      <trkpt lat="44.89757" lon="0.28355">
        <ele>77.800003051758</ele>
        <time>2013-04-25T10:08:30.000Z</time>
      </trkpt>
      <trkpt lat="44.89758" lon="0.28342">
        <ele>78.199996948242</ele>
        <time>2013-04-25T10:08:33.000Z</time>
      </trkpt>
      <trkpt lat="44.89766" lon="0.28336">
        <ele>78</ele>
        <time>2013-04-25T10:08:37.000Z</time>
      </trkpt>
      <trkpt lat="44.89774" lon="0.28326">
        <ele>78</ele>
        <time>2013-04-25T10:08:42.000Z</time>
      </trkpt>
      <trkpt lat="44.89779" lon="0.28321">
        <ele>77.800003051758</ele>
        <time>2013-04-25T10:08:44.000Z</time>
      </trkpt>
      <trkpt lat="44.89787" lon="0.28311">
        <ele>77.599998474121</ele>
        <time>2013-04-25T10:08:47.000Z</time>
      </trkpt>
      <trkpt lat="44.89793" lon="0.28304">
        <ele>77.400001525879</ele>
        <time>2013-04-25T10:08:50.000Z</time>
      </trkpt>
      <trkpt lat="44.89797" lon="0.28301">
        <ele>77.199996948242</ele>
        <time>2013-04-25T10:08:53.000Z</time>
      </trkpt>
      <trkpt lat="44.89807" lon="0.2829">
        <ele>76.599998474121</ele>
        <time>2013-04-25T10:08:57.000Z</time>
      </trkpt>
      <trkpt lat="44.89809" lon="0.28288">
        <ele>76.599998474121</ele>
        <time>2013-04-25T10:08:59.000Z</time>
      </trkpt>
      <trkpt lat="44.8982" lon="0.28277">
        <ele>75.800003051758</ele>
        <time>2013-04-25T10:09:03.000Z</time>
      </trkpt>
      <trkpt lat="44.89822" lon="0.28269">
        <ele>75.800003051758</ele>
        <time>2013-04-25T10:09:07.000Z</time>
      </trkpt>
      <trkpt lat="44.89822" lon="0.28261">
        <ele>75.800003051758</ele>
        <time>2013-04-25T10:09:09.000Z</time>
      </trkpt>
      <trkpt lat="44.89817" lon="0.28249">
        <ele>76.199996948242</ele>
        <time>2013-04-25T10:09:13.000Z</time>
      </trkpt>
      <trkpt lat="44.89817" lon="0.28244">
        <ele>76.400001525879</ele>
        <time>2013-04-25T10:09:15.000Z</time>
      </trkpt>
      <trkpt lat="44.89818" lon="0.28241">
        <ele>76.400001525879</ele>
        <time>2013-04-25T10:09:16.000Z</time>
      </trkpt>
      <trkpt lat="44.89819" lon="0.28238">
        <ele>76.400001525879</ele>
        <time>2013-04-25T10:09:17.000Z</time>
      </trkpt>
      <trkpt lat="44.89819" lon="0.28235">
        <ele>76.599998474121</ele>
        <time>2013-04-25T10:09:18.000Z</time>
      </trkpt>
      <trkpt lat="44.89824" lon="0.28214">
        <ele>76.800003051758</ele>
        <time>2013-04-25T10:09:24.000Z</time>
      </trkpt>
      <trkpt lat="44.8983" lon="0.282">
        <ele>77</ele>
        <time>2013-04-25T10:09:28.000Z</time>
      </trkpt>
      <trkpt lat="44.89833" lon="0.28186">
        <ele>77.199996948242</ele>
        <time>2013-04-25T10:09:33.000Z</time>
      </trkpt>
      <trkpt lat="44.89833" lon="0.28179">
        <ele>77.400001525879</ele>
        <time>2013-04-25T10:09:35.000Z</time>
      </trkpt>
      <trkpt lat="44.89834" lon="0.28162">
        <ele>78</ele>
        <time>2013-04-25T10:09:40.000Z</time>
      </trkpt>
      <trkpt lat="44.89833" lon="0.28158">
        <ele>78</ele>
        <time>2013-04-25T10:09:42.000Z</time>
      </trkpt>
      <trkpt lat="44.89828" lon="0.28141">
        <ele>78.400001525879</ele>
        <time>2013-04-25T10:09:48.000Z</time>
      </trkpt>
      <trkpt lat="44.89826" lon="0.28136">
        <ele>78.599998474121</ele>
        <time>2013-04-25T10:09:50.000Z</time>
      </trkpt>
      <trkpt lat="44.89823" lon="0.28127">
        <ele>79</ele>
        <time>2013-04-25T10:09:53.000Z</time>
      </trkpt>
      <trkpt lat="44.89819" lon="0.28109">
        <ele>79.400001525879</ele>
        <time>2013-04-25T10:09:58.000Z</time>
      </trkpt>
      <trkpt lat="44.89818" lon="0.2808">
        <ele>79.400001525879</ele>
        <time>2013-04-25T10:10:04.000Z</time>
      </trkpt>
      <trkpt lat="44.89814" lon="0.28064">
        <ele>78.599998474121</ele>
        <time>2013-04-25T10:10:09.000Z</time>
      </trkpt>
      <trkpt lat="44.89812" lon="0.28056">
        <ele>78.199996948242</ele>
        <time>2013-04-25T10:10:10.000Z</time>
      </trkpt>
      <trkpt lat="44.8981" lon="0.28044">
        <ele>77.400001525879</ele>
        <time>2013-04-25T10:10:14.000Z</time>
      </trkpt>
      <trkpt lat="44.89807" lon="0.2803">
        <ele>76.800003051758</ele>
        <time>2013-04-25T10:10:18.000Z</time>
      </trkpt>
      <trkpt lat="44.89806" lon="0.28018">
        <ele>76</ele>
        <time>2013-04-25T10:10:20.000Z</time>
      </trkpt>
      <trkpt lat="44.89804" lon="0.28003">
        <ele>75.199996948242</ele>
        <time>2013-04-25T10:10:25.000Z</time>
      </trkpt>
      <trkpt lat="44.89804" lon="0.27987">
        <ele>74.800003051758</ele>
        <time>2013-04-25T10:10:29.000Z</time>
      </trkpt>
      <trkpt lat="44.89804" lon="0.27971">
        <ele>74.599998474121</ele>
        <time>2013-04-25T10:10:32.000Z</time>
      </trkpt>
      <trkpt lat="44.89803" lon="0.2795">
        <ele>74.400001525879</ele>
        <time>2013-04-25T10:10:38.000Z</time>
      </trkpt>
      <trkpt lat="44.89803" lon="0.27947">
        <ele>74.400001525879</ele>
        <time>2013-04-25T10:10:39.000Z</time>
      </trkpt>
      <trkpt lat="44.89799" lon="0.27924">
        <ele>74.400001525879</ele>
        <time>2013-04-25T10:10:44.000Z</time>
      </trkpt>
      <trkpt lat="44.89797" lon="0.27921">
        <ele>74.599998474121</ele>
        <time>2013-04-25T10:10:45.000Z</time>
      </trkpt>
      <trkpt lat="44.89788" lon="0.27916">
        <ele>75.199996948242</ele>
        <time>2013-04-25T10:10:50.000Z</time>
      </trkpt>
      <trkpt lat="44.89782" lon="0.27916">
        <ele>75.599998474121</ele>
        <time>2013-04-25T10:10:54.000Z</time>
      </trkpt>
      <trkpt lat="44.89779" lon="0.27916">
        <ele>75.800003051758</ele>
        <time>2013-04-25T10:10:56.000Z</time>
      </trkpt>
      <trkpt lat="44.89766" lon="0.27912">
        <ele>76.599998474121</ele>
        <time>2013-04-25T10:11:05.000Z</time>
      </trkpt>
      <trkpt lat="44.89764" lon="0.2791">
        <ele>76.800003051758</ele>
        <time>2013-04-25T10:11:07.000Z</time>
      </trkpt>
      <trkpt lat="44.89758" lon="0.27899">
        <ele>77</ele>
        <time>2013-04-25T10:11:13.000Z</time>
      </trkpt>
      <trkpt lat="44.89755" lon="0.27887">
        <ele>76.800003051758</ele>
        <time>2013-04-25T10:11:17.000Z</time>
      </trkpt>
      <trkpt lat="44.89754" lon="0.2788">
        <ele>76.800003051758</ele>
        <time>2013-04-25T10:11:20.000Z</time>
      </trkpt>
      <trkpt lat="44.89752" lon="0.2786">
        <ele>76.400001525879</ele>
        <time>2013-04-25T10:11:25.000Z</time>
      </trkpt>
      <trkpt lat="44.89753" lon="0.27852">
        <ele>76.199996948242</ele>
        <time>2013-04-25T10:11:27.000Z</time>
      </trkpt>
      <trkpt lat="44.89758" lon="0.27833">
        <ele>75.599998474121</ele>
        <time>2013-04-25T10:11:32.000Z</time>
      </trkpt>
      <trkpt lat="44.8976" lon="0.27825">
        <ele>75.400001525879</ele>
        <time>2013-04-25T10:11:34.000Z</time>
      </trkpt>
      <trkpt lat="44.89764" lon="0.27805">
        <ele>75.400001525879</ele>
        <time>2013-04-25T10:11:39.000Z</time>
      </trkpt>
      <trkpt lat="44.89766" lon="0.2778">
        <ele>75.400001525879</ele>
        <time>2013-04-25T10:11:45.000Z</time>
      </trkpt>
      <trkpt lat="44.89767" lon="0.27771">
        <ele>75.400001525879</ele>
        <time>2013-04-25T10:11:47.000Z</time>
      </trkpt>
      <trkpt lat="44.8977" lon="0.27751">
        <ele>75.400001525879</ele>
        <time>2013-04-25T10:11:51.000Z</time>
      </trkpt>
      <trkpt lat="44.8977" lon="0.27747">
        <ele>75.599998474121</ele>
        <time>2013-04-25T10:11:53.000Z</time>
      </trkpt>
      <trkpt lat="44.89774" lon="0.27722">
        <ele>77.199996948242</ele>
        <time>2013-04-25T10:11:59.000Z</time>
      </trkpt>
      <trkpt lat="44.89777" lon="0.27699">
        <ele>78.599998474121</ele>
        <time>2013-04-25T10:12:04.000Z</time>
      </trkpt>
      <trkpt lat="44.89777" lon="0.27695">
        <ele>78.800003051758</ele>
        <time>2013-04-25T10:12:06.000Z</time>
      </trkpt>
      <trkpt lat="44.89776" lon="0.27675">
        <ele>80</ele>
        <time>2013-04-25T10:12:11.000Z</time>
      </trkpt>
      <trkpt lat="44.89774" lon="0.27668">
        <ele>80.599998474121</ele>
        <time>2013-04-25T10:12:13.000Z</time>
      </trkpt>
      <trkpt lat="44.8977" lon="0.27656">
        <ele>81</ele>
        <time>2013-04-25T10:12:15.000Z</time>
      </trkpt>
      <trkpt lat="44.89766" lon="0.27645">
        <ele>81.400001525879</ele>
        <time>2013-04-25T10:12:19.000Z</time>
      </trkpt>
      <trkpt lat="44.89761" lon="0.2763">
        <ele>81.800003051758</ele>
        <time>2013-04-25T10:12:23.000Z</time>
      </trkpt>
      <trkpt lat="44.89757" lon="0.27619">
        <ele>82.199996948242</ele>
        <time>2013-04-25T10:12:26.000Z</time>
      </trkpt>
      <trkpt lat="44.89751" lon="0.27606">
        <ele>82.599998474121</ele>
        <time>2013-04-25T10:12:30.000Z</time>
      </trkpt>
      <trkpt lat="44.89746" lon="0.27596">
        <ele>82.599998474121</ele>
        <time>2013-04-25T10:12:33.000Z</time>
      </trkpt>
      <trkpt lat="44.89744" lon="0.27588">
        <ele>82.400001525879</ele>
        <time>2013-04-25T10:12:35.000Z</time>
      </trkpt>
      <trkpt lat="44.89738" lon="0.27572">
        <ele>81.800003051758</ele>
        <time>2013-04-25T10:12:40.000Z</time>
      </trkpt>
      <trkpt lat="44.89737" lon="0.27568">
        <ele>81.599998474121</ele>
        <time>2013-04-25T10:12:41.000Z</time>
      </trkpt>
      <trkpt lat="44.8973" lon="0.27547">
        <ele>80.800003051758</ele>
        <time>2013-04-25T10:12:47.000Z</time>
      </trkpt>
      <trkpt lat="44.89722" lon="0.27522">
        <ele>80</ele>
        <time>2013-04-25T10:12:54.000Z</time>
      </trkpt>
      <trkpt lat="44.89714" lon="0.275">
        <ele>79.199996948242</ele>
        <time>2013-04-25T10:13:00.000Z</time>
      </trkpt>
      <trkpt lat="44.89712" lon="0.27496">
        <ele>79.199996948242</ele>
        <time>2013-04-25T10:13:01.000Z</time>
      </trkpt>
      <trkpt lat="44.89711" lon="0.27489">
        <ele>79.400001525879</ele>
        <time>2013-04-25T10:13:02.000Z</time>
      </trkpt>
      <trkpt lat="44.89709" lon="0.27482">
        <ele>79.400001525879</ele>
        <time>2013-04-25T10:13:04.000Z</time>
      </trkpt>
      <trkpt lat="44.89706" lon="0.2747">
        <ele>79.800003051758</ele>
        <time>2013-04-25T10:13:08.000Z</time>
      </trkpt>
      <trkpt lat="44.89705" lon="0.27458">
        <ele>80</ele>
        <time>2013-04-25T10:13:11.000Z</time>
      </trkpt>
      <trkpt lat="44.89703" lon="0.27442">
        <ele>80.400001525879</ele>
        <time>2013-04-25T10:13:15.000Z</time>
      </trkpt>
      <trkpt lat="44.89703" lon="0.27435">
        <ele>80.599998474121</ele>
        <time>2013-04-25T10:13:17.000Z</time>
      </trkpt>
      <trkpt lat="44.89708" lon="0.27417">
        <ele>81.400001525879</ele>
        <time>2013-04-25T10:13:23.000Z</time>
      </trkpt>
      <trkpt lat="44.89711" lon="0.2741">
        <ele>81.599998474121</ele>
        <time>2013-04-25T10:13:26.000Z</time>
      </trkpt>
      <trkpt lat="44.89712" lon="0.27408">
        <ele>81.800003051758</ele>
        <time>2013-04-25T10:13:28.000Z</time>
      </trkpt>
      <trkpt lat="44.89715" lon="0.274">
        <ele>82</ele>
        <time>2013-04-25T10:13:33.000Z</time>
      </trkpt>
      <trkpt lat="44.89716" lon="0.27398">
        <ele>82</ele>
        <time>2013-04-25T10:13:35.000Z</time>
      </trkpt>
      <trkpt lat="44.8972" lon="0.27394">
        <ele>82.199996948242</ele>
        <time>2013-04-25T10:13:39.000Z</time>
      </trkpt>
      <trkpt lat="44.89722" lon="0.27386">
        <ele>82.599998474121</ele>
        <time>2013-04-25T10:13:47.000Z</time>
      </trkpt>
      <trkpt lat="44.89725" lon="0.27385">
        <ele>82.599998474121</ele>
        <time>2013-04-25T10:14:02.000Z</time>
      </trkpt>
      <trkpt lat="44.89729" lon="0.27385">
        <ele>82.800003051758</ele>
        <time>2013-04-25T10:14:10.000Z</time>
      </trkpt>
      <trkpt lat="44.89731" lon="0.27385">
        <ele>82.800003051758</ele>
        <time>2013-04-25T10:14:14.000Z</time>
      </trkpt>
      <trkpt lat="44.89735" lon="0.27386">
        <ele>83</ele>
        <time>2013-04-25T10:14:17.000Z</time>
      </trkpt>
      <trkpt lat="44.89736" lon="0.27386">
        <ele>83</ele>
        <time>2013-04-25T10:14:20.000Z</time>
      </trkpt>
      <trkpt lat="44.89744" lon="0.27386">
        <ele>83.400001525879</ele>
        <time>2013-04-25T10:14:24.000Z</time>
      </trkpt>
      <trkpt lat="44.89748" lon="0.27388">
        <ele>83.599998474121</ele>
        <time>2013-04-25T10:14:26.000Z</time>
      </trkpt>
      <trkpt lat="44.89755" lon="0.2739">
        <ele>83.199996948242</ele>
        <time>2013-04-25T10:14:29.000Z</time>
      </trkpt>
      <trkpt lat="44.8976" lon="0.27389">
        <ele>83</ele>
        <time>2013-04-25T10:14:31.000Z</time>
      </trkpt>
      <trkpt lat="44.89767" lon="0.27389">
        <ele>82.599998474121</ele>
        <time>2013-04-25T10:14:35.000Z</time>
      </trkpt>
      <trkpt lat="44.89778" lon="0.27388">
        <ele>82</ele>
        <time>2013-04-25T10:14:39.000Z</time>
      </trkpt>
      <trkpt lat="44.89784" lon="0.27387">
        <ele>81.599998474121</ele>
        <time>2013-04-25T10:14:45.000Z</time>
      </trkpt>
      <trkpt lat="44.89787" lon="0.27387">
        <ele>81.400001525879</ele>
        <time>2013-04-25T10:14:48.000Z</time>
      </trkpt>
      <trkpt lat="44.89793" lon="0.27387">
        <ele>81</ele>
        <time>2013-04-25T10:14:50.000Z</time>
      </trkpt>
      <trkpt lat="44.89807" lon="0.27389">
        <ele>80.199996948242</ele>
        <time>2013-04-25T10:14:55.000Z</time>
      </trkpt>
      <trkpt lat="44.89824" lon="0.27393">
        <ele>79</ele>
        <time>2013-04-25T10:15:00.000Z</time>
      </trkpt>
      <trkpt lat="44.89827" lon="0.27393">
        <ele>78.800003051758</ele>
        <time>2013-04-25T10:15:01.000Z</time>
      </trkpt>
      <trkpt lat="44.89837" lon="0.27394">
        <ele>78.199996948242</ele>
        <time>2013-04-25T10:15:05.000Z</time>
      </trkpt>
      <trkpt lat="44.89844" lon="0.27391">
        <ele>77.599998474121</ele>
        <time>2013-04-25T10:15:10.000Z</time>
      </trkpt>
      <trkpt lat="44.89846" lon="0.2739">
        <ele>77.599998474121</ele>
        <time>2013-04-25T10:15:12.000Z</time>
      </trkpt>
      <trkpt lat="44.89853" lon="0.27387">
        <ele>77</ele>
        <time>2013-04-25T10:15:18.000Z</time>
      </trkpt>
      <trkpt lat="44.89864" lon="0.27384">
        <ele>76</ele>
        <time>2013-04-25T10:15:23.000Z</time>
      </trkpt>
      <trkpt lat="44.89874" lon="0.27381">
        <ele>75.199996948242</ele>
        <time>2013-04-25T10:15:27.000Z</time>
      </trkpt>
      <trkpt lat="44.89881" lon="0.27376">
        <ele>74.599998474121</ele>
        <time>2013-04-25T10:15:30.000Z</time>
      </trkpt>
      <trkpt lat="44.89885" lon="0.27371">
        <ele>74.199996948242</ele>
        <time>2013-04-25T10:15:32.000Z</time>
      </trkpt>
      <trkpt lat="44.89891" lon="0.27361">
        <ele>73.599998474121</ele>
        <time>2013-04-25T10:15:36.000Z</time>
      </trkpt>
      <trkpt lat="44.89894" lon="0.27357">
        <ele>73.400001525879</ele>
        <time>2013-04-25T10:15:38.000Z</time>
      </trkpt>
      <trkpt lat="44.89895" lon="0.27353">
        <ele>73.199996948242</ele>
        <time>2013-04-25T10:15:40.000Z</time>
      </trkpt>
      <trkpt lat="44.89896" lon="0.27338">
        <ele>73.199996948242</ele>
        <time>2013-04-25T10:15:45.000Z</time>
      </trkpt>
      <trkpt lat="44.89897" lon="0.27331">
        <ele>73</ele>
        <time>2013-04-25T10:15:47.000Z</time>
      </trkpt>
      <trkpt lat="44.89898" lon="0.27321">
        <ele>73</ele>
        <time>2013-04-25T10:15:50.000Z</time>
      </trkpt>
      <trkpt lat="44.89898" lon="0.27318">
        <ele>73.199996948242</ele>
        <time>2013-04-25T10:15:51.000Z</time>
      </trkpt>
      <trkpt lat="44.89898" lon="0.27304">
        <ele>73.199996948242</ele>
        <time>2013-04-25T10:15:56.000Z</time>
      </trkpt>
      <trkpt lat="44.89897" lon="0.27301">
        <ele>73.199996948242</ele>
        <time>2013-04-25T10:15:57.000Z</time>
      </trkpt>
      <trkpt lat="44.89896" lon="0.27291">
        <ele>73.599998474121</ele>
        <time>2013-04-25T10:16:01.000Z</time>
      </trkpt>
      <trkpt lat="44.89894" lon="0.27288">
        <ele>73.800003051758</ele>
        <time>2013-04-25T10:16:02.000Z</time>
      </trkpt>
      <trkpt lat="44.89888" lon="0.27284">
        <ele>74.400001525879</ele>
        <time>2013-04-25T10:16:04.000Z</time>
      </trkpt>
      <trkpt lat="44.89878" lon="0.2728">
        <ele>75.400001525879</ele>
        <time>2013-04-25T10:16:08.000Z</time>
      </trkpt>
      <trkpt lat="44.8987" lon="0.27279">
        <ele>76.199996948242</ele>
        <time>2013-04-25T10:16:11.000Z</time>
      </trkpt>
      <trkpt lat="44.8986" lon="0.27275">
        <ele>77.199996948242</ele>
        <time>2013-04-25T10:16:15.000Z</time>
      </trkpt>
      <trkpt lat="44.89851" lon="0.27276">
        <ele>78.199996948242</ele>
        <time>2013-04-25T10:16:19.000Z</time>
      </trkpt>
      <trkpt lat="44.89846" lon="0.27277">
        <ele>78.599998474121</ele>
        <time>2013-04-25T10:16:21.000Z</time>
      </trkpt>
      <trkpt lat="44.89832" lon="0.27276">
        <ele>80</ele>
        <time>2013-04-25T10:16:27.000Z</time>
      </trkpt>
      <trkpt lat="44.89821" lon="0.27274">
        <ele>80.400001525879</ele>
        <time>2013-04-25T10:16:33.000Z</time>
      </trkpt>
      <trkpt lat="44.89814" lon="0.27272">
        <ele>80.599998474121</ele>
        <time>2013-04-25T10:16:36.000Z</time>
      </trkpt>
      <trkpt lat="44.89807" lon="0.2727">
        <ele>80.800003051758</ele>
        <time>2013-04-25T10:16:40.000Z</time>
      </trkpt>
      <trkpt lat="44.89798" lon="0.27272">
        <ele>81.199996948242</ele>
        <time>2013-04-25T10:16:45.000Z</time>
      </trkpt>
      <trkpt lat="44.89796" lon="0.27272">
        <ele>81.199996948242</ele>
        <time>2013-04-25T10:16:46.000Z</time>
      </trkpt>
      <trkpt lat="44.89786" lon="0.27269">
        <ele>81.400001525879</ele>
        <time>2013-04-25T10:16:51.000Z</time>
      </trkpt>
      <trkpt lat="44.89777" lon="0.27268">
        <ele>81.599998474121</ele>
        <time>2013-04-25T10:16:55.000Z</time>
      </trkpt>
      <trkpt lat="44.89775" lon="0.27267">
        <ele>81.800003051758</ele>
        <time>2013-04-25T10:16:56.000Z</time>
      </trkpt>
      <trkpt lat="44.89765" lon="0.27264">
        <ele>82</ele>
        <time>2013-04-25T10:17:01.000Z</time>
      </trkpt>
      <trkpt lat="44.89761" lon="0.27264">
        <ele>82</ele>
        <time>2013-04-25T10:17:03.000Z</time>
      </trkpt>
      <trkpt lat="44.89758" lon="0.27264">
        <ele>82.199996948242</ele>
        <time>2013-04-25T10:17:04.000Z</time>
      </trkpt>
      <trkpt lat="44.89755" lon="0.27266">
        <ele>82.199996948242</ele>
        <time>2013-04-25T10:17:05.000Z</time>
      </trkpt>
      <trkpt lat="44.89744" lon="0.2727">
        <ele>82.599998474121</ele>
        <time>2013-04-25T10:17:10.000Z</time>
      </trkpt>
      <trkpt lat="44.89742" lon="0.27268">
        <ele>82.400001525879</ele>
        <time>2013-04-25T10:17:11.000Z</time>
      </trkpt>
      <trkpt lat="44.8974" lon="0.27265">
        <ele>82.400001525879</ele>
        <time>2013-04-25T10:17:12.000Z</time>
      </trkpt>
      <trkpt lat="44.8974" lon="0.27262">
        <ele>82.199996948242</ele>
        <time>2013-04-25T10:17:13.000Z</time>
      </trkpt>
      <trkpt lat="44.89734" lon="0.27252">
        <ele>82</ele>
        <time>2013-04-25T10:17:18.000Z</time>
      </trkpt>
      <trkpt lat="44.89729" lon="0.27246">
        <ele>81.800003051758</ele>
        <time>2013-04-25T10:17:20.000Z</time>
      </trkpt>
      <trkpt lat="44.89725" lon="0.27241">
        <ele>81.800003051758</ele>
        <time>2013-04-25T10:17:22.000Z</time>
      </trkpt>
      <trkpt lat="44.89723" lon="0.27228">
        <ele>81.800003051758</ele>
        <time>2013-04-25T10:17:26.000Z</time>
      </trkpt>
      <trkpt lat="44.89723" lon="0.27225">
        <ele>81.800003051758</ele>
        <time>2013-04-25T10:17:27.000Z</time>
      </trkpt>
      <trkpt lat="44.89723" lon="0.27222">
        <ele>81.800003051758</ele>
        <time>2013-04-25T10:17:28.000Z</time>
      </trkpt>
      <trkpt lat="44.89726" lon="0.2721">
        <ele>81.599998474121</ele>
        <time>2013-04-25T10:17:32.000Z</time>
      </trkpt>
      <trkpt lat="44.8973" lon="0.27198">
        <ele>81.599998474121</ele>
        <time>2013-04-25T10:17:37.000Z</time>
      </trkpt>
      <trkpt lat="44.89731" lon="0.27195">
        <ele>81.599998474121</ele>
        <time>2013-04-25T10:17:38.000Z</time>
      </trkpt>
      <trkpt lat="44.89736" lon="0.27182">
        <ele>81.400001525879</ele>
        <time>2013-04-25T10:17:43.000Z</time>
      </trkpt>
      <trkpt lat="44.8974" lon="0.27177">
        <ele>81.199996948242</ele>
        <time>2013-04-25T10:17:45.000Z</time>
      </trkpt>
      <trkpt lat="44.89744" lon="0.27172">
        <ele>81.199996948242</ele>
        <time>2013-04-25T10:17:47.000Z</time>
      </trkpt>
      <trkpt lat="44.89745" lon="0.27169">
        <ele>81</ele>
        <time>2013-04-25T10:17:48.000Z</time>
      </trkpt>
      <trkpt lat="44.89753" lon="0.27157">
        <ele>80.599998474121</ele>
        <time>2013-04-25T10:17:52.000Z</time>
      </trkpt>
      <trkpt lat="44.89754" lon="0.27154">
        <ele>80.400001525879</ele>
        <time>2013-04-25T10:17:53.000Z</time>
      </trkpt>
      <trkpt lat="44.89753" lon="0.27139">
        <ele>80.199996948242</ele>
        <time>2013-04-25T10:17:57.000Z</time>
      </trkpt>
      <trkpt lat="44.89754" lon="0.27131">
        <ele>79.800003051758</ele>
        <time>2013-04-25T10:17:59.000Z</time>
      </trkpt>
      <trkpt lat="44.89754" lon="0.27114">
        <ele>79.400001525879</ele>
        <time>2013-04-25T10:18:03.000Z</time>
      </trkpt>
      <trkpt lat="44.89756" lon="0.27102">
        <ele>79.199996948242</ele>
        <time>2013-04-25T10:18:06.000Z</time>
      </trkpt>
      <trkpt lat="44.89757" lon="0.27092">
        <ele>78.800003051758</ele>
        <time>2013-04-25T10:18:09.000Z</time>
      </trkpt>
      <trkpt lat="44.89758" lon="0.27089">
        <ele>78.599998474121</ele>
        <time>2013-04-25T10:18:10.000Z</time>
      </trkpt>
      <trkpt lat="44.89759" lon="0.27086">
        <ele>78.599998474121</ele>
        <time>2013-04-25T10:18:12.000Z</time>
      </trkpt>
      <trkpt lat="44.89762" lon="0.27076">
        <ele>78.199996948242</ele>
        <time>2013-04-25T10:18:16.000Z</time>
      </trkpt>
      <trkpt lat="44.89762" lon="0.27073">
        <ele>78.199996948242</ele>
        <time>2013-04-25T10:18:17.000Z</time>
      </trkpt>
      <trkpt lat="44.89761" lon="0.27069">
        <ele>78.199996948242</ele>
        <time>2013-04-25T10:18:19.000Z</time>
      </trkpt>
      <trkpt lat="44.89758" lon="0.27061">
        <ele>78.199996948242</ele>
        <time>2013-04-25T10:18:21.000Z</time>
      </trkpt>
      <trkpt lat="44.89755" lon="0.27056">
        <ele>78.400001525879</ele>
        <time>2013-04-25T10:18:23.000Z</time>
      </trkpt>
      <trkpt lat="44.89753" lon="0.27052">
        <ele>78.400001525879</ele>
        <time>2013-04-25T10:18:24.000Z</time>
      </trkpt>
      <trkpt lat="44.89752" lon="0.27049">
        <ele>78.400001525879</ele>
        <time>2013-04-25T10:18:25.000Z</time>
      </trkpt>
      <trkpt lat="44.89751" lon="0.27046">
        <ele>78.400001525879</ele>
        <time>2013-04-25T10:18:26.000Z</time>
      </trkpt>
      <trkpt lat="44.89746" lon="0.27035">
        <ele>78.599998474121</ele>
        <time>2013-04-25T10:18:30.000Z</time>
      </trkpt>
      <trkpt lat="44.89745" lon="0.27031">
        <ele>78.599998474121</ele>
        <time>2013-04-25T10:18:31.000Z</time>
      </trkpt>
      <trkpt lat="44.89743" lon="0.27028">
        <ele>78.599998474121</ele>
        <time>2013-04-25T10:18:32.000Z</time>
      </trkpt>
      <trkpt lat="44.89742" lon="0.27025">
        <ele>78.800003051758</ele>
        <time>2013-04-25T10:18:33.000Z</time>
      </trkpt>
      <trkpt lat="44.89738" lon="0.27023">
        <ele>79</ele>
        <time>2013-04-25T10:18:35.000Z</time>
      </trkpt>
      <trkpt lat="44.89727" lon="0.27016">
        <ele>79.599998474121</ele>
        <time>2013-04-25T10:18:40.000Z</time>
      </trkpt>
      <trkpt lat="44.8973" lon="0.27006">
        <ele>79.400001525879</ele>
        <time>2013-04-25T10:18:44.000Z</time>
      </trkpt>
      <trkpt lat="44.89732" lon="0.27003">
        <ele>79.199996948242</ele>
        <time>2013-04-25T10:18:45.000Z</time>
      </trkpt>
      <trkpt lat="44.89734" lon="0.26997">
        <ele>79.199996948242</ele>
        <time>2013-04-25T10:18:49.000Z</time>
      </trkpt>
      <trkpt lat="44.89734" lon="0.26995">
        <ele>79.199996948242</ele>
        <time>2013-04-25T10:18:50.000Z</time>
      </trkpt>
      <trkpt lat="44.89736" lon="0.26992">
        <ele>79.199996948242</ele>
        <time>2013-04-25T10:18:53.000Z</time>
      </trkpt>
      <trkpt lat="44.89743" lon="0.26983">
        <ele>79.199996948242</ele>
        <time>2013-04-25T10:18:58.000Z</time>
      </trkpt>
      <trkpt lat="44.89741" lon="0.26975">
        <ele>79.800003051758</ele>
        <time>2013-04-25T10:19:00.000Z</time>
      </trkpt>
      <trkpt lat="44.8974" lon="0.26968">
        <ele>80.199996948242</ele>
        <time>2013-04-25T10:19:02.000Z</time>
      </trkpt>
      <trkpt lat="44.89744" lon="0.26955">
        <ele>80.599998474121</ele>
        <time>2013-04-25T10:19:08.000Z</time>
      </trkpt>
      <trkpt lat="44.89743" lon="0.2695">
        <ele>80.800003051758</ele>
        <time>2013-04-25T10:19:10.000Z</time>
      </trkpt>
      <trkpt lat="44.89742" lon="0.26948">
        <ele>81</ele>
        <time>2013-04-25T10:19:11.000Z</time>
      </trkpt>
      <trkpt lat="44.89738" lon="0.26946">
        <ele>81.400001525879</ele>
        <time>2013-04-25T10:19:13.000Z</time>
      </trkpt>
      <trkpt lat="44.89729" lon="0.26939">
        <ele>82.400001525879</ele>
        <time>2013-04-25T10:19:18.000Z</time>
      </trkpt>
      <trkpt lat="44.89727" lon="0.26936">
        <ele>82.599998474121</ele>
        <time>2013-04-25T10:19:19.000Z</time>
      </trkpt>
      <trkpt lat="44.89725" lon="0.26929">
        <ele>83.199996948242</ele>
        <time>2013-04-25T10:19:22.000Z</time>
      </trkpt>
      <trkpt lat="44.89725" lon="0.26925">
        <ele>83.400001525879</ele>
        <time>2013-04-25T10:19:23.000Z</time>
      </trkpt>
      <trkpt lat="44.89722" lon="0.26918">
        <ele>83.800003051758</ele>
        <time>2013-04-25T10:19:26.000Z</time>
      </trkpt>
      <trkpt lat="44.89719" lon="0.26915">
        <ele>84.199996948242</ele>
        <time>2013-04-25T10:19:28.000Z</time>
      </trkpt>
      <trkpt lat="44.89717" lon="0.26913">
        <ele>84.400001525879</ele>
        <time>2013-04-25T10:19:29.000Z</time>
      </trkpt>
      <trkpt lat="44.89712" lon="0.26904">
        <ele>85.199996948242</ele>
        <time>2013-04-25T10:19:34.000Z</time>
      </trkpt>
      <trkpt lat="44.89711" lon="0.26902">
        <ele>85.400001525879</ele>
        <time>2013-04-25T10:19:35.000Z</time>
      </trkpt>
      <trkpt lat="44.89706" lon="0.26893">
        <ele>86.199996948242</ele>
        <time>2013-04-25T10:19:39.000Z</time>
      </trkpt>
      <trkpt lat="44.89699" lon="0.26887">
        <ele>87</ele>
        <time>2013-04-25T10:19:43.000Z</time>
      </trkpt>
      <trkpt lat="44.89697" lon="0.26872">
        <ele>87.800003051758</ele>
        <time>2013-04-25T10:19:48.000Z</time>
      </trkpt>
      <trkpt lat="44.89691" lon="0.26866">
        <ele>88.599998474121</ele>
        <time>2013-04-25T10:19:53.000Z</time>
      </trkpt>
      <trkpt lat="44.89689" lon="0.26865">
        <ele>88.800003051758</ele>
        <time>2013-04-25T10:19:54.000Z</time>
      </trkpt>
      <trkpt lat="44.89688" lon="0.26864">
        <ele>89</ele>
        <time>2013-04-25T10:19:55.000Z</time>
      </trkpt>
      <trkpt lat="44.89685" lon="0.26859">
        <ele>89.400001525879</ele>
        <time>2013-04-25T10:19:58.000Z</time>
      </trkpt>
      <trkpt lat="44.89682" lon="0.26857">
        <ele>89.599998474121</ele>
        <time>2013-04-25T10:20:01.000Z</time>
      </trkpt>
      <trkpt lat="44.8968" lon="0.26855">
        <ele>89.800003051758</ele>
        <time>2013-04-25T10:20:03.000Z</time>
      </trkpt>
      <trkpt lat="44.8968" lon="0.26854">
        <ele>90</ele>
        <time>2013-04-25T10:20:04.000Z</time>
      </trkpt>
      <trkpt lat="44.89675" lon="0.26848">
        <ele>90.599998474121</ele>
        <time>2013-04-25T10:20:10.000Z</time>
      </trkpt>
      <trkpt lat="44.89669" lon="0.2684">
        <ele>91.400001525879</ele>
        <time>2013-04-25T10:20:15.000Z</time>
      </trkpt>
      <trkpt lat="44.89668" lon="0.26839">
        <ele>91.599998474121</ele>
        <time>2013-04-25T10:20:16.000Z</time>
      </trkpt>
      <trkpt lat="44.89664" lon="0.26834">
        <ele>91.800003051758</ele>
        <time>2013-04-25T10:20:19.000Z</time>
      </trkpt>
      <trkpt lat="44.89661" lon="0.26831">
        <ele>92.199996948242</ele>
        <time>2013-04-25T10:20:21.000Z</time>
      </trkpt>
      <trkpt lat="44.89652" lon="0.26827">
        <ele>92.400001525879</ele>
        <time>2013-04-25T10:20:27.000Z</time>
      </trkpt>
      <trkpt lat="44.89651" lon="0.26827">
        <ele>92.400001525879</ele>
        <time>2013-04-25T10:20:28.000Z</time>
      </trkpt>
      <trkpt lat="44.89647" lon="0.26822">
        <ele>92.800003051758</ele>
        <time>2013-04-25T10:20:33.000Z</time>
      </trkpt>
      <trkpt lat="44.89645" lon="0.26821">
        <ele>92.800003051758</ele>
        <time>2013-04-25T10:20:36.000Z</time>
      </trkpt>
      <trkpt lat="44.89642" lon="0.26821">
        <ele>92.800003051758</ele>
        <time>2013-04-25T10:20:39.000Z</time>
      </trkpt>
      <trkpt lat="44.89636" lon="0.26824">
        <ele>92.400001525879</ele>
        <time>2013-04-25T10:20:44.000Z</time>
      </trkpt>
      <trkpt lat="44.89633" lon="0.26825">
        <ele>92.400001525879</ele>
        <time>2013-04-25T10:20:46.000Z</time>
      </trkpt>
      <trkpt lat="44.89632" lon="0.26824">
        <ele>92.400001525879</ele>
        <time>2013-04-25T10:20:48.000Z</time>
      </trkpt>
      <trkpt lat="44.89632" lon="0.26822">
        <ele>92.599998474121</ele>
        <time>2013-04-25T10:20:49.000Z</time>
      </trkpt>
      <trkpt lat="44.89638" lon="0.26816">
        <ele>93</ele>
        <time>2013-04-25T10:20:53.000Z</time>
      </trkpt>
      <trkpt lat="44.89641" lon="0.26813">
        <ele>93.199996948242</ele>
        <time>2013-04-25T10:20:55.000Z</time>
      </trkpt>
      <trkpt lat="44.89646" lon="0.26808">
        <ele>93.599998474121</ele>
        <time>2013-04-25T10:20:58.000Z</time>
      </trkpt>
      <trkpt lat="44.89649" lon="0.26805">
        <ele>94</ele>
        <time>2013-04-25T10:21:00.000Z</time>
      </trkpt>
      <trkpt lat="44.89652" lon="0.26801">
        <ele>94.199996948242</ele>
        <time>2013-04-25T10:21:02.000Z</time>
      </trkpt>
      <trkpt lat="44.89653" lon="0.26795">
        <ele>94.800003051758</ele>
        <time>2013-04-25T10:21:05.000Z</time>
      </trkpt>
      <trkpt lat="44.89655" lon="0.26792">
        <ele>95</ele>
        <time>2013-04-25T10:21:07.000Z</time>
      </trkpt>
      <trkpt lat="44.8966" lon="0.26789">
        <ele>95.400001525879</ele>
        <time>2013-04-25T10:21:09.000Z</time>
      </trkpt>
      <trkpt lat="44.89666" lon="0.26781">
        <ele>96.400001525879</ele>
        <time>2013-04-25T10:21:14.000Z</time>
      </trkpt>
      <trkpt lat="44.89667" lon="0.26778">
        <ele>96.400001525879</ele>
        <time>2013-04-25T10:21:15.000Z</time>
      </trkpt>
      <trkpt lat="44.89674" lon="0.26766">
        <ele>97.199996948242</ele>
        <time>2013-04-25T10:21:22.000Z</time>
      </trkpt>
      <trkpt lat="44.89679" lon="0.26759">
        <ele>97.400001525879</ele>
        <time>2013-04-25T10:21:26.000Z</time>
      </trkpt>
      <trkpt lat="44.89681" lon="0.26755">
        <ele>97.599998474121</ele>
        <time>2013-04-25T10:21:28.000Z</time>
      </trkpt>
      <trkpt lat="44.89684" lon="0.26744">
        <ele>98</ele>
        <time>2013-04-25T10:21:34.000Z</time>
      </trkpt>
      <trkpt lat="44.89684" lon="0.26743">
        <ele>98</ele>
        <time>2013-04-25T10:21:35.000Z</time>
      </trkpt>
      <trkpt lat="44.89685" lon="0.26735">
        <ele>98.199996948242</ele>
        <time>2013-04-25T10:21:39.000Z</time>
      </trkpt>
      <trkpt lat="44.89686" lon="0.26724">
        <ele>98.400001525879</ele>
        <time>2013-04-25T10:21:44.000Z</time>
      </trkpt>
      <trkpt lat="44.89685" lon="0.26719">
        <ele>98.599998474121</ele>
        <time>2013-04-25T10:21:48.000Z</time>
      </trkpt>
      <trkpt lat="44.89681" lon="0.26714">
        <ele>99</ele>
        <time>2013-04-25T10:21:50.000Z</time>
      </trkpt>
      <trkpt lat="44.89679" lon="0.26711">
        <ele>99.199996948242</ele>
        <time>2013-04-25T10:21:51.000Z</time>
      </trkpt>
      <trkpt lat="44.89676" lon="0.26706">
        <ele>99.599998474121</ele>
        <time>2013-04-25T10:21:53.000Z</time>
      </trkpt>
      <trkpt lat="44.89677" lon="0.267">
        <ele>99.800003051758</ele>
        <time>2013-04-25T10:21:55.000Z</time>
      </trkpt>
      <trkpt lat="44.89678" lon="0.26689">
        <ele>100</ele>
        <time>2013-04-25T10:21:59.000Z</time>
      </trkpt>
      <trkpt lat="44.89677" lon="0.26686">
        <ele>100.19999694824</ele>
        <time>2013-04-25T10:22:00.000Z</time>
      </trkpt>
      <trkpt lat="44.89675" lon="0.26667">
        <ele>101</ele>
        <time>2013-04-25T10:22:06.000Z</time>
      </trkpt>
      <trkpt lat="44.89674" lon="0.26661">
        <ele>101.19999694824</ele>
        <time>2013-04-25T10:22:08.000Z</time>
      </trkpt>
      <trkpt lat="44.89672" lon="0.26652">
        <ele>101.40000152588</ele>
        <time>2013-04-25T10:22:11.000Z</time>
      </trkpt>
      <trkpt lat="44.89674" lon="0.26639">
        <ele>101.40000152588</ele>
        <time>2013-04-25T10:22:16.000Z</time>
      </trkpt>
      <trkpt lat="44.89674" lon="0.26635">
        <ele>101.40000152588</ele>
        <time>2013-04-25T10:22:17.000Z</time>
      </trkpt>
      <trkpt lat="44.89673" lon="0.26625">
        <ele>101.59999847412</ele>
        <time>2013-04-25T10:22:20.000Z</time>
      </trkpt>
      <trkpt lat="44.89673" lon="0.26622">
        <ele>101.59999847412</ele>
        <time>2013-04-25T10:22:21.000Z</time>
      </trkpt>
      <trkpt lat="44.89671" lon="0.26609">
        <ele>102.19999694824</ele>
        <time>2013-04-25T10:22:25.000Z</time>
      </trkpt>
      <trkpt lat="44.89671" lon="0.26606">
        <ele>102.19999694824</ele>
        <time>2013-04-25T10:22:26.000Z</time>
      </trkpt>
      <trkpt lat="44.89671" lon="0.26603">
        <ele>102.19999694824</ele>
        <time>2013-04-25T10:22:27.000Z</time>
      </trkpt>
      <trkpt lat="44.89673" lon="0.26586">
        <ele>102</ele>
        <time>2013-04-25T10:22:34.000Z</time>
      </trkpt>
      <trkpt lat="44.89676" lon="0.26582">
        <ele>101.80000305176</ele>
        <time>2013-04-25T10:22:36.000Z</time>
      </trkpt>
      <trkpt lat="44.89681" lon="0.26577">
        <ele>101</ele>
        <time>2013-04-25T10:22:39.000Z</time>
      </trkpt>
      <trkpt lat="44.89685" lon="0.26562">
        <ele>100.19999694824</ele>
        <time>2013-04-25T10:22:45.000Z</time>
      </trkpt>
      <trkpt lat="44.89686" lon="0.26558">
        <ele>100.19999694824</ele>
        <time>2013-04-25T10:22:46.000Z</time>
      </trkpt>
      <trkpt lat="44.89691" lon="0.26546">
        <ele>99.400001525879</ele>
        <time>2013-04-25T10:22:50.000Z</time>
      </trkpt>
      <trkpt lat="44.89691" lon="0.26543">
        <ele>99.199996948242</ele>
        <time>2013-04-25T10:22:51.000Z</time>
      </trkpt>
      <trkpt lat="44.8969" lon="0.26531">
        <ele>99.400001525879</ele>
        <time>2013-04-25T10:22:55.000Z</time>
      </trkpt>
      <trkpt lat="44.8969" lon="0.26526">
        <ele>99.400001525879</ele>
        <time>2013-04-25T10:22:57.000Z</time>
      </trkpt>
      <trkpt lat="44.89684" lon="0.26518">
        <ele>100</ele>
        <time>2013-04-25T10:23:00.000Z</time>
      </trkpt>
      <trkpt lat="44.89682" lon="0.2651">
        <ele>100.40000152588</ele>
        <time>2013-04-25T10:23:03.000Z</time>
      </trkpt>
      <trkpt lat="44.89681" lon="0.26498">
        <ele>100.59999847412</ele>
        <time>2013-04-25T10:23:06.000Z</time>
      </trkpt>
      <trkpt lat="44.89679" lon="0.26484">
        <ele>101</ele>
        <time>2013-04-25T10:23:10.000Z</time>
      </trkpt>
      <trkpt lat="44.89675" lon="0.2647">
        <ele>101.80000305176</ele>
        <time>2013-04-25T10:23:15.000Z</time>
      </trkpt>
      <trkpt lat="44.89672" lon="0.26461">
        <ele>102.40000152588</ele>
        <time>2013-04-25T10:23:18.000Z</time>
      </trkpt>
      <trkpt lat="44.89669" lon="0.26456">
        <ele>103</ele>
        <time>2013-04-25T10:23:20.000Z</time>
      </trkpt>
      <trkpt lat="44.89666" lon="0.26451">
        <ele>103.40000152588</ele>
        <time>2013-04-25T10:23:23.000Z</time>
      </trkpt>
      <trkpt lat="44.89665" lon="0.26445">
        <ele>103.59999847412</ele>
        <time>2013-04-25T10:23:25.000Z</time>
      </trkpt>
      <trkpt lat="44.89664" lon="0.26439">
        <ele>103.59999847412</ele>
        <time>2013-04-25T10:23:27.000Z</time>
      </trkpt>
      <trkpt lat="44.89661" lon="0.26428">
        <ele>103.80000305176</ele>
        <time>2013-04-25T10:23:31.000Z</time>
      </trkpt>
      <trkpt lat="44.89659" lon="0.26422">
        <ele>103.80000305176</ele>
        <time>2013-04-25T10:23:34.000Z</time>
      </trkpt>
      <trkpt lat="44.89659" lon="0.26417">
        <ele>103.80000305176</ele>
        <time>2013-04-25T10:23:36.000Z</time>
      </trkpt>
      <trkpt lat="44.89659" lon="0.26414">
        <ele>103.80000305176</ele>
        <time>2013-04-25T10:23:37.000Z</time>
      </trkpt>
      <trkpt lat="44.89659" lon="0.26406">
        <ele>103.80000305176</ele>
        <time>2013-04-25T10:23:40.000Z</time>
      </trkpt>
      <trkpt lat="44.89661" lon="0.26387">
        <ele>103.59999847412</ele>
        <time>2013-04-25T10:23:45.000Z</time>
      </trkpt>
      <trkpt lat="44.8966" lon="0.26372">
        <ele>103.40000152588</ele>
        <time>2013-04-25T10:23:49.000Z</time>
      </trkpt>
      <trkpt lat="44.89656" lon="0.26361">
        <ele>103.40000152588</ele>
        <time>2013-04-25T10:23:53.000Z</time>
      </trkpt>
      <trkpt lat="44.89655" lon="0.26358">
        <ele>103.19999694824</ele>
        <time>2013-04-25T10:23:55.000Z</time>
      </trkpt>
      <trkpt lat="44.89651" lon="0.26352">
        <ele>103.19999694824</ele>
        <time>2013-04-25T10:23:59.000Z</time>
      </trkpt>
      <trkpt lat="44.89648" lon="0.26348">
        <ele>103.19999694824</ele>
        <time>2013-04-25T10:24:01.000Z</time>
      </trkpt>
      <trkpt lat="44.89643" lon="0.26343">
        <ele>103.19999694824</ele>
        <time>2013-04-25T10:24:04.000Z</time>
      </trkpt>
      <trkpt lat="44.89641" lon="0.26341">
        <ele>103.19999694824</ele>
        <time>2013-04-25T10:24:05.000Z</time>
      </trkpt>
      <trkpt lat="44.89632" lon="0.26338">
        <ele>103.40000152588</ele>
        <time>2013-04-25T10:24:10.000Z</time>
      </trkpt>
      <trkpt lat="44.89619" lon="0.2634">
        <ele>103.59999847412</ele>
        <time>2013-04-25T10:24:35.000Z</time>
      </trkpt>
      <trkpt lat="44.89612" lon="0.26342">
        <ele>103.59999847412</ele>
        <time>2013-04-25T10:24:39.000Z</time>
      </trkpt>
      <trkpt lat="44.89608" lon="0.2634">
        <ele>103.59999847412</ele>
        <time>2013-04-25T10:24:41.000Z</time>
      </trkpt>
      <trkpt lat="44.89603" lon="0.26339">
        <ele>103.59999847412</ele>
        <time>2013-04-25T10:24:43.000Z</time>
      </trkpt>
      <trkpt lat="44.89601" lon="0.26339">
        <ele>103.80000305176</ele>
        <time>2013-04-25T10:24:44.000Z</time>
      </trkpt>
      <trkpt lat="44.89588" lon="0.26336">
        <ele>103.80000305176</ele>
        <time>2013-04-25T10:24:49.000Z</time>
      </trkpt>
      <trkpt lat="44.89581" lon="0.26335">
        <ele>103.59999847412</ele>
        <time>2013-04-25T10:24:51.000Z</time>
      </trkpt>
      <trkpt lat="44.89569" lon="0.26333">
        <ele>102.40000152588</ele>
        <time>2013-04-25T10:24:55.000Z</time>
      </trkpt>
      <trkpt lat="44.89563" lon="0.26333">
        <ele>101.59999847412</ele>
        <time>2013-04-25T10:24:57.000Z</time>
      </trkpt>
      <trkpt lat="44.89555" lon="0.26332">
        <ele>100.80000305176</ele>
        <time>2013-04-25T10:25:00.000Z</time>
      </trkpt>
      <trkpt lat="44.89542" lon="0.2633">
        <ele>99.400001525879</ele>
        <time>2013-04-25T10:25:04.000Z</time>
      </trkpt>
      <trkpt lat="44.89536" lon="0.26329">
        <ele>98.800003051758</ele>
        <time>2013-04-25T10:25:06.000Z</time>
      </trkpt>
      <trkpt lat="44.89522" lon="0.26327">
        <ele>97.199996948242</ele>
        <time>2013-04-25T10:25:10.000Z</time>
      </trkpt>
      <trkpt lat="44.89516" lon="0.26327">
        <ele>96.599998474121</ele>
        <time>2013-04-25T10:25:12.000Z</time>
      </trkpt>
      <trkpt lat="44.89502" lon="0.26326">
        <ele>95</ele>
        <time>2013-04-25T10:25:16.000Z</time>
      </trkpt>
      <trkpt lat="44.89493" lon="0.26324">
        <ele>94.400001525879</ele>
        <time>2013-04-25T10:25:19.000Z</time>
      </trkpt>
      <trkpt lat="44.89483" lon="0.26325">
        <ele>93.800003051758</ele>
        <time>2013-04-25T10:25:22.000Z</time>
      </trkpt>
      <trkpt lat="44.89473" lon="0.26326">
        <ele>93.199996948242</ele>
        <time>2013-04-25T10:25:25.000Z</time>
      </trkpt>
      <trkpt lat="44.89463" lon="0.26328">
        <ele>92.800003051758</ele>
        <time>2013-04-25T10:25:28.000Z</time>
      </trkpt>
      <trkpt lat="44.89458" lon="0.26329">
        <ele>92.400001525879</ele>
        <time>2013-04-25T10:25:30.000Z</time>
      </trkpt>
      <trkpt lat="44.89449" lon="0.26329">
        <ele>91.800003051758</ele>
        <time>2013-04-25T10:25:35.000Z</time>
      </trkpt>
      <trkpt lat="44.89446" lon="0.26319">
        <ele>91.800003051758</ele>
        <time>2013-04-25T10:28:49.000Z</time>
      </trkpt>
      <trkpt lat="44.89445" lon="0.26321">
        <ele>91.800003051758</ele>
        <time>2013-04-25T10:28:53.000Z</time>
      </trkpt>
      <trkpt lat="44.8944" lon="0.26322">
        <ele>91.400001525879</ele>
        <time>2013-04-25T10:28:56.000Z</time>
      </trkpt>
      <trkpt lat="44.89438" lon="0.26322">
        <ele>91.400001525879</ele>
        <time>2013-04-25T10:28:57.000Z</time>
      </trkpt>
      <trkpt lat="44.89434" lon="0.26324">
        <ele>91</ele>
        <time>2013-04-25T10:29:00.000Z</time>
      </trkpt>
      <trkpt lat="44.89434" lon="0.26325">
        <ele>91</ele>
        <time>2013-04-25T10:29:01.000Z</time>
      </trkpt>
      <trkpt lat="44.89437" lon="0.26317">
        <ele>91.400001525879</ele>
        <time>2013-04-25T10:29:19.000Z</time>
      </trkpt>
      <trkpt lat="44.89437" lon="0.2632">
        <ele>91.400001525879</ele>
        <time>2013-04-25T10:29:22.000Z</time>
      </trkpt>
      <trkpt lat="44.89436" lon="0.26321">
        <ele>91.199996948242</ele>
        <time>2013-04-25T10:29:23.000Z</time>
      </trkpt>
      <trkpt lat="44.89432" lon="0.26326">
        <ele>91</ele>
        <time>2013-04-25T10:29:27.000Z</time>
      </trkpt>
      <trkpt lat="44.89429" lon="0.26327">
        <ele>90.800003051758</ele>
        <time>2013-04-25T10:29:29.000Z</time>
      </trkpt>
      <trkpt lat="44.89422" lon="0.26335">
        <ele>90.199996948242</ele>
        <time>2013-04-25T10:29:34.000Z</time>
      </trkpt>
      <trkpt lat="44.89414" lon="0.26339">
        <ele>89.800003051758</ele>
        <time>2013-04-25T10:29:39.000Z</time>
      </trkpt>
      <trkpt lat="44.89405" lon="0.26343">
        <ele>90</ele>
        <time>2013-04-25T10:29:44.000Z</time>
      </trkpt>
      <trkpt lat="44.89403" lon="0.26343">
        <ele>90</ele>
        <time>2013-04-25T10:29:45.000Z</time>
      </trkpt>
      <trkpt lat="44.89402" lon="0.26342">
        <ele>90.199996948242</ele>
        <time>2013-04-25T10:29:46.000Z</time>
      </trkpt>
      <trkpt lat="44.894" lon="0.26342">
        <ele>90.199996948242</ele>
        <time>2013-04-25T10:29:47.000Z</time>
      </trkpt>
      <trkpt lat="44.89397" lon="0.26343">
        <ele>90.199996948242</ele>
        <time>2013-04-25T10:29:49.000Z</time>
      </trkpt>
      <trkpt lat="44.89388" lon="0.26348">
        <ele>90.199996948242</ele>
        <time>2013-04-25T10:29:54.000Z</time>
      </trkpt>
      <trkpt lat="44.89385" lon="0.26351">
        <ele>90.199996948242</ele>
        <time>2013-04-25T10:29:56.000Z</time>
      </trkpt>
      <trkpt lat="44.89379" lon="0.26354">
        <ele>90.400001525879</ele>
        <time>2013-04-25T10:29:59.000Z</time>
      </trkpt>
      <trkpt lat="44.89374" lon="0.26353">
        <ele>90.400001525879</ele>
        <time>2013-04-25T10:30:01.000Z</time>
      </trkpt>
      <trkpt lat="44.89366" lon="0.26354">
        <ele>90.599998474121</ele>
        <time>2013-04-25T10:30:05.000Z</time>
      </trkpt>
      <trkpt lat="44.89363" lon="0.26355">
        <ele>90.599998474121</ele>
        <time>2013-04-25T10:30:07.000Z</time>
      </trkpt>
      <trkpt lat="44.89352" lon="0.26356">
        <ele>90.800003051758</ele>
        <time>2013-04-25T10:30:12.000Z</time>
      </trkpt>
      <trkpt lat="44.89348" lon="0.26359">
        <ele>90.800003051758</ele>
        <time>2013-04-25T10:30:14.000Z</time>
      </trkpt>
      <trkpt lat="44.89342" lon="0.26365">
        <ele>90.599998474121</ele>
        <time>2013-04-25T10:30:17.000Z</time>
      </trkpt>
      <trkpt lat="44.89336" lon="0.26373">
        <ele>90.400001525879</ele>
        <time>2013-04-25T10:30:21.000Z</time>
      </trkpt>
      <trkpt lat="44.89334" lon="0.26376">
        <ele>90.400001525879</ele>
        <time>2013-04-25T10:30:22.000Z</time>
      </trkpt>
      <trkpt lat="44.8933" lon="0.26381">
        <ele>90.400001525879</ele>
        <time>2013-04-25T10:30:24.000Z</time>
      </trkpt>
      <trkpt lat="44.89326" lon="0.26383">
        <ele>90.599998474121</ele>
        <time>2013-04-25T10:30:26.000Z</time>
      </trkpt>
      <trkpt lat="44.89317" lon="0.26382">
        <ele>91.199996948242</ele>
        <time>2013-04-25T10:30:30.000Z</time>
      </trkpt>
      <trkpt lat="44.89314" lon="0.26382">
        <ele>91.199996948242</ele>
        <time>2013-04-25T10:30:31.000Z</time>
      </trkpt>
      <trkpt lat="44.89312" lon="0.26383">
        <ele>91.400001525879</ele>
        <time>2013-04-25T10:30:32.000Z</time>
      </trkpt>
      <trkpt lat="44.89305" lon="0.26386">
        <ele>91.800003051758</ele>
        <time>2013-04-25T10:30:35.000Z</time>
      </trkpt>
      <trkpt lat="44.89302" lon="0.26386">
        <ele>91.800003051758</ele>
        <time>2013-04-25T10:30:36.000Z</time>
      </trkpt>
      <trkpt lat="44.89297" lon="0.26386">
        <ele>92.199996948242</ele>
        <time>2013-04-25T10:30:38.000Z</time>
      </trkpt>
      <trkpt lat="44.8929" lon="0.26387">
        <ele>92.599998474121</ele>
        <time>2013-04-25T10:30:41.000Z</time>
      </trkpt>
      <trkpt lat="44.89278" lon="0.26387">
        <ele>93.400001525879</ele>
        <time>2013-04-25T10:30:46.000Z</time>
      </trkpt>
      <trkpt lat="44.89267" lon="0.26388">
        <ele>94</ele>
        <time>2013-04-25T10:30:51.000Z</time>
      </trkpt>
      <trkpt lat="44.89261" lon="0.26395">
        <ele>94</ele>
        <time>2013-04-25T10:30:55.000Z</time>
      </trkpt>
      <trkpt lat="44.89253" lon="0.26396">
        <ele>94.400001525879</ele>
        <time>2013-04-25T10:30:58.000Z</time>
      </trkpt>
      <trkpt lat="44.89251" lon="0.26395">
        <ele>94.599998474121</ele>
        <time>2013-04-25T10:30:59.000Z</time>
      </trkpt>
      <trkpt lat="44.89242" lon="0.26391">
        <ele>95.599998474121</ele>
        <time>2013-04-25T10:31:03.000Z</time>
      </trkpt>
      <trkpt lat="44.89239" lon="0.2639">
        <ele>95.800003051758</ele>
        <time>2013-04-25T10:31:04.000Z</time>
      </trkpt>
      <trkpt lat="44.89226" lon="0.26387">
        <ele>97.199996948242</ele>
        <time>2013-04-25T10:31:10.000Z</time>
      </trkpt>
      <trkpt lat="44.89224" lon="0.26387">
        <ele>97.400001525879</ele>
        <time>2013-04-25T10:31:11.000Z</time>
      </trkpt>
      <trkpt lat="44.89212" lon="0.26381">
        <ele>98.800003051758</ele>
        <time>2013-04-25T10:31:16.000Z</time>
      </trkpt>
      <trkpt lat="44.89207" lon="0.26378">
        <ele>99.400001525879</ele>
        <time>2013-04-25T10:31:18.000Z</time>
      </trkpt>
      <trkpt lat="44.89203" lon="0.26377">
        <ele>99.800003051758</ele>
        <time>2013-04-25T10:31:20.000Z</time>
      </trkpt>
      <trkpt lat="44.8919" lon="0.26377">
        <ele>101</ele>
        <time>2013-04-25T10:31:25.000Z</time>
      </trkpt>
      <trkpt lat="44.89188" lon="0.26377">
        <ele>101.19999694824</ele>
        <time>2013-04-25T10:31:26.000Z</time>
      </trkpt>
      <trkpt lat="44.89175" lon="0.26373">
        <ele>102.80000305176</ele>
        <time>2013-04-25T10:31:31.000Z</time>
      </trkpt>
      <trkpt lat="44.8917" lon="0.2637">
        <ele>103.40000152588</ele>
        <time>2013-04-25T10:31:33.000Z</time>
      </trkpt>
      <trkpt lat="44.89163" lon="0.26367">
        <ele>104</ele>
        <time>2013-04-25T10:31:36.000Z</time>
      </trkpt>
      <trkpt lat="44.89154" lon="0.26362">
        <ele>104.40000152588</ele>
        <time>2013-04-25T10:31:41.000Z</time>
      </trkpt>
      <trkpt lat="44.89152" lon="0.26361">
        <ele>104.40000152588</ele>
        <time>2013-04-25T10:31:42.000Z</time>
      </trkpt>
      <trkpt lat="44.89144" lon="0.26356">
        <ele>104.80000305176</ele>
        <time>2013-04-25T10:31:46.000Z</time>
      </trkpt>
      <trkpt lat="44.89134" lon="0.2635">
        <ele>105.19999694824</ele>
        <time>2013-04-25T10:31:51.000Z</time>
      </trkpt>
      <trkpt lat="44.89132" lon="0.26348">
        <ele>105.19999694824</ele>
        <time>2013-04-25T10:31:52.000Z</time>
      </trkpt>
      <trkpt lat="44.89122" lon="0.26339">
        <ele>105.59999847412</ele>
        <time>2013-04-25T10:31:58.000Z</time>
      </trkpt>
      <trkpt lat="44.89119" lon="0.26336">
        <ele>105.80000305176</ele>
        <time>2013-04-25T10:32:00.000Z</time>
      </trkpt>
      <trkpt lat="44.89111" lon="0.26329">
        <ele>106</ele>
        <time>2013-04-25T10:32:04.000Z</time>
      </trkpt>
      <trkpt lat="44.89104" lon="0.26321">
        <ele>106</ele>
        <time>2013-04-25T10:32:08.000Z</time>
      </trkpt>
      <trkpt lat="44.89099" lon="0.26316">
        <ele>106.19999694824</ele>
        <time>2013-04-25T10:32:10.000Z</time>
      </trkpt>
      <trkpt lat="44.89086" lon="0.26307">
        <ele>106.19999694824</ele>
        <time>2013-04-25T10:32:16.000Z</time>
      </trkpt>
      <trkpt lat="44.89078" lon="0.263">
        <ele>105.59999847412</ele>
        <time>2013-04-25T10:32:20.000Z</time>
      </trkpt>
      <trkpt lat="44.89077" lon="0.26297">
        <ele>105.40000152588</ele>
        <time>2013-04-25T10:32:21.000Z</time>
      </trkpt>
      <trkpt lat="44.89078" lon="0.26286">
        <ele>105.80000305176</ele>
        <time>2013-04-25T10:32:24.000Z</time>
      </trkpt>
      <trkpt lat="44.89079" lon="0.26283">
        <ele>105.80000305176</ele>
        <time>2013-04-25T10:32:25.000Z</time>
      </trkpt>
      <trkpt lat="44.89084" lon="0.26267">
        <ele>106.59999847412</ele>
        <time>2013-04-25T10:32:30.000Z</time>
      </trkpt>
      <trkpt lat="44.89086" lon="0.26264">
        <ele>106.80000305176</ele>
        <time>2013-04-25T10:32:31.000Z</time>
      </trkpt>
      <trkpt lat="44.89087" lon="0.26261">
        <ele>106.80000305176</ele>
        <time>2013-04-25T10:32:32.000Z</time>
      </trkpt>
      <trkpt lat="44.89094" lon="0.26249">
        <ele>106.80000305176</ele>
        <time>2013-04-25T10:32:37.000Z</time>
      </trkpt>
      <trkpt lat="44.89098" lon="0.26241">
        <ele>106.59999847412</ele>
        <time>2013-04-25T10:32:40.000Z</time>
      </trkpt>
      <trkpt lat="44.891" lon="0.26235">
        <ele>106.40000152588</ele>
        <time>2013-04-25T10:32:42.000Z</time>
      </trkpt>
      <trkpt lat="44.89109" lon="0.26218">
        <ele>105.80000305176</ele>
        <time>2013-04-25T10:32:49.000Z</time>
      </trkpt>
      <trkpt lat="44.89119" lon="0.26199">
        <ele>105.40000152588</ele>
        <time>2013-04-25T10:32:56.000Z</time>
      </trkpt>
      <trkpt lat="44.8912" lon="0.26196">
        <ele>105.40000152588</ele>
        <time>2013-04-25T10:32:57.000Z</time>
      </trkpt>
      <trkpt lat="44.8913" lon="0.26181">
        <ele>105.40000152588</ele>
        <time>2013-04-25T10:33:03.000Z</time>
      </trkpt>
      <trkpt lat="44.89134" lon="0.26177">
        <ele>105.59999847412</ele>
        <time>2013-04-25T10:33:05.000Z</time>
      </trkpt>
      <trkpt lat="44.8914" lon="0.2617">
        <ele>105.59999847412</ele>
        <time>2013-04-25T10:33:08.000Z</time>
      </trkpt>
      <trkpt lat="44.89148" lon="0.2616">
        <ele>105.59999847412</ele>
        <time>2013-04-25T10:33:12.000Z</time>
      </trkpt>
      <trkpt lat="44.89152" lon="0.26155">
        <ele>105.59999847412</ele>
        <time>2013-04-25T10:33:14.000Z</time>
      </trkpt>
      <trkpt lat="44.89163" lon="0.26141">
        <ele>105.80000305176</ele>
        <time>2013-04-25T10:33:19.000Z</time>
      </trkpt>
      <trkpt lat="44.89173" lon="0.26126">
        <ele>105.40000152588</ele>
        <time>2013-04-25T10:33:24.000Z</time>
      </trkpt>
      <trkpt lat="44.89177" lon="0.2612">
        <ele>105.19999694824</ele>
        <time>2013-04-25T10:33:26.000Z</time>
      </trkpt>
      <trkpt lat="44.89184" lon="0.2611">
        <ele>105</ele>
        <time>2013-04-25T10:33:29.000Z</time>
      </trkpt>
      <trkpt lat="44.89189" lon="0.261">
        <ele>104.80000305176</ele>
        <time>2013-04-25T10:33:32.000Z</time>
      </trkpt>
      <trkpt lat="44.89191" lon="0.26097">
        <ele>104.80000305176</ele>
        <time>2013-04-25T10:33:33.000Z</time>
      </trkpt>
      <trkpt lat="44.89204" lon="0.26079">
        <ele>104.59999847412</ele>
        <time>2013-04-25T10:33:39.000Z</time>
      </trkpt>
      <trkpt lat="44.89214" lon="0.26064">
        <ele>104</ele>
        <time>2013-04-25T10:33:44.000Z</time>
      </trkpt>
      <trkpt lat="44.89219" lon="0.26058">
        <ele>104</ele>
        <time>2013-04-25T10:33:46.000Z</time>
      </trkpt>
      <trkpt lat="44.89225" lon="0.2605">
        <ele>104</ele>
        <time>2013-04-25T10:33:49.000Z</time>
      </trkpt>
      <trkpt lat="44.89233" lon="0.26039">
        <ele>104</ele>
        <time>2013-04-25T10:33:53.000Z</time>
      </trkpt>
      <trkpt lat="44.89239" lon="0.26032">
        <ele>104.40000152588</ele>
        <time>2013-04-25T10:33:56.000Z</time>
      </trkpt>
      <trkpt lat="44.89249" lon="0.26022">
        <ele>105</ele>
        <time>2013-04-25T10:34:00.000Z</time>
      </trkpt>
      <trkpt lat="44.89251" lon="0.26019">
        <ele>105.19999694824</ele>
        <time>2013-04-25T10:34:01.000Z</time>
      </trkpt>
      <trkpt lat="44.89259" lon="0.26008">
        <ele>105</ele>
        <time>2013-04-25T10:34:05.000Z</time>
      </trkpt>
      <trkpt lat="44.89263" lon="0.26002">
        <ele>105</ele>
        <time>2013-04-25T10:34:07.000Z</time>
      </trkpt>
      <trkpt lat="44.89269" lon="0.25993">
        <ele>105</ele>
        <time>2013-04-25T10:34:10.000Z</time>
      </trkpt>
      <trkpt lat="44.89275" lon="0.25983">
        <ele>105</ele>
        <time>2013-04-25T10:34:13.000Z</time>
      </trkpt>
      <trkpt lat="44.8928" lon="0.25973">
        <ele>105</ele>
        <time>2013-04-25T10:34:16.000Z</time>
      </trkpt>
      <trkpt lat="44.89286" lon="0.25959">
        <ele>105.19999694824</ele>
        <time>2013-04-25T10:34:20.000Z</time>
      </trkpt>
      <trkpt lat="44.89289" lon="0.25952">
        <ele>105.19999694824</ele>
        <time>2013-04-25T10:34:22.000Z</time>
      </trkpt>
      <trkpt lat="44.89295" lon="0.25935">
        <ele>105.59999847412</ele>
        <time>2013-04-25T10:34:27.000Z</time>
      </trkpt>
      <trkpt lat="44.89298" lon="0.25927">
        <ele>105.80000305176</ele>
        <time>2013-04-25T10:34:29.000Z</time>
      </trkpt>
      <trkpt lat="44.89304" lon="0.25912">
        <ele>106.40000152588</ele>
        <time>2013-04-25T10:34:33.000Z</time>
      </trkpt>
      <trkpt lat="44.89307" lon="0.25905">
        <ele>106.40000152588</ele>
        <time>2013-04-25T10:34:35.000Z</time>
      </trkpt>
      <trkpt lat="44.89313" lon="0.25888">
        <ele>106.59999847412</ele>
        <time>2013-04-25T10:34:40.000Z</time>
      </trkpt>
      <trkpt lat="44.89316" lon="0.25881">
        <ele>106.80000305176</ele>
        <time>2013-04-25T10:34:42.000Z</time>
      </trkpt>
      <trkpt lat="44.89322" lon="0.25864">
        <ele>107.40000152588</ele>
        <time>2013-04-25T10:34:47.000Z</time>
      </trkpt>
      <trkpt lat="44.89325" lon="0.25857">
        <ele>107.59999847412</ele>
        <time>2013-04-25T10:34:49.000Z</time>
      </trkpt>
      <trkpt lat="44.89332" lon="0.25839">
        <ele>108.59999847412</ele>
        <time>2013-04-25T10:34:54.000Z</time>
      </trkpt>
      <trkpt lat="44.89342" lon="0.25818">
        <ele>108</ele>
        <time>2013-04-25T10:35:00.000Z</time>
      </trkpt>
      <trkpt lat="44.89343" lon="0.25815">
        <ele>107.80000305176</ele>
        <time>2013-04-25T10:35:01.000Z</time>
      </trkpt>
      <trkpt lat="44.89349" lon="0.258">
        <ele>107.19999694824</ele>
        <time>2013-04-25T10:35:05.000Z</time>
      </trkpt>
      <trkpt lat="44.89353" lon="0.2579">
        <ele>107</ele>
        <time>2013-04-25T10:35:08.000Z</time>
      </trkpt>
      <trkpt lat="44.89356" lon="0.25783">
        <ele>106.80000305176</ele>
        <time>2013-04-25T10:35:10.000Z</time>
      </trkpt>
      <trkpt lat="44.89359" lon="0.2577">
        <ele>106.59999847412</ele>
        <time>2013-04-25T10:46:54.000Z</time>
      </trkpt>
      <trkpt lat="44.89367" lon="0.25762">
        <ele>106.59999847412</ele>
        <time>2013-04-25T10:46:58.000Z</time>
      </trkpt>
      <trkpt lat="44.89367" lon="0.25759">
        <ele>106.59999847412</ele>
        <time>2013-04-25T10:47:01.000Z</time>
      </trkpt>
      <trkpt lat="44.89368" lon="0.25757">
        <ele>106.59999847412</ele>
        <time>2013-04-25T10:47:02.000Z</time>
      </trkpt>
      <trkpt lat="44.8937" lon="0.25754">
        <ele>106.80000305176</ele>
        <time>2013-04-25T10:47:03.000Z</time>
      </trkpt>
      <trkpt lat="44.89374" lon="0.25747">
        <ele>107</ele>
        <time>2013-04-25T10:47:05.000Z</time>
      </trkpt>
      <trkpt lat="44.89383" lon="0.25734">
        <ele>108</ele>
        <time>2013-04-25T10:47:09.000Z</time>
      </trkpt>
      <trkpt lat="44.89387" lon="0.25726">
        <ele>108.59999847412</ele>
        <time>2013-04-25T10:47:11.000Z</time>
      </trkpt>
      <trkpt lat="44.89393" lon="0.25709">
        <ele>110</ele>
        <time>2013-04-25T10:47:17.000Z</time>
      </trkpt>
      <trkpt lat="44.89401" lon="0.25696">
        <ele>111.19999694824</ele>
        <time>2013-04-25T10:47:22.000Z</time>
      </trkpt>
      <trkpt lat="44.89407" lon="0.25692">
        <ele>112.19999694824</ele>
        <time>2013-04-25T10:47:25.000Z</time>
      </trkpt>
      <trkpt lat="44.8941" lon="0.25691">
        <ele>112.40000152588</ele>
        <time>2013-04-25T10:47:26.000Z</time>
      </trkpt>
      <trkpt lat="44.89417" lon="0.25685">
        <ele>113.59999847412</ele>
        <time>2013-04-25T10:47:29.000Z</time>
      </trkpt>
      <trkpt lat="44.8942" lon="0.25683">
        <ele>113.80000305176</ele>
        <time>2013-04-25T10:47:30.000Z</time>
      </trkpt>
      <trkpt lat="44.89423" lon="0.25681">
        <ele>114</ele>
        <time>2013-04-25T10:47:31.000Z</time>
      </trkpt>
      <trkpt lat="44.89437" lon="0.25672">
        <ele>114.59999847412</ele>
        <time>2013-04-25T10:47:35.000Z</time>
      </trkpt>
      <trkpt lat="44.8944" lon="0.2567">
        <ele>114.59999847412</ele>
        <time>2013-04-25T10:47:36.000Z</time>
      </trkpt>
      <trkpt lat="44.89454" lon="0.25663">
        <ele>115.19999694824</ele>
        <time>2013-04-25T10:47:41.000Z</time>
      </trkpt>
      <trkpt lat="44.89457" lon="0.25661">
        <ele>115.19999694824</ele>
        <time>2013-04-25T10:47:42.000Z</time>
      </trkpt>
      <trkpt lat="44.89468" lon="0.25653">
        <ele>115.59999847412</ele>
        <time>2013-04-25T10:47:47.000Z</time>
      </trkpt>
      <trkpt lat="44.89473" lon="0.25649">
        <ele>115.80000305176</ele>
        <time>2013-04-25T10:47:49.000Z</time>
      </trkpt>
      <trkpt lat="44.89485" lon="0.25643">
        <ele>116</ele>
        <time>2013-04-25T10:47:53.000Z</time>
      </trkpt>
      <trkpt lat="44.8949" lon="0.25639">
        <ele>116</ele>
        <time>2013-04-25T10:47:55.000Z</time>
      </trkpt>
      <trkpt lat="44.89495" lon="0.25636">
        <ele>116</ele>
        <time>2013-04-25T10:47:57.000Z</time>
      </trkpt>
      <trkpt lat="44.89508" lon="0.25626">
        <ele>116.40000152588</ele>
        <time>2013-04-25T10:48:02.000Z</time>
      </trkpt>
      <trkpt lat="44.89516" lon="0.25612">
        <ele>117</ele>
        <time>2013-04-25T10:48:07.000Z</time>
      </trkpt>
      <trkpt lat="44.89516" lon="0.25602">
        <ele>117.19999694824</ele>
        <time>2013-04-25T10:48:10.000Z</time>
      </trkpt>
      <trkpt lat="44.89515" lon="0.25593">
        <ele>117.59999847412</ele>
        <time>2013-04-25T10:48:13.000Z</time>
      </trkpt>
      <trkpt lat="44.89514" lon="0.25587">
        <ele>117.80000305176</ele>
        <time>2013-04-25T10:48:17.000Z</time>
      </trkpt>
      <trkpt lat="44.89513" lon="0.25576">
        <ele>117.80000305176</ele>
        <time>2013-04-25T10:48:22.000Z</time>
      </trkpt>
      <trkpt lat="44.89506" lon="0.25562">
        <ele>117.40000152588</ele>
        <time>2013-04-25T10:48:27.000Z</time>
      </trkpt>
      <trkpt lat="44.89501" lon="0.2556">
        <ele>117.40000152588</ele>
        <time>2013-04-25T10:48:29.000Z</time>
      </trkpt>
      <trkpt lat="44.89494" lon="0.25559">
        <ele>117.59999847412</ele>
        <time>2013-04-25T10:48:32.000Z</time>
      </trkpt>
      <trkpt lat="44.89483" lon="0.25558">
        <ele>118</ele>
        <time>2013-04-25T10:48:36.000Z</time>
      </trkpt>
      <trkpt lat="44.89478" lon="0.25558">
        <ele>118.19999694824</ele>
        <time>2013-04-25T10:48:38.000Z</time>
      </trkpt>
      <trkpt lat="44.89472" lon="0.25555">
        <ele>118.40000152588</ele>
        <time>2013-04-25T10:48:40.000Z</time>
      </trkpt>
      <trkpt lat="44.89466" lon="0.25548">
        <ele>118.40000152588</ele>
        <time>2013-04-25T10:48:43.000Z</time>
      </trkpt>
      <trkpt lat="44.89456" lon="0.25543">
        <ele>118.80000305176</ele>
        <time>2013-04-25T10:48:47.000Z</time>
      </trkpt>
      <trkpt lat="44.89448" lon="0.25543">
        <ele>119.19999694824</ele>
        <time>2013-04-25T10:48:50.000Z</time>
      </trkpt>
      <trkpt lat="44.8944" lon="0.25543">
        <ele>119.40000152588</ele>
        <time>2013-04-25T10:48:53.000Z</time>
      </trkpt>
      <trkpt lat="44.89429" lon="0.25542">
        <ele>119.80000305176</ele>
        <time>2013-04-25T10:48:57.000Z</time>
      </trkpt>
      <trkpt lat="44.89425" lon="0.25542">
        <ele>120</ele>
        <time>2013-04-25T10:48:59.000Z</time>
      </trkpt>
      <trkpt lat="44.89412" lon="0.25541">
        <ele>120</ele>
        <time>2013-04-25T10:49:04.000Z</time>
      </trkpt>
      <trkpt lat="44.89404" lon="0.25538">
        <ele>119.19999694824</ele>
        <time>2013-04-25T10:49:07.000Z</time>
      </trkpt>
      <trkpt lat="44.89402" lon="0.25535">
        <ele>119</ele>
        <time>2013-04-25T10:49:08.000Z</time>
      </trkpt>
      <trkpt lat="44.894" lon="0.25525">
        <ele>118.80000305176</ele>
        <time>2013-04-25T10:49:11.000Z</time>
      </trkpt>
      <trkpt lat="44.894" lon="0.25521">
        <ele>118.80000305176</ele>
        <time>2013-04-25T10:49:12.000Z</time>
      </trkpt>
      <trkpt lat="44.894" lon="0.25498">
        <ele>118.59999847412</ele>
        <time>2013-04-25T10:49:18.000Z</time>
      </trkpt>
      <trkpt lat="44.894" lon="0.25494">
        <ele>118.59999847412</ele>
        <time>2013-04-25T10:49:19.000Z</time>
      </trkpt>
      <trkpt lat="44.89397" lon="0.25473">
        <ele>118</ele>
        <time>2013-04-25T10:49:24.000Z</time>
      </trkpt>
      <trkpt lat="44.89399" lon="0.25444">
        <ele>117.59999847412</ele>
        <time>2013-04-25T10:49:31.000Z</time>
      </trkpt>
      <trkpt lat="44.894" lon="0.2544">
        <ele>117.59999847412</ele>
        <time>2013-04-25T10:49:32.000Z</time>
      </trkpt>
      <trkpt lat="44.89401" lon="0.25418">
        <ele>117.19999694824</ele>
        <time>2013-04-25T10:49:38.000Z</time>
      </trkpt>
      <trkpt lat="44.894" lon="0.25411">
        <ele>117.19999694824</ele>
        <time>2013-04-25T10:49:40.000Z</time>
      </trkpt>
      <trkpt lat="44.894" lon="0.25392">
        <ele>117.40000152588</ele>
        <time>2013-04-25T10:49:45.000Z</time>
      </trkpt>
      <trkpt lat="44.894" lon="0.25384">
        <ele>117.40000152588</ele>
        <time>2013-04-25T10:49:47.000Z</time>
      </trkpt>
      <trkpt lat="44.89401" lon="0.25365">
        <ele>117.59999847412</ele>
        <time>2013-04-25T10:49:52.000Z</time>
      </trkpt>
      <trkpt lat="44.89401" lon="0.25361">
        <ele>117.80000305176</ele>
        <time>2013-04-25T10:49:53.000Z</time>
      </trkpt>
      <trkpt lat="44.894" lon="0.25342">
        <ele>117.80000305176</ele>
        <time>2013-04-25T10:49:59.000Z</time>
      </trkpt>
      <trkpt lat="44.894" lon="0.25339">
        <ele>117.80000305176</ele>
        <time>2013-04-25T10:50:00.000Z</time>
      </trkpt>
      <trkpt lat="44.89399" lon="0.25329">
        <ele>117.80000305176</ele>
        <time>2013-04-25T10:50:03.000Z</time>
      </trkpt>
      <trkpt lat="44.89398" lon="0.25321">
        <ele>117.59999847412</ele>
        <time>2013-04-25T10:50:05.000Z</time>
      </trkpt>
      <trkpt lat="44.89398" lon="0.25311">
        <ele>117.19999694824</ele>
        <time>2013-04-25T10:50:08.000Z</time>
      </trkpt>
      <trkpt lat="44.894" lon="0.25301">
        <ele>117</ele>
        <time>2013-04-25T10:50:11.000Z</time>
      </trkpt>
      <trkpt lat="44.89401" lon="0.25283">
        <ele>116.80000305176</ele>
        <time>2013-04-25T10:50:16.000Z</time>
      </trkpt>
      <trkpt lat="44.89402" lon="0.25265">
        <ele>116.40000152588</ele>
        <time>2013-04-25T10:50:21.000Z</time>
      </trkpt>
      <trkpt lat="44.89402" lon="0.25255">
        <ele>116.19999694824</ele>
        <time>2013-04-25T10:50:24.000Z</time>
      </trkpt>
      <trkpt lat="44.89403" lon="0.25249">
        <ele>116</ele>
        <time>2013-04-25T10:50:26.000Z</time>
      </trkpt>
      <trkpt lat="44.89404" lon="0.2523">
        <ele>115</ele>
        <time>2013-04-25T10:50:31.000Z</time>
      </trkpt>
      <trkpt lat="44.89404" lon="0.25223">
        <ele>114.59999847412</ele>
        <time>2013-04-25T10:50:33.000Z</time>
      </trkpt>
      <trkpt lat="44.89405" lon="0.25212">
        <ele>114.19999694824</ele>
        <time>2013-04-25T10:50:36.000Z</time>
      </trkpt>
      <trkpt lat="44.89406" lon="0.25205">
        <ele>113.80000305176</ele>
        <time>2013-04-25T10:50:38.000Z</time>
      </trkpt>
      <trkpt lat="44.89407" lon="0.25194">
        <ele>113.19999694824</ele>
        <time>2013-04-25T10:50:41.000Z</time>
      </trkpt>
      <trkpt lat="44.89407" lon="0.2518">
        <ele>112.40000152588</ele>
        <time>2013-04-25T10:50:45.000Z</time>
      </trkpt>
      <trkpt lat="44.89406" lon="0.25176">
        <ele>112.19999694824</ele>
        <time>2013-04-25T10:50:46.000Z</time>
      </trkpt>
      <trkpt lat="44.89397" lon="0.25164">
        <ele>111.19999694824</ele>
        <time>2013-04-25T10:50:50.000Z</time>
      </trkpt>
      <trkpt lat="44.89395" lon="0.2516">
        <ele>111</ele>
        <time>2013-04-25T10:50:51.000Z</time>
      </trkpt>
      <trkpt lat="44.89393" lon="0.2515">
        <ele>110.19999694824</ele>
        <time>2013-04-25T10:50:53.000Z</time>
      </trkpt>
      <trkpt lat="44.8939" lon="0.25135">
        <ele>109.19999694824</ele>
        <time>2013-04-25T10:50:57.000Z</time>
      </trkpt>
      <trkpt lat="44.89379" lon="0.25133">
        <ele>109</ele>
        <time>2013-04-25T10:51:01.000Z</time>
      </trkpt>
      <trkpt lat="44.89371" lon="0.25133">
        <ele>108.80000305176</ele>
        <time>2013-04-25T10:51:04.000Z</time>
      </trkpt>
      <trkpt lat="44.89361" lon="0.25132">
        <ele>108.59999847412</ele>
        <time>2013-04-25T10:51:08.000Z</time>
      </trkpt>
      <trkpt lat="44.89353" lon="0.25131">
        <ele>108.40000152588</ele>
        <time>2013-04-25T10:51:11.000Z</time>
      </trkpt>
      <trkpt lat="44.89346" lon="0.2513">
        <ele>108.40000152588</ele>
        <time>2013-04-25T10:51:14.000Z</time>
      </trkpt>
      <trkpt lat="44.89335" lon="0.25127">
        <ele>108</ele>
        <time>2013-04-25T10:51:19.000Z</time>
      </trkpt>
      <trkpt lat="44.89333" lon="0.25126">
        <ele>108</ele>
        <time>2013-04-25T10:51:20.000Z</time>
      </trkpt>
      <trkpt lat="44.89327" lon="0.2512">
        <ele>107.80000305176</ele>
        <time>2013-04-25T10:51:25.000Z</time>
      </trkpt>
      <trkpt lat="44.89327" lon="0.2512">
        <ele>107.80000305176</ele>
        <time>2013-04-25T10:51:26.000Z</time>
      </trkpt>
      <trkpt lat="44.89324" lon="0.25119">
        <ele>107.80000305176</ele>
        <time>2013-04-25T10:51:30.000Z</time>
      </trkpt>
      <trkpt lat="44.8932" lon="0.25116">
        <ele>107.80000305176</ele>
        <time>2013-04-25T10:51:33.000Z</time>
      </trkpt>
      <trkpt lat="44.8932" lon="0.25116">
        <ele>107.80000305176</ele>
        <time>2013-04-25T10:51:34.000Z</time>
      </trkpt>
      <trkpt lat="44.89317" lon="0.25114">
        <ele>107.80000305176</ele>
        <time>2013-04-25T10:51:46.000Z</time>
      </trkpt>
      <trkpt lat="44.89314" lon="0.25111">
        <ele>107.59999847412</ele>
        <time>2013-04-25T10:51:49.000Z</time>
      </trkpt>
      <trkpt lat="44.89313" lon="0.25109">
        <ele>107.59999847412</ele>
        <time>2013-04-25T10:51:50.000Z</time>
      </trkpt>
      <trkpt lat="44.89306" lon="0.251">
        <ele>107.40000152588</ele>
        <time>2013-04-25T10:51:54.000Z</time>
      </trkpt>
      <trkpt lat="44.89304" lon="0.25098">
        <ele>107.40000152588</ele>
        <time>2013-04-25T10:51:55.000Z</time>
      </trkpt>
      <trkpt lat="44.89298" lon="0.25092">
        <ele>107.19999694824</ele>
        <time>2013-04-25T10:51:58.000Z</time>
      </trkpt>
      <trkpt lat="44.89295" lon="0.25084">
        <ele>106.80000305176</ele>
        <time>2013-04-25T10:52:01.000Z</time>
      </trkpt>
      <trkpt lat="44.89295" lon="0.2508">
        <ele>106.59999847412</ele>
        <time>2013-04-25T10:52:02.000Z</time>
      </trkpt>
      <trkpt lat="44.89295" lon="0.25076">
        <ele>106.19999694824</ele>
        <time>2013-04-25T10:52:03.000Z</time>
      </trkpt>
      <trkpt lat="44.89294" lon="0.25067">
        <ele>105.59999847412</ele>
        <time>2013-04-25T10:52:05.000Z</time>
      </trkpt>
      <trkpt lat="44.89292" lon="0.25063">
        <ele>105.40000152588</ele>
        <time>2013-04-25T10:52:06.000Z</time>
      </trkpt>
      <trkpt lat="44.89285" lon="0.25056">
        <ele>104.80000305176</ele>
        <time>2013-04-25T10:52:09.000Z</time>
      </trkpt>
      <trkpt lat="44.89281" lon="0.25056">
        <ele>104.80000305176</ele>
        <time>2013-04-25T10:52:11.000Z</time>
      </trkpt>
      <trkpt lat="44.89273" lon="0.25063">
        <ele>105.40000152588</ele>
        <time>2013-04-25T10:52:15.000Z</time>
      </trkpt>
      <trkpt lat="44.89268" lon="0.25067">
        <ele>105.80000305176</ele>
        <time>2013-04-25T10:52:18.000Z</time>
      </trkpt>
      <trkpt lat="44.89263" lon="0.25071">
        <ele>106.40000152588</ele>
        <time>2013-04-25T10:52:20.000Z</time>
      </trkpt>
      <trkpt lat="44.89256" lon="0.25088">
        <ele>108</ele>
        <time>2013-04-25T10:52:25.000Z</time>
      </trkpt>
      <trkpt lat="44.89248" lon="0.25107">
        <ele>108.80000305176</ele>
        <time>2013-04-25T10:52:30.000Z</time>
      </trkpt>
      <trkpt lat="44.89246" lon="0.2511">
        <ele>108.80000305176</ele>
        <time>2013-04-25T10:52:31.000Z</time>
      </trkpt>
      <trkpt lat="44.89238" lon="0.25126">
        <ele>109</ele>
        <time>2013-04-25T10:52:36.000Z</time>
      </trkpt>
      <trkpt lat="44.89232" lon="0.2513">
        <ele>108.80000305176</ele>
        <time>2013-04-25T10:52:38.000Z</time>
      </trkpt>
      <trkpt lat="44.89225" lon="0.25135">
        <ele>108.40000152588</ele>
        <time>2013-04-25T10:52:42.000Z</time>
      </trkpt>
      <trkpt lat="44.89216" lon="0.25143">
        <ele>108.40000152588</ele>
        <time>2013-04-25T10:52:46.000Z</time>
      </trkpt>
      <trkpt lat="44.89214" lon="0.25147">
        <ele>108.40000152588</ele>
        <time>2013-04-25T10:52:47.000Z</time>
      </trkpt>
      <trkpt lat="44.89205" lon="0.25156">
        <ele>108.40000152588</ele>
        <time>2013-04-25T10:52:51.000Z</time>
      </trkpt>
      <trkpt lat="44.89199" lon="0.25159">
        <ele>108.19999694824</ele>
        <time>2013-04-25T10:52:53.000Z</time>
      </trkpt>
      <trkpt lat="44.89189" lon="0.25158">
        <ele>107.59999847412</ele>
        <time>2013-04-25T10:52:56.000Z</time>
      </trkpt>
      <trkpt lat="44.8918" lon="0.25159">
        <ele>107</ele>
        <time>2013-04-25T10:52:59.000Z</time>
      </trkpt>
      <trkpt lat="44.89174" lon="0.2516">
        <ele>106.80000305176</ele>
        <time>2013-04-25T10:53:01.000Z</time>
      </trkpt>
      <trkpt lat="44.89164" lon="0.25161">
        <ele>106.19999694824</ele>
        <time>2013-04-25T10:53:05.000Z</time>
      </trkpt>
      <trkpt lat="44.89161" lon="0.2516">
        <ele>106</ele>
        <time>2013-04-25T10:53:06.000Z</time>
      </trkpt>
      <trkpt lat="44.89153" lon="0.25158">
        <ele>105.19999694824</ele>
        <time>2013-04-25T10:53:09.000Z</time>
      </trkpt>
      <trkpt lat="44.89141" lon="0.2515">
        <ele>103.59999847412</ele>
        <time>2013-04-25T10:53:13.000Z</time>
      </trkpt>
      <trkpt lat="44.89138" lon="0.25148">
        <ele>103.19999694824</ele>
        <time>2013-04-25T10:53:14.000Z</time>
      </trkpt>
      <trkpt lat="44.89129" lon="0.25138">
        <ele>101.80000305176</ele>
        <time>2013-04-25T10:53:18.000Z</time>
      </trkpt>
      <trkpt lat="44.89126" lon="0.25134">
        <ele>101.19999694824</ele>
        <time>2013-04-25T10:53:20.000Z</time>
      </trkpt>
      <trkpt lat="44.89124" lon="0.25131">
        <ele>100.80000305176</ele>
        <time>2013-04-25T10:53:21.000Z</time>
      </trkpt>
      <trkpt lat="44.89123" lon="0.25127">
        <ele>100.40000152588</ele>
        <time>2013-04-25T10:53:22.000Z</time>
      </trkpt>
      <trkpt lat="44.89124" lon="0.25117">
        <ele>99.599998474121</ele>
        <time>2013-04-25T10:53:25.000Z</time>
      </trkpt>
      <trkpt lat="44.89124" lon="0.25115">
        <ele>99.400001525879</ele>
        <time>2013-04-25T10:53:26.000Z</time>
      </trkpt>
      <trkpt lat="44.89125" lon="0.25108">
        <ele>99</ele>
        <time>2013-04-25T10:53:28.000Z</time>
      </trkpt>
      <trkpt lat="44.89127" lon="0.25102">
        <ele>98.599998474121</ele>
        <time>2013-04-25T10:53:30.000Z</time>
      </trkpt>
      <trkpt lat="44.89127" lon="0.25087">
        <ele>97.400001525879</ele>
        <time>2013-04-25T10:53:34.000Z</time>
      </trkpt>
      <trkpt lat="44.89126" lon="0.25079">
        <ele>96.199996948242</ele>
        <time>2013-04-25T10:53:36.000Z</time>
      </trkpt>
      <trkpt lat="44.89128" lon="0.25063">
        <ele>93.400001525879</ele>
        <time>2013-04-25T10:53:40.000Z</time>
      </trkpt>
      <trkpt lat="44.89128" lon="0.2506">
        <ele>92.800003051758</ele>
        <time>2013-04-25T10:53:41.000Z</time>
      </trkpt>
      <trkpt lat="44.89126" lon="0.2505">
        <ele>90.800003051758</ele>
        <time>2013-04-25T10:53:44.000Z</time>
      </trkpt>
      <trkpt lat="44.89125" lon="0.25047">
        <ele>90</ele>
        <time>2013-04-25T10:53:45.000Z</time>
      </trkpt>
      <trkpt lat="44.89121" lon="0.25031">
        <ele>87</ele>
        <time>2013-04-25T10:53:49.000Z</time>
      </trkpt>
      <trkpt lat="44.89121" lon="0.25026">
        <ele>86</ele>
        <time>2013-04-25T10:53:50.000Z</time>
      </trkpt>
      <trkpt lat="44.89123" lon="0.25009">
        <ele>83</ele>
        <time>2013-04-25T10:53:54.000Z</time>
      </trkpt>
      <trkpt lat="44.89118" lon="0.24998">
        <ele>80.800003051758</ele>
        <time>2013-04-25T10:53:57.000Z</time>
      </trkpt>
      <trkpt lat="44.89113" lon="0.24992">
        <ele>79.599998474121</ele>
        <time>2013-04-25T10:53:59.000Z</time>
      </trkpt>
      <trkpt lat="44.89103" lon="0.24986">
        <ele>78.199996948242</ele>
        <time>2013-04-25T10:54:03.000Z</time>
      </trkpt>
      <trkpt lat="44.89092" lon="0.24983">
        <ele>77.199996948242</ele>
        <time>2013-04-25T10:54:07.000Z</time>
      </trkpt>
      <trkpt lat="44.89083" lon="0.24979">
        <ele>76.199996948242</ele>
        <time>2013-04-25T10:54:10.000Z</time>
      </trkpt>
      <trkpt lat="44.89078" lon="0.24976">
        <ele>75.800003051758</ele>
        <time>2013-04-25T10:54:12.000Z</time>
      </trkpt>
      <trkpt lat="44.89065" lon="0.24969">
        <ele>74.800003051758</ele>
        <time>2013-04-25T10:54:17.000Z</time>
      </trkpt>
      <trkpt lat="44.89062" lon="0.24967">
        <ele>74.400001525879</ele>
        <time>2013-04-25T10:54:18.000Z</time>
      </trkpt>
      <trkpt lat="44.8905" lon="0.24958">
        <ele>73.199996948242</ele>
        <time>2013-04-25T10:54:23.000Z</time>
      </trkpt>
      <trkpt lat="44.89047" lon="0.24957">
        <ele>73</ele>
        <time>2013-04-25T10:54:24.000Z</time>
      </trkpt>
      <trkpt lat="44.89029" lon="0.24954">
        <ele>72.400001525879</ele>
        <time>2013-04-25T10:54:29.000Z</time>
      </trkpt>
      <trkpt lat="44.89026" lon="0.24954">
        <ele>72.400001525879</ele>
        <time>2013-04-25T10:54:30.000Z</time>
      </trkpt>
      <trkpt lat="44.89014" lon="0.24953">
        <ele>72.199996948242</ele>
        <time>2013-04-25T10:54:34.000Z</time>
      </trkpt>
      <trkpt lat="44.89007" lon="0.24953">
        <ele>72</ele>
        <time>2013-04-25T10:54:36.000Z</time>
      </trkpt>
      <trkpt lat="44.88998" lon="0.24952">
        <ele>71.599998474121</ele>
        <time>2013-04-25T10:54:39.000Z</time>
      </trkpt>
      <trkpt lat="44.88987" lon="0.24953">
        <ele>70.800003051758</ele>
        <time>2013-04-25T10:54:42.000Z</time>
      </trkpt>
      <trkpt lat="44.88981" lon="0.24953">
        <ele>70.400001525879</ele>
        <time>2013-04-25T10:54:44.000Z</time>
      </trkpt>
      <trkpt lat="44.88969" lon="0.24955">
        <ele>69.599998474121</ele>
        <time>2013-04-25T10:54:48.000Z</time>
      </trkpt>
      <trkpt lat="44.88963" lon="0.24956">
        <ele>69.400001525879</ele>
        <time>2013-04-25T10:54:50.000Z</time>
      </trkpt>
      <trkpt lat="44.8895" lon="0.24956">
        <ele>68.199996948242</ele>
        <time>2013-04-25T10:54:55.000Z</time>
      </trkpt>
      <trkpt lat="44.88931" lon="0.24955">
        <ele>66.599998474121</ele>
        <time>2013-04-25T10:55:01.000Z</time>
      </trkpt>
      <trkpt lat="44.88918" lon="0.24956">
        <ele>65.800003051758</ele>
        <time>2013-04-25T10:55:05.000Z</time>
      </trkpt>
      <trkpt lat="44.88912" lon="0.24957">
        <ele>65</ele>
        <time>2013-04-25T10:55:07.000Z</time>
      </trkpt>
      <trkpt lat="44.88898" lon="0.24958">
        <ele>63.400001525879</ele>
        <time>2013-04-25T10:55:11.000Z</time>
      </trkpt>
      <trkpt lat="44.88892" lon="0.24957">
        <ele>62.599998474121</ele>
        <time>2013-04-25T10:55:13.000Z</time>
      </trkpt>
      <trkpt lat="44.88883" lon="0.24957">
        <ele>61.400001525879</ele>
        <time>2013-04-25T10:55:16.000Z</time>
      </trkpt>
      <trkpt lat="44.88873" lon="0.24956">
        <ele>60.200000762939</ele>
        <time>2013-04-25T10:55:19.000Z</time>
      </trkpt>
      <trkpt lat="44.88867" lon="0.24957">
        <ele>59.400001525879</ele>
        <time>2013-04-25T10:55:21.000Z</time>
      </trkpt>
      <trkpt lat="44.88855" lon="0.2496">
        <ele>58.400001525879</ele>
        <time>2013-04-25T10:55:25.000Z</time>
      </trkpt>
      <trkpt lat="44.88847" lon="0.24961">
        <ele>57.599998474121</ele>
        <time>2013-04-25T10:55:27.000Z</time>
      </trkpt>
      <trkpt lat="44.88836" lon="0.24965">
        <ele>56.799999237061</ele>
        <time>2013-04-25T10:55:31.000Z</time>
      </trkpt>
      <trkpt lat="44.88834" lon="0.24967">
        <ele>56.799999237061</ele>
        <time>2013-04-25T10:55:32.000Z</time>
      </trkpt>
      <trkpt lat="44.88819" lon="0.24974">
        <ele>55.799999237061</ele>
        <time>2013-04-25T10:55:37.000Z</time>
      </trkpt>
      <trkpt lat="44.88816" lon="0.24976">
        <ele>55.799999237061</ele>
        <time>2013-04-25T10:55:38.000Z</time>
      </trkpt>
      <trkpt lat="44.88802" lon="0.24987">
        <ele>55.200000762939</ele>
        <time>2013-04-25T10:55:43.000Z</time>
      </trkpt>
      <trkpt lat="44.88799" lon="0.24989">
        <ele>55</ele>
        <time>2013-04-25T10:55:44.000Z</time>
      </trkpt>
      <trkpt lat="44.88784" lon="0.25001">
        <ele>53.599998474121</ele>
        <time>2013-04-25T10:55:49.000Z</time>
      </trkpt>
      <trkpt lat="44.88768" lon="0.25016">
        <ele>51.200000762939</ele>
        <time>2013-04-25T10:55:55.000Z</time>
      </trkpt>
      <trkpt lat="44.88765" lon="0.25019">
        <ele>50.799999237061</ele>
        <time>2013-04-25T10:55:56.000Z</time>
      </trkpt>
      <trkpt lat="44.88751" lon="0.25029">
        <ele>48.400001525879</ele>
        <time>2013-04-25T10:56:01.000Z</time>
      </trkpt>
      <trkpt lat="44.88732" lon="0.25039">
        <ele>46.400001525879</ele>
        <time>2013-04-25T10:56:07.000Z</time>
      </trkpt>
      <trkpt lat="44.88717" lon="0.25044">
        <ele>44.599998474121</ele>
        <time>2013-04-25T10:56:12.000Z</time>
      </trkpt>
      <trkpt lat="44.88714" lon="0.25044">
        <ele>44.200000762939</ele>
        <time>2013-04-25T10:56:13.000Z</time>
      </trkpt>
      <trkpt lat="44.887" lon="0.25044">
        <ele>42.599998474121</ele>
        <time>2013-04-25T10:56:17.000Z</time>
      </trkpt>
      <trkpt lat="44.88696" lon="0.25044">
        <ele>42.200000762939</ele>
        <time>2013-04-25T10:56:18.000Z</time>
      </trkpt>
      <trkpt lat="44.88682" lon="0.25045">
        <ele>40.599998474121</ele>
        <time>2013-04-25T10:56:22.000Z</time>
      </trkpt>
      <trkpt lat="44.88675" lon="0.25046">
        <ele>39.799999237061</ele>
        <time>2013-04-25T10:56:24.000Z</time>
      </trkpt>
      <trkpt lat="44.88667" lon="0.25052">
        <ele>38.400001525879</ele>
        <time>2013-04-25T10:56:27.000Z</time>
      </trkpt>
      <trkpt lat="44.88663" lon="0.25064">
        <ele>37.599998474121</ele>
        <time>2013-04-25T10:56:30.000Z</time>
      </trkpt>
      <trkpt lat="44.88663" lon="0.25068">
        <ele>37.200000762939</ele>
        <time>2013-04-25T10:56:31.000Z</time>
      </trkpt>
      <trkpt lat="44.88661" lon="0.25089">
        <ele>36.200000762939</ele>
        <time>2013-04-25T10:56:36.000Z</time>
      </trkpt>
      <trkpt lat="44.88659" lon="0.25101">
        <ele>35.400001525879</ele>
        <time>2013-04-25T10:56:39.000Z</time>
      </trkpt>
      <trkpt lat="44.88658" lon="0.25114">
        <ele>34.799999237061</ele>
        <time>2013-04-25T10:56:42.000Z</time>
      </trkpt>
      <trkpt lat="44.88656" lon="0.25131">
        <ele>33.799999237061</ele>
        <time>2013-04-25T10:56:46.000Z</time>
      </trkpt>
      <trkpt lat="44.88654" lon="0.25141">
        <ele>33.200000762939</ele>
        <time>2013-04-25T10:56:48.000Z</time>
      </trkpt>
      <trkpt lat="44.88648" lon="0.25157">
        <ele>32.200000762939</ele>
        <time>2013-04-25T10:56:52.000Z</time>
      </trkpt>
      <trkpt lat="44.88646" lon="0.25165">
        <ele>31.799999237061</ele>
        <time>2013-04-25T10:56:54.000Z</time>
      </trkpt>
      <trkpt lat="44.88641" lon="0.25183">
        <ele>31.200000762939</ele>
        <time>2013-04-25T10:56:59.000Z</time>
      </trkpt>
      <trkpt lat="44.88639" lon="0.2519">
        <ele>31</ele>
        <time>2013-04-25T10:57:01.000Z</time>
      </trkpt>
      <trkpt lat="44.88633" lon="0.25208">
        <ele>30.60000038147</ele>
        <time>2013-04-25T10:57:06.000Z</time>
      </trkpt>
      <trkpt lat="44.88631" lon="0.25216">
        <ele>30.39999961853</ele>
        <time>2013-04-25T10:57:08.000Z</time>
      </trkpt>
      <trkpt lat="44.88626" lon="0.25239">
        <ele>30</ele>
        <time>2013-04-25T10:57:14.000Z</time>
      </trkpt>
      <trkpt lat="44.88625" lon="0.25243">
        <ele>30</ele>
        <time>2013-04-25T10:57:15.000Z</time>
      </trkpt>
      <trkpt lat="44.88624" lon="0.25264">
        <ele>30</ele>
        <time>2013-04-25T10:57:20.000Z</time>
      </trkpt>
      <trkpt lat="44.88623" lon="0.25268">
        <ele>30</ele>
        <time>2013-04-25T10:57:21.000Z</time>
      </trkpt>
      <trkpt lat="44.88621" lon="0.25285">
        <ele>29.799999237061</ele>
        <time>2013-04-25T10:57:25.000Z</time>
      </trkpt>
      <trkpt lat="44.8862" lon="0.25297">
        <ele>29.799999237061</ele>
        <time>2013-04-25T10:57:28.000Z</time>
      </trkpt>
      <trkpt lat="44.88618" lon="0.25313">
        <ele>29.799999237061</ele>
        <time>2013-04-25T10:57:32.000Z</time>
      </trkpt>
      <trkpt lat="44.88617" lon="0.25324">
        <ele>29.799999237061</ele>
        <time>2013-04-25T10:57:35.000Z</time>
      </trkpt>
      <trkpt lat="44.88616" lon="0.25335">
        <ele>29.799999237061</ele>
        <time>2013-04-25T10:57:38.000Z</time>
      </trkpt>
      <trkpt lat="44.88615" lon="0.25351">
        <ele>29.799999237061</ele>
        <time>2013-04-25T10:57:42.000Z</time>
      </trkpt>
      <trkpt lat="44.88614" lon="0.25364">
        <ele>29.799999237061</ele>
        <time>2013-04-25T10:57:45.000Z</time>
      </trkpt>
      <trkpt lat="44.88613" lon="0.25379">
        <ele>30</ele>
        <time>2013-04-25T10:57:49.000Z</time>
      </trkpt>
      <trkpt lat="44.88612" lon="0.25386">
        <ele>30</ele>
        <time>2013-04-25T10:57:51.000Z</time>
      </trkpt>
      <trkpt lat="44.88611" lon="0.25405">
        <ele>30.200000762939</ele>
        <time>2013-04-25T10:57:56.000Z</time>
      </trkpt>
      <trkpt lat="44.88611" lon="0.25413">
        <ele>30.200000762939</ele>
        <time>2013-04-25T10:57:58.000Z</time>
      </trkpt>
      <trkpt lat="44.88609" lon="0.25432">
        <ele>31</ele>
        <time>2013-04-25T10:58:03.000Z</time>
      </trkpt>
      <trkpt lat="44.88606" lon="0.25454">
        <ele>32</ele>
        <time>2013-04-25T10:58:08.000Z</time>
      </trkpt>
      <trkpt lat="44.88606" lon="0.25458">
        <ele>32.400001525879</ele>
        <time>2013-04-25T10:58:09.000Z</time>
      </trkpt>
      <trkpt lat="44.88603" lon="0.2547">
        <ele>32.799999237061</ele>
        <time>2013-04-25T10:58:12.000Z</time>
      </trkpt>
      <trkpt lat="44.886" lon="0.25482">
        <ele>33.400001525879</ele>
        <time>2013-04-25T10:58:15.000Z</time>
      </trkpt>
      <trkpt lat="44.886" lon="0.25489">
        <ele>33.799999237061</ele>
        <time>2013-04-25T10:58:17.000Z</time>
      </trkpt>
      <trkpt lat="44.88603" lon="0.25501">
        <ele>34.799999237061</ele>
        <time>2013-04-25T10:58:21.000Z</time>
      </trkpt>
      <trkpt lat="44.88605" lon="0.25507">
        <ele>35.200000762939</ele>
        <time>2013-04-25T10:58:23.000Z</time>
      </trkpt>
      <trkpt lat="44.88608" lon="0.25518">
        <ele>35.799999237061</ele>
        <time>2013-04-25T10:58:26.000Z</time>
      </trkpt>
      <trkpt lat="44.88608" lon="0.25533">
        <ele>36.200000762939</ele>
        <time>2013-04-25T10:58:30.000Z</time>
      </trkpt>
      <trkpt lat="44.88605" lon="0.25538">
        <ele>36</ele>
        <time>2013-04-25T10:58:32.000Z</time>
      </trkpt>
      <trkpt lat="44.88598" lon="0.25549">
        <ele>35.599998474121</ele>
        <time>2013-04-25T10:58:36.000Z</time>
      </trkpt>
      <trkpt lat="44.88598" lon="0.25552">
        <ele>35.599998474121</ele>
        <time>2013-04-25T10:58:37.000Z</time>
      </trkpt>
      <trkpt lat="44.88595" lon="0.25561">
        <ele>35.599998474121</ele>
        <time>2013-04-25T10:58:40.000Z</time>
      </trkpt>
      <trkpt lat="44.88592" lon="0.25569">
        <ele>35.400001525879</ele>
        <time>2013-04-25T10:58:43.000Z</time>
      </trkpt>
      <trkpt lat="44.88592" lon="0.25576">
        <ele>35.599998474121</ele>
        <time>2013-04-25T10:58:45.000Z</time>
      </trkpt>
      <trkpt lat="44.88592" lon="0.25578">
        <ele>35.799999237061</ele>
        <time>2013-04-25T10:58:46.000Z</time>
      </trkpt>
      <trkpt lat="44.88593" lon="0.25584">
        <ele>35.799999237061</ele>
        <time>2013-04-25T10:58:48.000Z</time>
      </trkpt>
      <trkpt lat="44.88594" lon="0.25593">
        <ele>35.599998474121</ele>
        <time>2013-04-25T10:58:51.000Z</time>
      </trkpt>
      <trkpt lat="44.88592" lon="0.25604">
        <ele>35</ele>
        <time>2013-04-25T10:58:54.000Z</time>
      </trkpt>
      <trkpt lat="44.8859" lon="0.25607">
        <ele>34.599998474121</ele>
        <time>2013-04-25T10:58:55.000Z</time>
      </trkpt>
      <trkpt lat="44.88582" lon="0.25609">
        <ele>33.599998474121</ele>
        <time>2013-04-25T10:58:59.000Z</time>
      </trkpt>
      <trkpt lat="44.88578" lon="0.25609">
        <ele>33.200000762939</ele>
        <time>2013-04-25T10:59:05.000Z</time>
      </trkpt>
      <trkpt lat="44.88574" lon="0.25608">
        <ele>32.799999237061</ele>
        <time>2013-04-25T10:59:09.000Z</time>
      </trkpt>
      <trkpt lat="44.88572" lon="0.25607">
        <ele>32.599998474121</ele>
        <time>2013-04-25T10:59:11.000Z</time>
      </trkpt>
      <trkpt lat="44.88559" lon="0.25602">
        <ele>31.60000038147</ele>
        <time>2013-04-25T10:59:19.000Z</time>
      </trkpt>
      <trkpt lat="44.88556" lon="0.25601">
        <ele>31.39999961853</ele>
        <time>2013-04-25T10:59:21.000Z</time>
      </trkpt>
      <trkpt lat="44.88546" lon="0.25598">
        <ele>30.39999961853</ele>
        <time>2013-04-25T10:59:25.000Z</time>
      </trkpt>
      <trkpt lat="44.88538" lon="0.25596">
        <ele>29.60000038147</ele>
        <time>2013-04-25T10:59:28.000Z</time>
      </trkpt>
      <trkpt lat="44.88529" lon="0.25594">
        <ele>28.799999237061</ele>
        <time>2013-04-25T10:59:31.000Z</time>
      </trkpt>
      <trkpt lat="44.8852" lon="0.25592">
        <ele>28</ele>
        <time>2013-04-25T10:59:34.000Z</time>
      </trkpt>
      <trkpt lat="44.88512" lon="0.25591">
        <ele>27</ele>
        <time>2013-04-25T10:59:37.000Z</time>
      </trkpt>
      <trkpt lat="44.885" lon="0.25594">
        <ele>25.799999237061</ele>
        <time>2013-04-25T10:59:41.000Z</time>
      </trkpt>
      <trkpt lat="44.88495" lon="0.25596">
        <ele>25.60000038147</ele>
        <time>2013-04-25T10:59:43.000Z</time>
      </trkpt>
      <trkpt lat="44.88481" lon="0.256">
        <ele>25.200000762939</ele>
        <time>2013-04-25T10:59:48.000Z</time>
      </trkpt>
      <trkpt lat="44.88465" lon="0.25607">
        <ele>24.60000038147</ele>
        <time>2013-04-25T10:59:54.000Z</time>
      </trkpt>
      <trkpt lat="44.88462" lon="0.25609">
        <ele>24.60000038147</ele>
        <time>2013-04-25T10:59:55.000Z</time>
      </trkpt>
      <trkpt lat="44.88449" lon="0.25614">
        <ele>24</ele>
        <time>2013-04-25T11:00:00.000Z</time>
      </trkpt>
      <trkpt lat="44.88444" lon="0.25616">
        <ele>24</ele>
        <time>2013-04-25T11:00:02.000Z</time>
      </trkpt>
      <trkpt lat="44.88436" lon="0.25619">
        <ele>23.60000038147</ele>
        <time>2013-04-25T11:00:05.000Z</time>
      </trkpt>
      <trkpt lat="44.88424" lon="0.25622">
        <ele>23.200000762939</ele>
        <time>2013-04-25T11:00:09.000Z</time>
      </trkpt>
      <trkpt lat="44.88419" lon="0.25623">
        <ele>23</ele>
        <time>2013-04-25T11:00:11.000Z</time>
      </trkpt>
      <trkpt lat="44.88404" lon="0.25625">
        <ele>23</ele>
        <time>2013-04-25T11:00:16.000Z</time>
      </trkpt>
      <trkpt lat="44.88399" lon="0.25625">
        <ele>23</ele>
        <time>2013-04-25T11:00:18.000Z</time>
      </trkpt>
      <trkpt lat="44.88384" lon="0.25624">
        <ele>23.200000762939</ele>
        <time>2013-04-25T11:00:23.000Z</time>
      </trkpt>
      <trkpt lat="44.88381" lon="0.25624">
        <ele>23.200000762939</ele>
        <time>2013-04-25T11:00:24.000Z</time>
      </trkpt>
      <trkpt lat="44.88364" lon="0.2562">
        <ele>23.39999961853</ele>
        <time>2013-04-25T11:00:30.000Z</time>
      </trkpt>
      <trkpt lat="44.88345" lon="0.25614">
        <ele>23.39999961853</ele>
        <time>2013-04-25T11:00:37.000Z</time>
      </trkpt>
      <trkpt lat="44.88325" lon="0.25607">
        <ele>23.39999961853</ele>
        <time>2013-04-25T11:00:44.000Z</time>
      </trkpt>
      <trkpt lat="44.88307" lon="0.25599">
        <ele>23.200000762939</ele>
        <time>2013-04-25T11:00:51.000Z</time>
      </trkpt>
      <trkpt lat="44.88288" lon="0.25593">
        <ele>22.799999237061</ele>
        <time>2013-04-25T11:00:58.000Z</time>
      </trkpt>
      <trkpt lat="44.88285" lon="0.25592">
        <ele>22.60000038147</ele>
        <time>2013-04-25T11:00:59.000Z</time>
      </trkpt>
      <trkpt lat="44.88269" lon="0.25586">
        <ele>22.39999961853</ele>
        <time>2013-04-25T11:01:05.000Z</time>
      </trkpt>
      <trkpt lat="44.88266" lon="0.25585">
        <ele>22.200000762939</ele>
        <time>2013-04-25T11:01:06.000Z</time>
      </trkpt>
      <trkpt lat="44.8825" lon="0.25577">
        <ele>22</ele>
        <time>2013-04-25T11:01:12.000Z</time>
      </trkpt>
      <trkpt lat="44.88247" lon="0.25576">
        <ele>22</ele>
        <time>2013-04-25T11:01:13.000Z</time>
      </trkpt>
      <trkpt lat="44.88231" lon="0.25566">
        <ele>21.799999237061</ele>
        <time>2013-04-25T11:01:19.000Z</time>
      </trkpt>
      <trkpt lat="44.88229" lon="0.25565">
        <ele>21.799999237061</ele>
        <time>2013-04-25T11:01:20.000Z</time>
      </trkpt>
      <trkpt lat="44.88214" lon="0.25553">
        <ele>21.60000038147</ele>
        <time>2013-04-25T11:01:26.000Z</time>
      </trkpt>
      <trkpt lat="44.88211" lon="0.25552">
        <ele>21.60000038147</ele>
        <time>2013-04-25T11:01:27.000Z</time>
      </trkpt>
      <trkpt lat="44.88197" lon="0.25539">
        <ele>21.39999961853</ele>
        <time>2013-04-25T11:01:33.000Z</time>
      </trkpt>
      <trkpt lat="44.88195" lon="0.25537">
        <ele>21.39999961853</ele>
        <time>2013-04-25T11:01:34.000Z</time>
      </trkpt>
      <trkpt lat="44.88181" lon="0.25522">
        <ele>21.200000762939</ele>
        <time>2013-04-25T11:01:40.000Z</time>
      </trkpt>
      <trkpt lat="44.88168" lon="0.25507">
        <ele>21</ele>
        <time>2013-04-25T11:01:46.000Z</time>
      </trkpt>
      <trkpt lat="44.88166" lon="0.25505">
        <ele>21</ele>
        <time>2013-04-25T11:01:47.000Z</time>
      </trkpt>
      <trkpt lat="44.88152" lon="0.25494">
        <ele>21.200000762939</ele>
        <time>2013-04-25T11:01:53.000Z</time>
      </trkpt>
      <trkpt lat="44.88149" lon="0.25492">
        <ele>21.200000762939</ele>
        <time>2013-04-25T11:01:54.000Z</time>
      </trkpt>
      <trkpt lat="44.88138" lon="0.25489">
        <ele>21.39999961853</ele>
        <time>2013-04-25T11:01:58.000Z</time>
      </trkpt>
      <trkpt lat="44.8813" lon="0.25487">
        <ele>21.39999961853</ele>
        <time>2013-04-25T11:02:01.000Z</time>
      </trkpt>
      <trkpt lat="44.88122" lon="0.25485">
        <ele>21.60000038147</ele>
        <time>2013-04-25T11:02:04.000Z</time>
      </trkpt>
      <trkpt lat="44.88111" lon="0.25482">
        <ele>21.60000038147</ele>
        <time>2013-04-25T11:02:08.000Z</time>
      </trkpt>
      <trkpt lat="44.88102" lon="0.25479">
        <ele>21.799999237061</ele>
        <time>2013-04-25T11:02:11.000Z</time>
      </trkpt>
      <trkpt lat="44.88092" lon="0.25475">
        <ele>21.799999237061</ele>
        <time>2013-04-25T11:02:15.000Z</time>
      </trkpt>
      <trkpt lat="44.88087" lon="0.25473">
        <ele>21.799999237061</ele>
        <time>2013-04-25T11:02:17.000Z</time>
      </trkpt>
      <trkpt lat="44.88073" lon="0.25469">
        <ele>22</ele>
        <time>2013-04-25T11:02:22.000Z</time>
      </trkpt>
      <trkpt lat="44.8807" lon="0.25469">
        <ele>22</ele>
        <time>2013-04-25T11:02:23.000Z</time>
      </trkpt>
      <trkpt lat="44.88054" lon="0.25464">
        <ele>22</ele>
        <time>2013-04-25T11:02:29.000Z</time>
      </trkpt>
      <trkpt lat="44.88034" lon="0.25462">
        <ele>22</ele>
        <time>2013-04-25T11:02:36.000Z</time>
      </trkpt>
      <trkpt lat="44.88017" lon="0.25463">
        <ele>22</ele>
        <time>2013-04-25T11:02:42.000Z</time>
      </trkpt>
      <trkpt lat="44.88014" lon="0.25463">
        <ele>22</ele>
        <time>2013-04-25T11:02:43.000Z</time>
      </trkpt>
      <trkpt lat="44.87998" lon="0.25465">
        <ele>21.799999237061</ele>
        <time>2013-04-25T11:02:49.000Z</time>
      </trkpt>
      <trkpt lat="44.87995" lon="0.25465">
        <ele>21.799999237061</ele>
        <time>2013-04-25T11:02:50.000Z</time>
      </trkpt>
      <trkpt lat="44.87982" lon="0.25468">
        <ele>21.799999237061</ele>
        <time>2013-04-25T11:02:55.000Z</time>
      </trkpt>
      <trkpt lat="44.87976" lon="0.25469">
        <ele>21.799999237061</ele>
        <time>2013-04-25T11:02:57.000Z</time>
      </trkpt>
      <trkpt lat="44.87962" lon="0.25472">
        <ele>21.60000038147</ele>
        <time>2013-04-25T11:03:02.000Z</time>
      </trkpt>
      <trkpt lat="44.87957" lon="0.25472">
        <ele>21.60000038147</ele>
        <time>2013-04-25T11:03:04.000Z</time>
      </trkpt>
      <trkpt lat="44.87946" lon="0.25468">
        <ele>21.39999961853</ele>
        <time>2013-04-25T11:03:08.000Z</time>
      </trkpt>
      <trkpt lat="44.87938" lon="0.25464">
        <ele>21.39999961853</ele>
        <time>2013-04-25T11:03:11.000Z</time>
      </trkpt>
      <trkpt lat="44.8793" lon="0.25459">
        <ele>21.39999961853</ele>
        <time>2013-04-25T11:03:14.000Z</time>
      </trkpt>
      <trkpt lat="44.8792" lon="0.25452">
        <ele>21.39999961853</ele>
        <time>2013-04-25T11:03:18.000Z</time>
      </trkpt>
      <trkpt lat="44.87915" lon="0.25449">
        <ele>21.39999961853</ele>
        <time>2013-04-25T11:03:20.000Z</time>
      </trkpt>
      <trkpt lat="44.87903" lon="0.25438">
        <ele>21.39999961853</ele>
        <time>2013-04-25T11:03:25.000Z</time>
      </trkpt>
      <trkpt lat="44.87901" lon="0.25436">
        <ele>21.200000762939</ele>
        <time>2013-04-25T11:03:26.000Z</time>
      </trkpt>
      <trkpt lat="44.87888" lon="0.25422">
        <ele>21.200000762939</ele>
        <time>2013-04-25T11:03:32.000Z</time>
      </trkpt>
      <trkpt lat="44.87873" lon="0.25405">
        <ele>21</ele>
        <time>2013-04-25T11:03:39.000Z</time>
      </trkpt>
      <trkpt lat="44.87858" lon="0.25387">
        <ele>20.799999237061</ele>
        <time>2013-04-25T11:03:46.000Z</time>
      </trkpt>
      <trkpt lat="44.87846" lon="0.25373">
        <ele>20.799999237061</ele>
        <time>2013-04-25T11:03:52.000Z</time>
      </trkpt>
      <trkpt lat="44.87844" lon="0.2537">
        <ele>20.799999237061</ele>
        <time>2013-04-25T11:03:53.000Z</time>
      </trkpt>
      <trkpt lat="44.87834" lon="0.25358">
        <ele>20.60000038147</ele>
        <time>2013-04-25T11:03:58.000Z</time>
      </trkpt>
      <trkpt lat="44.87829" lon="0.25353">
        <ele>20.60000038147</ele>
        <time>2013-04-25T11:04:00.000Z</time>
      </trkpt>
      <trkpt lat="44.87821" lon="0.25342">
        <ele>20.799999237061</ele>
        <time>2013-04-25T11:04:04.000Z</time>
      </trkpt>
      <trkpt lat="44.87815" lon="0.25333">
        <ele>20.799999237061</ele>
        <time>2013-04-25T11:04:07.000Z</time>
      </trkpt>
      <trkpt lat="44.87811" lon="0.25327">
        <ele>20.799999237061</ele>
        <time>2013-04-25T11:04:09.000Z</time>
      </trkpt>
      <trkpt lat="44.878" lon="0.25313">
        <ele>20.799999237061</ele>
        <time>2013-04-25T11:04:14.000Z</time>
      </trkpt>
      <trkpt lat="44.87799" lon="0.25309">
        <ele>20.799999237061</ele>
        <time>2013-04-25T11:04:15.000Z</time>
      </trkpt>
      <trkpt lat="44.87789" lon="0.2529">
        <ele>20.60000038147</ele>
        <time>2013-04-25T11:04:21.000Z</time>
      </trkpt>
      <trkpt lat="44.87788" lon="0.25286">
        <ele>20.60000038147</ele>
        <time>2013-04-25T11:04:22.000Z</time>
      </trkpt>
      <trkpt lat="44.8778" lon="0.25267">
        <ele>20.60000038147</ele>
        <time>2013-04-25T11:04:28.000Z</time>
      </trkpt>
      <trkpt lat="44.87779" lon="0.25264">
        <ele>20.60000038147</ele>
        <time>2013-04-25T11:04:29.000Z</time>
      </trkpt>
      <trkpt lat="44.87771" lon="0.25243">
        <ele>20.60000038147</ele>
        <time>2013-04-25T11:04:35.000Z</time>
      </trkpt>
      <trkpt lat="44.87762" lon="0.25225">
        <ele>20.799999237061</ele>
        <time>2013-04-25T11:04:41.000Z</time>
      </trkpt>
      <trkpt lat="44.8776" lon="0.25222">
        <ele>20.799999237061</ele>
        <time>2013-04-25T11:04:42.000Z</time>
      </trkpt>
      <trkpt lat="44.87747" lon="0.25214">
        <ele>21</ele>
        <time>2013-04-25T11:04:47.000Z</time>
      </trkpt>
      <trkpt lat="44.87742" lon="0.25213">
        <ele>21</ele>
        <time>2013-04-25T11:04:49.000Z</time>
      </trkpt>
      <trkpt lat="44.87732" lon="0.25205">
        <ele>21</ele>
        <time>2013-04-25T11:04:53.000Z</time>
      </trkpt>
      <trkpt lat="44.8773" lon="0.25194">
        <ele>21</ele>
        <time>2013-04-25T11:04:56.000Z</time>
      </trkpt>
      <trkpt lat="44.8773" lon="0.25191">
        <ele>21</ele>
        <time>2013-04-25T11:04:57.000Z</time>
      </trkpt>
      <trkpt lat="44.87728" lon="0.25169">
        <ele>21</ele>
        <time>2013-04-25T11:05:03.000Z</time>
      </trkpt>
      <trkpt lat="44.87727" lon="0.25143">
        <ele>21</ele>
        <time>2013-04-25T11:05:10.000Z</time>
      </trkpt>
      <trkpt lat="44.87727" lon="0.25139">
        <ele>21</ele>
        <time>2013-04-25T11:05:11.000Z</time>
      </trkpt>
      <trkpt lat="44.87727" lon="0.25117">
        <ele>21</ele>
        <time>2013-04-25T11:05:17.000Z</time>
      </trkpt>
      <trkpt lat="44.87726" lon="0.25113">
        <ele>21</ele>
        <time>2013-04-25T11:05:18.000Z</time>
      </trkpt>
      <trkpt lat="44.87725" lon="0.25091">
        <ele>21</ele>
        <time>2013-04-25T11:05:24.000Z</time>
      </trkpt>
      <trkpt lat="44.87725" lon="0.25069">
        <ele>21</ele>
        <time>2013-04-25T11:05:30.000Z</time>
      </trkpt>
      <trkpt lat="44.87725" lon="0.25065">
        <ele>21</ele>
        <time>2013-04-25T11:05:31.000Z</time>
      </trkpt>
      <trkpt lat="44.87727" lon="0.25045">
        <ele>21.200000762939</ele>
        <time>2013-04-25T11:05:36.000Z</time>
      </trkpt>
      <trkpt lat="44.87728" lon="0.25037">
        <ele>21.200000762939</ele>
        <time>2013-04-25T11:05:38.000Z</time>
      </trkpt>
      <trkpt lat="44.8773" lon="0.25013">
        <ele>21.39999961853</ele>
        <time>2013-04-25T11:05:44.000Z</time>
      </trkpt>
      <trkpt lat="44.8773" lon="0.25009">
        <ele>21.39999961853</ele>
        <time>2013-04-25T11:05:45.000Z</time>
      </trkpt>
      <trkpt lat="44.87734" lon="0.2499">
        <ele>21.60000038147</ele>
        <time>2013-04-25T11:05:50.000Z</time>
      </trkpt>
      <trkpt lat="44.87735" lon="0.24982">
        <ele>21.60000038147</ele>
        <time>2013-04-25T11:05:52.000Z</time>
      </trkpt>
      <trkpt lat="44.87738" lon="0.24964">
        <ele>21.60000038147</ele>
        <time>2013-04-25T11:05:57.000Z</time>
      </trkpt>
      <trkpt lat="44.8774" lon="0.24956">
        <ele>21.60000038147</ele>
        <time>2013-04-25T11:05:59.000Z</time>
      </trkpt>
      <trkpt lat="44.87743" lon="0.24933">
        <ele>21.799999237061</ele>
        <time>2013-04-25T11:06:05.000Z</time>
      </trkpt>
      <trkpt lat="44.87743" lon="0.24929">
        <ele>21.799999237061</ele>
        <time>2013-04-25T11:06:06.000Z</time>
      </trkpt>
      <trkpt lat="44.87746" lon="0.24907">
        <ele>21.799999237061</ele>
        <time>2013-04-25T11:06:12.000Z</time>
      </trkpt>
      <trkpt lat="44.87746" lon="0.24903">
        <ele>21.799999237061</ele>
        <time>2013-04-25T11:06:13.000Z</time>
      </trkpt>
      <trkpt lat="44.87748" lon="0.2488">
        <ele>21.799999237061</ele>
        <time>2013-04-25T11:06:19.000Z</time>
      </trkpt>
      <trkpt lat="44.87748" lon="0.24876">
        <ele>21.799999237061</ele>
        <time>2013-04-25T11:06:20.000Z</time>
      </trkpt>
      <trkpt lat="44.87749" lon="0.24853">
        <ele>21.799999237061</ele>
        <time>2013-04-25T11:06:26.000Z</time>
      </trkpt>
      <trkpt lat="44.8775" lon="0.2485">
        <ele>21.799999237061</ele>
        <time>2013-04-25T11:06:27.000Z</time>
      </trkpt>
      <trkpt lat="44.8775" lon="0.24827">
        <ele>21.799999237061</ele>
        <time>2013-04-25T11:06:33.000Z</time>
      </trkpt>
      <trkpt lat="44.8775" lon="0.24824">
        <ele>21.799999237061</ele>
        <time>2013-04-25T11:06:34.000Z</time>
      </trkpt>
      <trkpt lat="44.87749" lon="0.2481">
        <ele>21.799999237061</ele>
        <time>2013-04-25T11:06:38.000Z</time>
      </trkpt>
      <trkpt lat="44.87747" lon="0.24808">
        <ele>21.799999237061</ele>
        <time>2013-04-25T11:06:39.000Z</time>
      </trkpt>
      <trkpt lat="44.8774" lon="0.24805">
        <ele>21.799999237061</ele>
        <time>2013-04-25T11:06:42.000Z</time>
      </trkpt>
      <trkpt lat="44.87719" lon="0.24807">
        <ele>21.60000038147</ele>
        <time>2013-04-25T11:06:49.000Z</time>
      </trkpt>
      <trkpt lat="44.87703" lon="0.24809">
        <ele>21.39999961853</ele>
        <time>2013-04-25T11:06:55.000Z</time>
      </trkpt>
      <trkpt lat="44.877" lon="0.24809">
        <ele>21.39999961853</ele>
        <time>2013-04-25T11:06:56.000Z</time>
      </trkpt>
      <trkpt lat="44.87681" lon="0.24814">
        <ele>21.200000762939</ele>
        <time>2013-04-25T11:07:03.000Z</time>
      </trkpt>
      <trkpt lat="44.87664" lon="0.24817">
        <ele>21</ele>
        <time>2013-04-25T11:07:09.000Z</time>
      </trkpt>
      <trkpt lat="44.87662" lon="0.24817">
        <ele>21</ele>
        <time>2013-04-25T11:07:10.000Z</time>
      </trkpt>
      <trkpt lat="44.87645" lon="0.24822">
        <ele>20.799999237061</ele>
        <time>2013-04-25T11:07:16.000Z</time>
      </trkpt>
      <trkpt lat="44.87642" lon="0.24822">
        <ele>20.799999237061</ele>
        <time>2013-04-25T11:07:17.000Z</time>
      </trkpt>
      <trkpt lat="44.87628" lon="0.24825">
        <ele>20.60000038147</ele>
        <time>2013-04-25T11:07:22.000Z</time>
      </trkpt>
      <trkpt lat="44.87623" lon="0.24826">
        <ele>20.39999961853</ele>
        <time>2013-04-25T11:07:24.000Z</time>
      </trkpt>
      <trkpt lat="44.87613" lon="0.24831">
        <ele>20.200000762939</ele>
        <time>2013-04-25T11:07:28.000Z</time>
      </trkpt>
      <trkpt lat="44.87607" lon="0.24838">
        <ele>20.200000762939</ele>
        <time>2013-04-25T11:07:31.000Z</time>
      </trkpt>
      <trkpt lat="44.87604" lon="0.24844">
        <ele>20</ele>
        <time>2013-04-25T11:07:33.000Z</time>
      </trkpt>
      <trkpt lat="44.87596" lon="0.2486">
        <ele>19.799999237061</ele>
        <time>2013-04-25T11:07:38.000Z</time>
      </trkpt>
      <trkpt lat="44.87593" lon="0.24865">
        <ele>19.60000038147</ele>
        <time>2013-04-25T11:07:40.000Z</time>
      </trkpt>
      <trkpt lat="44.87581" lon="0.24872">
        <ele>19.39999961853</ele>
        <time>2013-04-25T11:07:45.000Z</time>
      </trkpt>
      <trkpt lat="44.87579" lon="0.24872">
        <ele>19.39999961853</ele>
        <time>2013-04-25T11:07:46.000Z</time>
      </trkpt>
      <trkpt lat="44.87566" lon="0.24874">
        <ele>19.60000038147</ele>
        <time>2013-04-25T11:07:51.000Z</time>
      </trkpt>
      <trkpt lat="44.8756" lon="0.24875">
        <ele>19.60000038147</ele>
        <time>2013-04-25T11:07:53.000Z</time>
      </trkpt>
      <trkpt lat="44.87543" lon="0.24872">
        <ele>19.799999237061</ele>
        <time>2013-04-25T11:07:59.000Z</time>
      </trkpt>
      <trkpt lat="44.87541" lon="0.24871">
        <ele>20</ele>
        <time>2013-04-25T11:08:00.000Z</time>
      </trkpt>
      <trkpt lat="44.87528" lon="0.24864">
        <ele>20</ele>
        <time>2013-04-25T11:08:05.000Z</time>
      </trkpt>
      <trkpt lat="44.87523" lon="0.24861">
        <ele>20</ele>
        <time>2013-04-25T11:08:07.000Z</time>
      </trkpt>
      <trkpt lat="44.8751" lon="0.24854">
        <ele>20</ele>
        <time>2013-04-25T11:08:12.000Z</time>
      </trkpt>
      <trkpt lat="44.87504" lon="0.24851">
        <ele>20</ele>
        <time>2013-04-25T11:08:14.000Z</time>
      </trkpt>
      <trkpt lat="44.87492" lon="0.24846">
        <ele>20</ele>
        <time>2013-04-25T11:08:19.000Z</time>
      </trkpt>
      <trkpt lat="44.87485" lon="0.24844">
        <ele>19.799999237061</ele>
        <time>2013-04-25T11:08:25.000Z</time>
      </trkpt>
      <trkpt lat="44.87484" lon="0.24843">
        <ele>19.799999237061</ele>
        <time>2013-04-25T11:08:26.000Z</time>
      </trkpt>
      <trkpt lat="44.87474" lon="0.2484">
        <ele>19.60000038147</ele>
        <time>2013-04-25T11:08:32.000Z</time>
      </trkpt>
      <trkpt lat="44.87468" lon="0.24839">
        <ele>19.60000038147</ele>
        <time>2013-04-25T11:08:34.000Z</time>
      </trkpt>
      <trkpt lat="44.87464" lon="0.24835">
        <ele>19.60000038147</ele>
        <time>2013-04-25T11:08:36.000Z</time>
      </trkpt>
      <trkpt lat="44.87463" lon="0.24833">
        <ele>19.39999961853</ele>
        <time>2013-04-25T11:08:37.000Z</time>
      </trkpt>
      <trkpt lat="44.87455" lon="0.24824">
        <ele>19.39999961853</ele>
        <time>2013-04-25T11:08:41.000Z</time>
      </trkpt>
      <trkpt lat="44.87453" lon="0.24821">
        <ele>19.60000038147</ele>
        <time>2013-04-25T11:08:42.000Z</time>
      </trkpt>
      <trkpt lat="44.87445" lon="0.2481">
        <ele>19.60000038147</ele>
        <time>2013-04-25T11:08:47.000Z</time>
      </trkpt>
      <trkpt lat="44.87445" lon="0.24807">
        <ele>19.60000038147</ele>
        <time>2013-04-25T11:08:52.000Z</time>
      </trkpt>
      <trkpt lat="44.87443" lon="0.24802">
        <ele>19.799999237061</ele>
        <time>2013-04-25T11:08:58.000Z</time>
      </trkpt>
      <trkpt lat="44.87442" lon="0.24801">
        <ele>19.799999237061</ele>
        <time>2013-04-25T11:08:59.000Z</time>
      </trkpt>
      <trkpt lat="44.87437" lon="0.24795">
        <ele>19.799999237061</ele>
        <time>2013-04-25T11:09:03.000Z</time>
      </trkpt>
      <trkpt lat="44.87436" lon="0.24794">
        <ele>19.799999237061</ele>
        <time>2013-04-25T11:09:04.000Z</time>
      </trkpt>
      <trkpt lat="44.8743" lon="0.24785">
        <ele>20</ele>
        <time>2013-04-25T11:09:13.000Z</time>
      </trkpt>
      <trkpt lat="44.8743" lon="0.24787">
        <ele>20</ele>
        <time>2013-04-25T11:09:16.000Z</time>
      </trkpt>
      <trkpt lat="44.8743" lon="0.24788">
        <ele>20</ele>
        <time>2013-04-25T11:09:17.000Z</time>
      </trkpt>
      <trkpt lat="44.87428" lon="0.24788">
        <ele>20</ele>
        <time>2013-04-25T11:09:18.000Z</time>
      </trkpt>
      <trkpt lat="44.87423" lon="0.24783">
        <ele>20</ele>
        <time>2013-04-25T11:09:23.000Z</time>
      </trkpt>
    </trkseg>
  </trk>
</gpx>